<?xml version='1.0' encoding='UTF-8'?><gpx version="1.1" creator="JPX - https://github.com/jenetics/jpx" xmlns="http://www.topografix.com/GPX/1/1"><trk><trkseg><trkpt lat="43.8516595" lon="11.1795546"><ele>65.0</ele><time>2026-04-04T05:36:25.938Z</time></trkpt><trkpt lat="43.8517518" lon="11.1795328"><ele>65.0</ele><time>2026-04-04T05:36:26.941Z</time></trkpt><trkpt lat="43.8518443" lon="11.1795241"><ele>65.0</ele><time>2026-04-04T05:36:27.947Z</time></trkpt><trkpt lat="43.8519427" lon="11.1795136"><ele>65.0</ele><time>2026-04-04T05:36:28.939Z</time></trkpt><trkpt lat="43.85204" lon="11.1795038"><ele>65.0</ele><time>2026-04-04T05:36:29.944Z</time></trkpt><trkpt lat="43.8521349" lon="11.1794865"><ele>65.4</ele><time>2026-04-04T05:36:30.942Z</time></trkpt><trkpt lat="43.8522409" lon="11.1794637"><ele>65.8</ele><time>2026-04-04T05:36:31.941Z</time></trkpt><trkpt lat="43.8523488" lon="11.17946"><ele>66.2</ele><time>2026-04-04T05:36:32.95Z</time></trkpt><trkpt lat="43.8524522" lon="11.1794419"><ele>66.6</ele><time>2026-04-04T05:36:33.942Z</time></trkpt><trkpt lat="43.8525542" lon="11.179429"><ele>67.0</ele><time>2026-04-04T05:36:34.95Z</time></trkpt><trkpt lat="43.8526639" lon="11.1794134"><ele>67.5</ele><time>2026-04-04T05:36:35.941Z</time></trkpt><trkpt lat="43.8527776" lon="11.1794022"><ele>68.0</ele><time>2026-04-04T05:36:36.945Z</time></trkpt><trkpt lat="43.8528912" lon="11.179395"><ele>68.5</ele><time>2026-04-04T05:36:37.945Z</time></trkpt><trkpt lat="43.8530043" lon="11.1793757"><ele>69.0</ele><time>2026-04-04T05:36:38.94Z</time></trkpt><trkpt lat="43.8531163" lon="11.1793623"><ele>69.0</ele><time>2026-04-04T05:36:39.955Z</time></trkpt><trkpt lat="43.8532332" lon="11.1793447"><ele>69.0</ele><time>2026-04-04T05:36:40.941Z</time></trkpt><trkpt lat="43.8533508" lon="11.1793227"><ele>69.0</ele><time>2026-04-04T05:36:41.942Z</time></trkpt><trkpt lat="43.8534671" lon="11.1793044"><ele>69.0</ele><time>2026-04-04T05:36:42.944Z</time></trkpt><trkpt lat="43.8535869" lon="11.1792895"><ele>70.0</ele><time>2026-04-04T05:36:43.945Z</time></trkpt><trkpt lat="43.8537079" lon="11.1792727"><ele>71.0</ele><time>2026-04-04T05:36:44.959Z</time></trkpt><trkpt lat="43.8538301" lon="11.1792556"><ele>72.0</ele><time>2026-04-04T05:36:45.949Z</time></trkpt><trkpt lat="43.8539491" lon="11.1792346"><ele>73.0</ele><time>2026-04-04T05:36:46.945Z</time></trkpt><trkpt lat="43.8540698" lon="11.1792135"><ele>73.0</ele><time>2026-04-04T05:36:47.943Z</time></trkpt><trkpt lat="43.8541879" lon="11.1792033"><ele>73.0</ele><time>2026-04-04T05:36:48.947Z</time></trkpt><trkpt lat="43.8543101" lon="11.1791899"><ele>73.0</ele><time>2026-04-04T05:36:49.943Z</time></trkpt><trkpt lat="43.8544337" lon="11.1791769"><ele>73.0</ele><time>2026-04-04T05:36:50.941Z</time></trkpt><trkpt lat="43.8545592" lon="11.1791679"><ele>73.0</ele><time>2026-04-04T05:36:51.959Z</time></trkpt><trkpt lat="43.8546846" lon="11.1791702"><ele>73.0</ele><time>2026-04-04T05:36:52.939Z</time></trkpt><trkpt lat="43.8548046" lon="11.1792023"><ele>73.0</ele><time>2026-04-04T05:36:53.95Z</time></trkpt><trkpt lat="43.8549283" lon="11.1792407"><ele>73.0</ele><time>2026-04-04T05:36:54.943Z</time></trkpt><trkpt lat="43.8550632" lon="11.1792662"><ele>73.25</ele><time>2026-04-04T05:36:55.939Z</time></trkpt><trkpt lat="43.8551949" lon="11.1792597"><ele>73.5</ele><time>2026-04-04T05:36:56.948Z</time></trkpt><trkpt lat="43.8553151" lon="11.1792349"><ele>73.75</ele><time>2026-04-04T05:36:57.948Z</time></trkpt><trkpt lat="43.8554421" lon="11.1791988"><ele>74.0</ele><time>2026-04-04T05:36:58.946Z</time></trkpt><trkpt lat="43.8555676" lon="11.1791581"><ele>74.0</ele><time>2026-04-04T05:36:59.948Z</time></trkpt><trkpt lat="43.8556941" lon="11.1791113"><ele>74.0</ele><time>2026-04-04T05:37:00.946Z</time></trkpt><trkpt lat="43.8558229" lon="11.1790621"><ele>74.0</ele><time>2026-04-04T05:37:01.937Z</time></trkpt><trkpt lat="43.8559494" lon="11.179021"><ele>74.0</ele><time>2026-04-04T05:37:02.947Z</time></trkpt><trkpt lat="43.8560796" lon="11.1789834"><ele>74.0</ele><time>2026-04-04T05:37:03.942Z</time></trkpt><trkpt lat="43.856213" lon="11.1789536"><ele>74.0</ele><time>2026-04-04T05:37:04.944Z</time></trkpt><trkpt lat="43.8563407" lon="11.1789194"><ele>74.0</ele><time>2026-04-04T05:37:05.94Z</time></trkpt><trkpt lat="43.8564698" lon="11.1788741"><ele>74.0</ele><time>2026-04-04T05:37:06.943Z</time></trkpt><trkpt lat="43.8565942" lon="11.1788205"><ele>74.0</ele><time>2026-04-04T05:37:07.94Z</time></trkpt><trkpt lat="43.8567189" lon="11.1787728"><ele>74.0</ele><time>2026-04-04T05:37:08.942Z</time></trkpt><trkpt lat="43.856844" lon="11.1787234"><ele>74.0</ele><time>2026-04-04T05:37:09.944Z</time></trkpt><trkpt lat="43.8569623" lon="11.1786806"><ele>74.0</ele><time>2026-04-04T05:37:10.944Z</time></trkpt><trkpt lat="43.8570845" lon="11.1786404"><ele>74.5</ele><time>2026-04-04T05:37:11.949Z</time></trkpt><trkpt lat="43.8572042" lon="11.1785986"><ele>75.0</ele><time>2026-04-04T05:37:12.949Z</time></trkpt><trkpt lat="43.8573202" lon="11.1785548"><ele>75.5</ele><time>2026-04-04T05:37:13.944Z</time></trkpt><trkpt lat="43.857431" lon="11.1784983"><ele>76.0</ele><time>2026-04-04T05:37:14.939Z</time></trkpt><trkpt lat="43.8575429" lon="11.178429"><ele>76.25</ele><time>2026-04-04T05:37:15.942Z</time></trkpt><trkpt lat="43.8576485" lon="11.1783389"><ele>76.5</ele><time>2026-04-04T05:37:16.934Z</time></trkpt><trkpt lat="43.8577474" lon="11.17824"><ele>76.75</ele><time>2026-04-04T05:37:17.946Z</time></trkpt><trkpt lat="43.857838" lon="11.1781073"><ele>77.0</ele><time>2026-04-04T05:37:18.937Z</time></trkpt><trkpt lat="43.8579226" lon="11.1779685"><ele>77.0</ele><time>2026-04-04T05:37:19.939Z</time></trkpt><trkpt lat="43.857994" lon="11.1778272"><ele>77.0</ele><time>2026-04-04T05:37:20.936Z</time></trkpt><trkpt lat="43.8580644" lon="11.1776661"><ele>77.0</ele><time>2026-04-04T05:37:21.958Z</time></trkpt><trkpt lat="43.8581337" lon="11.1775111"><ele>77.0</ele><time>2026-04-04T05:37:22.943Z</time></trkpt><trkpt lat="43.8581986" lon="11.1773463"><ele>77.0</ele><time>2026-04-04T05:37:23.942Z</time></trkpt><trkpt lat="43.8582642" lon="11.17718"><ele>77.0</ele><time>2026-04-04T05:37:24.942Z</time></trkpt><trkpt lat="43.8583368" lon="11.1770089"><ele>77.0</ele><time>2026-04-04T05:37:25.944Z</time></trkpt><trkpt lat="43.8584052" lon="11.1768323"><ele>77.0</ele><time>2026-04-04T05:37:26.95Z</time></trkpt><trkpt lat="43.8584694" lon="11.1766544"><ele>77.0</ele><time>2026-04-04T05:37:27.94Z</time></trkpt><trkpt lat="43.8585322" lon="11.1764832"><ele>77.0</ele><time>2026-04-04T05:37:28.943Z</time></trkpt><trkpt lat="43.8585904" lon="11.1763248"><ele>77.0</ele><time>2026-04-04T05:37:29.938Z</time></trkpt><trkpt lat="43.8586438" lon="11.1761827"><ele>77.0</ele><time>2026-04-04T05:37:30.934Z</time></trkpt><trkpt lat="43.8587026" lon="11.1760664"><ele>77.0</ele><time>2026-04-04T05:37:31.958Z</time></trkpt><trkpt lat="43.8587646" lon="11.1759651"><ele>77.0</ele><time>2026-04-04T05:37:32.965Z</time></trkpt><trkpt lat="43.8588278" lon="11.1758731"><ele>77.0</ele><time>2026-04-04T05:37:33.968Z</time></trkpt><trkpt lat="43.8588704" lon="11.1757539"><ele>77.0</ele><time>2026-04-04T05:37:34.934Z</time></trkpt><trkpt lat="43.8588851" lon="11.1755932"><ele>77.0</ele><time>2026-04-04T05:37:35.954Z</time></trkpt><trkpt lat="43.8589139" lon="11.1754239"><ele>76.75</ele><time>2026-04-04T05:37:36.959Z</time></trkpt><trkpt lat="43.8589702" lon="11.1752625"><ele>76.5</ele><time>2026-04-04T05:37:37.938Z</time></trkpt><trkpt lat="43.8590306" lon="11.1750991"><ele>76.25</ele><time>2026-04-04T05:37:38.952Z</time></trkpt><trkpt lat="43.8590866" lon="11.1749254"><ele>76.0</ele><time>2026-04-04T05:37:39.963Z</time></trkpt><trkpt lat="43.859155" lon="11.1747625"><ele>75.75</ele><time>2026-04-04T05:37:40.959Z</time></trkpt><trkpt lat="43.8592136" lon="11.1746032"><ele>75.5</ele><time>2026-04-04T05:37:41.961Z</time></trkpt><trkpt lat="43.8592743" lon="11.1744412"><ele>75.25</ele><time>2026-04-04T05:37:42.958Z</time></trkpt><trkpt lat="43.8593436" lon="11.1742706"><ele>75.0</ele><time>2026-04-04T05:37:44.041Z</time></trkpt><trkpt lat="43.8594153" lon="11.1741144"><ele>74.5</ele><time>2026-04-04T05:37:44.955Z</time></trkpt><trkpt lat="43.8594856" lon="11.1739644"><ele>74.0</ele><time>2026-04-04T05:37:45.963Z</time></trkpt><trkpt lat="43.8595503" lon="11.1738141"><ele>73.5</ele><time>2026-04-04T05:37:46.997Z</time></trkpt><trkpt lat="43.85963" lon="11.173656"><ele>73.0</ele><time>2026-04-04T05:37:47.962Z</time></trkpt><trkpt lat="43.8597083" lon="11.1734992"><ele>73.0</ele><time>2026-04-04T05:37:48.96Z</time></trkpt><trkpt lat="43.8597896" lon="11.1733457"><ele>73.0</ele><time>2026-04-04T05:37:49.959Z</time></trkpt><trkpt lat="43.8598755" lon="11.1731978"><ele>73.0</ele><time>2026-04-04T05:37:50.962Z</time></trkpt><trkpt lat="43.8599575" lon="11.1730462"><ele>73.0</ele><time>2026-04-04T05:37:51.964Z</time></trkpt><trkpt lat="43.8600369" lon="11.172896"><ele>73.0</ele><time>2026-04-04T05:37:53.044Z</time></trkpt><trkpt lat="43.8601141" lon="11.1727456"><ele>73.0</ele><time>2026-04-04T05:37:54.031Z</time></trkpt><trkpt lat="43.8601923" lon="11.1725963"><ele>73.0</ele><time>2026-04-04T05:37:54.954Z</time></trkpt><trkpt lat="43.8602676" lon="11.1724405"><ele>73.0</ele><time>2026-04-04T05:37:55.961Z</time></trkpt><trkpt lat="43.8603449" lon="11.1722793"><ele>72.75</ele><time>2026-04-04T05:37:56.947Z</time></trkpt><trkpt lat="43.8604213" lon="11.1721171"><ele>72.5</ele><time>2026-04-04T05:37:58.032Z</time></trkpt><trkpt lat="43.8605073" lon="11.1719543"><ele>72.25</ele><time>2026-04-04T05:37:59.035Z</time></trkpt><trkpt lat="43.8605842" lon="11.171801"><ele>72.0</ele><time>2026-04-04T05:37:59.97Z</time></trkpt><trkpt lat="43.8606616" lon="11.1716589"><ele>72.0</ele><time>2026-04-04T05:38:00.951Z</time></trkpt><trkpt lat="43.8607454" lon="11.171525"><ele>72.0</ele><time>2026-04-04T05:38:01.965Z</time></trkpt><trkpt lat="43.8608394" lon="11.1714057"><ele>72.0</ele><time>2026-04-04T05:38:03.044Z</time></trkpt><trkpt lat="43.8609532" lon="11.1713068"><ele>72.0</ele><time>2026-04-04T05:38:04.032Z</time></trkpt><trkpt lat="43.861075" lon="11.1712155"><ele>71.25</ele><time>2026-04-04T05:38:04.955Z</time></trkpt><trkpt lat="43.8611971" lon="11.1711243"><ele>70.5</ele><time>2026-04-04T05:38:05.965Z</time></trkpt><trkpt lat="43.8613138" lon="11.1710287"><ele>69.75</ele><time>2026-04-04T05:38:06.952Z</time></trkpt><trkpt lat="43.861436" lon="11.1709382"><ele>69.0</ele><time>2026-04-04T05:38:08.053Z</time></trkpt><trkpt lat="43.8615653" lon="11.1708327"><ele>69.0</ele><time>2026-04-04T05:38:09.033Z</time></trkpt><trkpt lat="43.8616984" lon="11.1707292"><ele>69.0</ele><time>2026-04-04T05:38:09.971Z</time></trkpt><trkpt lat="43.8618271" lon="11.1706277"><ele>69.0</ele><time>2026-04-04T05:38:11.038Z</time></trkpt><trkpt lat="43.8619422" lon="11.1705266"><ele>69.0</ele><time>2026-04-04T05:38:12.039Z</time></trkpt><trkpt lat="43.8620432" lon="11.1704298"><ele>68.60000000000001</ele><time>2026-04-04T05:38:13.034Z</time></trkpt><trkpt lat="43.8621308" lon="11.1703458"><ele>68.2</ele><time>2026-04-04T05:38:14.031Z</time></trkpt><trkpt lat="43.8622167" lon="11.1702814"><ele>67.80000000000001</ele><time>2026-04-04T05:38:14.98Z</time></trkpt><trkpt lat="43.8623189" lon="11.1702634"><ele>67.4</ele><time>2026-04-04T05:38:15.987Z</time></trkpt><trkpt lat="43.8624275" lon="11.1702537"><ele>67.0</ele><time>2026-04-04T05:38:17.017Z</time></trkpt><trkpt lat="43.862507" lon="11.1702178"><ele>67.0</ele><time>2026-04-04T05:38:18.04Z</time></trkpt><trkpt lat="43.8625704" lon="11.1700953"><ele>67.0</ele><time>2026-04-04T05:38:18.942Z</time></trkpt><trkpt lat="43.8626289" lon="11.1699528"><ele>67.0</ele><time>2026-04-04T05:38:19.97Z</time></trkpt><trkpt lat="43.8626524" lon="11.1698058"><ele>67.0</ele><time>2026-04-04T05:38:20.953Z</time></trkpt><trkpt lat="43.8627229" lon="11.1696708"><ele>67.75</ele><time>2026-04-04T05:38:21.965Z</time></trkpt><trkpt lat="43.8628333" lon="11.1695507"><ele>68.5</ele><time>2026-04-04T05:38:22.952Z</time></trkpt><trkpt lat="43.8629389" lon="11.1694428"><ele>69.25</ele><time>2026-04-04T05:38:23.956Z</time></trkpt><trkpt lat="43.8630545" lon="11.1693483"><ele>70.0</ele><time>2026-04-04T05:38:24.968Z</time></trkpt><trkpt lat="43.8631794" lon="11.1692589"><ele>70.0</ele><time>2026-04-04T05:38:25.959Z</time></trkpt><trkpt lat="43.8632994" lon="11.169184"><ele>70.0</ele><time>2026-04-04T05:38:26.953Z</time></trkpt><trkpt lat="43.8634321" lon="11.1691272"><ele>70.0</ele><time>2026-04-04T05:38:28.01Z</time></trkpt><trkpt lat="43.8635726" lon="11.1690716"><ele>70.0</ele><time>2026-04-04T05:38:28.962Z</time></trkpt><trkpt lat="43.8637182" lon="11.1690354"><ele>69.25</ele><time>2026-04-04T05:38:29.963Z</time></trkpt><trkpt lat="43.863863" lon="11.1689997"><ele>68.5</ele><time>2026-04-04T05:38:30.963Z</time></trkpt><trkpt lat="43.8640049" lon="11.1689629"><ele>67.75</ele><time>2026-04-04T05:38:31.965Z</time></trkpt><trkpt lat="43.8641383" lon="11.1689139"><ele>67.0</ele><time>2026-04-04T05:38:32.95Z</time></trkpt><trkpt lat="43.8642757" lon="11.168853"><ele>67.5</ele><time>2026-04-04T05:38:33.941Z</time></trkpt><trkpt lat="43.8644118" lon="11.1687974"><ele>68.0</ele><time>2026-04-04T05:38:34.961Z</time></trkpt><trkpt lat="43.8645415" lon="11.1687456"><ele>68.5</ele><time>2026-04-04T05:38:35.955Z</time></trkpt><trkpt lat="43.8646578" lon="11.1686895"><ele>69.0</ele><time>2026-04-04T05:38:36.961Z</time></trkpt><trkpt lat="43.8647481" lon="11.1686388"><ele>69.0</ele><time>2026-04-04T05:38:37.956Z</time></trkpt><trkpt lat="43.8648456" lon="11.1686024"><ele>69.0</ele><time>2026-04-04T05:38:38.965Z</time></trkpt><trkpt lat="43.8649486" lon="11.1685679"><ele>69.0</ele><time>2026-04-04T05:38:39.962Z</time></trkpt><trkpt lat="43.8650523" lon="11.1685143"><ele>69.0</ele><time>2026-04-04T05:38:40.967Z</time></trkpt><trkpt lat="43.8651684" lon="11.1684191"><ele>69.25</ele><time>2026-04-04T05:38:41.954Z</time></trkpt><trkpt lat="43.8652694" lon="11.1683028"><ele>69.5</ele><time>2026-04-04T05:38:42.969Z</time></trkpt><trkpt lat="43.865369" lon="11.1681826"><ele>69.75</ele><time>2026-04-04T05:38:44.042Z</time></trkpt><trkpt lat="43.8654636" lon="11.1680563"><ele>70.0</ele><time>2026-04-04T05:38:44.963Z</time></trkpt><trkpt lat="43.8655539" lon="11.1679439"><ele>70.0</ele><time>2026-04-04T05:38:45.958Z</time></trkpt><trkpt lat="43.8656394" lon="11.1678355"><ele>70.0</ele><time>2026-04-04T05:38:46.97Z</time></trkpt><trkpt lat="43.8657048" lon="11.1677403"><ele>70.0</ele><time>2026-04-04T05:38:47.972Z</time></trkpt><trkpt lat="43.8657728" lon="11.1676527"><ele>70.0</ele><time>2026-04-04T05:38:49.03Z</time></trkpt><trkpt lat="43.8658381" lon="11.1675711"><ele>70.0</ele><time>2026-04-04T05:38:49.962Z</time></trkpt><trkpt lat="43.8659052" lon="11.1674919"><ele>69.8</ele><time>2026-04-04T05:38:50.967Z</time></trkpt><trkpt lat="43.8659646" lon="11.1674134"><ele>69.6</ele><time>2026-04-04T05:38:51.968Z</time></trkpt><trkpt lat="43.8660159" lon="11.1673423"><ele>69.4</ele><time>2026-04-04T05:38:52.962Z</time></trkpt><trkpt lat="43.8661234" lon="11.1672906"><ele>69.2</ele><time>2026-04-04T05:38:54.965Z</time></trkpt><trkpt lat="43.8662258" lon="11.1672951"><ele>69.0</ele><time>2026-04-04T05:38:55.964Z</time></trkpt><trkpt lat="43.8663448" lon="11.1672994"><ele>69.0</ele><time>2026-04-04T05:38:56.987Z</time></trkpt><trkpt lat="43.8664656" lon="11.1673119"><ele>69.0</ele><time>2026-04-04T05:38:57.961Z</time></trkpt><trkpt lat="43.8665724" lon="11.1673276"><ele>69.0</ele><time>2026-04-04T05:38:58.964Z</time></trkpt><trkpt lat="43.8666547" lon="11.1672966"><ele>69.0</ele><time>2026-04-04T05:38:59.963Z</time></trkpt><trkpt lat="43.8667466" lon="11.1672027"><ele>69.0</ele><time>2026-04-04T05:39:00.961Z</time></trkpt><trkpt lat="43.8668587" lon="11.1670555"><ele>68.75</ele><time>2026-04-04T05:39:01.967Z</time></trkpt><trkpt lat="43.8669701" lon="11.1669166"><ele>68.5</ele><time>2026-04-04T05:39:03.043Z</time></trkpt><trkpt lat="43.8670681" lon="11.1667695"><ele>68.25</ele><time>2026-04-04T05:39:04.035Z</time></trkpt><trkpt lat="43.8671654" lon="11.1666251"><ele>68.0</ele><time>2026-04-04T05:39:04.968Z</time></trkpt><trkpt lat="43.8672344" lon="11.1664402"><ele>67.75</ele><time>2026-04-04T05:39:05.974Z</time></trkpt><trkpt lat="43.8672808" lon="11.1662499"><ele>67.5</ele><time>2026-04-04T05:39:06.975Z</time></trkpt><trkpt lat="43.8673276" lon="11.1660639"><ele>67.25</ele><time>2026-04-04T05:39:07.998Z</time></trkpt><trkpt lat="43.8673612" lon="11.1658738"><ele>67.0</ele><time>2026-04-04T05:39:08.967Z</time></trkpt><trkpt lat="43.8673918" lon="11.1656979"><ele>66.8</ele><time>2026-04-04T05:39:09.971Z</time></trkpt><trkpt lat="43.8674201" lon="11.1655349"><ele>66.6</ele><time>2026-04-04T05:39:10.97Z</time></trkpt><trkpt lat="43.8674478" lon="11.1653824"><ele>66.39999999999999</ele><time>2026-04-04T05:39:11.946Z</time></trkpt><trkpt lat="43.8674691" lon="11.1652615"><ele>66.2</ele><time>2026-04-04T05:39:12.97Z</time></trkpt><trkpt lat="43.8674686" lon="11.1651616"><ele>66.0</ele><time>2026-04-04T05:39:13.994Z</time></trkpt><trkpt lat="43.867489" lon="11.1650518"><ele>66.0</ele><time>2026-04-04T05:39:15.971Z</time></trkpt><trkpt lat="43.8675812" lon="11.1649818"><ele>66.0</ele><time>2026-04-04T05:39:17.973Z</time></trkpt><trkpt lat="43.8676373" lon="11.1648518"><ele>66.0</ele><time>2026-04-04T05:39:19.976Z</time></trkpt><trkpt lat="43.8676801" lon="11.1647818"><ele>66.0</ele><time>2026-04-04T05:39:21.971Z</time></trkpt><trkpt lat="43.867763" lon="11.1646664"><ele>66.0</ele><time>2026-04-04T05:39:23.959Z</time></trkpt><trkpt lat="43.8678176" lon="11.1645799"><ele>65.8</ele><time>2026-04-04T05:39:24.968Z</time></trkpt><trkpt lat="43.8678708" lon="11.1644861"><ele>65.6</ele><time>2026-04-04T05:39:25.976Z</time></trkpt><trkpt lat="43.8679199" lon="11.1643859"><ele>65.4</ele><time>2026-04-04T05:39:26.966Z</time></trkpt><trkpt lat="43.8679753" lon="11.1642851"><ele>65.2</ele><time>2026-04-04T05:39:27.96Z</time></trkpt><trkpt lat="43.8680298" lon="11.1641773"><ele>65.0</ele><time>2026-04-04T05:39:28.971Z</time></trkpt><trkpt lat="43.8680914" lon="11.1640691"><ele>64.8</ele><time>2026-04-04T05:39:29.966Z</time></trkpt><trkpt lat="43.8681559" lon="11.1639565"><ele>64.6</ele><time>2026-04-04T05:39:30.977Z</time></trkpt><trkpt lat="43.8682135" lon="11.1638417"><ele>64.4</ele><time>2026-04-04T05:39:31.981Z</time></trkpt><trkpt lat="43.8682675" lon="11.1637272"><ele>64.2</ele><time>2026-04-04T05:39:32.969Z</time></trkpt><trkpt lat="43.8683291" lon="11.1636043"><ele>64.0</ele><time>2026-04-04T05:39:33.967Z</time></trkpt><trkpt lat="43.8684048" lon="11.1634962"><ele>63.99999999999999</ele><time>2026-04-04T05:39:34.963Z</time></trkpt><trkpt lat="43.8684766" lon="11.1634069"><ele>64.0</ele><time>2026-04-04T05:39:35.974Z</time></trkpt><trkpt lat="43.8685445" lon="11.1633337"><ele>64.0</ele><time>2026-04-04T05:39:36.965Z</time></trkpt><trkpt lat="43.8686028" lon="11.163255"><ele>64.0</ele><time>2026-04-04T05:39:37.974Z</time></trkpt><trkpt lat="43.8686532" lon="11.1631846"><ele>63.99999999999999</ele><time>2026-04-04T05:39:38.975Z</time></trkpt><trkpt lat="43.8687045" lon="11.1631062"><ele>64.0</ele><time>2026-04-04T05:39:39.975Z</time></trkpt><trkpt lat="43.8687591" lon="11.1630167"><ele>64.0</ele><time>2026-04-04T05:39:40.972Z</time></trkpt><trkpt lat="43.8688183" lon="11.1629293"><ele>64.0</ele><time>2026-04-04T05:39:41.967Z</time></trkpt><trkpt lat="43.8688789" lon="11.1628383"><ele>64.0</ele><time>2026-04-04T05:39:42.978Z</time></trkpt><trkpt lat="43.8689403" lon="11.1627337"><ele>64.0</ele><time>2026-04-04T05:39:43.972Z</time></trkpt><trkpt lat="43.8690031" lon="11.1626175"><ele>64.0</ele><time>2026-04-04T05:39:44.96Z</time></trkpt><trkpt lat="43.8690641" lon="11.1624901"><ele>64.0</ele><time>2026-04-04T05:39:45.965Z</time></trkpt><trkpt lat="43.8691228" lon="11.1623475"><ele>64.0</ele><time>2026-04-04T05:39:46.964Z</time></trkpt><trkpt lat="43.8691843" lon="11.1622051"><ele>64.0</ele><time>2026-04-04T05:39:47.971Z</time></trkpt><trkpt lat="43.8692515" lon="11.1620643"><ele>64.0</ele><time>2026-04-04T05:39:48.949Z</time></trkpt><trkpt lat="43.8693156" lon="11.1619266"><ele>64.0</ele><time>2026-04-04T05:39:49.973Z</time></trkpt><trkpt lat="43.8693883" lon="11.1617868"><ele>64.0</ele><time>2026-04-04T05:39:50.973Z</time></trkpt><trkpt lat="43.8694682" lon="11.1616579"><ele>64.0</ele><time>2026-04-04T05:39:51.968Z</time></trkpt><trkpt lat="43.8695576" lon="11.1615296"><ele>64.0</ele><time>2026-04-04T05:39:52.978Z</time></trkpt><trkpt lat="43.8696402" lon="11.1613937"><ele>65.0</ele><time>2026-04-04T05:39:53.974Z</time></trkpt><trkpt lat="43.8697236" lon="11.1612518"><ele>66.0</ele><time>2026-04-04T05:39:54.975Z</time></trkpt><trkpt lat="43.8698048" lon="11.1611108"><ele>67.0</ele><time>2026-04-04T05:39:55.977Z</time></trkpt><trkpt lat="43.8698815" lon="11.1609792"><ele>68.0</ele><time>2026-04-04T05:39:56.966Z</time></trkpt><trkpt lat="43.8699551" lon="11.1608593"><ele>68.0</ele><time>2026-04-04T05:39:57.965Z</time></trkpt><trkpt lat="43.8700285" lon="11.16076"><ele>68.0</ele><time>2026-04-04T05:39:58.973Z</time></trkpt><trkpt lat="43.8701088" lon="11.1606638"><ele>68.0</ele><time>2026-04-04T05:39:59.949Z</time></trkpt><trkpt lat="43.8701966" lon="11.1605664"><ele>68.0</ele><time>2026-04-04T05:40:00.971Z</time></trkpt><trkpt lat="43.8702743" lon="11.1604612"><ele>68.0</ele><time>2026-04-04T05:40:01.96Z</time></trkpt><trkpt lat="43.8703554" lon="11.1603666"><ele>67.66666666666667</ele><time>2026-04-04T05:40:02.971Z</time></trkpt><trkpt lat="43.8704247" lon="11.1602639"><ele>67.33333333333334</ele><time>2026-04-04T05:40:03.954Z</time></trkpt><trkpt lat="43.8704502" lon="11.1601664"><ele>67.0</ele><time>2026-04-04T05:40:04.963Z</time></trkpt><trkpt lat="43.8704765" lon="11.1600847"><ele>66.66666666666667</ele><time>2026-04-04T05:40:06.024Z</time></trkpt><trkpt lat="43.8705639" lon="11.1599769"><ele>66.33333333333333</ele><time>2026-04-04T05:40:07.961Z</time></trkpt><trkpt lat="43.8706224" lon="11.1599163"><ele>66.0</ele><time>2026-04-04T05:40:08.963Z</time></trkpt><trkpt lat="43.8706911" lon="11.1598569"><ele>66.0</ele><time>2026-04-04T05:40:09.973Z</time></trkpt><trkpt lat="43.8707654" lon="11.1597867"><ele>66.0</ele><time>2026-04-04T05:40:10.974Z</time></trkpt><trkpt lat="43.8708403" lon="11.1597106"><ele>66.0</ele><time>2026-04-04T05:40:11.962Z</time></trkpt><trkpt lat="43.870909" lon="11.1596412"><ele>66.0</ele><time>2026-04-04T05:40:12.972Z</time></trkpt><trkpt lat="43.8709679" lon="11.1595863"><ele>66.0</ele><time>2026-04-04T05:40:13.968Z</time></trkpt><trkpt lat="43.8710492" lon="11.1594811"><ele>66.0</ele><time>2026-04-04T05:40:15.968Z</time></trkpt><trkpt lat="43.8711164" lon="11.1593941"><ele>66.0</ele><time>2026-04-04T05:40:17.969Z</time></trkpt><trkpt lat="43.8711817" lon="11.1593803"><ele>66.0</ele><time>2026-04-04T05:40:19.974Z</time></trkpt><trkpt lat="43.871247" lon="11.1594397"><ele>66.0</ele><time>2026-04-04T05:40:21.956Z</time></trkpt><trkpt lat="43.8713037" lon="11.159489"><ele>66.0</ele><time>2026-04-04T05:40:22.972Z</time></trkpt><trkpt lat="43.8713576" lon="11.1595543"><ele>66.0</ele><time>2026-04-04T05:40:23.971Z</time></trkpt><trkpt lat="43.871423" lon="11.1596369"><ele>66.0</ele><time>2026-04-04T05:40:24.967Z</time></trkpt><trkpt lat="43.8714946" lon="11.1597151"><ele>66.0</ele><time>2026-04-04T05:40:25.97Z</time></trkpt><trkpt lat="43.871562" lon="11.1597993"><ele>66.0</ele><time>2026-04-04T05:40:26.961Z</time></trkpt><trkpt lat="43.8716392" lon="11.1598856"><ele>66.0</ele><time>2026-04-04T05:40:27.967Z</time></trkpt><trkpt lat="43.8717171" lon="11.1599727"><ele>66.0</ele><time>2026-04-04T05:40:28.961Z</time></trkpt><trkpt lat="43.8717984" lon="11.1600571"><ele>66.5</ele><time>2026-04-04T05:40:29.971Z</time></trkpt><trkpt lat="43.8718812" lon="11.1601431"><ele>67.0</ele><time>2026-04-04T05:40:30.964Z</time></trkpt><trkpt lat="43.8719703" lon="11.1602267"><ele>67.5</ele><time>2026-04-04T05:40:31.975Z</time></trkpt><trkpt lat="43.8720677" lon="11.1603108"><ele>68.0</ele><time>2026-04-04T05:40:32.966Z</time></trkpt><trkpt lat="43.87218" lon="11.1603866"><ele>68.0</ele><time>2026-04-04T05:40:34.031Z</time></trkpt><trkpt lat="43.8722965" lon="11.1604675"><ele>68.0</ele><time>2026-04-04T05:40:34.958Z</time></trkpt><trkpt lat="43.872417" lon="11.1605435"><ele>68.0</ele><time>2026-04-04T05:40:35.967Z</time></trkpt><trkpt lat="43.8725442" lon="11.1606051"><ele>68.0</ele><time>2026-04-04T05:40:36.968Z</time></trkpt><trkpt lat="43.8726748" lon="11.1606566"><ele>67.75</ele><time>2026-04-04T05:40:37.953Z</time></trkpt><trkpt lat="43.8728134" lon="11.1607012"><ele>67.5</ele><time>2026-04-04T05:40:38.939Z</time></trkpt><trkpt lat="43.8729516" lon="11.160744"><ele>67.25</ele><time>2026-04-04T05:40:39.968Z</time></trkpt><trkpt lat="43.8730825" lon="11.1607982"><ele>67.0</ele><time>2026-04-04T05:40:40.955Z</time></trkpt><trkpt lat="43.8732027" lon="11.1608678"><ele>67.0</ele><time>2026-04-04T05:40:41.984Z</time></trkpt><trkpt lat="43.8733073" lon="11.1609779"><ele>67.0</ele><time>2026-04-04T05:40:42.968Z</time></trkpt><trkpt lat="43.873399" lon="11.1611071"><ele>67.0</ele><time>2026-04-04T05:40:44.03Z</time></trkpt><trkpt lat="43.873499" lon="11.1612281"><ele>67.0</ele><time>2026-04-04T05:40:44.97Z</time></trkpt><trkpt lat="43.8735976" lon="11.161347"><ele>67.0</ele><time>2026-04-04T05:40:45.97Z</time></trkpt><trkpt lat="43.8736919" lon="11.1614545"><ele>67.0</ele><time>2026-04-04T05:40:46.968Z</time></trkpt><trkpt lat="43.8737718" lon="11.1615453"><ele>67.0</ele><time>2026-04-04T05:40:47.968Z</time></trkpt><trkpt lat="43.8738466" lon="11.1616048"><ele>67.0</ele><time>2026-04-04T05:40:48.963Z</time></trkpt><trkpt lat="43.8739243" lon="11.1615835"><ele>67.0</ele><time>2026-04-04T05:40:49.97Z</time></trkpt><trkpt lat="43.8739981" lon="11.1615148"><ele>67.0</ele><time>2026-04-04T05:40:50.966Z</time></trkpt><trkpt lat="43.874072" lon="11.1614202"><ele>67.0</ele><time>2026-04-04T05:40:51.985Z</time></trkpt><trkpt lat="43.8741468" lon="11.1613101"><ele>67.0</ele><time>2026-04-04T05:40:52.965Z</time></trkpt><trkpt lat="43.8742394" lon="11.161214"><ele>67.0</ele><time>2026-04-04T05:40:53.967Z</time></trkpt><trkpt lat="43.8743378" lon="11.1610969"><ele>67.0</ele><time>2026-04-04T05:40:54.965Z</time></trkpt><trkpt lat="43.8744368" lon="11.1609896"><ele>67.0</ele><time>2026-04-04T05:40:55.967Z</time></trkpt><trkpt lat="43.8745448" lon="11.1608777"><ele>67.0</ele><time>2026-04-04T05:40:57.031Z</time></trkpt><trkpt lat="43.8746567" lon="11.1607689"><ele>67.0</ele><time>2026-04-04T05:40:58.032Z</time></trkpt><trkpt lat="43.8747683" lon="11.1606574"><ele>67.0</ele><time>2026-04-04T05:40:58.973Z</time></trkpt><trkpt lat="43.8748779" lon="11.1605444"><ele>67.0</ele><time>2026-04-04T05:40:59.977Z</time></trkpt><trkpt lat="43.874982" lon="11.1604356"><ele>67.0</ele><time>2026-04-04T05:41:01.029Z</time></trkpt><trkpt lat="43.8750814" lon="11.1603321"><ele>67.0</ele><time>2026-04-04T05:41:02.029Z</time></trkpt><trkpt lat="43.8751602" lon="11.1602582"><ele>67.0</ele><time>2026-04-04T05:41:03.002Z</time></trkpt><trkpt lat="43.8752339" lon="11.1602445"><ele>67.0</ele><time>2026-04-04T05:41:04.011Z</time></trkpt><trkpt lat="43.8753065" lon="11.1603149"><ele>67.0</ele><time>2026-04-04T05:41:04.986Z</time></trkpt><trkpt lat="43.875377" lon="11.1604004"><ele>67.0</ele><time>2026-04-04T05:41:05.982Z</time></trkpt><trkpt lat="43.8754565" lon="11.1604988"><ele>67.0</ele><time>2026-04-04T05:41:06.967Z</time></trkpt><trkpt lat="43.8755423" lon="11.1606072"><ele>67.0</ele><time>2026-04-04T05:41:07.978Z</time></trkpt><trkpt lat="43.8756285" lon="11.1607109"><ele>67.0</ele><time>2026-04-04T05:41:08.981Z</time></trkpt><trkpt lat="43.8757121" lon="11.160799"><ele>67.0</ele><time>2026-04-04T05:41:09.965Z</time></trkpt><trkpt lat="43.8757841" lon="11.1608347"><ele>67.0</ele><time>2026-04-04T05:41:10.986Z</time></trkpt><trkpt lat="43.8758739" lon="11.1607973"><ele>67.0</ele><time>2026-04-04T05:41:11.977Z</time></trkpt><trkpt lat="43.8759261" lon="11.1606913"><ele>67.6</ele><time>2026-04-04T05:41:12.984Z</time></trkpt><trkpt lat="43.87598" lon="11.1605588"><ele>68.2</ele><time>2026-04-04T05:41:13.989Z</time></trkpt><trkpt lat="43.8760445" lon="11.1604508"><ele>68.8</ele><time>2026-04-04T05:41:14.975Z</time></trkpt><trkpt lat="43.8761222" lon="11.1603278"><ele>69.4</ele><time>2026-04-04T05:41:15.978Z</time></trkpt><trkpt lat="43.876195" lon="11.160206"><ele>70.0</ele><time>2026-04-04T05:41:16.964Z</time></trkpt><trkpt lat="43.876282" lon="11.1600922"><ele>70.0</ele><time>2026-04-04T05:41:17.978Z</time></trkpt><trkpt lat="43.8763851" lon="11.1599904"><ele>70.0</ele><time>2026-04-04T05:41:18.98Z</time></trkpt><trkpt lat="43.8764993" lon="11.1598943"><ele>70.0</ele><time>2026-04-04T05:41:19.986Z</time></trkpt><trkpt lat="43.8766127" lon="11.1597911"><ele>70.0</ele><time>2026-04-04T05:41:20.979Z</time></trkpt><trkpt lat="43.8767219" lon="11.1596946"><ele>70.25</ele><time>2026-04-04T05:41:21.962Z</time></trkpt><trkpt lat="43.8768292" lon="11.159593"><ele>70.5</ele><time>2026-04-04T05:41:22.983Z</time></trkpt><trkpt lat="43.8769322" lon="11.1594977"><ele>70.75</ele><time>2026-04-04T05:41:23.979Z</time></trkpt><trkpt lat="43.8770246" lon="11.1594088"><ele>71.0</ele><time>2026-04-04T05:41:24.987Z</time></trkpt><trkpt lat="43.8771143" lon="11.1593299"><ele>71.0</ele><time>2026-04-04T05:41:25.986Z</time></trkpt><trkpt lat="43.8772056" lon="11.1592513"><ele>71.0</ele><time>2026-04-04T05:41:26.982Z</time></trkpt><trkpt lat="43.8773025" lon="11.1591859"><ele>71.0</ele><time>2026-04-04T05:41:27.977Z</time></trkpt><trkpt lat="43.8773984" lon="11.1591364"><ele>71.0</ele><time>2026-04-04T05:41:28.979Z</time></trkpt><trkpt lat="43.8774963" lon="11.1590797"><ele>71.0</ele><time>2026-04-04T05:41:29.984Z</time></trkpt><trkpt lat="43.8776014" lon="11.1590311"><ele>71.0</ele><time>2026-04-04T05:41:30.99Z</time></trkpt><trkpt lat="43.8777132" lon="11.1589823"><ele>71.0</ele><time>2026-04-04T05:41:31.984Z</time></trkpt><trkpt lat="43.8778313" lon="11.1589321"><ele>71.0</ele><time>2026-04-04T05:41:32.982Z</time></trkpt><trkpt lat="43.8779544" lon="11.1588863"><ele>71.0</ele><time>2026-04-04T05:41:33.963Z</time></trkpt><trkpt lat="43.8780795" lon="11.1588414"><ele>71.0</ele><time>2026-04-04T05:41:34.979Z</time></trkpt><trkpt lat="43.8782105" lon="11.1587975"><ele>71.0</ele><time>2026-04-04T05:41:36.032Z</time></trkpt><trkpt lat="43.8783392" lon="11.158754"><ele>71.0</ele><time>2026-04-04T05:41:37.038Z</time></trkpt><trkpt lat="43.8784725" lon="11.1587099"><ele>71.0</ele><time>2026-04-04T05:41:38.03Z</time></trkpt><trkpt lat="43.8786043" lon="11.1586573"><ele>70.75</ele><time>2026-04-04T05:41:39.033Z</time></trkpt><trkpt lat="43.878736" lon="11.1586101"><ele>70.5</ele><time>2026-04-04T05:41:39.967Z</time></trkpt><trkpt lat="43.8788543" lon="11.1585699"><ele>70.25</ele><time>2026-04-04T05:41:40.964Z</time></trkpt><trkpt lat="43.8789575" lon="11.1585359"><ele>70.0</ele><time>2026-04-04T05:41:41.966Z</time></trkpt><trkpt lat="43.8790571" lon="11.1585055"><ele>70.0</ele><time>2026-04-04T05:41:42.963Z</time></trkpt><trkpt lat="43.8791678" lon="11.1584948"><ele>70.0</ele><time>2026-04-04T05:41:44.049Z</time></trkpt><trkpt lat="43.8792925" lon="11.1584808"><ele>70.0</ele><time>2026-04-04T05:41:44.953Z</time></trkpt><trkpt lat="43.8794135" lon="11.1584426"><ele>70.0</ele><time>2026-04-04T05:41:45.969Z</time></trkpt><trkpt lat="43.8795417" lon="11.1583789"><ele>70.5</ele><time>2026-04-04T05:41:47.008Z</time></trkpt><trkpt lat="43.8796595" lon="11.1583051"><ele>71.0</ele><time>2026-04-04T05:41:48.051Z</time></trkpt><trkpt lat="43.8797785" lon="11.1582335"><ele>71.5</ele><time>2026-04-04T05:41:49.009Z</time></trkpt><trkpt lat="43.8798993" lon="11.1581616"><ele>72.0</ele><time>2026-04-04T05:41:49.961Z</time></trkpt><trkpt lat="43.8800272" lon="11.1580818"><ele>72.75</ele><time>2026-04-04T05:41:50.957Z</time></trkpt><trkpt lat="43.8801502" lon="11.1580017"><ele>73.5</ele><time>2026-04-04T05:41:51.961Z</time></trkpt><trkpt lat="43.8802652" lon="11.1579205"><ele>74.25</ele><time>2026-04-04T05:41:52.96Z</time></trkpt><trkpt lat="43.8803691" lon="11.1578241"><ele>75.0</ele><time>2026-04-04T05:41:53.968Z</time></trkpt><trkpt lat="43.8804647" lon="11.157731"><ele>75.0</ele><time>2026-04-04T05:41:54.946Z</time></trkpt><trkpt lat="43.8805493" lon="11.1576449"><ele>75.0</ele><time>2026-04-04T05:41:55.963Z</time></trkpt><trkpt lat="43.88062" lon="11.1575601"><ele>75.0</ele><time>2026-04-04T05:41:56.979Z</time></trkpt><trkpt lat="43.8806706" lon="11.1574683"><ele>75.0</ele><time>2026-04-04T05:41:57.967Z</time></trkpt><trkpt lat="43.8807161" lon="11.1573719"><ele>75.0</ele><time>2026-04-04T05:41:58.94Z</time></trkpt><trkpt lat="43.8807636" lon="11.1572743"><ele>75.33333333333333</ele><time>2026-04-04T05:41:59.958Z</time></trkpt><trkpt lat="43.8808103" lon="11.1571791"><ele>75.66666666666667</ele><time>2026-04-04T05:42:00.956Z</time></trkpt><trkpt lat="43.8808584" lon="11.1570848"><ele>76.0</ele><time>2026-04-04T05:42:01.961Z</time></trkpt><trkpt lat="43.8808977" lon="11.1570053"><ele>76.33333333333334</ele><time>2026-04-04T05:42:02.963Z</time></trkpt><trkpt lat="43.8809521" lon="11.1568661"><ele>76.66666666666667</ele><time>2026-04-04T05:42:04.965Z</time></trkpt><trkpt lat="43.8810068" lon="11.1568124"><ele>77.0</ele><time>2026-04-04T05:42:06.943Z</time></trkpt><trkpt lat="43.8811058" lon="11.1568524"><ele>77.28571428571429</ele><time>2026-04-04T05:42:09.028Z</time></trkpt><trkpt lat="43.8811767" lon="11.1568817"><ele>77.57142857142857</ele><time>2026-04-04T05:42:09.973Z</time></trkpt><trkpt lat="43.8812519" lon="11.1569015"><ele>77.85714285714286</ele><time>2026-04-04T05:42:10.975Z</time></trkpt><trkpt lat="43.8813304" lon="11.1569222"><ele>78.14285714285714</ele><time>2026-04-04T05:42:11.976Z</time></trkpt><trkpt lat="43.8814077" lon="11.1569407"><ele>78.42857142857143</ele><time>2026-04-04T05:42:12.975Z</time></trkpt><trkpt lat="43.8814722" lon="11.1569628"><ele>78.71428571428572</ele><time>2026-04-04T05:42:13.973Z</time></trkpt><trkpt lat="43.8815369" lon="11.1569859"><ele>79.0</ele><time>2026-04-04T05:42:14.979Z</time></trkpt><trkpt lat="43.8816283" lon="11.1570258"><ele>79.0</ele><time>2026-04-04T05:42:16.979Z</time></trkpt><trkpt lat="43.8816371" lon="11.1571136"><ele>79.0</ele><time>2026-04-04T05:42:19.054Z</time></trkpt><trkpt lat="43.8815854" lon="11.1571908"><ele>79.0</ele><time>2026-04-04T05:42:20.974Z</time></trkpt><trkpt lat="43.8815041" lon="11.1572648"><ele>79.0</ele><time>2026-04-04T05:42:23.039Z</time></trkpt><trkpt lat="43.8814457" lon="11.1573633"><ele>79.0</ele><time>2026-04-04T05:42:24.957Z</time></trkpt><trkpt lat="43.88142" lon="11.1575027"><ele>79.0</ele><time>2026-04-04T05:42:26.959Z</time></trkpt><trkpt lat="43.8813921" lon="11.15764"><ele>79.4</ele><time>2026-04-04T05:42:29.015Z</time></trkpt><trkpt lat="43.8814171" lon="11.1577647"><ele>79.80000000000001</ele><time>2026-04-04T05:42:30.98Z</time></trkpt><trkpt lat="43.8814962" lon="11.1578449"><ele>80.19999999999999</ele><time>2026-04-04T05:42:32.958Z</time></trkpt><trkpt lat="43.8815836" lon="11.1579238"><ele>80.6</ele><time>2026-04-04T05:42:34.959Z</time></trkpt><trkpt lat="43.8816723" lon="11.1579995"><ele>81.0</ele><time>2026-04-04T05:42:36.97Z</time></trkpt><trkpt lat="43.8817579" lon="11.1580954"><ele>81.4</ele><time>2026-04-04T05:42:38.964Z</time></trkpt><trkpt lat="43.8818299" lon="11.1581933"><ele>81.8</ele><time>2026-04-04T05:42:40.964Z</time></trkpt><trkpt lat="43.8819143" lon="11.1582932"><ele>82.2</ele><time>2026-04-04T05:42:42.957Z</time></trkpt><trkpt lat="43.8820095" lon="11.1584034"><ele>82.60000000000001</ele><time>2026-04-04T05:42:44.977Z</time></trkpt><trkpt lat="43.8820698" lon="11.1584622"><ele>83.0</ele><time>2026-04-04T05:42:45.972Z</time></trkpt><trkpt lat="43.8821233" lon="11.1585313"><ele>84.5</ele><time>2026-04-04T05:42:46.965Z</time></trkpt><trkpt lat="43.8821767" lon="11.1585998"><ele>86.0</ele><time>2026-04-04T05:42:47.966Z</time></trkpt><trkpt lat="43.8822321" lon="11.158674"><ele>87.5</ele><time>2026-04-04T05:42:48.968Z</time></trkpt><trkpt lat="43.882276" lon="11.1587544"><ele>89.0</ele><time>2026-04-04T05:42:49.953Z</time></trkpt><trkpt lat="43.8823236" lon="11.1588222"><ele>90.5</ele><time>2026-04-04T05:42:51.031Z</time></trkpt><trkpt lat="43.8824052" lon="11.1589503"><ele>92.0</ele><time>2026-04-04T05:42:53.007Z</time></trkpt><trkpt lat="43.8824798" lon="11.1590823"><ele>92.83333333333334</ele><time>2026-04-04T05:42:54.965Z</time></trkpt><trkpt lat="43.8825713" lon="11.1592038"><ele>93.66666666666667</ele><time>2026-04-04T05:42:56.976Z</time></trkpt><trkpt lat="43.8826266" lon="11.1592638"><ele>94.5</ele><time>2026-04-04T05:42:57.977Z</time></trkpt><trkpt lat="43.8826835" lon="11.1593281"><ele>95.33333333333334</ele><time>2026-04-04T05:42:58.964Z</time></trkpt><trkpt lat="43.8827392" lon="11.1593833"><ele>96.16666666666667</ele><time>2026-04-04T05:42:59.965Z</time></trkpt><trkpt lat="43.8827978" lon="11.1594298"><ele>97.0</ele><time>2026-04-04T05:43:00.957Z</time></trkpt><trkpt lat="43.8828533" lon="11.1594728"><ele>98.57142857142857</ele><time>2026-04-04T05:43:01.99Z</time></trkpt><trkpt lat="43.8829211" lon="11.1595183"><ele>100.14285714285715</ele><time>2026-04-04T05:43:02.96Z</time></trkpt><trkpt lat="43.8829785" lon="11.1595703"><ele>101.71428571428572</ele><time>2026-04-04T05:43:03.963Z</time></trkpt><trkpt lat="43.8830337" lon="11.1596402"><ele>103.28571428571428</ele><time>2026-04-04T05:43:04.967Z</time></trkpt><trkpt lat="43.8830863" lon="11.1597091"><ele>104.85714285714286</ele><time>2026-04-04T05:43:05.97Z</time></trkpt><trkpt lat="43.8831397" lon="11.1597801"><ele>106.42857142857143</ele><time>2026-04-04T05:43:06.968Z</time></trkpt><trkpt lat="43.8832003" lon="11.1598493"><ele>108.0</ele><time>2026-04-04T05:43:07.967Z</time></trkpt><trkpt lat="43.8832583" lon="11.1599144"><ele>108.0</ele><time>2026-04-04T05:43:08.965Z</time></trkpt><trkpt lat="43.8833174" lon="11.1599737"><ele>108.0</ele><time>2026-04-04T05:43:09.97Z</time></trkpt><trkpt lat="43.8833785" lon="11.1600125"><ele>108.0</ele><time>2026-04-04T05:43:10.971Z</time></trkpt><trkpt lat="43.8834461" lon="11.1600391"><ele>108.0</ele><time>2026-04-04T05:43:11.967Z</time></trkpt><trkpt lat="43.8835178" lon="11.1600617"><ele>108.0</ele><time>2026-04-04T05:43:12.961Z</time></trkpt><trkpt lat="43.8835873" lon="11.1600945"><ele>108.0</ele><time>2026-04-04T05:43:14.04Z</time></trkpt><trkpt lat="43.8836532" lon="11.160138"><ele>108.0</ele><time>2026-04-04T05:43:14.967Z</time></trkpt><trkpt lat="43.8837608" lon="11.1601903"><ele>110.4</ele><time>2026-04-04T05:43:16.976Z</time></trkpt><trkpt lat="43.8838437" lon="11.1601691"><ele>112.80000000000001</ele><time>2026-04-04T05:43:18.97Z</time></trkpt><trkpt lat="43.8839033" lon="11.1600646"><ele>115.2</ele><time>2026-04-04T05:43:20.975Z</time></trkpt><trkpt lat="43.8839576" lon="11.1599608"><ele>117.6</ele><time>2026-04-04T05:43:22.975Z</time></trkpt><trkpt lat="43.8840142" lon="11.1598496"><ele>120.0</ele><time>2026-04-04T05:43:24.968Z</time></trkpt><trkpt lat="43.8840845" lon="11.1597356"><ele>120.0</ele><time>2026-04-04T05:43:26.972Z</time></trkpt><trkpt lat="43.8841558" lon="11.1596463"><ele>120.0</ele><time>2026-04-04T05:43:28.966Z</time></trkpt><trkpt lat="43.8842321" lon="11.1596241"><ele>120.0</ele><time>2026-04-04T05:43:30.975Z</time></trkpt><trkpt lat="43.8842991" lon="11.1596831"><ele>120.0</ele><time>2026-04-04T05:43:33.037Z</time></trkpt><trkpt lat="43.8843956" lon="11.1597779"><ele>120.0</ele><time>2026-04-04T05:43:34.988Z</time></trkpt><trkpt lat="43.8844522" lon="11.1598262"><ele>120.0</ele><time>2026-04-04T05:43:35.973Z</time></trkpt><trkpt lat="43.8845092" lon="11.1598805"><ele>120.42857142857143</ele><time>2026-04-04T05:43:36.979Z</time></trkpt><trkpt lat="43.8845674" lon="11.1599393"><ele>120.85714285714286</ele><time>2026-04-04T05:43:37.985Z</time></trkpt><trkpt lat="43.8846175" lon="11.1600026"><ele>121.28571428571429</ele><time>2026-04-04T05:43:38.987Z</time></trkpt><trkpt lat="43.8846744" lon="11.1600661"><ele>121.71428571428572</ele><time>2026-04-04T05:43:39.973Z</time></trkpt><trkpt lat="43.8847252" lon="11.1601207"><ele>122.14285714285714</ele><time>2026-04-04T05:43:40.962Z</time></trkpt><trkpt lat="43.8847753" lon="11.160177"><ele>122.57142857142858</ele><time>2026-04-04T05:43:41.985Z</time></trkpt><trkpt lat="43.8848273" lon="11.1602292"><ele>123.00000000000001</ele><time>2026-04-04T05:43:42.981Z</time></trkpt><trkpt lat="43.8848794" lon="11.160282"><ele>123.00000000000001</ele><time>2026-04-04T05:43:44.04Z</time></trkpt><trkpt lat="43.8849304" lon="11.1603343"><ele>123.0</ele><time>2026-04-04T05:43:44.979Z</time></trkpt><trkpt lat="43.8849853" lon="11.1603938"><ele>123.00000000000001</ele><time>2026-04-04T05:43:45.978Z</time></trkpt><trkpt lat="43.8850395" lon="11.160457"><ele>123.00000000000001</ele><time>2026-04-04T05:43:46.979Z</time></trkpt><trkpt lat="43.885099" lon="11.1605194"><ele>123.0</ele><time>2026-04-04T05:43:47.986Z</time></trkpt><trkpt lat="43.8851566" lon="11.160575"><ele>123.00000000000001</ele><time>2026-04-04T05:43:49.038Z</time></trkpt><trkpt lat="43.8852135" lon="11.1606277"><ele>123.00000000000001</ele><time>2026-04-04T05:43:49.978Z</time></trkpt><trkpt lat="43.8852708" lon="11.1606814"><ele>125.0</ele><time>2026-04-04T05:43:50.979Z</time></trkpt><trkpt lat="43.8853298" lon="11.1607375"><ele>127.0</ele><time>2026-04-04T05:43:51.999Z</time></trkpt><trkpt lat="43.8853904" lon="11.1607981"><ele>129.0</ele><time>2026-04-04T05:43:52.976Z</time></trkpt><trkpt lat="43.8854518" lon="11.1608528"><ele>131.0</ele><time>2026-04-04T05:43:53.999Z</time></trkpt><trkpt lat="43.8855112" lon="11.1609019"><ele>133.0</ele><time>2026-04-04T05:43:54.987Z</time></trkpt><trkpt lat="43.8855641" lon="11.160959"><ele>135.0</ele><time>2026-04-04T05:43:56.039Z</time></trkpt><trkpt lat="43.8856517" lon="11.1610346"><ele>135.0</ele><time>2026-04-04T05:43:58.034Z</time></trkpt><trkpt lat="43.8857456" lon="11.16111"><ele>135.0</ele><time>2026-04-04T05:43:59.983Z</time></trkpt><trkpt lat="43.8857989" lon="11.1611641"><ele>135.0</ele><time>2026-04-04T05:44:00.988Z</time></trkpt><trkpt lat="43.8858562" lon="11.161214"><ele>135.0</ele><time>2026-04-04T05:44:01.987Z</time></trkpt><trkpt lat="43.8859122" lon="11.1612738"><ele>135.0</ele><time>2026-04-04T05:44:02.993Z</time></trkpt><trkpt lat="43.8859795" lon="11.1613325"><ele>135.0</ele><time>2026-04-04T05:44:03.98Z</time></trkpt><trkpt lat="43.8860505" lon="11.1614019"><ele>135.66666666666666</ele><time>2026-04-04T05:44:04.976Z</time></trkpt><trkpt lat="43.8861249" lon="11.1614634"><ele>136.33333333333334</ele><time>2026-04-04T05:44:05.974Z</time></trkpt><trkpt lat="43.8861983" lon="11.1615201"><ele>137.0</ele><time>2026-04-04T05:44:06.982Z</time></trkpt><trkpt lat="43.8862654" lon="11.1615826"><ele>137.66666666666669</ele><time>2026-04-04T05:44:07.98Z</time></trkpt><trkpt lat="43.8863326" lon="11.1616388"><ele>138.33333333333334</ele><time>2026-04-04T05:44:08.972Z</time></trkpt><trkpt lat="43.886399" lon="11.1616934"><ele>139.0</ele><time>2026-04-04T05:44:09.98Z</time></trkpt><trkpt lat="43.8864689" lon="11.1617533"><ele>139.0</ele><time>2026-04-04T05:44:10.986Z</time></trkpt><trkpt lat="43.8865336" lon="11.161808"><ele>139.0</ele><time>2026-04-04T05:44:11.981Z</time></trkpt><trkpt lat="43.8865914" lon="11.1618598"><ele>139.0</ele><time>2026-04-04T05:44:12.98Z</time></trkpt><trkpt lat="43.8866465" lon="11.1619068"><ele>139.0</ele><time>2026-04-04T05:44:13.967Z</time></trkpt><trkpt lat="43.886706" lon="11.1619642"><ele>139.0</ele><time>2026-04-04T05:44:14.973Z</time></trkpt><trkpt lat="43.8867653" lon="11.1620204"><ele>139.0</ele><time>2026-04-04T05:44:15.963Z</time></trkpt><trkpt lat="43.8868285" lon="11.1620734"><ele>139.0</ele><time>2026-04-04T05:44:16.964Z</time></trkpt><trkpt lat="43.8868841" lon="11.1621201"><ele>139.4</ele><time>2026-04-04T05:44:17.98Z</time></trkpt><trkpt lat="43.8869897" lon="11.1622083"><ele>139.8</ele><time>2026-04-04T05:44:19.989Z</time></trkpt><trkpt lat="43.8870722" lon="11.1622884"><ele>140.2</ele><time>2026-04-04T05:44:21.978Z</time></trkpt><trkpt lat="43.8871466" lon="11.1623607"><ele>140.6</ele><time>2026-04-04T05:44:23.99Z</time></trkpt><trkpt lat="43.8872309" lon="11.1624291"><ele>141.0</ele><time>2026-04-04T05:44:25.981Z</time></trkpt><trkpt lat="43.8873266" lon="11.1624899"><ele>141.2</ele><time>2026-04-04T05:44:27.992Z</time></trkpt><trkpt lat="43.8874124" lon="11.1625681"><ele>141.39999999999998</ele><time>2026-04-04T05:44:29.984Z</time></trkpt><trkpt lat="43.8874905" lon="11.1626346"><ele>141.6</ele><time>2026-04-04T05:44:31.989Z</time></trkpt><trkpt lat="43.8875798" lon="11.1626086"><ele>141.79999999999998</ele><time>2026-04-04T05:44:34.978Z</time></trkpt><trkpt lat="43.8876478" lon="11.1625597"><ele>142.0</ele><time>2026-04-04T05:44:36.98Z</time></trkpt><trkpt lat="43.887727" lon="11.1626534"><ele>142.0</ele><time>2026-04-04T05:44:39.974Z</time></trkpt><trkpt lat="43.88777" lon="11.1627398"><ele>142.0</ele><time>2026-04-04T05:44:40.987Z</time></trkpt><trkpt lat="43.8878038" lon="11.1628165"><ele>142.0</ele><time>2026-04-04T05:44:41.981Z</time></trkpt><trkpt lat="43.8878435" lon="11.1629604"><ele>142.0</ele><time>2026-04-04T05:44:43.982Z</time></trkpt><trkpt lat="43.887872" lon="11.1630662"><ele>142.0</ele><time>2026-04-04T05:44:45.983Z</time></trkpt><trkpt lat="43.8879176" lon="11.1631582"><ele>142.0</ele><time>2026-04-04T05:44:47.988Z</time></trkpt><trkpt lat="43.8879585" lon="11.1632653"><ele>144.33333333333334</ele><time>2026-04-04T05:44:49.986Z</time></trkpt><trkpt lat="43.8879669" lon="11.1633669"><ele>146.66666666666669</ele><time>2026-04-04T05:44:51.989Z</time></trkpt><trkpt lat="43.8879932" lon="11.1634632"><ele>149.0</ele><time>2026-04-04T05:44:53.98Z</time></trkpt><trkpt lat="43.8880283" lon="11.1635402"><ele>151.33333333333334</ele><time>2026-04-04T05:44:54.959Z</time></trkpt><trkpt lat="43.8880419" lon="11.1636302"><ele>153.66666666666666</ele><time>2026-04-04T05:44:56.959Z</time></trkpt><trkpt lat="43.8880703" lon="11.1637201"><ele>156.0</ele><time>2026-04-04T05:44:58.98Z</time></trkpt><trkpt lat="43.888141" lon="11.1638272"><ele>156.0</ele><time>2026-04-04T05:45:00.988Z</time></trkpt><trkpt lat="43.8881953" lon="11.1639051"><ele>156.0</ele><time>2026-04-04T05:45:03.037Z</time></trkpt><trkpt lat="43.888261" lon="11.1639857"><ele>156.0</ele><time>2026-04-04T05:45:05.974Z</time></trkpt><trkpt lat="43.8883228" lon="11.1640546"><ele>156.0</ele><time>2026-04-04T05:45:08.967Z</time></trkpt><trkpt lat="43.8883811" lon="11.1641277"><ele>156.0</ele><time>2026-04-04T05:45:11.957Z</time></trkpt><trkpt lat="43.8884221" lon="11.1641988"><ele>156.0</ele><time>2026-04-04T05:45:13.976Z</time></trkpt><trkpt lat="43.88847" lon="11.1642589"><ele>157.5</ele><time>2026-04-04T05:45:16.018Z</time></trkpt><trkpt lat="43.8885193" lon="11.164339"><ele>159.0</ele><time>2026-04-04T05:45:18.953Z</time></trkpt><trkpt lat="43.8885565" lon="11.1644138"><ele>160.5</ele><time>2026-04-04T05:45:20.956Z</time></trkpt><trkpt lat="43.8885864" lon="11.1645207"><ele>162.0</ele><time>2026-04-04T05:45:22.966Z</time></trkpt><trkpt lat="43.8886236" lon="11.1646348"><ele>163.5</ele><time>2026-04-04T05:45:24.958Z</time></trkpt><trkpt lat="43.8886739" lon="11.1647643"><ele>165.0</ele><time>2026-04-04T05:45:26.955Z</time></trkpt><trkpt lat="43.8887085" lon="11.1648573"><ele>166.83333333333334</ele><time>2026-04-04T05:45:28.964Z</time></trkpt><trkpt lat="43.888763" lon="11.1649668"><ele>168.66666666666666</ele><time>2026-04-04T05:45:31.947Z</time></trkpt><trkpt lat="43.888795" lon="11.1650463"><ele>170.5</ele><time>2026-04-04T05:45:33.973Z</time></trkpt><trkpt lat="43.8888251" lon="11.16517"><ele>172.33333333333331</ele><time>2026-04-04T05:45:36.972Z</time></trkpt><trkpt lat="43.888866" lon="11.1652896"><ele>174.16666666666666</ele><time>2026-04-04T05:45:39.962Z</time></trkpt><trkpt lat="43.888902" lon="11.1653744"><ele>176.0</ele><time>2026-04-04T05:45:41.975Z</time></trkpt><trkpt lat="43.8889304" lon="11.1654626"><ele>176.0</ele><time>2026-04-04T05:45:43.969Z</time></trkpt><trkpt lat="43.8889645" lon="11.1655494"><ele>176.0</ele><time>2026-04-04T05:45:45.973Z</time></trkpt><trkpt lat="43.8890071" lon="11.1656392"><ele>176.0</ele><time>2026-04-04T05:45:47.969Z</time></trkpt><trkpt lat="43.8890533" lon="11.1657329"><ele>176.0</ele><time>2026-04-04T05:45:49.961Z</time></trkpt><trkpt lat="43.8891072" lon="11.1657912"><ele>176.0</ele><time>2026-04-04T05:45:51.965Z</time></trkpt><trkpt lat="43.8891608" lon="11.1658485"><ele>176.0</ele><time>2026-04-04T05:45:53.971Z</time></trkpt><trkpt lat="43.8892138" lon="11.1659124"><ele>176.0</ele><time>2026-04-04T05:45:55.971Z</time></trkpt><trkpt lat="43.8892861" lon="11.1659831"><ele>178.66666666666666</ele><time>2026-04-04T05:45:58.955Z</time></trkpt><trkpt lat="43.8893457" lon="11.1660616"><ele>181.33333333333331</ele><time>2026-04-04T05:46:01.972Z</time></trkpt><trkpt lat="43.8893876" lon="11.1661291"><ele>184.0</ele><time>2026-04-04T05:46:03.968Z</time></trkpt><trkpt lat="43.8894378" lon="11.1662195"><ele>186.66666666666666</ele><time>2026-04-04T05:46:06.958Z</time></trkpt><trkpt lat="43.8894783" lon="11.1662897"><ele>189.33333333333334</ele><time>2026-04-04T05:46:08.961Z</time></trkpt><trkpt lat="43.8895354" lon="11.1663958"><ele>192.0</ele><time>2026-04-04T05:46:11.967Z</time></trkpt><trkpt lat="43.8895786" lon="11.1664711"><ele>193.28571428571428</ele><time>2026-04-04T05:46:13.971Z</time></trkpt><trkpt lat="43.8896168" lon="11.1665432"><ele>194.57142857142856</ele><time>2026-04-04T05:46:15.971Z</time></trkpt><trkpt lat="43.8896546" lon="11.1666157"><ele>195.85714285714283</ele><time>2026-04-04T05:46:17.97Z</time></trkpt><trkpt lat="43.8897039" lon="11.1666928"><ele>197.14285714285714</ele><time>2026-04-04T05:46:19.971Z</time></trkpt><trkpt lat="43.8897559" lon="11.1667708"><ele>198.42857142857144</ele><time>2026-04-04T05:46:21.973Z</time></trkpt><trkpt lat="43.8898006" lon="11.1668508"><ele>199.7142857142857</ele><time>2026-04-04T05:46:23.97Z</time></trkpt><trkpt lat="43.8898554" lon="11.1669455"><ele>201.0</ele><time>2026-04-04T05:46:25.968Z</time></trkpt><trkpt lat="43.8899072" lon="11.1670135"><ele>201.0</ele><time>2026-04-04T05:46:26.968Z</time></trkpt><trkpt lat="43.8900061" lon="11.1671213"><ele>201.0</ele><time>2026-04-04T05:46:28.966Z</time></trkpt><trkpt lat="43.890089" lon="11.1672212"><ele>201.0</ele><time>2026-04-04T05:46:30.978Z</time></trkpt><trkpt lat="43.890182" lon="11.1673248"><ele>201.0</ele><time>2026-04-04T05:46:32.979Z</time></trkpt><trkpt lat="43.8902601" lon="11.1674282"><ele>201.8</ele><time>2026-04-04T05:46:34.971Z</time></trkpt><trkpt lat="43.8903439" lon="11.1675627"><ele>202.60000000000002</ele><time>2026-04-04T05:46:36.971Z</time></trkpt><trkpt lat="43.8904094" lon="11.167677"><ele>203.4</ele><time>2026-04-04T05:46:38.967Z</time></trkpt><trkpt lat="43.8904641" lon="11.1677563"><ele>204.2</ele><time>2026-04-04T05:46:40.967Z</time></trkpt><trkpt lat="43.8905292" lon="11.1678059"><ele>205.0</ele><time>2026-04-04T05:46:42.984Z</time></trkpt><trkpt lat="43.8905991" lon="11.1678629"><ele>205.0</ele><time>2026-04-04T05:46:44.964Z</time></trkpt><trkpt lat="43.8906908" lon="11.1679531"><ele>205.0</ele><time>2026-04-04T05:46:46.968Z</time></trkpt><trkpt lat="43.8907455" lon="11.1680051"><ele>205.0</ele><time>2026-04-04T05:46:47.97Z</time></trkpt><trkpt lat="43.8908317" lon="11.1680887"><ele>205.0</ele><time>2026-04-04T05:46:49.975Z</time></trkpt><trkpt lat="43.8908886" lon="11.1681324"><ele>205.0</ele><time>2026-04-04T05:46:50.975Z</time></trkpt><trkpt lat="43.8909896" lon="11.1682014"><ele>205.0</ele><time>2026-04-04T05:46:52.972Z</time></trkpt><trkpt lat="43.891089" lon="11.168271"><ele>205.0</ele><time>2026-04-04T05:46:54.972Z</time></trkpt><trkpt lat="43.8911949" lon="11.1683349"><ele>205.0</ele><time>2026-04-04T05:46:56.971Z</time></trkpt><trkpt lat="43.8912665" lon="11.1683833"><ele>205.0</ele><time>2026-04-04T05:46:58.974Z</time></trkpt><trkpt lat="43.8913703" lon="11.1684151"><ele>205.0</ele><time>2026-04-04T05:47:00.966Z</time></trkpt><trkpt lat="43.8914661" lon="11.1684349"><ele>205.0</ele><time>2026-04-04T05:47:02.969Z</time></trkpt><trkpt lat="43.8915809" lon="11.1684484"><ele>205.0</ele><time>2026-04-04T05:47:04.951Z</time></trkpt><trkpt lat="43.8917037" lon="11.1684613"><ele>205.0</ele><time>2026-04-04T05:47:06.96Z</time></trkpt><trkpt lat="43.8918111" lon="11.1684824"><ele>205.0</ele><time>2026-04-04T05:47:08.974Z</time></trkpt><trkpt lat="43.891914" lon="11.1685302"><ele>204.6</ele><time>2026-04-04T05:47:10.97Z</time></trkpt><trkpt lat="43.8920186" lon="11.1685962"><ele>204.2</ele><time>2026-04-04T05:47:12.964Z</time></trkpt><trkpt lat="43.8921106" lon="11.168664"><ele>203.8</ele><time>2026-04-04T05:47:14.953Z</time></trkpt><trkpt lat="43.8921768" lon="11.1686747"><ele>203.4</ele><time>2026-04-04T05:47:16.96Z</time></trkpt><trkpt lat="43.8922556" lon="11.168638"><ele>203.0</ele><time>2026-04-04T05:47:18.963Z</time></trkpt><trkpt lat="43.8923628" lon="11.168625"><ele>203.0</ele><time>2026-04-04T05:47:20.959Z</time></trkpt><trkpt lat="43.8924328" lon="11.1686633"><ele>203.0</ele><time>2026-04-04T05:47:22.968Z</time></trkpt><trkpt lat="43.8924746" lon="11.1687317"><ele>203.0</ele><time>2026-04-04T05:47:24.951Z</time></trkpt><trkpt lat="43.8925211" lon="11.1688002"><ele>203.0</ele><time>2026-04-04T05:47:26.971Z</time></trkpt><trkpt lat="43.8925813" lon="11.1688442"><ele>203.0</ele><time>2026-04-04T05:47:28.972Z</time></trkpt><trkpt lat="43.8926585" lon="11.1688664"><ele>203.0</ele><time>2026-04-04T05:47:30.966Z</time></trkpt><trkpt lat="43.892723" lon="11.1688892"><ele>203.0</ele><time>2026-04-04T05:47:31.97Z</time></trkpt><trkpt lat="43.8928223" lon="11.1689201"><ele>203.83333333333334</ele><time>2026-04-04T05:47:33.969Z</time></trkpt><trkpt lat="43.8929295" lon="11.1689275"><ele>204.66666666666669</ele><time>2026-04-04T05:47:35.96Z</time></trkpt><trkpt lat="43.8930325" lon="11.1689535"><ele>205.5</ele><time>2026-04-04T05:47:37.965Z</time></trkpt><trkpt lat="43.8931021" lon="11.1690192"><ele>206.33333333333331</ele><time>2026-04-04T05:47:39.97Z</time></trkpt><trkpt lat="43.8931583" lon="11.1690857"><ele>207.16666666666666</ele><time>2026-04-04T05:47:41.973Z</time></trkpt><trkpt lat="43.8932092" lon="11.1691431"><ele>208.0</ele><time>2026-04-04T05:47:43.96Z</time></trkpt><trkpt lat="43.8932688" lon="11.1691885"><ele>208.0</ele><time>2026-04-04T05:47:45.966Z</time></trkpt><trkpt lat="43.8933322" lon="11.169228"><ele>208.0</ele><time>2026-04-04T05:47:47.968Z</time></trkpt><trkpt lat="43.8933938" lon="11.1692767"><ele>208.0</ele><time>2026-04-04T05:47:49.971Z</time></trkpt><trkpt lat="43.8934657" lon="11.1693512"><ele>208.0</ele><time>2026-04-04T05:47:51.973Z</time></trkpt><trkpt lat="43.8935399" lon="11.169463"><ele>208.0</ele><time>2026-04-04T05:47:53.958Z</time></trkpt><trkpt lat="43.8936237" lon="11.1695751"><ele>207.99999999999997</ele><time>2026-04-04T05:47:55.968Z</time></trkpt><trkpt lat="43.893705" lon="11.1696311"><ele>208.0</ele><time>2026-04-04T05:47:57.97Z</time></trkpt><trkpt lat="43.8937682" lon="11.1696702"><ele>208.0</ele><time>2026-04-04T05:47:59.97Z</time></trkpt><trkpt lat="43.8938206" lon="11.1697302"><ele>208.0</ele><time>2026-04-04T05:48:01.951Z</time></trkpt><trkpt lat="43.8938715" lon="11.1698074"><ele>207.99999999999997</ele><time>2026-04-04T05:48:03.961Z</time></trkpt><trkpt lat="43.89394" lon="11.1699399"><ele>208.0</ele><time>2026-04-04T05:48:05.969Z</time></trkpt><trkpt lat="43.894004" lon="11.1700648"><ele>208.83333333333331</ele><time>2026-04-04T05:48:07.973Z</time></trkpt><trkpt lat="43.8940624" lon="11.170186"><ele>209.66666666666666</ele><time>2026-04-04T05:48:09.972Z</time></trkpt><trkpt lat="43.8941165" lon="11.1702946"><ele>210.5</ele><time>2026-04-04T05:48:11.972Z</time></trkpt><trkpt lat="43.8941557" lon="11.1703717"><ele>211.33333333333331</ele><time>2026-04-04T05:48:13.962Z</time></trkpt><trkpt lat="43.8942109" lon="11.1704359"><ele>212.16666666666666</ele><time>2026-04-04T05:48:15.972Z</time></trkpt><trkpt lat="43.8942611" lon="11.1704985"><ele>213.0</ele><time>2026-04-04T05:48:16.973Z</time></trkpt><trkpt lat="43.8943354" lon="11.1706274"><ele>211.4</ele><time>2026-04-04T05:48:18.966Z</time></trkpt><trkpt lat="43.8943905" lon="11.1707644"><ele>209.8</ele><time>2026-04-04T05:48:20.975Z</time></trkpt><trkpt lat="43.8944287" lon="11.1708852"><ele>208.2</ele><time>2026-04-04T05:48:22.96Z</time></trkpt><trkpt lat="43.8944677" lon="11.1710312"><ele>206.6</ele><time>2026-04-04T05:48:24.967Z</time></trkpt><trkpt lat="43.8944833" lon="11.1711214"><ele>205.0</ele><time>2026-04-04T05:48:27.971Z</time></trkpt><trkpt lat="43.8945387" lon="11.1712052"><ele>204.99999999999997</ele><time>2026-04-04T05:48:30.971Z</time></trkpt><trkpt lat="43.8945797" lon="11.171305"><ele>205.0</ele><time>2026-04-04T05:48:33.965Z</time></trkpt><trkpt lat="43.8946282" lon="11.1713765"><ele>205.0</ele><time>2026-04-04T05:48:47.964Z</time></trkpt><trkpt lat="43.894584" lon="11.1714519"><ele>205.0</ele><time>2026-04-04T05:48:52.953Z</time></trkpt><trkpt lat="43.894533" lon="11.1715056"><ele>204.99999999999997</ele><time>2026-04-04T05:48:56.957Z</time></trkpt><trkpt lat="43.8944783" lon="11.1715847"><ele>205.0</ele><time>2026-04-04T05:49:04.967Z</time></trkpt><trkpt lat="43.8944289" lon="11.1716883"><ele>204.0</ele><time>2026-04-04T05:49:07.962Z</time></trkpt><trkpt lat="43.8944017" lon="11.1717803"><ele>203.0</ele><time>2026-04-04T05:49:09.957Z</time></trkpt><trkpt lat="43.894371" lon="11.1718765"><ele>202.0</ele><time>2026-04-04T05:49:11.971Z</time></trkpt><trkpt lat="43.8943477" lon="11.1719665"><ele>201.0</ele><time>2026-04-04T05:49:13.959Z</time></trkpt><trkpt lat="43.8943357" lon="11.172062"><ele>200.0</ele><time>2026-04-04T05:49:15.959Z</time></trkpt><trkpt lat="43.8943206" lon="11.1721564"><ele>199.0</ele><time>2026-04-04T05:49:17.966Z</time></trkpt><trkpt lat="43.8942935" lon="11.1722476"><ele>198.0</ele><time>2026-04-04T05:49:19.964Z</time></trkpt><trkpt lat="43.894255" lon="11.1723324"><ele>196.16666666666666</ele><time>2026-04-04T05:49:21.968Z</time></trkpt><trkpt lat="43.8942077" lon="11.1724241"><ele>194.33333333333334</ele><time>2026-04-04T05:49:23.973Z</time></trkpt><trkpt lat="43.8941827" lon="11.1725242"><ele>192.5</ele><time>2026-04-04T05:49:25.965Z</time></trkpt><trkpt lat="43.8941442" lon="11.1726238"><ele>190.66666666666669</ele><time>2026-04-04T05:49:28.972Z</time></trkpt><trkpt lat="43.8940969" lon="11.1726956"><ele>188.83333333333334</ele><time>2026-04-04T05:49:31.967Z</time></trkpt><trkpt lat="43.8940365" lon="11.1727401"><ele>187.0</ele><time>2026-04-04T05:49:35.963Z</time></trkpt><trkpt lat="43.8939787" lon="11.1728117"><ele>187.0</ele><time>2026-04-04T05:49:39.964Z</time></trkpt><trkpt lat="43.8939453" lon="11.172894"><ele>187.0</ele><time>2026-04-04T05:49:43.964Z</time></trkpt><trkpt lat="43.8939047" lon="11.1729728"><ele>187.0</ele><time>2026-04-04T05:49:46.969Z</time></trkpt><trkpt lat="43.8938766" lon="11.1730627"><ele>187.0</ele><time>2026-04-04T05:49:49.97Z</time></trkpt><trkpt lat="43.8938589" lon="11.1731923"><ele>187.0</ele><time>2026-04-04T05:49:52.97Z</time></trkpt><trkpt lat="43.8938822" lon="11.1733018"><ele>187.0</ele><time>2026-04-04T05:49:55.963Z</time></trkpt><trkpt lat="43.893927" lon="11.1733642"><ele>187.0</ele><time>2026-04-04T05:49:57.963Z</time></trkpt><trkpt lat="43.8939544" lon="11.1734521"><ele>186.42857142857142</ele><time>2026-04-04T05:50:00.968Z</time></trkpt><trkpt lat="43.8939446" lon="11.1735596"><ele>185.85714285714286</ele><time>2026-04-04T05:50:03.963Z</time></trkpt><trkpt lat="43.8939347" lon="11.173672"><ele>185.28571428571428</ele><time>2026-04-04T05:50:06.977Z</time></trkpt><trkpt lat="43.893916" lon="11.1737742"><ele>184.71428571428572</ele><time>2026-04-04T05:50:09.957Z</time></trkpt><trkpt lat="43.893881" lon="11.1738552"><ele>184.14285714285717</ele><time>2026-04-04T05:50:12.972Z</time></trkpt><trkpt lat="43.8938352" lon="11.1739327"><ele>183.57142857142858</ele><time>2026-04-04T05:50:15.968Z</time></trkpt><trkpt lat="43.8937766" lon="11.1739808"><ele>183.0</ele><time>2026-04-04T05:50:30.965Z</time></trkpt><trkpt lat="43.893714" lon="11.1740359"><ele>182.0</ele><time>2026-04-04T05:50:38.971Z</time></trkpt><trkpt lat="43.8936645" lon="11.1741082"><ele>181.0</ele><time>2026-04-04T05:50:46.969Z</time></trkpt><trkpt lat="43.893627" lon="11.1741867"><ele>180.0</ele><time>2026-04-04T05:50:51.949Z</time></trkpt><trkpt lat="43.8935994" lon="11.174275"><ele>179.0</ele><time>2026-04-04T05:50:55.944Z</time></trkpt><trkpt lat="43.8935604" lon="11.1743497"><ele>178.0</ele><time>2026-04-04T05:50:59.97Z</time></trkpt><trkpt lat="43.8935237" lon="11.1744419"><ele>177.0</ele><time>2026-04-04T05:51:32.964Z</time></trkpt><trkpt lat="43.8934947" lon="11.1745256"><ele>176.0</ele><time>2026-04-04T05:52:11.968Z</time></trkpt><trkpt lat="43.8934569" lon="11.1746024"><ele>174.83333333333331</ele><time>2026-04-04T05:52:44.029Z</time></trkpt><trkpt lat="43.8934159" lon="11.1746724"><ele>173.66666666666666</ele><time>2026-04-04T05:54:11.98Z</time></trkpt><trkpt lat="43.8933659" lon="11.1747416"><ele>172.5</ele><time>2026-04-04T05:54:16.959Z</time></trkpt><trkpt lat="43.8933269" lon="11.17482"><ele>171.33333333333334</ele><time>2026-04-04T05:54:20.986Z</time></trkpt><trkpt lat="43.8932962" lon="11.1749297"><ele>170.16666666666669</ele><time>2026-04-04T05:54:24.958Z</time></trkpt><trkpt lat="43.8932573" lon="11.1750521"><ele>169.0</ele><time>2026-04-04T05:54:27.965Z</time></trkpt><trkpt lat="43.893237" lon="11.1751465"><ele>168.0</ele><time>2026-04-04T05:54:29.963Z</time></trkpt><trkpt lat="43.8932059" lon="11.1752444"><ele>167.0</ele><time>2026-04-04T05:54:32.965Z</time></trkpt><trkpt lat="43.8931792" lon="11.1753369"><ele>166.0</ele><time>2026-04-04T05:54:35.966Z</time></trkpt><trkpt lat="43.8931451" lon="11.1754177"><ele>165.0</ele><time>2026-04-04T05:54:38.964Z</time></trkpt><trkpt lat="43.8931024" lon="11.1754836"><ele>164.0</ele><time>2026-04-04T05:54:42.956Z</time></trkpt><trkpt lat="43.8930775" lon="11.1755702"><ele>163.0</ele><time>2026-04-04T05:54:45.966Z</time></trkpt><trkpt lat="43.8930481" lon="11.1756638"><ele>162.0</ele><time>2026-04-04T05:54:48.965Z</time></trkpt><trkpt lat="43.8929649" lon="11.1757106"><ele>160.71428571428572</ele><time>2026-04-04T05:54:51.967Z</time></trkpt><trkpt lat="43.8928889" lon="11.1757425"><ele>159.42857142857142</ele><time>2026-04-04T05:54:54.971Z</time></trkpt><trkpt lat="43.8928179" lon="11.1757877"><ele>158.14285714285714</ele><time>2026-04-04T05:54:57.95Z</time></trkpt><trkpt lat="43.8927521" lon="11.1758111"><ele>156.85714285714286</ele><time>2026-04-04T05:55:00.964Z</time></trkpt><trkpt lat="43.8926885" lon="11.17583"><ele>155.57142857142858</ele><time>2026-04-04T05:55:02.956Z</time></trkpt><trkpt lat="43.8926162" lon="11.1758611"><ele>154.28571428571428</ele><time>2026-04-04T05:55:04.962Z</time></trkpt><trkpt lat="43.892556" lon="11.1759095"><ele>153.0</ele><time>2026-04-04T05:55:07.034Z</time></trkpt><trkpt lat="43.892519" lon="11.1759986"><ele>151.33333333333334</ele><time>2026-04-04T05:55:08.964Z</time></trkpt><trkpt lat="43.8925045" lon="11.1760916"><ele>149.66666666666666</ele><time>2026-04-04T05:55:10.967Z</time></trkpt><trkpt lat="43.8925161" lon="11.1761884"><ele>148.0</ele><time>2026-04-04T05:55:12.96Z</time></trkpt><trkpt lat="43.8925584" lon="11.1763354"><ele>146.33333333333331</ele><time>2026-04-04T05:55:14.963Z</time></trkpt><trkpt lat="43.8925868" lon="11.176414"><ele>144.66666666666666</ele><time>2026-04-04T05:55:15.966Z</time></trkpt><trkpt lat="43.8926478" lon="11.1765423"><ele>143.0</ele><time>2026-04-04T05:55:17.944Z</time></trkpt><trkpt lat="43.8927264" lon="11.1766502"><ele>142.6</ele><time>2026-04-04T05:55:19.965Z</time></trkpt><trkpt lat="43.8928186" lon="11.1767387"><ele>142.20000000000002</ele><time>2026-04-04T05:55:21.964Z</time></trkpt><trkpt lat="43.8929121" lon="11.1768044"><ele>141.8</ele><time>2026-04-04T05:55:23.969Z</time></trkpt><trkpt lat="43.8929897" lon="11.1768804"><ele>141.4</ele><time>2026-04-04T05:55:26.033Z</time></trkpt><trkpt lat="43.8930784" lon="11.1769525"><ele>141.0</ele><time>2026-04-04T05:55:27.973Z</time></trkpt><trkpt lat="43.8931843" lon="11.1769966"><ele>141.0</ele><time>2026-04-04T05:55:29.95Z</time></trkpt><trkpt lat="43.8932906" lon="11.1770443"><ele>141.0</ele><time>2026-04-04T05:55:31.968Z</time></trkpt><trkpt lat="43.8933649" lon="11.1770752"><ele>141.0</ele><time>2026-04-04T05:55:33.972Z</time></trkpt><trkpt lat="43.8934442" lon="11.1771343"><ele>141.0</ele><time>2026-04-04T05:55:36.982Z</time></trkpt><trkpt lat="43.8934848" lon="11.1772069"><ele>141.0</ele><time>2026-04-04T05:55:39.964Z</time></trkpt><trkpt lat="43.8934949" lon="11.1773088"><ele>141.0</ele><time>2026-04-04T05:55:42.969Z</time></trkpt><trkpt lat="43.8935215" lon="11.1774206"><ele>139.16666666666666</ele><time>2026-04-04T05:55:45.948Z</time></trkpt><trkpt lat="43.893556" lon="11.177507"><ele>137.33333333333334</ele><time>2026-04-04T05:55:48.042Z</time></trkpt><trkpt lat="43.8936016" lon="11.1775996"><ele>135.5</ele><time>2026-04-04T05:55:49.968Z</time></trkpt><trkpt lat="43.8936608" lon="11.1776689"><ele>133.66666666666669</ele><time>2026-04-04T05:55:51.974Z</time></trkpt><trkpt lat="43.8937324" lon="11.17774"><ele>131.83333333333334</ele><time>2026-04-04T05:55:54.965Z</time></trkpt><trkpt lat="43.8937924" lon="11.1777719"><ele>130.0</ele><time>2026-04-04T05:55:56.964Z</time></trkpt><trkpt lat="43.8938686" lon="11.1778398"><ele>130.0</ele><time>2026-04-04T05:55:59.972Z</time></trkpt><trkpt lat="43.8939457" lon="11.1779245"><ele>130.0</ele><time>2026-04-04T05:56:02.957Z</time></trkpt><trkpt lat="43.8940217" lon="11.1780314"><ele>130.0</ele><time>2026-04-04T05:56:04.964Z</time></trkpt><trkpt lat="43.8941324" lon="11.1781284"><ele>130.0</ele><time>2026-04-04T05:56:07.018Z</time></trkpt><trkpt lat="43.8942013" lon="11.1782106"><ele>130.0</ele><time>2026-04-04T05:56:08.038Z</time></trkpt><trkpt lat="43.8942444" lon="11.1782968"><ele>126.6</ele><time>2026-04-04T05:56:08.963Z</time></trkpt><trkpt lat="43.8942703" lon="11.1783895"><ele>123.2</ele><time>2026-04-04T05:56:10.953Z</time></trkpt><trkpt lat="43.8942887" lon="11.1785128"><ele>119.80000000000001</ele><time>2026-04-04T05:56:12.961Z</time></trkpt><trkpt lat="43.8942578" lon="11.1786573"><ele>116.4</ele><time>2026-04-04T05:56:14.955Z</time></trkpt><trkpt lat="43.8942204" lon="11.1788211"><ele>113.0</ele><time>2026-04-04T05:56:16.973Z</time></trkpt><trkpt lat="43.8941982" lon="11.1789148"><ele>113.0</ele><time>2026-04-04T05:56:17.973Z</time></trkpt><trkpt lat="43.8941814" lon="11.1790052"><ele>113.00000000000001</ele><time>2026-04-04T05:56:18.953Z</time></trkpt><trkpt lat="43.8941535" lon="11.1791645"><ele>113.00000000000001</ele><time>2026-04-04T05:56:20.964Z</time></trkpt><trkpt lat="43.8941904" lon="11.1793287"><ele>113.0</ele><time>2026-04-04T05:56:22.975Z</time></trkpt><trkpt lat="43.8942802" lon="11.1794235"><ele>113.0</ele><time>2026-04-04T05:56:24.972Z</time></trkpt><trkpt lat="43.8943677" lon="11.17951"><ele>112.60000000000001</ele><time>2026-04-04T05:56:26.962Z</time></trkpt><trkpt lat="43.8944109" lon="11.1796389"><ele>112.20000000000002</ele><time>2026-04-04T05:56:29.03Z</time></trkpt><trkpt lat="43.8943722" lon="11.1797744"><ele>111.8</ele><time>2026-04-04T05:56:30.96Z</time></trkpt><trkpt lat="43.8943126" lon="11.1798918"><ele>111.4</ele><time>2026-04-04T05:56:32.961Z</time></trkpt><trkpt lat="43.8942533" lon="11.1800425"><ele>111.0</ele><time>2026-04-04T05:56:34.968Z</time></trkpt><trkpt lat="43.894223" lon="11.1801254"><ele>110.0</ele><time>2026-04-04T05:56:35.968Z</time></trkpt><trkpt lat="43.8941916" lon="11.1802048"><ele>109.0</ele><time>2026-04-04T05:56:36.983Z</time></trkpt><trkpt lat="43.8941646" lon="11.180284"><ele>108.0</ele><time>2026-04-04T05:56:37.965Z</time></trkpt><trkpt lat="43.8941346" lon="11.1803643"><ele>107.0</ele><time>2026-04-04T05:56:39.035Z</time></trkpt><trkpt lat="43.8941059" lon="11.1804427"><ele>106.0</ele><time>2026-04-04T05:56:39.963Z</time></trkpt><trkpt lat="43.8940683" lon="11.1805235"><ele>105.0</ele><time>2026-04-04T05:56:40.979Z</time></trkpt><trkpt lat="43.8940201" lon="11.1806007"><ele>104.0</ele><time>2026-04-04T05:56:41.976Z</time></trkpt><trkpt lat="43.8939664" lon="11.1806496"><ele>104.33333333333333</ele><time>2026-04-04T05:56:42.973Z</time></trkpt><trkpt lat="43.8939228" lon="11.1807128"><ele>104.66666666666666</ele><time>2026-04-04T05:56:43.974Z</time></trkpt><trkpt lat="43.893872" lon="11.1808779"><ele>105.0</ele><time>2026-04-04T05:56:45.954Z</time></trkpt><trkpt lat="43.8938602" lon="11.1809671"><ele>105.33333333333334</ele><time>2026-04-04T05:56:46.993Z</time></trkpt><trkpt lat="43.893842" lon="11.1810558"><ele>105.66666666666667</ele><time>2026-04-04T05:56:47.992Z</time></trkpt><trkpt lat="43.8938138" lon="11.1811492"><ele>106.0</ele><time>2026-04-04T05:56:48.971Z</time></trkpt><trkpt lat="43.8937584" lon="11.1812853"><ele>106.0</ele><time>2026-04-04T05:56:50.977Z</time></trkpt><trkpt lat="43.8937009" lon="11.1814379"><ele>106.0</ele><time>2026-04-04T05:56:52.981Z</time></trkpt><trkpt lat="43.8936585" lon="11.1815841"><ele>106.0</ele><time>2026-04-04T05:56:54.967Z</time></trkpt><trkpt lat="43.8936592" lon="11.1816912"><ele>106.0</ele><time>2026-04-04T05:56:56.967Z</time></trkpt><trkpt lat="43.8937467" lon="11.1817727"><ele>106.0</ele><time>2026-04-04T05:56:59.007Z</time></trkpt><trkpt lat="43.8938102" lon="11.1818253"><ele>105.83333333333334</ele><time>2026-04-04T05:56:59.965Z</time></trkpt><trkpt lat="43.8939201" lon="11.1819071"><ele>105.66666666666667</ele><time>2026-04-04T05:57:01.938Z</time></trkpt><trkpt lat="43.8939934" lon="11.1819625"><ele>105.5</ele><time>2026-04-04T05:57:03.962Z</time></trkpt><trkpt lat="43.8940683" lon="11.1819363"><ele>105.33333333333334</ele><time>2026-04-04T05:57:06.95Z</time></trkpt><trkpt lat="43.8941178" lon="11.1818196"><ele>105.16666666666667</ele><time>2026-04-04T05:57:08.944Z</time></trkpt><trkpt lat="43.8941554" lon="11.1817436"><ele>105.0</ele><time>2026-04-04T05:57:09.961Z</time></trkpt><trkpt lat="43.8942165" lon="11.1816414"><ele>105.33333333333333</ele><time>2026-04-04T05:57:11.969Z</time></trkpt><trkpt lat="43.8943131" lon="11.1816459"><ele>105.66666666666666</ele><time>2026-04-04T05:57:13.969Z</time></trkpt><trkpt lat="43.8943732" lon="11.1816882"><ele>106.0</ele><time>2026-04-04T05:57:14.969Z</time></trkpt><trkpt lat="43.8944257" lon="11.1817375"><ele>106.33333333333333</ele><time>2026-04-04T05:57:15.964Z</time></trkpt><trkpt lat="43.8945299" lon="11.1818405"><ele>106.66666666666666</ele><time>2026-04-04T05:57:17.952Z</time></trkpt><trkpt lat="43.8945762" lon="11.1819113"><ele>107.0</ele><time>2026-04-04T05:57:18.955Z</time></trkpt><trkpt lat="43.8946219" lon="11.181989"><ele>106.99999999999999</ele><time>2026-04-04T05:57:19.975Z</time></trkpt><trkpt lat="43.8946724" lon="11.1820741"><ele>107.0</ele><time>2026-04-04T05:57:20.958Z</time></trkpt><trkpt lat="43.8947219" lon="11.1821664"><ele>107.0</ele><time>2026-04-04T05:57:21.962Z</time></trkpt><trkpt lat="43.8947716" lon="11.1822616"><ele>107.0</ele><time>2026-04-04T05:57:22.964Z</time></trkpt><trkpt lat="43.8948254" lon="11.1823556"><ele>106.99999999999999</ele><time>2026-04-04T05:57:23.972Z</time></trkpt><trkpt lat="43.8948774" lon="11.1824499"><ele>107.0</ele><time>2026-04-04T05:57:24.968Z</time></trkpt><trkpt lat="43.8949322" lon="11.1825369"><ele>107.16666666666666</ele><time>2026-04-04T05:57:25.965Z</time></trkpt><trkpt lat="43.8949936" lon="11.1826268"><ele>107.33333333333333</ele><time>2026-04-04T05:57:26.964Z</time></trkpt><trkpt lat="43.8950588" lon="11.1827119"><ele>107.5</ele><time>2026-04-04T05:57:27.957Z</time></trkpt><trkpt lat="43.8951306" lon="11.1827743"><ele>107.66666666666666</ele><time>2026-04-04T05:57:28.965Z</time></trkpt><trkpt lat="43.895212" lon="11.1828325"><ele>107.83333333333333</ele><time>2026-04-04T05:57:29.969Z</time></trkpt><trkpt lat="43.8952978" lon="11.1828839"><ele>108.0</ele><time>2026-04-04T05:57:30.959Z</time></trkpt><trkpt lat="43.8953824" lon="11.1829452"><ele>108.33333333333333</ele><time>2026-04-04T05:57:31.966Z</time></trkpt><trkpt lat="43.8954631" lon="11.1830049"><ele>108.66666666666666</ele><time>2026-04-04T05:57:32.968Z</time></trkpt><trkpt lat="43.8955409" lon="11.1830614"><ele>109.0</ele><time>2026-04-04T05:57:33.97Z</time></trkpt><trkpt lat="43.895611" lon="11.1831105"><ele>109.33333333333333</ele><time>2026-04-04T05:57:34.964Z</time></trkpt><trkpt lat="43.895668" lon="11.1831659"><ele>109.66666666666666</ele><time>2026-04-04T05:57:35.972Z</time></trkpt><trkpt lat="43.8957275" lon="11.1832188"><ele>110.0</ele><time>2026-04-04T05:57:36.962Z</time></trkpt><trkpt lat="43.8957991" lon="11.1832832"><ele>110.2</ele><time>2026-04-04T05:57:37.967Z</time></trkpt><trkpt lat="43.8958755" lon="11.1833453"><ele>110.4</ele><time>2026-04-04T05:57:38.971Z</time></trkpt><trkpt lat="43.8959577" lon="11.1834062"><ele>110.6</ele><time>2026-04-04T05:57:39.981Z</time></trkpt><trkpt lat="43.8960421" lon="11.1834712"><ele>110.8</ele><time>2026-04-04T05:57:40.974Z</time></trkpt><trkpt lat="43.8961254" lon="11.1835311"><ele>111.0</ele><time>2026-04-04T05:57:41.968Z</time></trkpt><trkpt lat="43.8962099" lon="11.1835919"><ele>111.0</ele><time>2026-04-04T05:57:42.973Z</time></trkpt><trkpt lat="43.8962952" lon="11.183656"><ele>111.0</ele><time>2026-04-04T05:57:43.963Z</time></trkpt><trkpt lat="43.8963819" lon="11.1837266"><ele>111.0</ele><time>2026-04-04T05:57:44.967Z</time></trkpt><trkpt lat="43.8964704" lon="11.1837974"><ele>111.0</ele><time>2026-04-04T05:57:45.969Z</time></trkpt><trkpt lat="43.8965584" lon="11.1838659"><ele>111.0</ele><time>2026-04-04T05:57:46.965Z</time></trkpt><trkpt lat="43.8966438" lon="11.1839402"><ele>111.0</ele><time>2026-04-04T05:57:47.962Z</time></trkpt><trkpt lat="43.896727" lon="11.1840163"><ele>111.0</ele><time>2026-04-04T05:57:48.957Z</time></trkpt><trkpt lat="43.896809" lon="11.1840899"><ele>111.0</ele><time>2026-04-04T05:57:49.97Z</time></trkpt><trkpt lat="43.8968913" lon="11.1841628"><ele>111.0</ele><time>2026-04-04T05:57:50.955Z</time></trkpt><trkpt lat="43.8969773" lon="11.1842335"><ele>111.0</ele><time>2026-04-04T05:57:51.958Z</time></trkpt><trkpt lat="43.8970561" lon="11.1843023"><ele>111.0</ele><time>2026-04-04T05:57:52.963Z</time></trkpt><trkpt lat="43.8971254" lon="11.1843632"><ele>111.0</ele><time>2026-04-04T05:57:53.966Z</time></trkpt><trkpt lat="43.8971961" lon="11.1844373"><ele>111.0</ele><time>2026-04-04T05:57:55.962Z</time></trkpt><trkpt lat="43.8972862" lon="11.1844712"><ele>111.0</ele><time>2026-04-04T05:58:01.977Z</time></trkpt><trkpt lat="43.8973876" lon="11.184467"><ele>111.0</ele><time>2026-04-04T05:58:03.962Z</time></trkpt><trkpt lat="43.8975107" lon="11.1844689"><ele>111.0</ele><time>2026-04-04T05:58:05.964Z</time></trkpt><trkpt lat="43.8975828" lon="11.1844811"><ele>111.0</ele><time>2026-04-04T05:58:06.963Z</time></trkpt><trkpt lat="43.8976527" lon="11.1844891"><ele>111.0</ele><time>2026-04-04T05:58:07.969Z</time></trkpt><trkpt lat="43.8977746" lon="11.1845337"><ele>111.0</ele><time>2026-04-04T05:58:09.968Z</time></trkpt><trkpt lat="43.8978843" lon="11.1845761"><ele>111.0</ele><time>2026-04-04T05:58:11.967Z</time></trkpt><trkpt lat="43.8979489" lon="11.1845351"><ele>111.66666666666667</ele><time>2026-04-04T05:58:12.961Z</time></trkpt><trkpt lat="43.8979968" lon="11.1844579"><ele>112.33333333333334</ele><time>2026-04-04T05:58:13.96Z</time></trkpt><trkpt lat="43.8980262" lon="11.1843596"><ele>113.0</ele><time>2026-04-04T05:58:14.957Z</time></trkpt><trkpt lat="43.8980552" lon="11.1842681"><ele>113.66666666666667</ele><time>2026-04-04T05:58:15.97Z</time></trkpt><trkpt lat="43.8980859" lon="11.1841884"><ele>114.33333333333334</ele><time>2026-04-04T05:58:16.966Z</time></trkpt><trkpt lat="43.8981371" lon="11.18405"><ele>115.0</ele><time>2026-04-04T05:58:18.969Z</time></trkpt><trkpt lat="43.8981941" lon="11.1839885"><ele>115.0</ele><time>2026-04-04T05:58:21.972Z</time></trkpt><trkpt lat="43.8982692" lon="11.1840337"><ele>115.0</ele><time>2026-04-04T05:58:24.963Z</time></trkpt><trkpt lat="43.8983548" lon="11.184116"><ele>115.0</ele><time>2026-04-04T05:58:26.972Z</time></trkpt><trkpt lat="43.8984651" lon="11.1842269"><ele>115.0</ele><time>2026-04-04T05:58:28.97Z</time></trkpt><trkpt lat="43.8985247" lon="11.1842972"><ele>115.0</ele><time>2026-04-04T05:58:29.979Z</time></trkpt><trkpt lat="43.8985933" lon="11.1843607"><ele>116.00000000000001</ele><time>2026-04-04T05:58:30.961Z</time></trkpt><trkpt lat="43.8986627" lon="11.184428"><ele>117.0</ele><time>2026-04-04T05:58:31.959Z</time></trkpt><trkpt lat="43.8987307" lon="11.1845"><ele>118.0</ele><time>2026-04-04T05:58:32.959Z</time></trkpt><trkpt lat="43.8987978" lon="11.1845687"><ele>119.0</ele><time>2026-04-04T05:58:33.964Z</time></trkpt><trkpt lat="43.8988585" lon="11.1846398"><ele>120.00000000000001</ele><time>2026-04-04T05:58:34.978Z</time></trkpt><trkpt lat="43.8989169" lon="11.1846998"><ele>121.0</ele><time>2026-04-04T05:58:35.974Z</time></trkpt><trkpt lat="43.8989657" lon="11.1847605"><ele>121.0</ele><time>2026-04-04T05:58:36.97Z</time></trkpt><trkpt lat="43.8990688" lon="11.1847934"><ele>121.0</ele><time>2026-04-04T05:58:38.964Z</time></trkpt><trkpt lat="43.8991268" lon="11.1847551"><ele>121.0</ele><time>2026-04-04T05:58:39.97Z</time></trkpt><trkpt lat="43.8991858" lon="11.1846885"><ele>121.0</ele><time>2026-04-04T05:58:40.945Z</time></trkpt><trkpt lat="43.8992694" lon="11.1845748"><ele>121.0</ele><time>2026-04-04T05:58:42.972Z</time></trkpt><trkpt lat="43.8993772" lon="11.1845387"><ele>123.8</ele><time>2026-04-04T05:58:44.976Z</time></trkpt><trkpt lat="43.8994783" lon="11.1845462"><ele>126.6</ele><time>2026-04-04T05:58:46.964Z</time></trkpt><trkpt lat="43.8995714" lon="11.1845394"><ele>129.4</ele><time>2026-04-04T05:58:48.968Z</time></trkpt><trkpt lat="43.8996782" lon="11.1845217"><ele>132.2</ele><time>2026-04-04T05:58:50.967Z</time></trkpt><trkpt lat="43.899803" lon="11.1844927"><ele>135.0</ele><time>2026-04-04T05:58:52.975Z</time></trkpt><trkpt lat="43.8999264" lon="11.184486"><ele>135.0</ele><time>2026-04-04T05:58:54.972Z</time></trkpt><trkpt lat="43.9000295" lon="11.1844991"><ele>135.0</ele><time>2026-04-04T05:58:56.97Z</time></trkpt><trkpt lat="43.9001116" lon="11.1845137"><ele>135.0</ele><time>2026-04-04T05:58:58.956Z</time></trkpt><trkpt lat="43.9001726" lon="11.1845447"><ele>135.0</ele><time>2026-04-04T05:59:00.964Z</time></trkpt><trkpt lat="43.900248" lon="11.1846123"><ele>135.0</ele><time>2026-04-04T05:59:02.961Z</time></trkpt><trkpt lat="43.9003306" lon="11.184722"><ele>137.66666666666666</ele><time>2026-04-04T05:59:04.953Z</time></trkpt><trkpt lat="43.900386" lon="11.1847661"><ele>140.33333333333334</ele><time>2026-04-04T05:59:05.95Z</time></trkpt><trkpt lat="43.9004504" lon="11.1848039"><ele>143.0</ele><time>2026-04-04T05:59:06.948Z</time></trkpt><trkpt lat="43.9005541" lon="11.1848413"><ele>145.66666666666669</ele><time>2026-04-04T05:59:08.969Z</time></trkpt><trkpt lat="43.9006268" lon="11.1848177"><ele>148.33333333333334</ele><time>2026-04-04T05:59:10.967Z</time></trkpt><trkpt lat="43.9007117" lon="11.1847509"><ele>151.0</ele><time>2026-04-04T05:59:12.96Z</time></trkpt><trkpt lat="43.9008092" lon="11.1846934"><ele>151.5</ele><time>2026-04-04T05:59:14.963Z</time></trkpt><trkpt lat="43.9009234" lon="11.1846321"><ele>152.0</ele><time>2026-04-04T05:59:16.963Z</time></trkpt><trkpt lat="43.9010278" lon="11.1845589"><ele>152.5</ele><time>2026-04-04T05:59:18.965Z</time></trkpt><trkpt lat="43.9010809" lon="11.1844398"><ele>153.0</ele><time>2026-04-04T05:59:20.979Z</time></trkpt><trkpt lat="43.9010904" lon="11.1842809"><ele>153.0</ele><time>2026-04-04T05:59:22.968Z</time></trkpt><trkpt lat="43.9011048" lon="11.1841288"><ele>153.0</ele><time>2026-04-04T05:59:24.971Z</time></trkpt><trkpt lat="43.9011128" lon="11.1839926"><ele>153.0</ele><time>2026-04-04T05:59:26.962Z</time></trkpt><trkpt lat="43.9011112" lon="11.1838851"><ele>153.0</ele><time>2026-04-04T05:59:28.957Z</time></trkpt><trkpt lat="43.9010613" lon="11.1837478"><ele>153.0</ele><time>2026-04-04T05:59:30.973Z</time></trkpt><trkpt lat="43.9010269" lon="11.1836068"><ele>155.16666666666666</ele><time>2026-04-04T05:59:32.967Z</time></trkpt><trkpt lat="43.9010744" lon="11.1834633"><ele>157.33333333333334</ele><time>2026-04-04T05:59:34.966Z</time></trkpt><trkpt lat="43.901136" lon="11.1833742"><ele>159.5</ele><time>2026-04-04T05:59:36.968Z</time></trkpt><trkpt lat="43.9011301" lon="11.183275"><ele>161.66666666666669</ele><time>2026-04-04T05:59:43.971Z</time></trkpt><trkpt lat="43.9010939" lon="11.1831935"><ele>163.83333333333334</ele><time>2026-04-04T05:59:46.946Z</time></trkpt><trkpt lat="43.9010556" lon="11.1831223"><ele>166.0</ele><time>2026-04-04T05:59:48.961Z</time></trkpt><trkpt lat="43.9010364" lon="11.1830069"><ele>167.28571428571428</ele><time>2026-04-04T05:59:51.975Z</time></trkpt><trkpt lat="43.9010304" lon="11.1828883"><ele>168.57142857142858</ele><time>2026-04-04T05:59:54.965Z</time></trkpt><trkpt lat="43.9010126" lon="11.1828022"><ele>169.85714285714286</ele><time>2026-04-04T05:59:56.958Z</time></trkpt><trkpt lat="43.9009771" lon="11.1827154"><ele>171.14285714285714</ele><time>2026-04-04T05:59:58.966Z</time></trkpt><trkpt lat="43.9009456" lon="11.1826237"><ele>172.42857142857144</ele><time>2026-04-04T06:00:00.953Z</time></trkpt><trkpt lat="43.9009291" lon="11.1825326"><ele>173.71428571428572</ele><time>2026-04-04T06:00:02.96Z</time></trkpt><trkpt lat="43.9009334" lon="11.1824143"><ele>175.0</ele><time>2026-04-04T06:00:05.966Z</time></trkpt><trkpt lat="43.9008997" lon="11.1823182"><ele>175.5</ele><time>2026-04-04T06:00:09.965Z</time></trkpt><trkpt lat="43.9008806" lon="11.1824294"><ele>176.0</ele><time>2026-04-04T06:00:16.95Z</time></trkpt><trkpt lat="43.900921" lon="11.1825385"><ele>176.5</ele><time>2026-04-04T06:00:19.97Z</time></trkpt><trkpt lat="43.9009393" lon="11.1826356"><ele>177.0</ele><time>2026-04-04T06:00:21.964Z</time></trkpt><trkpt lat="43.9009605" lon="11.1827464"><ele>177.5</ele><time>2026-04-04T06:00:23.973Z</time></trkpt><trkpt lat="43.9009898" lon="11.1828584"><ele>178.0</ele><time>2026-04-04T06:00:25.947Z</time></trkpt><trkpt lat="43.9010172" lon="11.1829685"><ele>178.0</ele><time>2026-04-04T06:00:27.959Z</time></trkpt><trkpt lat="43.9010386" lon="11.1830758"><ele>178.0</ele><time>2026-04-04T06:00:29.964Z</time></trkpt><trkpt lat="43.9010472" lon="11.1831703"><ele>178.0</ele><time>2026-04-04T06:00:31.954Z</time></trkpt><trkpt lat="43.9010678" lon="11.1832589"><ele>178.0</ele><time>2026-04-04T06:00:33.966Z</time></trkpt><trkpt lat="43.9011006" lon="11.1833446"><ele>178.0</ele><time>2026-04-04T06:00:37.965Z</time></trkpt><trkpt lat="43.9010691" lon="11.1834345"><ele>178.0</ele><time>2026-04-04T06:00:42.966Z</time></trkpt><trkpt lat="43.90102" lon="11.183556"><ele>176.0</ele><time>2026-04-04T06:00:45.968Z</time></trkpt><trkpt lat="43.9010338" lon="11.1836646"><ele>174.0</ele><time>2026-04-04T06:00:47.955Z</time></trkpt><trkpt lat="43.9010558" lon="11.1837663"><ele>172.0</ele><time>2026-04-04T06:00:49.965Z</time></trkpt><trkpt lat="43.9010895" lon="11.1838754"><ele>170.0</ele><time>2026-04-04T06:00:52.967Z</time></trkpt><trkpt lat="43.9010896" lon="11.1839936"><ele>168.0</ele><time>2026-04-04T06:00:55.965Z</time></trkpt><trkpt lat="43.901084" lon="11.1840963"><ele>166.0</ele><time>2026-04-04T06:00:57.967Z</time></trkpt><trkpt lat="43.9010878" lon="11.1842269"><ele>163.83333333333334</ele><time>2026-04-04T06:00:59.965Z</time></trkpt><trkpt lat="43.9011004" lon="11.184387"><ele>161.66666666666669</ele><time>2026-04-04T06:01:01.97Z</time></trkpt><trkpt lat="43.9010549" lon="11.1845146"><ele>159.5</ele><time>2026-04-04T06:01:03.966Z</time></trkpt><trkpt lat="43.9010009" lon="11.1845666"><ele>157.33333333333334</ele><time>2026-04-04T06:01:04.961Z</time></trkpt><trkpt lat="43.9009409" lon="11.1846076"><ele>155.16666666666666</ele><time>2026-04-04T06:01:05.965Z</time></trkpt><trkpt lat="43.9008772" lon="11.1846514"><ele>153.0</ele><time>2026-04-04T06:01:06.968Z</time></trkpt><trkpt lat="43.9008157" lon="11.1846775"><ele>152.66666666666666</ele><time>2026-04-04T06:01:07.972Z</time></trkpt><trkpt lat="43.9007553" lon="11.1847161"><ele>152.33333333333334</ele><time>2026-04-04T06:01:08.962Z</time></trkpt><trkpt lat="43.9006963" lon="11.1847642"><ele>152.0</ele><time>2026-04-04T06:01:09.971Z</time></trkpt><trkpt lat="43.900606" lon="11.1848317"><ele>151.66666666666669</ele><time>2026-04-04T06:01:11.968Z</time></trkpt><trkpt lat="43.9005879" lon="11.1849156"><ele>151.33333333333334</ele><time>2026-04-04T06:01:14.982Z</time></trkpt><trkpt lat="43.9006281" lon="11.1849885"><ele>151.0</ele><time>2026-04-04T06:01:16.967Z</time></trkpt><trkpt lat="43.9006966" lon="11.1850739"><ele>148.6</ele><time>2026-04-04T06:01:18.982Z</time></trkpt><trkpt lat="43.9007981" lon="11.185122"><ele>146.2</ele><time>2026-04-04T06:01:20.974Z</time></trkpt><trkpt lat="43.9009033" lon="11.1851987"><ele>143.8</ele><time>2026-04-04T06:01:22.973Z</time></trkpt><trkpt lat="43.9009972" lon="11.1852816"><ele>141.4</ele><time>2026-04-04T06:01:24.959Z</time></trkpt><trkpt lat="43.9010859" lon="11.1853588"><ele>139.0</ele><time>2026-04-04T06:01:26.966Z</time></trkpt><trkpt lat="43.9011604" lon="11.1853898"><ele>138.85714285714286</ele><time>2026-04-04T06:01:28.97Z</time></trkpt><trkpt lat="43.9012467" lon="11.1854222"><ele>138.71428571428572</ele><time>2026-04-04T06:01:30.961Z</time></trkpt><trkpt lat="43.9013112" lon="11.1854784"><ele>138.57142857142858</ele><time>2026-04-04T06:01:32.964Z</time></trkpt><trkpt lat="43.9013319" lon="11.1855656"><ele>138.42857142857144</ele><time>2026-04-04T06:01:34.964Z</time></trkpt><trkpt lat="43.9013062" lon="11.1856463"><ele>138.2857142857143</ele><time>2026-04-04T06:01:36.956Z</time></trkpt><trkpt lat="43.9013276" lon="11.1857539"><ele>138.14285714285714</ele><time>2026-04-04T06:01:39.968Z</time></trkpt><trkpt lat="43.9013981" lon="11.1857649"><ele>138.0</ele><time>2026-04-04T06:01:42.964Z</time></trkpt><trkpt lat="43.9014915" lon="11.1857592"><ele>137.0</ele><time>2026-04-04T06:01:45.957Z</time></trkpt><trkpt lat="43.9015553" lon="11.1857554"><ele>136.0</ele><time>2026-04-04T06:01:47.964Z</time></trkpt><trkpt lat="43.9016498" lon="11.185742"><ele>135.0</ele><time>2026-04-04T06:01:50.953Z</time></trkpt><trkpt lat="43.9017413" lon="11.1857546"><ele>134.0</ele><time>2026-04-04T06:01:53.953Z</time></trkpt><trkpt lat="43.9018046" lon="11.1857974"><ele>133.0</ele><time>2026-04-04T06:01:55.968Z</time></trkpt><trkpt lat="43.9018626" lon="11.1858841"><ele>132.0</ele><time>2026-04-04T06:01:57.972Z</time></trkpt><trkpt lat="43.9019504" lon="11.1859908"><ele>134.66666666666666</ele><time>2026-04-04T06:01:59.973Z</time></trkpt><trkpt lat="43.9020123" lon="11.186026"><ele>137.33333333333334</ele><time>2026-04-04T06:02:00.972Z</time></trkpt><trkpt lat="43.9020795" lon="11.1860583"><ele>140.0</ele><time>2026-04-04T06:02:01.969Z</time></trkpt><trkpt lat="43.9021408" lon="11.18608"><ele>142.66666666666669</ele><time>2026-04-04T06:02:02.96Z</time></trkpt><trkpt lat="43.9022437" lon="11.1860988"><ele>145.33333333333334</ele><time>2026-04-04T06:02:04.961Z</time></trkpt><trkpt lat="43.9023408" lon="11.1860955"><ele>148.0</ele><time>2026-04-04T06:02:06.96Z</time></trkpt><trkpt lat="43.9024408" lon="11.1860892"><ele>148.0</ele><time>2026-04-04T06:02:08.958Z</time></trkpt><trkpt lat="43.9025427" lon="11.186083"><ele>148.0</ele><time>2026-04-04T06:02:10.971Z</time></trkpt><trkpt lat="43.9026438" lon="11.1860757"><ele>148.0</ele><time>2026-04-04T06:02:12.963Z</time></trkpt><trkpt lat="43.902748" lon="11.1860693"><ele>148.0</ele><time>2026-04-04T06:02:14.965Z</time></trkpt><trkpt lat="43.902848" lon="11.1860823"><ele>148.0</ele><time>2026-04-04T06:02:16.966Z</time></trkpt><trkpt lat="43.9029779" lon="11.1861176"><ele>151.16666666666669</ele><time>2026-04-04T06:02:18.96Z</time></trkpt><trkpt lat="43.9030922" lon="11.1861448"><ele>154.33333333333334</ele><time>2026-04-04T06:02:20.942Z</time></trkpt><trkpt lat="43.9031869" lon="11.1861637"><ele>157.5</ele><time>2026-04-04T06:02:22.98Z</time></trkpt><trkpt lat="43.9032611" lon="11.1861827"><ele>160.66666666666666</ele><time>2026-04-04T06:02:24.976Z</time></trkpt><trkpt lat="43.903326" lon="11.1861926"><ele>163.83333333333331</ele><time>2026-04-04T06:02:26.975Z</time></trkpt><trkpt lat="43.9034055" lon="11.1861466"><ele>167.0</ele><time>2026-04-04T06:02:29.957Z</time></trkpt><trkpt lat="43.9034584" lon="11.1860975"><ele>169.0</ele><time>2026-04-04T06:02:31.963Z</time></trkpt><trkpt lat="43.9035275" lon="11.1860529"><ele>171.0</ele><time>2026-04-04T06:02:33.972Z</time></trkpt><trkpt lat="43.9035994" lon="11.1860071"><ele>173.0</ele><time>2026-04-04T06:02:35.957Z</time></trkpt><trkpt lat="43.9036588" lon="11.1859235"><ele>175.0</ele><time>2026-04-04T06:02:37.957Z</time></trkpt><trkpt lat="43.9037134" lon="11.1858753"><ele>177.0</ele><time>2026-04-04T06:02:39.962Z</time></trkpt><trkpt lat="43.9037746" lon="11.1858415"><ele>179.0</ele><time>2026-04-04T06:02:41.978Z</time></trkpt><trkpt lat="43.9038491" lon="11.1858276"><ele>181.0</ele><time>2026-04-04T06:02:44.039Z</time></trkpt><trkpt lat="43.9039555" lon="11.1858573"><ele>181.0</ele><time>2026-04-04T06:02:45.968Z</time></trkpt><trkpt lat="43.9040364" lon="11.1858834"><ele>181.0</ele><time>2026-04-04T06:02:47.967Z</time></trkpt><trkpt lat="43.9041363" lon="11.1859382"><ele>181.0</ele><time>2026-04-04T06:02:49.972Z</time></trkpt><trkpt lat="43.904224" lon="11.1860221"><ele>181.0</ele><time>2026-04-04T06:02:51.983Z</time></trkpt><trkpt lat="43.9043257" lon="11.1860286"><ele>181.0</ele><time>2026-04-04T06:02:53.957Z</time></trkpt><trkpt lat="43.904424" lon="11.1859611"><ele>181.60000000000002</ele><time>2026-04-04T06:02:55.967Z</time></trkpt><trkpt lat="43.90451" lon="11.1858486"><ele>182.2</ele><time>2026-04-04T06:02:57.969Z</time></trkpt><trkpt lat="43.9045673" lon="11.185751"><ele>182.8</ele><time>2026-04-04T06:02:59.97Z</time></trkpt><trkpt lat="43.9046358" lon="11.1856851"><ele>183.39999999999998</ele><time>2026-04-04T06:03:01.966Z</time></trkpt><trkpt lat="43.904721" lon="11.1856131"><ele>184.0</ele><time>2026-04-04T06:03:03.971Z</time></trkpt><trkpt lat="43.9048093" lon="11.1855779"><ele>185.16666666666669</ele><time>2026-04-04T06:03:05.974Z</time></trkpt><trkpt lat="43.9049179" lon="11.1855862"><ele>186.33333333333334</ele><time>2026-04-04T06:03:07.958Z</time></trkpt><trkpt lat="43.9050206" lon="11.1855995"><ele>187.5</ele><time>2026-04-04T06:03:09.978Z</time></trkpt><trkpt lat="43.9051248" lon="11.1856299"><ele>188.66666666666666</ele><time>2026-04-04T06:03:11.963Z</time></trkpt><trkpt lat="43.9051843" lon="11.1856588"><ele>189.83333333333331</ele><time>2026-04-04T06:03:12.971Z</time></trkpt><trkpt lat="43.9052445" lon="11.185691"><ele>191.0</ele><time>2026-04-04T06:03:13.968Z</time></trkpt><trkpt lat="43.9053083" lon="11.1857179"><ele>191.0</ele><time>2026-04-04T06:03:14.971Z</time></trkpt><trkpt lat="43.9054081" lon="11.1857654"><ele>191.0</ele><time>2026-04-04T06:03:16.967Z</time></trkpt><trkpt lat="43.9055002" lon="11.1857943"><ele>191.0</ele><time>2026-04-04T06:03:18.962Z</time></trkpt><trkpt lat="43.9055628" lon="11.1858099"><ele>191.0</ele><time>2026-04-04T06:03:19.978Z</time></trkpt><trkpt lat="43.9056249" lon="11.1858266"><ele>191.0</ele><time>2026-04-04T06:03:20.975Z</time></trkpt><trkpt lat="43.9057368" lon="11.1858618"><ele>191.0</ele><time>2026-04-04T06:03:22.972Z</time></trkpt><trkpt lat="43.9058411" lon="11.1859016"><ele>192.0</ele><time>2026-04-04T06:03:24.964Z</time></trkpt><trkpt lat="43.9059171" lon="11.1859539"><ele>193.0</ele><time>2026-04-04T06:03:26.969Z</time></trkpt><trkpt lat="43.9059748" lon="11.1860364"><ele>194.0</ele><time>2026-04-04T06:03:28.954Z</time></trkpt><trkpt lat="43.9060764" lon="11.1861383"><ele>195.0</ele><time>2026-04-04T06:03:30.966Z</time></trkpt><trkpt lat="43.9061712" lon="11.1861856"><ele>196.0</ele><time>2026-04-04T06:03:32.966Z</time></trkpt><trkpt lat="43.9062442" lon="11.1862405"><ele>195.99999999999997</ele><time>2026-04-04T06:03:34.973Z</time></trkpt><trkpt lat="43.9063074" lon="11.1862414"><ele>196.0</ele><time>2026-04-04T06:03:36.97Z</time></trkpt><trkpt lat="43.906376" lon="11.1862054"><ele>196.0</ele><time>2026-04-04T06:03:38.967Z</time></trkpt><trkpt lat="43.9064812" lon="11.1861512"><ele>196.0</ele><time>2026-04-04T06:03:40.953Z</time></trkpt><trkpt lat="43.906535" lon="11.1860473"><ele>195.99999999999997</ele><time>2026-04-04T06:03:42.976Z</time></trkpt><trkpt lat="43.9065926" lon="11.1859283"><ele>196.0</ele><time>2026-04-04T06:03:44.959Z</time></trkpt><trkpt lat="43.9066645" lon="11.1858298"><ele>197.4</ele><time>2026-04-04T06:03:46.972Z</time></trkpt><trkpt lat="43.9067467" lon="11.185738"><ele>198.8</ele><time>2026-04-04T06:03:48.959Z</time></trkpt><trkpt lat="43.9068344" lon="11.1856454"><ele>200.20000000000002</ele><time>2026-04-04T06:03:50.977Z</time></trkpt><trkpt lat="43.906921" lon="11.185577"><ele>201.60000000000002</ele><time>2026-04-04T06:03:52.966Z</time></trkpt><trkpt lat="43.9070218" lon="11.1855065"><ele>203.0</ele><time>2026-04-04T06:03:54.974Z</time></trkpt><trkpt lat="43.9071174" lon="11.1854327"><ele>206.2</ele><time>2026-04-04T06:03:56.971Z</time></trkpt><trkpt lat="43.9072152" lon="11.1853877"><ele>209.4</ele><time>2026-04-04T06:03:58.967Z</time></trkpt><trkpt lat="43.9073049" lon="11.1853565"><ele>212.59999999999997</ele><time>2026-04-04T06:04:00.981Z</time></trkpt><trkpt lat="43.9073948" lon="11.1854015"><ele>215.79999999999998</ele><time>2026-04-04T06:04:02.974Z</time></trkpt><trkpt lat="43.9074755" lon="11.1854983"><ele>219.0</ele><time>2026-04-04T06:04:04.976Z</time></trkpt><trkpt lat="43.9075594" lon="11.1855992"><ele>217.79999999999998</ele><time>2026-04-04T06:04:06.965Z</time></trkpt><trkpt lat="43.9076561" lon="11.1856529"><ele>216.59999999999997</ele><time>2026-04-04T06:04:08.97Z</time></trkpt><trkpt lat="43.9077622" lon="11.1856785"><ele>215.4</ele><time>2026-04-04T06:04:10.976Z</time></trkpt><trkpt lat="43.9078686" lon="11.1856569"><ele>214.2</ele><time>2026-04-04T06:04:12.972Z</time></trkpt><trkpt lat="43.9079409" lon="11.1856185"><ele>213.0</ele><time>2026-04-04T06:04:14.965Z</time></trkpt><trkpt lat="43.9080137" lon="11.1856572"><ele>213.0</ele><time>2026-04-04T06:04:18.967Z</time></trkpt><trkpt lat="43.9080798" lon="11.1856198"><ele>213.0</ele><time>2026-04-04T06:04:24.964Z</time></trkpt><trkpt lat="43.9081212" lon="11.1855429"><ele>213.0</ele><time>2026-04-04T06:04:27.96Z</time></trkpt><trkpt lat="43.90816" lon="11.1854355"><ele>213.0</ele><time>2026-04-04T06:04:30.96Z</time></trkpt><trkpt lat="43.9081997" lon="11.1853349"><ele>213.0</ele><time>2026-04-04T06:04:32.967Z</time></trkpt><trkpt lat="43.9082317" lon="11.1851828"><ele>213.0</ele><time>2026-04-04T06:04:34.964Z</time></trkpt><trkpt lat="43.9082692" lon="11.1850496"><ele>213.0</ele><time>2026-04-04T06:04:36.959Z</time></trkpt><trkpt lat="43.9083184" lon="11.1849444"><ele>213.0</ele><time>2026-04-04T06:04:38.959Z</time></trkpt><trkpt lat="43.9083829" lon="11.1848491"><ele>213.0</ele><time>2026-04-04T06:04:40.972Z</time></trkpt><trkpt lat="43.9084429" lon="11.184748"><ele>213.0</ele><time>2026-04-04T06:04:43.038Z</time></trkpt><trkpt lat="43.9085092" lon="11.1846621"><ele>213.0</ele><time>2026-04-04T06:04:44.955Z</time></trkpt><trkpt lat="43.9085921" lon="11.184625"><ele>215.5</ele><time>2026-04-04T06:04:46.964Z</time></trkpt><trkpt lat="43.9086794" lon="11.1845795"><ele>218.0</ele><time>2026-04-04T06:04:48.974Z</time></trkpt><trkpt lat="43.9087574" lon="11.1845257"><ele>220.5</ele><time>2026-04-04T06:04:51.066Z</time></trkpt><trkpt lat="43.9088392" lon="11.184514"><ele>223.0</ele><time>2026-04-04T06:04:53.953Z</time></trkpt><trkpt lat="43.9088726" lon="11.1846103"><ele>225.5</ele><time>2026-04-04T06:04:57.966Z</time></trkpt><trkpt lat="43.9088976" lon="11.1847037"><ele>228.0</ele><time>2026-04-04T06:05:02.033Z</time></trkpt><trkpt lat="43.908937" lon="11.1847827"><ele>228.0</ele><time>2026-04-04T06:05:04.97Z</time></trkpt><trkpt lat="43.9089778" lon="11.1848653"><ele>227.99999999999997</ele><time>2026-04-04T06:05:07.968Z</time></trkpt><trkpt lat="43.9089998" lon="11.1849508"><ele>228.0</ele><time>2026-04-04T06:05:31.963Z</time></trkpt><trkpt lat="43.9090246" lon="11.1850389"><ele>228.0</ele><time>2026-04-04T06:05:42.97Z</time></trkpt><trkpt lat="43.9089903" lon="11.1849571"><ele>227.99999999999997</ele><time>2026-04-04T06:06:13.963Z</time></trkpt><trkpt lat="43.9089731" lon="11.1848703"><ele>228.0</ele><time>2026-04-04T06:06:22.958Z</time></trkpt><trkpt lat="43.9089159" lon="11.1847883"><ele>228.0</ele><time>2026-04-04T06:06:55.952Z</time></trkpt><trkpt lat="43.9089752" lon="11.1848226"><ele>228.0</ele><time>2026-04-04T06:07:40.96Z</time></trkpt><trkpt lat="43.9090657" lon="11.1848248"><ele>228.0</ele><time>2026-04-04T06:08:05.962Z</time></trkpt><trkpt lat="43.9089962" lon="11.1848076"><ele>228.0</ele><time>2026-04-04T06:09:04.967Z</time></trkpt><trkpt lat="43.9089219" lon="11.1846905"><ele>228.0</ele><time>2026-04-04T06:10:00.95Z</time></trkpt><trkpt lat="43.9089023" lon="11.1846057"><ele>228.0</ele><time>2026-04-04T06:10:05.031Z</time></trkpt><trkpt lat="43.9088544" lon="11.18453"><ele>228.0</ele><time>2026-04-04T06:10:16.956Z</time></trkpt><trkpt lat="43.908767" lon="11.1845283"><ele>228.0</ele><time>2026-04-04T06:10:20.066Z</time></trkpt><trkpt lat="43.9086766" lon="11.1845404"><ele>228.0</ele><time>2026-04-04T06:10:21.976Z</time></trkpt><trkpt lat="43.9085974" lon="11.1845629"><ele>228.0</ele><time>2026-04-04T06:10:23.971Z</time></trkpt><trkpt lat="43.9085091" lon="11.1846344"><ele>228.0</ele><time>2026-04-04T06:10:25.954Z</time></trkpt><trkpt lat="43.9084266" lon="11.184747"><ele>228.0</ele><time>2026-04-04T06:10:27.959Z</time></trkpt><trkpt lat="43.908361" lon="11.184851"><ele>225.0</ele><time>2026-04-04T06:10:29.963Z</time></trkpt><trkpt lat="43.9083059" lon="11.184976"><ele>222.0</ele><time>2026-04-04T06:10:31.959Z</time></trkpt><trkpt lat="43.908258" lon="11.1851165"><ele>219.0</ele><time>2026-04-04T06:10:33.964Z</time></trkpt><trkpt lat="43.9082326" lon="11.185264"><ele>216.0</ele><time>2026-04-04T06:10:35.982Z</time></trkpt><trkpt lat="43.9081952" lon="11.1853868"><ele>213.0</ele><time>2026-04-04T06:10:37.958Z</time></trkpt><trkpt lat="43.908127" lon="11.1854878"><ele>213.0</ele><time>2026-04-04T06:10:39.965Z</time></trkpt><trkpt lat="43.9080679" lon="11.1855939"><ele>213.0</ele><time>2026-04-04T06:10:41.946Z</time></trkpt><trkpt lat="43.9080074" lon="11.1856606"><ele>213.0</ele><time>2026-04-04T06:10:43.972Z</time></trkpt><trkpt lat="43.9079724" lon="11.185587"><ele>213.0</ele><time>2026-04-04T06:10:50.96Z</time></trkpt><trkpt lat="43.9080225" lon="11.1854774"><ele>213.0</ele><time>2026-04-04T06:11:12.972Z</time></trkpt><trkpt lat="43.9080491" lon="11.1853886"><ele>213.0</ele><time>2026-04-04T06:11:14.976Z</time></trkpt><trkpt lat="43.9080588" lon="11.1853003"><ele>213.0</ele><time>2026-04-04T06:11:16.981Z</time></trkpt><trkpt lat="43.9080537" lon="11.1852117"><ele>213.0</ele><time>2026-04-04T06:11:18.939Z</time></trkpt><trkpt lat="43.9080449" lon="11.1850884"><ele>213.0</ele><time>2026-04-04T06:11:21.97Z</time></trkpt><trkpt lat="43.9080504" lon="11.1849961"><ele>213.0</ele><time>2026-04-04T06:11:23.947Z</time></trkpt><trkpt lat="43.908064" lon="11.1849023"><ele>213.0</ele><time>2026-04-04T06:11:25.952Z</time></trkpt><trkpt lat="43.9080792" lon="11.1848109"><ele>213.0</ele><time>2026-04-04T06:11:27.966Z</time></trkpt><trkpt lat="43.9081116" lon="11.1846887"><ele>216.16666666666666</ele><time>2026-04-04T06:11:30.962Z</time></trkpt><trkpt lat="43.9081288" lon="11.1845736"><ele>219.33333333333331</ele><time>2026-04-04T06:11:33.962Z</time></trkpt><trkpt lat="43.9081514" lon="11.1844579"><ele>222.5</ele><time>2026-04-04T06:11:37.031Z</time></trkpt><trkpt lat="43.9081536" lon="11.1843529"><ele>225.66666666666666</ele><time>2026-04-04T06:11:39.967Z</time></trkpt><trkpt lat="43.9081543" lon="11.1842597"><ele>228.83333333333331</ele><time>2026-04-04T06:11:42.966Z</time></trkpt><trkpt lat="43.9081685" lon="11.1841678"><ele>232.0</ele><time>2026-04-04T06:11:46.03Z</time></trkpt><trkpt lat="43.9081645" lon="11.184073"><ele>235.16666666666666</ele><time>2026-04-04T06:11:48.951Z</time></trkpt><trkpt lat="43.9081764" lon="11.1839747"><ele>238.33333333333331</ele><time>2026-04-04T06:11:51.966Z</time></trkpt><trkpt lat="43.9082078" lon="11.1838762"><ele>241.5</ele><time>2026-04-04T06:11:55.976Z</time></trkpt><trkpt lat="43.9082755" lon="11.1838195"><ele>244.66666666666669</ele><time>2026-04-04T06:11:59.983Z</time></trkpt><trkpt lat="43.9082766" lon="11.1837225"><ele>247.83333333333334</ele><time>2026-04-04T06:12:03.978Z</time></trkpt><trkpt lat="43.9082009" lon="11.183652"><ele>251.0</ele><time>2026-04-04T06:12:06.98Z</time></trkpt><trkpt lat="43.9081491" lon="11.1835966"><ele>251.00000000000003</ele><time>2026-04-04T06:12:08.975Z</time></trkpt><trkpt lat="43.9080963" lon="11.1835441"><ele>251.0</ele><time>2026-04-04T06:12:10.973Z</time></trkpt><trkpt lat="43.9081051" lon="11.1834385"><ele>251.0</ele><time>2026-04-04T06:12:22.972Z</time></trkpt><trkpt lat="43.9081796" lon="11.183359"><ele>251.0</ele><time>2026-04-04T06:12:25.97Z</time></trkpt><trkpt lat="43.9082284" lon="11.1832944"><ele>251.00000000000003</ele><time>2026-04-04T06:12:27.954Z</time></trkpt><trkpt lat="43.9082801" lon="11.1832382"><ele>251.0</ele><time>2026-04-04T06:12:29.967Z</time></trkpt><trkpt lat="43.9083553" lon="11.1831485"><ele>254.4285714285714</ele><time>2026-04-04T06:12:32.955Z</time></trkpt><trkpt lat="43.9084194" lon="11.1831018"><ele>257.85714285714283</ele><time>2026-04-04T06:12:34.972Z</time></trkpt><trkpt lat="43.9084766" lon="11.1830652"><ele>261.2857142857143</ele><time>2026-04-04T06:12:36.959Z</time></trkpt><trkpt lat="43.9085534" lon="11.1829854"><ele>264.71428571428567</ele><time>2026-04-04T06:12:39.966Z</time></trkpt><trkpt lat="43.9086073" lon="11.182931"><ele>268.1428571428571</ele><time>2026-04-04T06:12:41.976Z</time></trkpt><trkpt lat="43.9086636" lon="11.1828839"><ele>271.57142857142856</ele><time>2026-04-04T06:12:43.969Z</time></trkpt><trkpt lat="43.9087234" lon="11.1828364"><ele>275.0</ele><time>2026-04-04T06:12:45.965Z</time></trkpt><trkpt lat="43.9087654" lon="11.1827568"><ele>275.0</ele><time>2026-04-04T06:12:47.966Z</time></trkpt><trkpt lat="43.9088164" lon="11.1826957"><ele>275.0</ele><time>2026-04-04T06:12:49.974Z</time></trkpt><trkpt lat="43.9088729" lon="11.1826522"><ele>275.0</ele><time>2026-04-04T06:12:51.975Z</time></trkpt><trkpt lat="43.9089219" lon="11.1825854"><ele>275.0</ele><time>2026-04-04T06:12:53.978Z</time></trkpt><trkpt lat="43.9089038" lon="11.1824598"><ele>275.0</ele><time>2026-04-04T06:12:56.973Z</time></trkpt><trkpt lat="43.9088566" lon="11.1823979"><ele>275.0</ele><time>2026-04-04T06:12:58.964Z</time></trkpt><trkpt lat="43.9088061" lon="11.1823412"><ele>275.0</ele><time>2026-04-04T06:13:00.978Z</time></trkpt><trkpt lat="43.9087104" lon="11.1823455"><ele>275.5</ele><time>2026-04-04T06:13:03.968Z</time></trkpt><trkpt lat="43.9086374" lon="11.1823242"><ele>276.0</ele><time>2026-04-04T06:13:05.976Z</time></trkpt><trkpt lat="43.9085462" lon="11.1822811"><ele>276.5</ele><time>2026-04-04T06:13:07.955Z</time></trkpt><trkpt lat="43.9084677" lon="11.1822249"><ele>277.0</ele><time>2026-04-04T06:13:09.978Z</time></trkpt><trkpt lat="43.9083931" lon="11.1822005"><ele>277.5</ele><time>2026-04-04T06:13:11.973Z</time></trkpt><trkpt lat="43.9083108" lon="11.1821689"><ele>278.0</ele><time>2026-04-04T06:13:14.969Z</time></trkpt><trkpt lat="43.9082512" lon="11.182126"><ele>278.0</ele><time>2026-04-04T06:13:16.973Z</time></trkpt><trkpt lat="43.9082026" lon="11.1820627"><ele>278.0</ele><time>2026-04-04T06:13:18.966Z</time></trkpt><trkpt lat="43.9081554" lon="11.1819881"><ele>278.0</ele><time>2026-04-04T06:13:20.974Z</time></trkpt><trkpt lat="43.9081101" lon="11.1819243"><ele>278.0</ele><time>2026-04-04T06:13:22.973Z</time></trkpt><trkpt lat="43.9080645" lon="11.1818595"><ele>278.0</ele><time>2026-04-04T06:13:24.978Z</time></trkpt><trkpt lat="43.9079925" lon="11.181843"><ele>278.0</ele><time>2026-04-04T06:13:27.975Z</time></trkpt><trkpt lat="43.9079248" lon="11.1818287"><ele>278.0</ele><time>2026-04-04T06:13:30.971Z</time></trkpt><trkpt lat="43.9078855" lon="11.1817279"><ele>278.0</ele><time>2026-04-04T06:13:33.974Z</time></trkpt><trkpt lat="43.9078943" lon="11.1815991"><ele>278.0</ele><time>2026-04-04T06:13:37.025Z</time></trkpt><trkpt lat="43.907948" lon="11.181505"><ele>278.0</ele><time>2026-04-04T06:13:39.968Z</time></trkpt><trkpt lat="43.9079878" lon="11.1814358"><ele>278.0</ele><time>2026-04-04T06:13:41.98Z</time></trkpt><trkpt lat="43.9080462" lon="11.1813634"><ele>278.0</ele><time>2026-04-04T06:13:44.976Z</time></trkpt><trkpt lat="43.9081121" lon="11.1813152"><ele>278.0</ele><time>2026-04-04T06:13:48.036Z</time></trkpt><trkpt lat="43.9081727" lon="11.1812774"><ele>277.42857142857144</ele><time>2026-04-04T06:13:49.963Z</time></trkpt><trkpt lat="43.9082322" lon="11.1812341"><ele>276.8571428571429</ele><time>2026-04-04T06:13:51.947Z</time></trkpt><trkpt lat="43.9082908" lon="11.1811808"><ele>276.28571428571433</ele><time>2026-04-04T06:13:53.969Z</time></trkpt><trkpt lat="43.9083512" lon="11.1811215"><ele>275.7142857142857</ele><time>2026-04-04T06:13:55.955Z</time></trkpt><trkpt lat="43.9084375" lon="11.1810863"><ele>275.14285714285717</ele><time>2026-04-04T06:13:57.964Z</time></trkpt><trkpt lat="43.9085022" lon="11.1810826"><ele>274.5714285714286</ele><time>2026-04-04T06:14:00.031Z</time></trkpt><trkpt lat="43.908568" lon="11.1810773"><ele>274.0</ele><time>2026-04-04T06:14:01.962Z</time></trkpt><trkpt lat="43.9086611" lon="11.1810692"><ele>277.66666666666663</ele><time>2026-04-04T06:14:04.978Z</time></trkpt><trkpt lat="43.9087465" lon="11.1810423"><ele>281.3333333333333</ele><time>2026-04-04T06:14:06.984Z</time></trkpt><trkpt lat="43.9088269" lon="11.1809918"><ele>285.0</ele><time>2026-04-04T06:14:08.969Z</time></trkpt><trkpt lat="43.908898" lon="11.1809767"><ele>288.6666666666667</ele><time>2026-04-04T06:14:10.999Z</time></trkpt><trkpt lat="43.9089536" lon="11.1808963"><ele>292.33333333333337</ele><time>2026-04-04T06:14:13.975Z</time></trkpt><trkpt lat="43.9090315" lon="11.1808809"><ele>296.0</ele><time>2026-04-04T06:14:16.969Z</time></trkpt><trkpt lat="43.9091286" lon="11.1808745"><ele>296.0</ele><time>2026-04-04T06:14:19.97Z</time></trkpt><trkpt lat="43.9091927" lon="11.1808915"><ele>296.0</ele><time>2026-04-04T06:14:21.967Z</time></trkpt><trkpt lat="43.9092872" lon="11.1809049"><ele>296.0</ele><time>2026-04-04T06:14:24.968Z</time></trkpt><trkpt lat="43.9093538" lon="11.1808866"><ele>296.0</ele><time>2026-04-04T06:14:26.967Z</time></trkpt><trkpt lat="43.9094136" lon="11.1808537"><ele>296.0</ele><time>2026-04-04T06:14:28.944Z</time></trkpt><trkpt lat="43.9095011" lon="11.1808315"><ele>296.0</ele><time>2026-04-04T06:14:32.031Z</time></trkpt><trkpt lat="43.9095689" lon="11.1809028"><ele>296.57142857142856</ele><time>2026-04-04T06:14:34.964Z</time></trkpt><trkpt lat="43.9096234" lon="11.1809922"><ele>297.1428571428571</ele><time>2026-04-04T06:14:37.965Z</time></trkpt><trkpt lat="43.9096035" lon="11.1810779"><ele>297.71428571428567</ele><time>2026-04-04T06:14:40.958Z</time></trkpt><trkpt lat="43.9096294" lon="11.1811635"><ele>298.2857142857143</ele><time>2026-04-04T06:14:43.958Z</time></trkpt><trkpt lat="43.9097015" lon="11.1811879"><ele>298.85714285714283</ele><time>2026-04-04T06:14:46.958Z</time></trkpt><trkpt lat="43.9097689" lon="11.1811843"><ele>299.4285714285714</ele><time>2026-04-04T06:14:48.956Z</time></trkpt><trkpt lat="43.9098479" lon="11.1812092"><ele>300.0</ele><time>2026-04-04T06:14:50.96Z</time></trkpt><trkpt lat="43.9099333" lon="11.1812009"><ele>300.0</ele><time>2026-04-04T06:14:52.967Z</time></trkpt><trkpt lat="43.9100323" lon="11.1811832"><ele>300.0</ele><time>2026-04-04T06:14:54.957Z</time></trkpt><trkpt lat="43.9101337" lon="11.1811569"><ele>300.0</ele><time>2026-04-04T06:14:56.953Z</time></trkpt><trkpt lat="43.9102254" lon="11.1811462"><ele>300.0</ele><time>2026-04-04T06:14:58.938Z</time></trkpt><trkpt lat="43.9103258" lon="11.1811169"><ele>300.0</ele><time>2026-04-04T06:15:00.958Z</time></trkpt><trkpt lat="43.9104284" lon="11.1810755"><ele>300.57142857142856</ele><time>2026-04-04T06:15:02.934Z</time></trkpt><trkpt lat="43.910507" lon="11.1810604"><ele>301.1428571428571</ele><time>2026-04-04T06:15:04.965Z</time></trkpt><trkpt lat="43.9105723" lon="11.1810453"><ele>301.71428571428567</ele><time>2026-04-04T06:15:06.96Z</time></trkpt><trkpt lat="43.9106387" lon="11.1810339"><ele>302.2857142857143</ele><time>2026-04-04T06:15:09.954Z</time></trkpt><trkpt lat="43.9107097" lon="11.1810162"><ele>302.8571428571429</ele><time>2026-04-04T06:15:33.958Z</time></trkpt><trkpt lat="43.9107724" lon="11.1810031"><ele>303.4285714285714</ele><time>2026-04-04T06:15:35.96Z</time></trkpt><trkpt lat="43.910867" lon="11.1809872"><ele>304.0</ele><time>2026-04-04T06:15:37.947Z</time></trkpt><trkpt lat="43.9109833" lon="11.180949"><ele>305.57142857142856</ele><time>2026-04-04T06:15:39.964Z</time></trkpt><trkpt lat="43.9110528" lon="11.1809318"><ele>307.14285714285717</ele><time>2026-04-04T06:15:40.965Z</time></trkpt><trkpt lat="43.9111295" lon="11.1809177"><ele>308.7142857142857</ele><time>2026-04-04T06:15:41.957Z</time></trkpt><trkpt lat="43.9112107" lon="11.1809065"><ele>310.2857142857143</ele><time>2026-04-04T06:15:42.96Z</time></trkpt><trkpt lat="43.9112827" lon="11.1809034"><ele>311.8571428571429</ele><time>2026-04-04T06:15:43.949Z</time></trkpt><trkpt lat="43.9113468" lon="11.1808961"><ele>313.42857142857144</ele><time>2026-04-04T06:15:44.957Z</time></trkpt><trkpt lat="43.9114099" lon="11.18088"><ele>315.0</ele><time>2026-04-04T06:15:45.962Z</time></trkpt><trkpt lat="43.9115087" lon="11.1808261"><ele>315.0</ele><time>2026-04-04T06:15:48.031Z</time></trkpt><trkpt lat="43.9115984" lon="11.180764"><ele>315.0</ele><time>2026-04-04T06:15:49.965Z</time></trkpt><trkpt lat="43.9117009" lon="11.180758"><ele>315.0</ele><time>2026-04-04T06:15:51.973Z</time></trkpt><trkpt lat="43.9117965" lon="11.1808015"><ele>315.0</ele><time>2026-04-04T06:15:53.966Z</time></trkpt><trkpt lat="43.911877" lon="11.1808397"><ele>315.0</ele><time>2026-04-04T06:15:55.956Z</time></trkpt><trkpt lat="43.9119394" lon="11.1807674"><ele>319.6666666666667</ele><time>2026-04-04T06:15:58.958Z</time></trkpt><trkpt lat="43.9119317" lon="11.1806497"><ele>324.3333333333333</ele><time>2026-04-04T06:16:01.966Z</time></trkpt><trkpt lat="43.911883" lon="11.1805635"><ele>329.0</ele><time>2026-04-04T06:16:03.967Z</time></trkpt><trkpt lat="43.9118457" lon="11.1804458"><ele>333.66666666666663</ele><time>2026-04-04T06:16:05.973Z</time></trkpt><trkpt lat="43.9118307" lon="11.180342"><ele>338.3333333333333</ele><time>2026-04-04T06:16:07.957Z</time></trkpt><trkpt lat="43.9118524" lon="11.1802571"><ele>343.0</ele><time>2026-04-04T06:16:28.958Z</time></trkpt><trkpt lat="43.9118149" lon="11.1801834"><ele>343.0</ele><time>2026-04-04T06:16:32.991Z</time></trkpt><trkpt lat="43.9118008" lon="11.1800981"><ele>343.0</ele><time>2026-04-04T06:16:36.958Z</time></trkpt><trkpt lat="43.9118111" lon="11.180008"><ele>343.0</ele><time>2026-04-04T06:16:41.952Z</time></trkpt><trkpt lat="43.9118006" lon="11.1799208"><ele>343.0</ele><time>2026-04-04T06:16:45.959Z</time></trkpt><trkpt lat="43.9118127" lon="11.1798289"><ele>343.0</ele><time>2026-04-04T06:16:49.96Z</time></trkpt><trkpt lat="43.9117752" lon="11.1799011"><ele>343.0</ele><time>2026-04-04T06:16:57.964Z</time></trkpt><trkpt lat="43.9117841" lon="11.1800075"><ele>343.0</ele><time>2026-04-04T06:16:59.953Z</time></trkpt><trkpt lat="43.9118061" lon="11.1801394"><ele>343.0</ele><time>2026-04-04T06:17:01.963Z</time></trkpt><trkpt lat="43.9118504" lon="11.1802788"><ele>343.0</ele><time>2026-04-04T06:17:03.96Z</time></trkpt><trkpt lat="43.9118936" lon="11.180344"><ele>343.0</ele><time>2026-04-04T06:17:04.951Z</time></trkpt><trkpt lat="43.9119737" lon="11.1804163"><ele>343.0</ele><time>2026-04-04T06:17:06.962Z</time></trkpt><trkpt lat="43.9120716" lon="11.1804595"><ele>343.0</ele><time>2026-04-04T06:17:08.955Z</time></trkpt><trkpt lat="43.9121749" lon="11.1804828"><ele>343.0</ele><time>2026-04-04T06:17:10.959Z</time></trkpt><trkpt lat="43.9122655" lon="11.180505"><ele>343.0</ele><time>2026-04-04T06:17:12.945Z</time></trkpt><trkpt lat="43.9123717" lon="11.1805521"><ele>343.0</ele><time>2026-04-04T06:17:14.957Z</time></trkpt><trkpt lat="43.9124471" lon="11.1806502"><ele>343.0</ele><time>2026-04-04T06:17:16.963Z</time></trkpt><trkpt lat="43.9125115" lon="11.1807532"><ele>343.0</ele><time>2026-04-04T06:17:18.958Z</time></trkpt><trkpt lat="43.9125842" lon="11.180846"><ele>341.2</ele><time>2026-04-04T06:17:20.957Z</time></trkpt><trkpt lat="43.9126511" lon="11.1809506"><ele>339.4</ele><time>2026-04-04T06:17:22.96Z</time></trkpt><trkpt lat="43.9126674" lon="11.1810653"><ele>337.59999999999997</ele><time>2026-04-04T06:17:24.957Z</time></trkpt><trkpt lat="43.9126152" lon="11.1811875"><ele>335.79999999999995</ele><time>2026-04-04T06:17:26.97Z</time></trkpt><trkpt lat="43.9125791" lon="11.1813394"><ele>334.0</ele><time>2026-04-04T06:17:28.965Z</time></trkpt><trkpt lat="43.9125665" lon="11.181502"><ele>338.4</ele><time>2026-04-04T06:17:30.971Z</time></trkpt><trkpt lat="43.9125984" lon="11.1816266"><ele>342.79999999999995</ele><time>2026-04-04T06:17:32.965Z</time></trkpt><trkpt lat="43.9126131" lon="11.1817654"><ele>347.20000000000005</ele><time>2026-04-04T06:17:34.961Z</time></trkpt><trkpt lat="43.9126103" lon="11.1819037"><ele>351.6</ele><time>2026-04-04T06:17:36.961Z</time></trkpt><trkpt lat="43.9126105" lon="11.1820434"><ele>356.0</ele><time>2026-04-04T06:17:38.966Z</time></trkpt><trkpt lat="43.91265" lon="11.1821676"><ele>355.99999999999994</ele><time>2026-04-04T06:17:40.969Z</time></trkpt><trkpt lat="43.91269" lon="11.1822721"><ele>356.0</ele><time>2026-04-04T06:17:42.952Z</time></trkpt><trkpt lat="43.9127207" lon="11.1823579"><ele>356.0</ele><time>2026-04-04T06:17:44.955Z</time></trkpt><trkpt lat="43.9127676" lon="11.18243"><ele>356.0</ele><time>2026-04-04T06:17:47.967Z</time></trkpt><trkpt lat="43.9128411" lon="11.1824509"><ele>356.0</ele><time>2026-04-04T06:19:48.959Z</time></trkpt><trkpt lat="43.9128972" lon="11.1824"><ele>355.99999999999994</ele><time>2026-04-04T06:19:53.035Z</time></trkpt><trkpt lat="43.912978" lon="11.1824015"><ele>356.0</ele><time>2026-04-04T06:21:35.961Z</time></trkpt><trkpt lat="43.9130511" lon="11.1824648"><ele>355.4285714285714</ele><time>2026-04-04T06:21:39.965Z</time></trkpt><trkpt lat="43.9131091" lon="11.1825056"><ele>354.85714285714283</ele><time>2026-04-04T06:21:42.979Z</time></trkpt><trkpt lat="43.9131771" lon="11.1825247"><ele>354.2857142857143</ele><time>2026-04-04T06:21:46.973Z</time></trkpt><trkpt lat="43.913256" lon="11.1825387"><ele>353.71428571428567</ele><time>2026-04-04T06:21:50.973Z</time></trkpt><trkpt lat="43.9133103" lon="11.1825937"><ele>353.1428571428571</ele><time>2026-04-04T06:21:53.981Z</time></trkpt><trkpt lat="43.9133709" lon="11.182677"><ele>352.57142857142856</ele><time>2026-04-04T06:21:56.964Z</time></trkpt><trkpt lat="43.9134301" lon="11.1827263"><ele>352.0</ele><time>2026-04-04T06:21:58.966Z</time></trkpt><trkpt lat="43.9135163" lon="11.1827372"><ele>354.66666666666663</ele><time>2026-04-04T06:22:01.969Z</time></trkpt><trkpt lat="43.913593" lon="11.1827168"><ele>357.3333333333333</ele><time>2026-04-04T06:22:04.967Z</time></trkpt><trkpt lat="43.9136652" lon="11.1826915"><ele>360.0</ele><time>2026-04-04T06:22:07.976Z</time></trkpt><trkpt lat="43.913735" lon="11.182659"><ele>362.6666666666667</ele><time>2026-04-04T06:22:10.974Z</time></trkpt><trkpt lat="43.9138087" lon="11.1826746"><ele>365.33333333333337</ele><time>2026-04-04T06:22:13.977Z</time></trkpt><trkpt lat="43.9138846" lon="11.1826652"><ele>368.0</ele><time>2026-04-04T06:22:16.959Z</time></trkpt><trkpt lat="43.9139562" lon="11.182642"><ele>368.0</ele><time>2026-04-04T06:22:19.974Z</time></trkpt><trkpt lat="43.914016" lon="11.182593"><ele>368.0</ele><time>2026-04-04T06:22:22.968Z</time></trkpt><trkpt lat="43.9140373" lon="11.1824906"><ele>368.0</ele><time>2026-04-04T06:22:26.97Z</time></trkpt><trkpt lat="43.9140045" lon="11.1823896"><ele>368.0</ele><time>2026-04-04T06:22:30.963Z</time></trkpt><trkpt lat="43.9140046" lon="11.1822891"><ele>368.0</ele><time>2026-04-04T06:22:34.972Z</time></trkpt><trkpt lat="43.9140118" lon="11.1821967"><ele>368.0</ele><time>2026-04-04T06:22:38.939Z</time></trkpt><trkpt lat="43.9140659" lon="11.1821491"><ele>368.0</ele><time>2026-04-04T06:22:43.969Z</time></trkpt><trkpt lat="43.9141387" lon="11.1821505"><ele>369.0</ele><time>2026-04-04T06:22:51.954Z</time></trkpt><trkpt lat="43.9142025" lon="11.1821175"><ele>370.0</ele><time>2026-04-04T06:22:57.037Z</time></trkpt><trkpt lat="43.9142752" lon="11.1821276"><ele>371.0</ele><time>2026-04-04T06:23:01.984Z</time></trkpt><trkpt lat="43.9143532" lon="11.1821542"><ele>372.0</ele><time>2026-04-04T06:23:05.99Z</time></trkpt><trkpt lat="43.9144194" lon="11.1821579"><ele>373.0</ele><time>2026-04-04T06:23:34.958Z</time></trkpt><trkpt lat="43.9144675" lon="11.1820864"><ele>374.0</ele><time>2026-04-04T06:23:40.963Z</time></trkpt><trkpt lat="43.9145201" lon="11.1820328"><ele>375.0</ele><time>2026-04-04T06:23:44.964Z</time></trkpt><trkpt lat="43.9145615" lon="11.1819435"><ele>378.4</ele><time>2026-04-04T06:23:48.952Z</time></trkpt><trkpt lat="43.9146146" lon="11.1818733"><ele>381.8</ele><time>2026-04-04T06:23:53.959Z</time></trkpt><trkpt lat="43.914732" lon="11.1817809"><ele>385.20000000000005</ele><time>2026-04-04T06:24:33.014Z</time></trkpt><trkpt lat="43.9148146" lon="11.1817297"><ele>388.6</ele><time>2026-04-04T06:24:53.966Z</time></trkpt><trkpt lat="43.9149354" lon="11.1816844"><ele>392.0</ele><time>2026-04-04T06:25:21.956Z</time></trkpt><trkpt lat="43.914868" lon="11.181704"><ele>392.0</ele><time>2026-04-04T06:26:14.962Z</time></trkpt><trkpt lat="43.9148421" lon="11.1817972"><ele>392.0</ele><time>2026-04-04T06:31:15.955Z</time></trkpt><trkpt lat="43.914857" lon="11.1817064"><ele>392.0</ele><time>2026-04-04T06:32:19.949Z</time></trkpt><trkpt lat="43.9149247" lon="11.1817472"><ele>392.0</ele><time>2026-04-04T06:33:31.963Z</time></trkpt><trkpt lat="43.914862" lon="11.1817184"><ele>392.0</ele><time>2026-04-04T06:33:56.956Z</time></trkpt><trkpt lat="43.9147957" lon="11.1817519"><ele>392.0</ele><time>2026-04-04T06:35:08.943Z</time></trkpt><trkpt lat="43.9148333" lon="11.1816758"><ele>392.0</ele><time>2026-04-04T06:36:57.025Z</time></trkpt><trkpt lat="43.9148736" lon="11.1817672"><ele>392.0</ele><time>2026-04-04T06:37:23.959Z</time></trkpt><trkpt lat="43.9147665" lon="11.1817385"><ele>392.0</ele><time>2026-04-04T06:38:35.969Z</time></trkpt><trkpt lat="43.9147079" lon="11.1817846"><ele>392.0</ele><time>2026-04-04T06:39:40.963Z</time></trkpt><trkpt lat="43.9147708" lon="11.18175"><ele>392.0</ele><time>2026-04-04T06:39:46.962Z</time></trkpt><trkpt lat="43.9148286" lon="11.1817017"><ele>392.0</ele><time>2026-04-04T06:39:53.945Z</time></trkpt><trkpt lat="43.9148901" lon="11.181681"><ele>392.0</ele><time>2026-04-04T06:43:32.981Z</time></trkpt><trkpt lat="43.9149563" lon="11.1816834"><ele>392.0</ele><time>2026-04-04T06:43:36.98Z</time></trkpt><trkpt lat="43.915028" lon="11.1816141"><ele>392.8333333333333</ele><time>2026-04-04T06:43:41.033Z</time></trkpt><trkpt lat="43.9150922" lon="11.1815363"><ele>393.66666666666663</ele><time>2026-04-04T06:43:42.97Z</time></trkpt><trkpt lat="43.9151645" lon="11.181482"><ele>394.5</ele><time>2026-04-04T06:43:44.961Z</time></trkpt><trkpt lat="43.9152292" lon="11.181444"><ele>395.33333333333337</ele><time>2026-04-04T06:43:47.965Z</time></trkpt><trkpt lat="43.9153203" lon="11.1814131"><ele>396.1666666666667</ele><time>2026-04-04T06:43:51.024Z</time></trkpt><trkpt lat="43.9153919" lon="11.1813426"><ele>397.0</ele><time>2026-04-04T06:43:52.96Z</time></trkpt><trkpt lat="43.915442" lon="11.1812707"><ele>398.33333333333337</ele><time>2026-04-04T06:43:54.948Z</time></trkpt><trkpt lat="43.9154826" lon="11.1811965"><ele>399.6666666666667</ele><time>2026-04-04T06:43:56.968Z</time></trkpt><trkpt lat="43.9155603" lon="11.1811445"><ele>401.0</ele><time>2026-04-04T06:43:59.982Z</time></trkpt><trkpt lat="43.9156306" lon="11.181127"><ele>402.33333333333337</ele><time>2026-04-04T06:44:02.029Z</time></trkpt><trkpt lat="43.9157034" lon="11.1811223"><ele>403.6666666666667</ele><time>2026-04-04T06:44:03.948Z</time></trkpt><trkpt lat="43.9157941" lon="11.1811091"><ele>405.0</ele><time>2026-04-04T06:44:06.98Z</time></trkpt><trkpt lat="43.9158974" lon="11.1811039"><ele>406.6</ele><time>2026-04-04T06:44:09.972Z</time></trkpt><trkpt lat="43.9160185" lon="11.1811163"><ele>408.2</ele><time>2026-04-04T06:44:11.968Z</time></trkpt><trkpt lat="43.9161297" lon="11.1811536"><ele>409.79999999999995</ele><time>2026-04-04T06:44:13.966Z</time></trkpt><trkpt lat="43.916208" lon="11.181185"><ele>411.4</ele><time>2026-04-04T06:44:15.976Z</time></trkpt><trkpt lat="43.9162796" lon="11.1812139"><ele>413.0</ele><time>2026-04-04T06:44:17.943Z</time></trkpt><trkpt lat="43.9163546" lon="11.1812278"><ele>413.0</ele><time>2026-04-04T06:44:19.957Z</time></trkpt><trkpt lat="43.9164214" lon="11.1812757"><ele>413.0</ele><time>2026-04-04T06:44:21.963Z</time></trkpt><trkpt lat="43.9164853" lon="11.1813409"><ele>413.0</ele><time>2026-04-04T06:44:23.969Z</time></trkpt><trkpt lat="43.9165863" lon="11.1814138"><ele>413.0</ele><time>2026-04-04T06:44:25.966Z</time></trkpt><trkpt lat="43.9166684" lon="11.1814819"><ele>413.0</ele><time>2026-04-04T06:44:27.973Z</time></trkpt><trkpt lat="43.9167271" lon="11.1815691"><ele>413.59999999999997</ele><time>2026-04-04T06:44:29.957Z</time></trkpt><trkpt lat="43.9167879" lon="11.1816799"><ele>414.2</ele><time>2026-04-04T06:44:31.96Z</time></trkpt><trkpt lat="43.9168497" lon="11.1817761"><ele>414.8</ele><time>2026-04-04T06:44:33.964Z</time></trkpt><trkpt lat="43.9169199" lon="11.1818752"><ele>415.4</ele><time>2026-04-04T06:44:36.095Z</time></trkpt><trkpt lat="43.9169868" lon="11.1819446"><ele>416.0</ele><time>2026-04-04T06:44:38.968Z</time></trkpt><trkpt lat="43.9170586" lon="11.1819736"><ele>415.99999999999994</ele><time>2026-04-04T06:44:41.961Z</time></trkpt><trkpt lat="43.9171365" lon="11.1819488"><ele>416.0</ele><time>2026-04-04T06:44:45.008Z</time></trkpt><trkpt lat="43.9171928" lon="11.1819075"><ele>416.0</ele><time>2026-04-04T06:44:46.965Z</time></trkpt><trkpt lat="43.917247" lon="11.1818115"><ele>416.0</ele><time>2026-04-04T06:44:49.96Z</time></trkpt><trkpt lat="43.9172902" lon="11.181728"><ele>415.99999999999994</ele><time>2026-04-04T06:44:51.969Z</time></trkpt><trkpt lat="43.9173726" lon="11.1817091"><ele>416.0</ele><time>2026-04-04T06:44:53.976Z</time></trkpt><trkpt lat="43.917448" lon="11.1816704"><ele>416.0</ele><time>2026-04-04T06:44:55.975Z</time></trkpt><trkpt lat="43.9175114" lon="11.1816148"><ele>416.0</ele><time>2026-04-04T06:44:57.97Z</time></trkpt><trkpt lat="43.9175577" lon="11.1815453"><ele>416.0</ele><time>2026-04-04T06:44:59.972Z</time></trkpt><trkpt lat="43.9175673" lon="11.1814512"><ele>416.0</ele><time>2026-04-04T06:45:01.955Z</time></trkpt><trkpt lat="43.9175637" lon="11.1813623"><ele>416.0</ele><time>2026-04-04T06:45:03.978Z</time></trkpt><trkpt lat="43.9175922" lon="11.1812691"><ele>416.0</ele><time>2026-04-04T06:45:05.968Z</time></trkpt><trkpt lat="43.9176236" lon="11.1811857"><ele>416.0</ele><time>2026-04-04T06:45:07.978Z</time></trkpt><trkpt lat="43.9176159" lon="11.1810783"><ele>416.85714285714283</ele><time>2026-04-04T06:45:09.981Z</time></trkpt><trkpt lat="43.9176179" lon="11.180972"><ele>417.7142857142857</ele><time>2026-04-04T06:45:11.97Z</time></trkpt><trkpt lat="43.9176174" lon="11.1808586"><ele>418.57142857142856</ele><time>2026-04-04T06:45:13.968Z</time></trkpt><trkpt lat="43.9176054" lon="11.1807552"><ele>419.42857142857144</ele><time>2026-04-04T06:45:15.965Z</time></trkpt><trkpt lat="43.9176253" lon="11.1806686"><ele>420.28571428571433</ele><time>2026-04-04T06:45:17.968Z</time></trkpt><trkpt lat="43.9176662" lon="11.1805844"><ele>421.14285714285717</ele><time>2026-04-04T06:45:20.964Z</time></trkpt><trkpt lat="43.9177006" lon="11.1805092"><ele>422.0</ele><time>2026-04-04T06:45:36.961Z</time></trkpt><trkpt lat="43.9177287" lon="11.1804107"><ele>439.0</ele><time>2026-04-04T06:45:40.969Z</time></trkpt><trkpt lat="43.9177623" lon="11.1803257"><ele>439.0</ele><time>2026-04-04T06:46:49.961Z</time></trkpt><trkpt lat="43.9177734" lon="11.1802062"><ele>439.0</ele><time>2026-04-04T06:53:13.958Z</time></trkpt></trkseg><trkseg><trkpt lat="43.8950482" lon="11.2478429"><ele>541.0</ele><time>2026-04-04T10:12:41.959Z</time></trkpt><trkpt lat="43.8949703" lon="11.2479078"><ele>541.0</ele><time>2026-04-04T10:12:45.057Z</time></trkpt><trkpt lat="43.8948973" lon="11.2479293"><ele>541.0</ele><time>2026-04-04T10:12:46.965Z</time></trkpt><trkpt lat="43.8948169" lon="11.2479381"><ele>541.0</ele><time>2026-04-04T10:12:48.972Z</time></trkpt><trkpt lat="43.8947265" lon="11.2479228"><ele>541.0</ele><time>2026-04-04T10:12:51.034Z</time></trkpt><trkpt lat="43.8946629" lon="11.2479339"><ele>541.0</ele><time>2026-04-04T10:12:52.952Z</time></trkpt><trkpt lat="43.8945994" lon="11.2479979"><ele>541.0</ele><time>2026-04-04T10:12:55.965Z</time></trkpt><trkpt lat="43.8945479" lon="11.248088"><ele>541.0</ele><time>2026-04-04T10:12:57.985Z</time></trkpt><trkpt lat="43.8944742" lon="11.2481997"><ele>541.0</ele><time>2026-04-04T10:12:59.963Z</time></trkpt><trkpt lat="43.8944225" lon="11.2483124"><ele>541.0</ele><time>2026-04-04T10:13:01.949Z</time></trkpt><trkpt lat="43.8943621" lon="11.2484029"><ele>541.0</ele><time>2026-04-04T10:13:03.957Z</time></trkpt><trkpt lat="43.8942817" lon="11.2485099"><ele>538.2</ele><time>2026-04-04T10:13:05.943Z</time></trkpt><trkpt lat="43.8941989" lon="11.2486251"><ele>535.4000000000001</ele><time>2026-04-04T10:13:07.937Z</time></trkpt><trkpt lat="43.8941199" lon="11.2487108"><ele>532.6</ele><time>2026-04-04T10:13:09.957Z</time></trkpt><trkpt lat="43.8940146" lon="11.2487959"><ele>529.8000000000001</ele><time>2026-04-04T10:13:11.952Z</time></trkpt><trkpt lat="43.8939566" lon="11.2488359"><ele>527.0</ele><time>2026-04-04T10:13:12.963Z</time></trkpt><trkpt lat="43.893858" lon="11.2489221"><ele>526.3333333333333</ele><time>2026-04-04T10:13:14.938Z</time></trkpt><trkpt lat="43.8937843" lon="11.2490173"><ele>525.6666666666666</ele><time>2026-04-04T10:13:16.961Z</time></trkpt><trkpt lat="43.8936998" lon="11.2490896"><ele>525.0</ele><time>2026-04-04T10:13:18.976Z</time></trkpt><trkpt lat="43.8936391" lon="11.2490663"><ele>524.3333333333334</ele><time>2026-04-04T10:13:20.967Z</time></trkpt><trkpt lat="43.8935724" lon="11.249045"><ele>523.6666666666667</ele><time>2026-04-04T10:13:22.958Z</time></trkpt><trkpt lat="43.8935244" lon="11.2491023"><ele>523.0</ele><time>2026-04-04T10:13:24.969Z</time></trkpt><trkpt lat="43.893541" lon="11.2492293"><ele>523.0</ele><time>2026-04-04T10:13:27.963Z</time></trkpt><trkpt lat="43.8935809" lon="11.249301"><ele>523.0</ele><time>2026-04-04T10:13:29.949Z</time></trkpt><trkpt lat="43.8936517" lon="11.2493636"><ele>523.0</ele><time>2026-04-04T10:13:31.965Z</time></trkpt><trkpt lat="43.8937471" lon="11.2494046"><ele>523.0</ele><time>2026-04-04T10:13:33.97Z</time></trkpt><trkpt lat="43.8938351" lon="11.2494816"><ele>523.0</ele><time>2026-04-04T10:13:36.03Z</time></trkpt><trkpt lat="43.8939183" lon="11.2495983"><ele>523.0</ele><time>2026-04-04T10:13:37.963Z</time></trkpt><trkpt lat="43.8939965" lon="11.2497236"><ele>523.0</ele><time>2026-04-04T10:13:39.956Z</time></trkpt><trkpt lat="43.8940633" lon="11.2498417"><ele>523.0</ele><time>2026-04-04T10:13:41.966Z</time></trkpt><trkpt lat="43.8941456" lon="11.2499314"><ele>523.0</ele><time>2026-04-04T10:13:43.945Z</time></trkpt><trkpt lat="43.8942276" lon="11.2499897"><ele>523.0</ele><time>2026-04-04T10:13:46.054Z</time></trkpt><trkpt lat="43.894293" lon="11.2499982"><ele>521.6</ele><time>2026-04-04T10:13:47.97Z</time></trkpt><trkpt lat="43.8943672" lon="11.2499527"><ele>520.1999999999999</ele><time>2026-04-04T10:13:49.957Z</time></trkpt><trkpt lat="43.89444" lon="11.2498567"><ele>518.8</ele><time>2026-04-04T10:13:51.965Z</time></trkpt><trkpt lat="43.8945223" lon="11.2497741"><ele>517.4</ele><time>2026-04-04T10:13:53.969Z</time></trkpt><trkpt lat="43.8946291" lon="11.2497767"><ele>516.0</ele><time>2026-04-04T10:13:55.947Z</time></trkpt><trkpt lat="43.894737" lon="11.2498329"><ele>513.2</ele><time>2026-04-04T10:13:57.968Z</time></trkpt><trkpt lat="43.894828" lon="11.2499071"><ele>510.40000000000003</ele><time>2026-04-04T10:13:59.963Z</time></trkpt><trkpt lat="43.89492" lon="11.2499842"><ele>507.6</ele><time>2026-04-04T10:14:01.964Z</time></trkpt><trkpt lat="43.8949906" lon="11.2500847"><ele>504.8</ele><time>2026-04-04T10:14:03.962Z</time></trkpt><trkpt lat="43.8950425" lon="11.2501791"><ele>502.0</ele><time>2026-04-04T10:14:05.97Z</time></trkpt><trkpt lat="43.8950471" lon="11.250273"><ele>502.00000000000006</ele><time>2026-04-04T10:14:07.966Z</time></trkpt><trkpt lat="43.8949801" lon="11.2503754"><ele>502.0</ele><time>2026-04-04T10:14:09.952Z</time></trkpt><trkpt lat="43.8949065" lon="11.2505183"><ele>502.0</ele><time>2026-04-04T10:14:11.953Z</time></trkpt><trkpt lat="43.8948692" lon="11.2505924"><ele>502.0</ele><time>2026-04-04T10:14:12.958Z</time></trkpt><trkpt lat="43.8948296" lon="11.2506669"><ele>502.00000000000006</ele><time>2026-04-04T10:14:13.958Z</time></trkpt><trkpt lat="43.8947923" lon="11.2507467"><ele>502.0</ele><time>2026-04-04T10:14:14.962Z</time></trkpt><trkpt lat="43.8947538" lon="11.250831"><ele>500.83333333333337</ele><time>2026-04-04T10:14:15.956Z</time></trkpt><trkpt lat="43.8947111" lon="11.2509117"><ele>499.6666666666667</ele><time>2026-04-04T10:14:16.955Z</time></trkpt><trkpt lat="43.8946637" lon="11.2509954"><ele>498.5</ele><time>2026-04-04T10:14:17.944Z</time></trkpt><trkpt lat="43.8946185" lon="11.2510776"><ele>497.33333333333337</ele><time>2026-04-04T10:14:18.95Z</time></trkpt><trkpt lat="43.8945718" lon="11.2511585"><ele>496.1666666666667</ele><time>2026-04-04T10:14:19.966Z</time></trkpt><trkpt lat="43.8945335" lon="11.2512487"><ele>495.0</ele><time>2026-04-04T10:14:20.969Z</time></trkpt><trkpt lat="43.8944989" lon="11.2513488"><ele>495.0</ele><time>2026-04-04T10:14:21.966Z</time></trkpt><trkpt lat="43.8944697" lon="11.2514497"><ele>495.0</ele><time>2026-04-04T10:14:22.968Z</time></trkpt><trkpt lat="43.894443" lon="11.2515567"><ele>495.0</ele><time>2026-04-04T10:14:23.961Z</time></trkpt><trkpt lat="43.8944128" lon="11.251646"><ele>495.0</ele><time>2026-04-04T10:14:24.952Z</time></trkpt><trkpt lat="43.8943763" lon="11.2517212"><ele>495.0</ele><time>2026-04-04T10:14:25.959Z</time></trkpt><trkpt lat="43.8943121" lon="11.2518718"><ele>495.0</ele><time>2026-04-04T10:14:27.963Z</time></trkpt><trkpt lat="43.8942816" lon="11.2519558"><ele>490.8</ele><time>2026-04-04T10:14:28.957Z</time></trkpt><trkpt lat="43.894251" lon="11.2520326"><ele>486.6</ele><time>2026-04-04T10:14:29.96Z</time></trkpt><trkpt lat="43.8941855" lon="11.2521707"><ele>482.4</ele><time>2026-04-04T10:14:31.966Z</time></trkpt><trkpt lat="43.8941351" lon="11.2522372"><ele>478.2</ele><time>2026-04-04T10:14:32.969Z</time></trkpt><trkpt lat="43.8940339" lon="11.2523215"><ele>474.0</ele><time>2026-04-04T10:14:34.962Z</time></trkpt><trkpt lat="43.8939514" lon="11.2524355"><ele>472.0</ele><time>2026-04-04T10:14:36.967Z</time></trkpt><trkpt lat="43.8938893" lon="11.2525836"><ele>470.0</ele><time>2026-04-04T10:14:38.953Z</time></trkpt><trkpt lat="43.8938513" lon="11.2527452"><ele>468.0</ele><time>2026-04-04T10:14:40.965Z</time></trkpt><trkpt lat="43.8938425" lon="11.2528343"><ele>466.0</ele><time>2026-04-04T10:14:41.961Z</time></trkpt><trkpt lat="43.8938369" lon="11.2529868"><ele>464.0</ele><time>2026-04-04T10:14:43.957Z</time></trkpt><trkpt lat="43.8938717" lon="11.2531149"><ele>461.79999999999995</ele><time>2026-04-04T10:14:45.975Z</time></trkpt><trkpt lat="43.8939344" lon="11.2532049"><ele>459.59999999999997</ele><time>2026-04-04T10:14:47.961Z</time></trkpt><trkpt lat="43.8939769" lon="11.25332"><ele>457.4</ele><time>2026-04-04T10:14:49.964Z</time></trkpt><trkpt lat="43.8939465" lon="11.2534384"><ele>455.2</ele><time>2026-04-04T10:14:51.958Z</time></trkpt><trkpt lat="43.8938585" lon="11.2535346"><ele>453.0</ele><time>2026-04-04T10:14:53.944Z</time></trkpt><trkpt lat="43.8937374" lon="11.2535955"><ele>453.0</ele><time>2026-04-04T10:14:55.965Z</time></trkpt><trkpt lat="43.8936764" lon="11.2536242"><ele>453.0</ele><time>2026-04-04T10:14:56.954Z</time></trkpt><trkpt lat="43.8936139" lon="11.2536481"><ele>453.0</ele><time>2026-04-04T10:14:57.95Z</time></trkpt><trkpt lat="43.8935559" lon="11.253687"><ele>453.0</ele><time>2026-04-04T10:14:58.965Z</time></trkpt><trkpt lat="43.8934575" lon="11.2537827"><ele>453.0</ele><time>2026-04-04T10:15:00.97Z</time></trkpt><trkpt lat="43.8933954" lon="11.253863"><ele>453.0</ele><time>2026-04-04T10:15:02.945Z</time></trkpt><trkpt lat="43.8933528" lon="11.2539319"><ele>451.1666666666667</ele><time>2026-04-04T10:15:04.951Z</time></trkpt><trkpt lat="43.8933053" lon="11.2539961"><ele>449.33333333333337</ele><time>2026-04-04T10:15:08.96Z</time></trkpt><trkpt lat="43.8933281" lon="11.2541182"><ele>447.5</ele><time>2026-04-04T10:15:21.946Z</time></trkpt><trkpt lat="43.8933058" lon="11.2542325"><ele>445.6666666666667</ele><time>2026-04-04T10:15:23.969Z</time></trkpt><trkpt lat="43.8932521" lon="11.2543611"><ele>443.83333333333337</ele><time>2026-04-04T10:15:25.969Z</time></trkpt><trkpt lat="43.8932084" lon="11.25443"><ele>442.0</ele><time>2026-04-04T10:15:26.963Z</time></trkpt><trkpt lat="43.89315" lon="11.2545195"><ele>442.00000000000006</ele><time>2026-04-04T10:15:27.956Z</time></trkpt><trkpt lat="43.8930916" lon="11.2546048"><ele>442.0</ele><time>2026-04-04T10:15:28.967Z</time></trkpt><trkpt lat="43.8930375" lon="11.254682"><ele>442.0</ele><time>2026-04-04T10:15:29.968Z</time></trkpt><trkpt lat="43.8929837" lon="11.2547438"><ele>442.0</ele><time>2026-04-04T10:15:30.963Z</time></trkpt><trkpt lat="43.8929348" lon="11.2548028"><ele>442.0</ele><time>2026-04-04T10:15:31.962Z</time></trkpt><trkpt lat="43.8928854" lon="11.2548655"><ele>442.00000000000006</ele><time>2026-04-04T10:15:32.967Z</time></trkpt><trkpt lat="43.8928431" lon="11.2549315"><ele>442.0</ele><time>2026-04-04T10:15:33.942Z</time></trkpt><trkpt lat="43.8927998" lon="11.2551063"><ele>440.6666666666667</ele><time>2026-04-04T10:15:35.961Z</time></trkpt><trkpt lat="43.8927987" lon="11.2552155"><ele>439.33333333333337</ele><time>2026-04-04T10:15:36.964Z</time></trkpt><trkpt lat="43.8927925" lon="11.2553237"><ele>438.0</ele><time>2026-04-04T10:15:37.965Z</time></trkpt><trkpt lat="43.892772" lon="11.2554263"><ele>436.66666666666663</ele><time>2026-04-04T10:15:38.959Z</time></trkpt><trkpt lat="43.8927526" lon="11.2555207"><ele>435.3333333333333</ele><time>2026-04-04T10:15:39.952Z</time></trkpt><trkpt lat="43.8927198" lon="11.2556128"><ele>434.0</ele><time>2026-04-04T10:15:40.962Z</time></trkpt><trkpt lat="43.8926798" lon="11.255707"><ele>431.99999999999994</ele><time>2026-04-04T10:15:41.956Z</time></trkpt><trkpt lat="43.8926161" lon="11.2557999"><ele>430.0</ele><time>2026-04-04T10:15:42.952Z</time></trkpt><trkpt lat="43.892542" lon="11.2558667"><ele>428.0</ele><time>2026-04-04T10:15:43.956Z</time></trkpt><trkpt lat="43.8924661" lon="11.2559141"><ele>426.0</ele><time>2026-04-04T10:15:44.962Z</time></trkpt><trkpt lat="43.8924021" lon="11.2559519"><ele>423.99999999999994</ele><time>2026-04-04T10:15:45.96Z</time></trkpt><trkpt lat="43.8923389" lon="11.2559938"><ele>422.0</ele><time>2026-04-04T10:15:46.956Z</time></trkpt><trkpt lat="43.8923413" lon="11.2561544"><ele>422.0</ele><time>2026-04-04T10:15:48.961Z</time></trkpt><trkpt lat="43.892406" lon="11.2562227"><ele>422.0</ele><time>2026-04-04T10:15:49.955Z</time></trkpt><trkpt lat="43.8924839" lon="11.2562689"><ele>422.0</ele><time>2026-04-04T10:15:50.954Z</time></trkpt><trkpt lat="43.8925938" lon="11.2562982"><ele>422.0</ele><time>2026-04-04T10:15:51.965Z</time></trkpt><trkpt lat="43.8927149" lon="11.2563108"><ele>422.0</ele><time>2026-04-04T10:15:52.965Z</time></trkpt><trkpt lat="43.8928409" lon="11.2563117"><ele>421.20000000000005</ele><time>2026-04-04T10:15:53.947Z</time></trkpt><trkpt lat="43.8929616" lon="11.2563059"><ele>420.4</ele><time>2026-04-04T10:15:54.965Z</time></trkpt><trkpt lat="43.8930805" lon="11.2563075"><ele>419.6</ele><time>2026-04-04T10:15:55.958Z</time></trkpt><trkpt lat="43.8931921" lon="11.2563008"><ele>418.79999999999995</ele><time>2026-04-04T10:15:56.954Z</time></trkpt><trkpt lat="43.8932708" lon="11.2562998"><ele>418.0</ele><time>2026-04-04T10:15:57.954Z</time></trkpt><trkpt lat="43.8933385" lon="11.2563196"><ele>418.00000000000006</ele><time>2026-04-04T10:15:58.962Z</time></trkpt><trkpt lat="43.8933576" lon="11.2564429"><ele>418.0</ele><time>2026-04-04T10:16:00.954Z</time></trkpt><trkpt lat="43.8933193" lon="11.2565165"><ele>418.0</ele><time>2026-04-04T10:16:01.956Z</time></trkpt><trkpt lat="43.8932668" lon="11.2565831"><ele>418.0</ele><time>2026-04-04T10:16:02.958Z</time></trkpt><trkpt lat="43.8932015" lon="11.25667"><ele>418.00000000000006</ele><time>2026-04-04T10:16:03.965Z</time></trkpt><trkpt lat="43.8931223" lon="11.2567576"><ele>418.0</ele><time>2026-04-04T10:16:04.958Z</time></trkpt><trkpt lat="43.8930452" lon="11.2568396"><ele>413.0</ele><time>2026-04-04T10:16:05.96Z</time></trkpt><trkpt lat="43.8929505" lon="11.2569229"><ele>408.0</ele><time>2026-04-04T10:16:06.945Z</time></trkpt><trkpt lat="43.8928511" lon="11.2570069"><ele>403.0</ele><time>2026-04-04T10:16:07.961Z</time></trkpt><trkpt lat="43.8927516" lon="11.2570726"><ele>398.0</ele><time>2026-04-04T10:16:08.959Z</time></trkpt><trkpt lat="43.8926432" lon="11.2571092"><ele>398.0</ele><time>2026-04-04T10:16:09.954Z</time></trkpt><trkpt lat="43.8925363" lon="11.2571168"><ele>398.0</ele><time>2026-04-04T10:16:10.963Z</time></trkpt><trkpt lat="43.8924223" lon="11.2571195"><ele>398.0</ele><time>2026-04-04T10:16:11.954Z</time></trkpt><trkpt lat="43.8922974" lon="11.2571329"><ele>398.0</ele><time>2026-04-04T10:16:12.961Z</time></trkpt><trkpt lat="43.8921747" lon="11.2571395"><ele>398.0</ele><time>2026-04-04T10:16:13.959Z</time></trkpt><trkpt lat="43.8920607" lon="11.2571283"><ele>398.0</ele><time>2026-04-04T10:16:14.953Z</time></trkpt><trkpt lat="43.8919599" lon="11.2570994"><ele>398.0</ele><time>2026-04-04T10:16:15.96Z</time></trkpt><trkpt lat="43.8918538" lon="11.2570869"><ele>398.0</ele><time>2026-04-04T10:16:16.952Z</time></trkpt><trkpt lat="43.8917441" lon="11.257068"><ele>398.0</ele><time>2026-04-04T10:16:17.962Z</time></trkpt><trkpt lat="43.8916256" lon="11.2570587"><ele>394.75</ele><time>2026-04-04T10:16:18.966Z</time></trkpt><trkpt lat="43.8914924" lon="11.2570721"><ele>391.5</ele><time>2026-04-04T10:16:19.951Z</time></trkpt><trkpt lat="43.8913651" lon="11.257106"><ele>388.25</ele><time>2026-04-04T10:16:20.969Z</time></trkpt><trkpt lat="43.8912373" lon="11.2571403"><ele>385.0</ele><time>2026-04-04T10:16:21.955Z</time></trkpt><trkpt lat="43.8911232" lon="11.257179"><ele>385.0</ele><time>2026-04-04T10:16:22.954Z</time></trkpt><trkpt lat="43.8910193" lon="11.2572063"><ele>385.0</ele><time>2026-04-04T10:16:23.956Z</time></trkpt><trkpt lat="43.8909143" lon="11.2572127"><ele>385.0</ele><time>2026-04-04T10:16:24.962Z</time></trkpt><trkpt lat="43.8908009" lon="11.2571925"><ele>385.0</ele><time>2026-04-04T10:16:25.96Z</time></trkpt><trkpt lat="43.8906983" lon="11.2571874"><ele>385.0</ele><time>2026-04-04T10:16:26.955Z</time></trkpt><trkpt lat="43.8905915" lon="11.2572082"><ele>383.4</ele><time>2026-04-04T10:16:27.968Z</time></trkpt><trkpt lat="43.8904997" lon="11.2572394"><ele>381.8</ele><time>2026-04-04T10:16:28.962Z</time></trkpt><trkpt lat="43.8904019" lon="11.2572707"><ele>380.20000000000005</ele><time>2026-04-04T10:16:29.962Z</time></trkpt><trkpt lat="43.8902982" lon="11.2572928"><ele>378.6</ele><time>2026-04-04T10:16:30.965Z</time></trkpt><trkpt lat="43.8901983" lon="11.2573274"><ele>377.0</ele><time>2026-04-04T10:16:31.965Z</time></trkpt><trkpt lat="43.8901027" lon="11.25737"><ele>376.0</ele><time>2026-04-04T10:16:32.962Z</time></trkpt><trkpt lat="43.8900066" lon="11.2574417"><ele>375.0</ele><time>2026-04-04T10:16:33.958Z</time></trkpt><trkpt lat="43.8899133" lon="11.2575166"><ele>374.0</ele><time>2026-04-04T10:16:34.958Z</time></trkpt><trkpt lat="43.8898201" lon="11.2575976"><ele>373.0</ele><time>2026-04-04T10:16:35.963Z</time></trkpt><trkpt lat="43.8897383" lon="11.2576963"><ele>372.0</ele><time>2026-04-04T10:16:36.972Z</time></trkpt><trkpt lat="43.889657" lon="11.2577939"><ele>372.0</ele><time>2026-04-04T10:16:37.965Z</time></trkpt><trkpt lat="43.8895673" lon="11.257894"><ele>372.0</ele><time>2026-04-04T10:16:38.965Z</time></trkpt><trkpt lat="43.8894734" lon="11.2579945"><ele>372.0</ele><time>2026-04-04T10:16:39.949Z</time></trkpt><trkpt lat="43.8893742" lon="11.2580968"><ele>372.0</ele><time>2026-04-04T10:16:40.958Z</time></trkpt><trkpt lat="43.8892859" lon="11.2582036"><ele>371.0</ele><time>2026-04-04T10:16:41.955Z</time></trkpt><trkpt lat="43.8892124" lon="11.2582931"><ele>370.0</ele><time>2026-04-04T10:16:42.955Z</time></trkpt><trkpt lat="43.8891466" lon="11.2583796"><ele>369.0</ele><time>2026-04-04T10:16:43.944Z</time></trkpt><trkpt lat="43.8891029" lon="11.2584848"><ele>368.0</ele><time>2026-04-04T10:16:44.958Z</time></trkpt><trkpt lat="43.8890718" lon="11.2585968"><ele>367.0</ele><time>2026-04-04T10:16:45.956Z</time></trkpt><trkpt lat="43.8890356" lon="11.2587116"><ele>367.0</ele><time>2026-04-04T10:16:46.962Z</time></trkpt><trkpt lat="43.8889942" lon="11.2588286"><ele>367.0</ele><time>2026-04-04T10:16:47.962Z</time></trkpt><trkpt lat="43.8889389" lon="11.2589331"><ele>367.0</ele><time>2026-04-04T10:16:48.959Z</time></trkpt><trkpt lat="43.8888727" lon="11.2590436"><ele>367.0</ele><time>2026-04-04T10:16:49.962Z</time></trkpt><trkpt lat="43.8887962" lon="11.2591556"><ele>367.0</ele><time>2026-04-04T10:16:50.96Z</time></trkpt><trkpt lat="43.8887163" lon="11.2592689"><ele>366.6</ele><time>2026-04-04T10:16:51.959Z</time></trkpt><trkpt lat="43.8886491" lon="11.2593871"><ele>366.20000000000005</ele><time>2026-04-04T10:16:52.96Z</time></trkpt><trkpt lat="43.8885854" lon="11.2595036"><ele>365.8</ele><time>2026-04-04T10:16:53.96Z</time></trkpt><trkpt lat="43.8885194" lon="11.2596148"><ele>365.4</ele><time>2026-04-04T10:16:54.961Z</time></trkpt><trkpt lat="43.8884593" lon="11.2597022"><ele>365.0</ele><time>2026-04-04T10:16:55.95Z</time></trkpt><trkpt lat="43.8884012" lon="11.2597969"><ele>365.00000000000006</ele><time>2026-04-04T10:16:56.957Z</time></trkpt><trkpt lat="43.8883479" lon="11.259873"><ele>365.0</ele><time>2026-04-04T10:16:57.96Z</time></trkpt><trkpt lat="43.8882881" lon="11.2599341"><ele>365.0</ele><time>2026-04-04T10:16:58.958Z</time></trkpt><trkpt lat="43.8882362" lon="11.2599932"><ele>365.0</ele><time>2026-04-04T10:16:59.959Z</time></trkpt><trkpt lat="43.8881845" lon="11.2600483"><ele>365.0</ele><time>2026-04-04T10:17:00.959Z</time></trkpt><trkpt lat="43.8881327" lon="11.2601138"><ele>365.00000000000006</ele><time>2026-04-04T10:17:01.963Z</time></trkpt><trkpt lat="43.8880811" lon="11.2601846"><ele>365.0</ele><time>2026-04-04T10:17:02.958Z</time></trkpt><trkpt lat="43.8880413" lon="11.2602697"><ele>365.0</ele><time>2026-04-04T10:17:03.965Z</time></trkpt><trkpt lat="43.8880183" lon="11.2603679"><ele>365.0</ele><time>2026-04-04T10:17:04.943Z</time></trkpt><trkpt lat="43.8879956" lon="11.2604633"><ele>365.0</ele><time>2026-04-04T10:17:05.959Z</time></trkpt><trkpt lat="43.8879713" lon="11.2605645"><ele>365.0</ele><time>2026-04-04T10:17:06.937Z</time></trkpt><trkpt lat="43.8879324" lon="11.2606916"><ele>365.0</ele><time>2026-04-04T10:17:07.958Z</time></trkpt><trkpt lat="43.8878742" lon="11.2608225"><ele>365.0</ele><time>2026-04-04T10:17:08.955Z</time></trkpt><trkpt lat="43.8878238" lon="11.2609592"><ele>362.6</ele><time>2026-04-04T10:17:09.964Z</time></trkpt><trkpt lat="43.8877807" lon="11.2610942"><ele>360.2</ele><time>2026-04-04T10:17:10.956Z</time></trkpt><trkpt lat="43.8877253" lon="11.2612283"><ele>357.79999999999995</ele><time>2026-04-04T10:17:11.964Z</time></trkpt><trkpt lat="43.8876676" lon="11.2613689"><ele>355.4</ele><time>2026-04-04T10:17:12.954Z</time></trkpt><trkpt lat="43.88762" lon="11.2615101"><ele>353.0</ele><time>2026-04-04T10:17:13.96Z</time></trkpt><trkpt lat="43.887574" lon="11.261656"><ele>353.0</ele><time>2026-04-04T10:17:14.955Z</time></trkpt><trkpt lat="43.8875283" lon="11.2617783"><ele>353.0</ele><time>2026-04-04T10:17:15.946Z</time></trkpt><trkpt lat="43.8874902" lon="11.2618891"><ele>353.0</ele><time>2026-04-04T10:17:16.959Z</time></trkpt><trkpt lat="43.8874659" lon="11.262001"><ele>353.0</ele><time>2026-04-04T10:17:17.948Z</time></trkpt><trkpt lat="43.8874362" lon="11.2621038"><ele>353.0</ele><time>2026-04-04T10:17:18.96Z</time></trkpt><trkpt lat="43.8874121" lon="11.2622246"><ele>353.0</ele><time>2026-04-04T10:17:19.957Z</time></trkpt><trkpt lat="43.8873881" lon="11.2623434"><ele>354.0</ele><time>2026-04-04T10:17:20.965Z</time></trkpt><trkpt lat="43.8873596" lon="11.2624698"><ele>355.0</ele><time>2026-04-04T10:17:21.968Z</time></trkpt><trkpt lat="43.887335" lon="11.2626108"><ele>356.0</ele><time>2026-04-04T10:17:22.956Z</time></trkpt><trkpt lat="43.8873265" lon="11.2627677"><ele>357.0</ele><time>2026-04-04T10:17:23.968Z</time></trkpt><trkpt lat="43.8873152" lon="11.2629335"><ele>358.0</ele><time>2026-04-04T10:17:24.943Z</time></trkpt><trkpt lat="43.8872902" lon="11.2631058"><ele>358.66666666666663</ele><time>2026-04-04T10:17:25.956Z</time></trkpt><trkpt lat="43.8872611" lon="11.2633002"><ele>359.3333333333333</ele><time>2026-04-04T10:17:26.969Z</time></trkpt><trkpt lat="43.8872287" lon="11.2635043"><ele>360.0</ele><time>2026-04-04T10:17:27.95Z</time></trkpt><trkpt lat="43.8871877" lon="11.2637157"><ele>360.0</ele><time>2026-04-04T10:17:28.95Z</time></trkpt><trkpt lat="43.8871462" lon="11.2639139"><ele>360.0</ele><time>2026-04-04T10:17:29.963Z</time></trkpt><trkpt lat="43.8871123" lon="11.2641153"><ele>360.0</ele><time>2026-04-04T10:17:30.968Z</time></trkpt><trkpt lat="43.8870826" lon="11.2643226"><ele>360.0</ele><time>2026-04-04T10:17:31.966Z</time></trkpt><trkpt lat="43.8870494" lon="11.2645347"><ele>360.0</ele><time>2026-04-04T10:17:32.956Z</time></trkpt><trkpt lat="43.8870264" lon="11.2647353"><ele>360.0</ele><time>2026-04-04T10:17:33.951Z</time></trkpt><trkpt lat="43.8870162" lon="11.264913"><ele>360.0</ele><time>2026-04-04T10:17:34.954Z</time></trkpt><trkpt lat="43.8870133" lon="11.2650882"><ele>357.5</ele><time>2026-04-04T10:17:35.961Z</time></trkpt><trkpt lat="43.8870188" lon="11.265271"><ele>355.0</ele><time>2026-04-04T10:17:36.967Z</time></trkpt><trkpt lat="43.887034" lon="11.2654587"><ele>352.5</ele><time>2026-04-04T10:17:37.96Z</time></trkpt><trkpt lat="43.887084" lon="11.2656483"><ele>350.0</ele><time>2026-04-04T10:17:38.951Z</time></trkpt><trkpt lat="43.8871527" lon="11.2658244"><ele>348.0</ele><time>2026-04-04T10:17:39.955Z</time></trkpt><trkpt lat="43.8872292" lon="11.2659829"><ele>346.0</ele><time>2026-04-04T10:17:40.966Z</time></trkpt><trkpt lat="43.8872896" lon="11.2661409"><ele>344.0</ele><time>2026-04-04T10:17:41.963Z</time></trkpt><trkpt lat="43.8873366" lon="11.2662918"><ele>342.0</ele><time>2026-04-04T10:17:42.967Z</time></trkpt><trkpt lat="43.8873784" lon="11.266438"><ele>341.0</ele><time>2026-04-04T10:17:43.952Z</time></trkpt><trkpt lat="43.8874158" lon="11.2665816"><ele>340.0</ele><time>2026-04-04T10:17:44.955Z</time></trkpt><trkpt lat="43.8874329" lon="11.2667127"><ele>339.0</ele><time>2026-04-04T10:17:45.96Z</time></trkpt><trkpt lat="43.8874513" lon="11.2668163"><ele>338.0</ele><time>2026-04-04T10:17:46.966Z</time></trkpt><trkpt lat="43.8874497" lon="11.2669202"><ele>337.0</ele><time>2026-04-04T10:17:48.969Z</time></trkpt><trkpt lat="43.8873248" lon="11.266943"><ele>337.0</ele><time>2026-04-04T10:17:50.962Z</time></trkpt><trkpt lat="43.8872461" lon="11.2669186"><ele>337.0</ele><time>2026-04-04T10:17:51.961Z</time></trkpt><trkpt lat="43.8871534" lon="11.2668868"><ele>337.0</ele><time>2026-04-04T10:17:52.958Z</time></trkpt><trkpt lat="43.8870582" lon="11.266832"><ele>337.0</ele><time>2026-04-04T10:17:53.948Z</time></trkpt><trkpt lat="43.8869574" lon="11.2667695"><ele>337.0</ele><time>2026-04-04T10:17:54.958Z</time></trkpt><trkpt lat="43.8868639" lon="11.2667132"><ele>337.0</ele><time>2026-04-04T10:17:55.961Z</time></trkpt><trkpt lat="43.8867644" lon="11.2666615"><ele>337.0</ele><time>2026-04-04T10:17:56.961Z</time></trkpt><trkpt lat="43.8866621" lon="11.2665921"><ele>337.0</ele><time>2026-04-04T10:17:57.959Z</time></trkpt><trkpt lat="43.8865447" lon="11.2665245"><ele>337.0</ele><time>2026-04-04T10:17:58.943Z</time></trkpt><trkpt lat="43.8864189" lon="11.2664543"><ele>336.75</ele><time>2026-04-04T10:17:59.96Z</time></trkpt><trkpt lat="43.8862987" lon="11.2663843"><ele>336.5</ele><time>2026-04-04T10:18:00.971Z</time></trkpt><trkpt lat="43.8861899" lon="11.2663035"><ele>336.25</ele><time>2026-04-04T10:18:01.976Z</time></trkpt><trkpt lat="43.8860833" lon="11.266198"><ele>336.0</ele><time>2026-04-04T10:18:02.962Z</time></trkpt><trkpt lat="43.8859662" lon="11.2660881"><ele>337.75</ele><time>2026-04-04T10:18:03.958Z</time></trkpt><trkpt lat="43.8858599" lon="11.2659741"><ele>339.5</ele><time>2026-04-04T10:18:04.962Z</time></trkpt><trkpt lat="43.8857657" lon="11.2658614"><ele>341.25</ele><time>2026-04-04T10:18:05.961Z</time></trkpt><trkpt lat="43.8856769" lon="11.2657597"><ele>343.0</ele><time>2026-04-04T10:18:06.952Z</time></trkpt><trkpt lat="43.8855862" lon="11.2656489"><ele>348.5</ele><time>2026-04-04T10:18:07.957Z</time></trkpt><trkpt lat="43.8855052" lon="11.2655167"><ele>354.0</ele><time>2026-04-04T10:18:08.955Z</time></trkpt><trkpt lat="43.8854316" lon="11.2653781"><ele>359.5</ele><time>2026-04-04T10:18:09.958Z</time></trkpt><trkpt lat="43.8853541" lon="11.2652427"><ele>365.0</ele><time>2026-04-04T10:18:10.962Z</time></trkpt><trkpt lat="43.885256" lon="11.2651281"><ele>365.0</ele><time>2026-04-04T10:18:11.964Z</time></trkpt><trkpt lat="43.8851565" lon="11.2650201"><ele>365.0</ele><time>2026-04-04T10:18:12.955Z</time></trkpt><trkpt lat="43.8850609" lon="11.2649272"><ele>365.0</ele><time>2026-04-04T10:18:13.954Z</time></trkpt><trkpt lat="43.8849455" lon="11.2648621"><ele>365.0</ele><time>2026-04-04T10:18:14.955Z</time></trkpt><trkpt lat="43.8848119" lon="11.2648149"><ele>373.25</ele><time>2026-04-04T10:18:15.959Z</time></trkpt><trkpt lat="43.8846617" lon="11.2647653"><ele>381.5</ele><time>2026-04-04T10:18:16.964Z</time></trkpt><trkpt lat="43.8845326" lon="11.2647102"><ele>389.75</ele><time>2026-04-04T10:18:17.955Z</time></trkpt><trkpt lat="43.8844194" lon="11.2646444"><ele>398.0</ele><time>2026-04-04T10:18:18.961Z</time></trkpt><trkpt lat="43.8843097" lon="11.2645843"><ele>397.0</ele><time>2026-04-04T10:18:19.96Z</time></trkpt><trkpt lat="43.8842059" lon="11.2645232"><ele>396.0</ele><time>2026-04-04T10:18:20.953Z</time></trkpt><trkpt lat="43.8841003" lon="11.2644772"><ele>395.0</ele><time>2026-04-04T10:18:21.959Z</time></trkpt><trkpt lat="43.8839898" lon="11.2644449"><ele>394.0</ele><time>2026-04-04T10:18:22.964Z</time></trkpt><trkpt lat="43.8838759" lon="11.2644151"><ele>394.0</ele><time>2026-04-04T10:18:23.96Z</time></trkpt><trkpt lat="43.883753" lon="11.2643859"><ele>394.0</ele><time>2026-04-04T10:18:24.959Z</time></trkpt><trkpt lat="43.8836348" lon="11.2643585"><ele>394.0</ele><time>2026-04-04T10:18:25.946Z</time></trkpt><trkpt lat="43.8835146" lon="11.2643356"><ele>394.0</ele><time>2026-04-04T10:18:26.95Z</time></trkpt><trkpt lat="43.8834009" lon="11.264302"><ele>389.2</ele><time>2026-04-04T10:18:27.962Z</time></trkpt><trkpt lat="43.8832937" lon="11.2642478"><ele>384.4</ele><time>2026-04-04T10:18:28.961Z</time></trkpt><trkpt lat="43.8831971" lon="11.2641953"><ele>379.6</ele><time>2026-04-04T10:18:29.956Z</time></trkpt><trkpt lat="43.8831073" lon="11.2641352"><ele>374.8</ele><time>2026-04-04T10:18:30.962Z</time></trkpt><trkpt lat="43.8830131" lon="11.2640856"><ele>370.0</ele><time>2026-04-04T10:18:31.953Z</time></trkpt><trkpt lat="43.8829198" lon="11.2640506"><ele>370.0</ele><time>2026-04-04T10:18:32.957Z</time></trkpt><trkpt lat="43.8828167" lon="11.2640208"><ele>370.0</ele><time>2026-04-04T10:18:33.963Z</time></trkpt><trkpt lat="43.8827194" lon="11.2639719"><ele>370.0</ele><time>2026-04-04T10:18:34.958Z</time></trkpt><trkpt lat="43.8826045" lon="11.2639134"><ele>370.0</ele><time>2026-04-04T10:18:35.953Z</time></trkpt><trkpt lat="43.8824925" lon="11.2638448"><ele>374.6</ele><time>2026-04-04T10:18:36.956Z</time></trkpt><trkpt lat="43.8823961" lon="11.2637714"><ele>379.2</ele><time>2026-04-04T10:18:37.96Z</time></trkpt><trkpt lat="43.8823" lon="11.2637034"><ele>383.79999999999995</ele><time>2026-04-04T10:18:38.959Z</time></trkpt><trkpt lat="43.8822171" lon="11.2636265"><ele>388.4</ele><time>2026-04-04T10:18:39.938Z</time></trkpt><trkpt lat="43.8821351" lon="11.2635593"><ele>393.0</ele><time>2026-04-04T10:18:40.95Z</time></trkpt><trkpt lat="43.8820585" lon="11.2634777"><ele>393.0</ele><time>2026-04-04T10:18:41.953Z</time></trkpt><trkpt lat="43.881984" lon="11.2634011"><ele>393.0</ele><time>2026-04-04T10:18:42.958Z</time></trkpt><trkpt lat="43.8819245" lon="11.2633192"><ele>393.0</ele><time>2026-04-04T10:18:43.948Z</time></trkpt><trkpt lat="43.8818689" lon="11.2632412"><ele>393.0</ele><time>2026-04-04T10:18:44.95Z</time></trkpt><trkpt lat="43.8818095" lon="11.2631628"><ele>393.0</ele><time>2026-04-04T10:18:45.955Z</time></trkpt><trkpt lat="43.8817441" lon="11.2631148"><ele>393.0</ele><time>2026-04-04T10:18:46.958Z</time></trkpt><trkpt lat="43.8816689" lon="11.26309"><ele>392.0</ele><time>2026-04-04T10:18:47.959Z</time></trkpt><trkpt lat="43.8815843" lon="11.2630849"><ele>391.0</ele><time>2026-04-04T10:18:48.964Z</time></trkpt><trkpt lat="43.8814952" lon="11.2630826"><ele>390.0</ele><time>2026-04-04T10:18:49.957Z</time></trkpt><trkpt lat="43.8813874" lon="11.2630886"><ele>389.0</ele><time>2026-04-04T10:18:50.964Z</time></trkpt><trkpt lat="43.8812854" lon="11.26308"><ele>388.0</ele><time>2026-04-04T10:18:51.949Z</time></trkpt><trkpt lat="43.8811915" lon="11.2630686"><ele>388.00000000000006</ele><time>2026-04-04T10:18:52.964Z</time></trkpt><trkpt lat="43.8811049" lon="11.2630525"><ele>388.0</ele><time>2026-04-04T10:18:53.958Z</time></trkpt><trkpt lat="43.881035" lon="11.263038"><ele>388.0</ele><time>2026-04-04T10:18:54.966Z</time></trkpt><trkpt lat="43.8809699" lon="11.2630181"><ele>388.0</ele><time>2026-04-04T10:18:55.957Z</time></trkpt><trkpt lat="43.8809008" lon="11.2629776"><ele>388.00000000000006</ele><time>2026-04-04T10:18:56.939Z</time></trkpt><trkpt lat="43.8808301" lon="11.2629318"><ele>388.0</ele><time>2026-04-04T10:18:57.955Z</time></trkpt><trkpt lat="43.8807541" lon="11.2628893"><ele>387.00000000000006</ele><time>2026-04-04T10:18:58.961Z</time></trkpt><trkpt lat="43.8806768" lon="11.2628626"><ele>386.0</ele><time>2026-04-04T10:18:59.957Z</time></trkpt><trkpt lat="43.880596" lon="11.2628573"><ele>385.0</ele><time>2026-04-04T10:19:00.955Z</time></trkpt><trkpt lat="43.880501" lon="11.2628662"><ele>384.0</ele><time>2026-04-04T10:19:01.96Z</time></trkpt><trkpt lat="43.8804049" lon="11.2628757"><ele>383.0</ele><time>2026-04-04T10:19:02.962Z</time></trkpt><trkpt lat="43.8803224" lon="11.262877"><ele>382.0</ele><time>2026-04-04T10:19:03.964Z</time></trkpt><trkpt lat="43.8802511" lon="11.2628526"><ele>382.0</ele><time>2026-04-04T10:19:04.958Z</time></trkpt><trkpt lat="43.8801735" lon="11.2628053"><ele>382.0</ele><time>2026-04-04T10:19:05.955Z</time></trkpt><trkpt lat="43.8800928" lon="11.2627394"><ele>382.0</ele><time>2026-04-04T10:19:06.966Z</time></trkpt><trkpt lat="43.8800101" lon="11.2626557"><ele>382.0</ele><time>2026-04-04T10:19:07.958Z</time></trkpt><trkpt lat="43.8799112" lon="11.2625831"><ele>382.0</ele><time>2026-04-04T10:19:08.958Z</time></trkpt><trkpt lat="43.8798038" lon="11.2625221"><ele>381.20000000000005</ele><time>2026-04-04T10:19:10.028Z</time></trkpt><trkpt lat="43.8796898" lon="11.2624653"><ele>380.4</ele><time>2026-04-04T10:19:11.032Z</time></trkpt><trkpt lat="43.8795813" lon="11.2624025"><ele>379.6</ele><time>2026-04-04T10:19:11.965Z</time></trkpt><trkpt lat="43.8794842" lon="11.262352"><ele>378.79999999999995</ele><time>2026-04-04T10:19:12.954Z</time></trkpt><trkpt lat="43.8793925" lon="11.262325"><ele>378.0</ele><time>2026-04-04T10:19:13.965Z</time></trkpt><trkpt lat="43.8792992" lon="11.2623113"><ele>376.2</ele><time>2026-04-04T10:19:14.952Z</time></trkpt><trkpt lat="43.8791996" lon="11.2623054"><ele>374.4</ele><time>2026-04-04T10:19:16.027Z</time></trkpt><trkpt lat="43.8790996" lon="11.2623046"><ele>372.59999999999997</ele><time>2026-04-04T10:19:16.959Z</time></trkpt><trkpt lat="43.8790015" lon="11.2622938"><ele>370.79999999999995</ele><time>2026-04-04T10:19:17.967Z</time></trkpt><trkpt lat="43.8789021" lon="11.2622611"><ele>369.0</ele><time>2026-04-04T10:19:19.003Z</time></trkpt><trkpt lat="43.8787982" lon="11.2622222"><ele>373.2</ele><time>2026-04-04T10:19:20.037Z</time></trkpt><trkpt lat="43.8786981" lon="11.262167"><ele>377.4</ele><time>2026-04-04T10:19:20.967Z</time></trkpt><trkpt lat="43.8785958" lon="11.2621023"><ele>381.6</ele><time>2026-04-04T10:19:21.948Z</time></trkpt><trkpt lat="43.8784974" lon="11.262049"><ele>385.8</ele><time>2026-04-04T10:19:22.961Z</time></trkpt><trkpt lat="43.8784055" lon="11.262007"><ele>390.0</ele><time>2026-04-04T10:19:23.978Z</time></trkpt><trkpt lat="43.8783113" lon="11.2619579"><ele>390.0</ele><time>2026-04-04T10:19:24.945Z</time></trkpt><trkpt lat="43.8782211" lon="11.2619093"><ele>390.0</ele><time>2026-04-04T10:19:25.971Z</time></trkpt><trkpt lat="43.878129" lon="11.2618553"><ele>390.0</ele><time>2026-04-04T10:19:26.965Z</time></trkpt><trkpt lat="43.8780385" lon="11.2618083"><ele>390.0</ele><time>2026-04-04T10:19:27.962Z</time></trkpt><trkpt lat="43.8779488" lon="11.2617683"><ele>390.0</ele><time>2026-04-04T10:19:28.965Z</time></trkpt><trkpt lat="43.8778479" lon="11.2617405"><ele>390.0</ele><time>2026-04-04T10:19:30.029Z</time></trkpt><trkpt lat="43.8777392" lon="11.2617338"><ele>390.0</ele><time>2026-04-04T10:19:30.971Z</time></trkpt><trkpt lat="43.8776273" lon="11.2617371"><ele>390.0</ele><time>2026-04-04T10:19:31.974Z</time></trkpt><trkpt lat="43.8775253" lon="11.2617423"><ele>390.0</ele><time>2026-04-04T10:19:32.974Z</time></trkpt><trkpt lat="43.8774205" lon="11.2617438"><ele>390.0</ele><time>2026-04-04T10:19:33.957Z</time></trkpt><trkpt lat="43.8773038" lon="11.261757"><ele>389.0</ele><time>2026-04-04T10:19:34.976Z</time></trkpt><trkpt lat="43.8771908" lon="11.2617692"><ele>388.0</ele><time>2026-04-04T10:19:35.982Z</time></trkpt><trkpt lat="43.8770826" lon="11.2617706"><ele>387.0</ele><time>2026-04-04T10:19:36.973Z</time></trkpt><trkpt lat="43.8769771" lon="11.2617592"><ele>386.0</ele><time>2026-04-04T10:19:37.976Z</time></trkpt><trkpt lat="43.8768684" lon="11.2617321"><ele>385.0</ele><time>2026-04-04T10:19:38.979Z</time></trkpt><trkpt lat="43.8767741" lon="11.2616993"><ele>385.8</ele><time>2026-04-04T10:19:39.992Z</time></trkpt><trkpt lat="43.8766745" lon="11.2616789"><ele>386.6</ele><time>2026-04-04T10:19:40.977Z</time></trkpt><trkpt lat="43.8765647" lon="11.2616766"><ele>387.4</ele><time>2026-04-04T10:19:41.979Z</time></trkpt><trkpt lat="43.8764488" lon="11.2616826"><ele>388.2</ele><time>2026-04-04T10:19:42.973Z</time></trkpt><trkpt lat="43.8763361" lon="11.2617139"><ele>389.0</ele><time>2026-04-04T10:19:43.981Z</time></trkpt><trkpt lat="43.8762312" lon="11.2617574"><ele>389.0</ele><time>2026-04-04T10:19:44.976Z</time></trkpt><trkpt lat="43.8761234" lon="11.2618274"><ele>389.0</ele><time>2026-04-04T10:19:45.977Z</time></trkpt><trkpt lat="43.876032" lon="11.261901"><ele>389.0</ele><time>2026-04-04T10:19:46.987Z</time></trkpt><trkpt lat="43.8759284" lon="11.2619748"><ele>389.0</ele><time>2026-04-04T10:19:47.973Z</time></trkpt><trkpt lat="43.8758336" lon="11.2620353"><ele>389.0</ele><time>2026-04-04T10:19:48.977Z</time></trkpt><trkpt lat="43.8757377" lon="11.2620743"><ele>391.0</ele><time>2026-04-04T10:19:49.976Z</time></trkpt><trkpt lat="43.8756467" lon="11.262099"><ele>393.0</ele><time>2026-04-04T10:19:50.977Z</time></trkpt><trkpt lat="43.8755594" lon="11.2621206"><ele>395.0</ele><time>2026-04-04T10:19:51.978Z</time></trkpt><trkpt lat="43.8754595" lon="11.2621109"><ele>397.0</ele><time>2026-04-04T10:19:52.98Z</time></trkpt><trkpt lat="43.8753509" lon="11.2620916"><ele>399.0</ele><time>2026-04-04T10:19:53.98Z</time></trkpt><trkpt lat="43.8752554" lon="11.2620867"><ele>399.0</ele><time>2026-04-04T10:19:54.984Z</time></trkpt><trkpt lat="43.8751467" lon="11.2620982"><ele>399.0</ele><time>2026-04-04T10:19:56.98Z</time></trkpt><trkpt lat="43.8750778" lon="11.2620892"><ele>399.0</ele><time>2026-04-04T10:19:58.989Z</time></trkpt><trkpt lat="43.8750124" lon="11.2620546"><ele>399.0</ele><time>2026-04-04T10:20:02.986Z</time></trkpt><trkpt lat="43.8749491" lon="11.2620081"><ele>399.0</ele><time>2026-04-04T10:20:06.984Z</time></trkpt><trkpt lat="43.8749058" lon="11.2619394"><ele>399.0</ele><time>2026-04-04T10:20:08.988Z</time></trkpt><trkpt lat="43.8748487" lon="11.2618205"><ele>399.6</ele><time>2026-04-04T10:20:10.983Z</time></trkpt><trkpt lat="43.8748071" lon="11.2616992"><ele>400.2</ele><time>2026-04-04T10:20:12.984Z</time></trkpt><trkpt lat="43.8747686" lon="11.2615981"><ele>400.8</ele><time>2026-04-04T10:20:15.092Z</time></trkpt><trkpt lat="43.8747235" lon="11.2614814"><ele>401.40000000000003</ele><time>2026-04-04T10:20:16.959Z</time></trkpt><trkpt lat="43.8746653" lon="11.2613676"><ele>402.0</ele><time>2026-04-04T10:20:18.974Z</time></trkpt><trkpt lat="43.8745957" lon="11.2612373"><ele>406.5</ele><time>2026-04-04T10:20:20.96Z</time></trkpt><trkpt lat="43.8745525" lon="11.2611566"><ele>411.0</ele><time>2026-04-04T10:20:21.958Z</time></trkpt><trkpt lat="43.8745064" lon="11.2610751"><ele>415.5</ele><time>2026-04-04T10:20:22.965Z</time></trkpt><trkpt lat="43.8744682" lon="11.2609956"><ele>420.0</ele><time>2026-04-04T10:20:23.967Z</time></trkpt><trkpt lat="43.8744228" lon="11.2609143"><ele>424.5</ele><time>2026-04-04T10:20:25.021Z</time></trkpt><trkpt lat="43.8743784" lon="11.2608413"><ele>429.0</ele><time>2026-04-04T10:20:25.962Z</time></trkpt><trkpt lat="43.8743037" lon="11.2607431"><ele>425.1666666666667</ele><time>2026-04-04T10:20:27.962Z</time></trkpt><trkpt lat="43.8742014" lon="11.2607403"><ele>421.33333333333337</ele><time>2026-04-04T10:20:29.988Z</time></trkpt><trkpt lat="43.874097" lon="11.2608031"><ele>417.5</ele><time>2026-04-04T10:20:31.962Z</time></trkpt><trkpt lat="43.8740427" lon="11.2608577"><ele>413.6666666666667</ele><time>2026-04-04T10:20:32.965Z</time></trkpt><trkpt lat="43.8739959" lon="11.2609205"><ele>409.83333333333337</ele><time>2026-04-04T10:20:33.968Z</time></trkpt><trkpt lat="43.8739343" lon="11.2609713"><ele>406.0</ele><time>2026-04-04T10:20:34.978Z</time></trkpt><trkpt lat="43.8738754" lon="11.2610153"><ele>406.0</ele><time>2026-04-04T10:20:35.957Z</time></trkpt><trkpt lat="43.8738018" lon="11.2610378"><ele>406.0</ele><time>2026-04-04T10:20:37.953Z</time></trkpt><trkpt lat="43.8737927" lon="11.2609362"><ele>406.0</ele><time>2026-04-04T10:20:39.967Z</time></trkpt><trkpt lat="43.8738169" lon="11.2607946"><ele>406.0</ele><time>2026-04-04T10:20:41.964Z</time></trkpt><trkpt lat="43.8738285" lon="11.2606508"><ele>406.0</ele><time>2026-04-04T10:20:44.036Z</time></trkpt><trkpt lat="43.873793" lon="11.260512"><ele>406.0</ele><time>2026-04-04T10:20:45.966Z</time></trkpt><trkpt lat="43.8736977" lon="11.260504"><ele>406.0</ele><time>2026-04-04T10:20:48.027Z</time></trkpt><trkpt lat="43.873617" lon="11.2605429"><ele>406.0</ele><time>2026-04-04T10:20:50.034Z</time></trkpt><trkpt lat="43.8735409" lon="11.2606314"><ele>406.0</ele><time>2026-04-04T10:20:51.968Z</time></trkpt><trkpt lat="43.8735026" lon="11.2607716"><ele>406.0</ele><time>2026-04-04T10:20:53.964Z</time></trkpt><trkpt lat="43.8735083" lon="11.2609243"><ele>406.00000000000006</ele><time>2026-04-04T10:20:56.029Z</time></trkpt><trkpt lat="43.8735249" lon="11.2610203"><ele>406.0</ele><time>2026-04-04T10:20:56.96Z</time></trkpt><trkpt lat="43.8735422" lon="11.2611328"><ele>406.0</ele><time>2026-04-04T10:20:58.03Z</time></trkpt><trkpt lat="43.8735641" lon="11.2612435"><ele>406.0</ele><time>2026-04-04T10:20:58.964Z</time></trkpt><trkpt lat="43.8735837" lon="11.2613367"><ele>406.00000000000006</ele><time>2026-04-04T10:20:59.968Z</time></trkpt><trkpt lat="43.8736162" lon="11.2614235"><ele>406.0</ele><time>2026-04-04T10:21:00.955Z</time></trkpt><trkpt lat="43.8736465" lon="11.261518"><ele>405.6</ele><time>2026-04-04T10:21:01.968Z</time></trkpt><trkpt lat="43.8736732" lon="11.2616098"><ele>405.20000000000005</ele><time>2026-04-04T10:21:02.965Z</time></trkpt><trkpt lat="43.8736946" lon="11.2617591"><ele>404.79999999999995</ele><time>2026-04-04T10:21:05.093Z</time></trkpt><trkpt lat="43.8736206" lon="11.2618564"><ele>404.4</ele><time>2026-04-04T10:21:06.97Z</time></trkpt><trkpt lat="43.8735414" lon="11.261837"><ele>404.0</ele><time>2026-04-04T10:21:09.014Z</time></trkpt><trkpt lat="43.8734655" lon="11.261716"><ele>407.42857142857144</ele><time>2026-04-04T10:21:10.969Z</time></trkpt><trkpt lat="43.8734231" lon="11.2616474"><ele>410.85714285714283</ele><time>2026-04-04T10:21:11.974Z</time></trkpt><trkpt lat="43.8733795" lon="11.2615812"><ele>414.28571428571433</ele><time>2026-04-04T10:21:13.023Z</time></trkpt><trkpt lat="43.8733341" lon="11.2615079"><ele>417.7142857142857</ele><time>2026-04-04T10:21:14.034Z</time></trkpt><trkpt lat="43.8732802" lon="11.2614312"><ele>421.14285714285717</ele><time>2026-04-04T10:21:15.031Z</time></trkpt><trkpt lat="43.8732226" lon="11.2613554"><ele>424.5714285714286</ele><time>2026-04-04T10:21:16.047Z</time></trkpt><trkpt lat="43.8731631" lon="11.261265"><ele>428.0</ele><time>2026-04-04T10:21:16.961Z</time></trkpt><trkpt lat="43.8731047" lon="11.2611727"><ele>427.99999999999994</ele><time>2026-04-04T10:21:17.97Z</time></trkpt><trkpt lat="43.873052" lon="11.2610841"><ele>428.0</ele><time>2026-04-04T10:21:18.978Z</time></trkpt><trkpt lat="43.8730033" lon="11.2609968"><ele>428.0</ele><time>2026-04-04T10:21:20.021Z</time></trkpt><trkpt lat="43.8729555" lon="11.2609054"><ele>428.0</ele><time>2026-04-04T10:21:20.964Z</time></trkpt><trkpt lat="43.8729178" lon="11.260808"><ele>427.99999999999994</ele><time>2026-04-04T10:21:21.961Z</time></trkpt><trkpt lat="43.8729007" lon="11.2606884"><ele>428.0</ele><time>2026-04-04T10:21:22.943Z</time></trkpt><trkpt lat="43.8728883" lon="11.2605708"><ele>428.16666666666663</ele><time>2026-04-04T10:21:23.987Z</time></trkpt><trkpt lat="43.8728847" lon="11.2604371"><ele>428.3333333333333</ele><time>2026-04-04T10:21:24.978Z</time></trkpt><trkpt lat="43.8728708" lon="11.2603154"><ele>428.5</ele><time>2026-04-04T10:21:25.949Z</time></trkpt><trkpt lat="43.8728506" lon="11.260205"><ele>428.66666666666663</ele><time>2026-04-04T10:21:26.957Z</time></trkpt><trkpt lat="43.8728199" lon="11.2601005"><ele>428.8333333333333</ele><time>2026-04-04T10:21:28.032Z</time></trkpt><trkpt lat="43.8727834" lon="11.2600098"><ele>429.0</ele><time>2026-04-04T10:21:29.03Z</time></trkpt><trkpt lat="43.8727394" lon="11.2599073"><ele>429.0</ele><time>2026-04-04T10:21:30.023Z</time></trkpt><trkpt lat="43.8727059" lon="11.2597941"><ele>429.0</ele><time>2026-04-04T10:21:31.031Z</time></trkpt><trkpt lat="43.8726821" lon="11.2596677"><ele>429.0</ele><time>2026-04-04T10:21:31.955Z</time></trkpt><trkpt lat="43.8726569" lon="11.2595425"><ele>429.0</ele><time>2026-04-04T10:21:32.956Z</time></trkpt><trkpt lat="43.8726325" lon="11.2594186"><ele>429.0</ele><time>2026-04-04T10:21:33.983Z</time></trkpt><trkpt lat="43.8726047" lon="11.259292"><ele>433.5</ele><time>2026-04-04T10:21:35.031Z</time></trkpt><trkpt lat="43.8725788" lon="11.2591691"><ele>438.0</ele><time>2026-04-04T10:21:36.03Z</time></trkpt><trkpt lat="43.8725493" lon="11.2590526"><ele>442.5</ele><time>2026-04-04T10:21:36.971Z</time></trkpt><trkpt lat="43.8725186" lon="11.2589471"><ele>447.0</ele><time>2026-04-04T10:21:38.04Z</time></trkpt><trkpt lat="43.8724879" lon="11.258859"><ele>451.5</ele><time>2026-04-04T10:21:39.035Z</time></trkpt><trkpt lat="43.8724549" lon="11.2587764"><ele>456.0</ele><time>2026-04-04T10:21:40.031Z</time></trkpt><trkpt lat="43.8724207" lon="11.2586891"><ele>456.0</ele><time>2026-04-04T10:21:40.959Z</time></trkpt><trkpt lat="43.8723821" lon="11.2586048"><ele>456.0</ele><time>2026-04-04T10:21:41.964Z</time></trkpt><trkpt lat="43.872336" lon="11.2585153"><ele>456.0</ele><time>2026-04-04T10:21:42.955Z</time></trkpt><trkpt lat="43.8723028" lon="11.2584201"><ele>456.0</ele><time>2026-04-04T10:21:43.964Z</time></trkpt><trkpt lat="43.8722714" lon="11.2583367"><ele>456.0</ele><time>2026-04-04T10:21:44.96Z</time></trkpt><trkpt lat="43.8722024" lon="11.2582081"><ele>456.0</ele><time>2026-04-04T10:21:46.951Z</time></trkpt><trkpt lat="43.8721546" lon="11.258147"><ele>456.5</ele><time>2026-04-04T10:21:47.948Z</time></trkpt><trkpt lat="43.8720941" lon="11.258094"><ele>457.0</ele><time>2026-04-04T10:21:49.01Z</time></trkpt><trkpt lat="43.8720316" lon="11.2580407"><ele>457.5</ele><time>2026-04-04T10:21:49.961Z</time></trkpt><trkpt lat="43.8719726" lon="11.2580043"><ele>458.0</ele><time>2026-04-04T10:21:50.954Z</time></trkpt><trkpt lat="43.8718722" lon="11.2579896"><ele>458.5</ele><time>2026-04-04T10:21:52.962Z</time></trkpt><trkpt lat="43.8717936" lon="11.258063"><ele>459.0</ele><time>2026-04-04T10:21:55.028Z</time></trkpt><trkpt lat="43.8717556" lon="11.2581399"><ele>461.0</ele><time>2026-04-04T10:21:56.029Z</time></trkpt><trkpt lat="43.8717201" lon="11.2582185"><ele>463.0</ele><time>2026-04-04T10:21:56.96Z</time></trkpt><trkpt lat="43.8716799" lon="11.2583025"><ele>465.0</ele><time>2026-04-04T10:21:57.964Z</time></trkpt><trkpt lat="43.8716475" lon="11.2583971"><ele>467.0</ele><time>2026-04-04T10:21:58.97Z</time></trkpt><trkpt lat="43.8716367" lon="11.2584982"><ele>469.0</ele><time>2026-04-04T10:22:00.03Z</time></trkpt><trkpt lat="43.8716292" lon="11.2586378"><ele>471.0</ele><time>2026-04-04T10:22:01.955Z</time></trkpt><trkpt lat="43.8715546" lon="11.2586653"><ele>471.0</ele><time>2026-04-04T10:22:05.031Z</time></trkpt><trkpt lat="43.871517" lon="11.2585281"><ele>471.0</ele><time>2026-04-04T10:22:06.963Z</time></trkpt><trkpt lat="43.871497" lon="11.2584414"><ele>471.0</ele><time>2026-04-04T10:22:08.031Z</time></trkpt><trkpt lat="43.8714661" lon="11.2582719"><ele>471.0</ele><time>2026-04-04T10:22:10.03Z</time></trkpt><trkpt lat="43.8714677" lon="11.2580942"><ele>471.0</ele><time>2026-04-04T10:22:11.976Z</time></trkpt><trkpt lat="43.8714704" lon="11.2579184"><ele>472.6666666666667</ele><time>2026-04-04T10:22:14.075Z</time></trkpt><trkpt lat="43.8714765" lon="11.2578261"><ele>474.33333333333337</ele><time>2026-04-04T10:22:14.993Z</time></trkpt><trkpt lat="43.8714832" lon="11.2577376"><ele>476.0</ele><time>2026-04-04T10:22:15.978Z</time></trkpt><trkpt lat="43.8714991" lon="11.2576457"><ele>477.6666666666667</ele><time>2026-04-04T10:22:16.983Z</time></trkpt><trkpt lat="43.871507" lon="11.2575585"><ele>479.33333333333337</ele><time>2026-04-04T10:22:17.977Z</time></trkpt><trkpt lat="43.871525" lon="11.2573949"><ele>481.0</ele><time>2026-04-04T10:22:20.029Z</time></trkpt><trkpt lat="43.8715152" lon="11.2572493"><ele>483.6</ele><time>2026-04-04T10:22:21.97Z</time></trkpt><trkpt lat="43.8714865" lon="11.2571208"><ele>486.20000000000005</ele><time>2026-04-04T10:22:23.95Z</time></trkpt><trkpt lat="43.8714583" lon="11.2569949"><ele>488.79999999999995</ele><time>2026-04-04T10:22:25.955Z</time></trkpt><trkpt lat="43.8714343" lon="11.2568675"><ele>491.4</ele><time>2026-04-04T10:22:27.964Z</time></trkpt><trkpt lat="43.871403" lon="11.2567345"><ele>494.0</ele><time>2026-04-04T10:22:29.955Z</time></trkpt><trkpt lat="43.8713764" lon="11.2565923"><ele>494.0</ele><time>2026-04-04T10:22:31.961Z</time></trkpt><trkpt lat="43.8713926" lon="11.2564538"><ele>494.0</ele><time>2026-04-04T10:22:33.961Z</time></trkpt><trkpt lat="43.8714228" lon="11.2562863"><ele>494.0</ele><time>2026-04-04T10:22:36.031Z</time></trkpt><trkpt lat="43.8714297" lon="11.256195"><ele>494.0</ele><time>2026-04-04T10:22:36.969Z</time></trkpt><trkpt lat="43.8714606" lon="11.2560366"><ele>494.0</ele><time>2026-04-04T10:22:38.988Z</time></trkpt><trkpt lat="43.8714966" lon="11.2559028"><ele>495.8333333333333</ele><time>2026-04-04T10:22:40.963Z</time></trkpt><trkpt lat="43.8715343" lon="11.2557817"><ele>497.66666666666663</ele><time>2026-04-04T10:22:42.959Z</time></trkpt><trkpt lat="43.8715532" lon="11.255688"><ele>499.5</ele><time>2026-04-04T10:22:46.968Z</time></trkpt><trkpt lat="43.8714754" lon="11.2556808"><ele>501.33333333333337</ele><time>2026-04-04T10:23:10.959Z</time></trkpt><trkpt lat="43.8714036" lon="11.2556822"><ele>503.1666666666667</ele><time>2026-04-04T10:23:13.987Z</time></trkpt><trkpt lat="43.8713307" lon="11.2556881"><ele>505.0</ele><time>2026-04-04T10:23:15.965Z</time></trkpt><trkpt lat="43.8712486" lon="11.2556831"><ele>505.0</ele><time>2026-04-04T10:23:17.954Z</time></trkpt><trkpt lat="43.8711521" lon="11.2556557"><ele>505.0</ele><time>2026-04-04T10:23:19.951Z</time></trkpt><trkpt lat="43.8710557" lon="11.2556108"><ele>505.0</ele><time>2026-04-04T10:23:21.953Z</time></trkpt><trkpt lat="43.8709653" lon="11.2555567"><ele>505.0</ele><time>2026-04-04T10:23:23.934Z</time></trkpt><trkpt lat="43.8708734" lon="11.2554717"><ele>505.0</ele><time>2026-04-04T10:23:25.963Z</time></trkpt><trkpt lat="43.8707848" lon="11.2553881"><ele>511.0</ele><time>2026-04-04T10:23:27.968Z</time></trkpt><trkpt lat="43.8706952" lon="11.2553085"><ele>517.0</ele><time>2026-04-04T10:23:29.956Z</time></trkpt><trkpt lat="43.8705978" lon="11.2552227"><ele>523.0</ele><time>2026-04-04T10:23:31.953Z</time></trkpt><trkpt lat="43.8704891" lon="11.2551337"><ele>529.0</ele><time>2026-04-04T10:23:33.968Z</time></trkpt><trkpt lat="43.8704397" lon="11.2550745"><ele>535.0</ele><time>2026-04-04T10:23:35.039Z</time></trkpt><trkpt lat="43.8703878" lon="11.2550242"><ele>535.0</ele><time>2026-04-04T10:23:36.051Z</time></trkpt><trkpt lat="43.8703295" lon="11.2549721"><ele>535.0</ele><time>2026-04-04T10:23:36.966Z</time></trkpt><trkpt lat="43.8702754" lon="11.2549193"><ele>535.0</ele><time>2026-04-04T10:23:37.969Z</time></trkpt><trkpt lat="43.8701698" lon="11.2548655"><ele>535.0</ele><time>2026-04-04T10:23:40.021Z</time></trkpt><trkpt lat="43.8700693" lon="11.2548439"><ele>535.0</ele><time>2026-04-04T10:23:41.961Z</time></trkpt><trkpt lat="43.8699738" lon="11.2548085"><ele>535.0</ele><time>2026-04-04T10:23:44.032Z</time></trkpt><trkpt lat="43.8698695" lon="11.2547887"><ele>539.8333333333334</ele><time>2026-04-04T10:23:46.052Z</time></trkpt><trkpt lat="43.8697897" lon="11.2547697"><ele>544.6666666666667</ele><time>2026-04-04T10:23:48.027Z</time></trkpt><trkpt lat="43.8697091" lon="11.254753"><ele>549.5</ele><time>2026-04-04T10:23:49.975Z</time></trkpt><trkpt lat="43.8696349" lon="11.2547346"><ele>554.3333333333334</ele><time>2026-04-04T10:23:51.961Z</time></trkpt><trkpt lat="43.8695582" lon="11.2547045"><ele>559.1666666666666</ele><time>2026-04-04T10:23:53.965Z</time></trkpt><trkpt lat="43.8694846" lon="11.2546701"><ele>564.0</ele><time>2026-04-04T10:23:55.955Z</time></trkpt><trkpt lat="43.8693939" lon="11.2546261"><ele>564.0</ele><time>2026-04-04T10:23:57.95Z</time></trkpt><trkpt lat="43.869306" lon="11.2545297"><ele>564.0</ele><time>2026-04-04T10:23:59.951Z</time></trkpt><trkpt lat="43.8692275" lon="11.2544195"><ele>564.0</ele><time>2026-04-04T10:24:01.946Z</time></trkpt><trkpt lat="43.8691631" lon="11.2543211"><ele>564.0</ele><time>2026-04-04T10:24:03.983Z</time></trkpt><trkpt lat="43.8691153" lon="11.2542472"><ele>564.0</ele><time>2026-04-04T10:24:07.953Z</time></trkpt><trkpt lat="43.8690376" lon="11.2542089"><ele>562.8</ele><time>2026-04-04T10:24:11.028Z</time></trkpt><trkpt lat="43.8689713" lon="11.2541473"><ele>561.5999999999999</ele><time>2026-04-04T10:24:12.956Z</time></trkpt><trkpt lat="43.8689108" lon="11.254069"><ele>560.4</ele><time>2026-04-04T10:24:14.955Z</time></trkpt><trkpt lat="43.8688462" lon="11.2539752"><ele>559.1999999999999</ele><time>2026-04-04T10:24:16.965Z</time></trkpt><trkpt lat="43.8687833" lon="11.2538387"><ele>558.0</ele><time>2026-04-04T10:24:18.978Z</time></trkpt><trkpt lat="43.8687095" lon="11.253742"><ele>563.5</ele><time>2026-04-04T10:24:21.032Z</time></trkpt><trkpt lat="43.868639" lon="11.2536516"><ele>569.0</ele><time>2026-04-04T10:24:22.943Z</time></trkpt><trkpt lat="43.8685712" lon="11.2535696"><ele>574.5</ele><time>2026-04-04T10:24:24.957Z</time></trkpt><trkpt lat="43.8685196" lon="11.2535003"><ele>580.0</ele><time>2026-04-04T10:24:26.96Z</time></trkpt><trkpt lat="43.8684966" lon="11.2534082"><ele>585.5</ele><time>2026-04-04T10:24:30.955Z</time></trkpt><trkpt lat="43.8685662" lon="11.253417"><ele>591.0</ele><time>2026-04-04T10:24:35.032Z</time></trkpt><trkpt lat="43.86865" lon="11.2534048"><ele>591.0</ele><time>2026-04-04T10:24:37.97Z</time></trkpt><trkpt lat="43.8687338" lon="11.253408"><ele>591.0</ele><time>2026-04-04T10:24:40.962Z</time></trkpt><trkpt lat="43.8687055" lon="11.253279"><ele>591.0</ele><time>2026-04-04T10:24:45.955Z</time></trkpt><trkpt lat="43.868654" lon="11.2531992"><ele>591.0</ele><time>2026-04-04T10:24:47.957Z</time></trkpt><trkpt lat="43.8686" lon="11.2531135"><ele>591.0</ele><time>2026-04-04T10:24:49.949Z</time></trkpt><trkpt lat="43.8685394" lon="11.253009"><ele>591.0</ele><time>2026-04-04T10:24:51.958Z</time></trkpt><trkpt lat="43.868467" lon="11.2529082"><ele>592.8</ele><time>2026-04-04T10:24:53.987Z</time></trkpt><trkpt lat="43.8683941" lon="11.2527735"><ele>594.6</ele><time>2026-04-04T10:24:55.957Z</time></trkpt><trkpt lat="43.8683201" lon="11.2526515"><ele>596.4</ele><time>2026-04-04T10:24:57.957Z</time></trkpt><trkpt lat="43.8682501" lon="11.2525595"><ele>598.2</ele><time>2026-04-04T10:25:00.013Z</time></trkpt><trkpt lat="43.8681953" lon="11.2524791"><ele>600.0</ele><time>2026-04-04T10:25:01.961Z</time></trkpt><trkpt lat="43.8681379" lon="11.2524219"><ele>600.0</ele><time>2026-04-04T10:25:04.035Z</time></trkpt><trkpt lat="43.8680602" lon="11.2524011"><ele>600.0</ele><time>2026-04-04T10:25:05.986Z</time></trkpt><trkpt lat="43.8679753" lon="11.2523841"><ele>600.0</ele><time>2026-04-04T10:25:08.96Z</time></trkpt><trkpt lat="43.8678887" lon="11.2523871"><ele>600.0</ele><time>2026-04-04T10:25:11.949Z</time></trkpt><trkpt lat="43.8678215" lon="11.2524002"><ele>600.0</ele><time>2026-04-04T10:25:14.033Z</time></trkpt><trkpt lat="43.867749" lon="11.2524282"><ele>600.0</ele><time>2026-04-04T10:25:15.962Z</time></trkpt><trkpt lat="43.867679" lon="11.2524642"><ele>602.8</ele><time>2026-04-04T10:25:17.955Z</time></trkpt><trkpt lat="43.8676059" lon="11.2525027"><ele>605.6</ele><time>2026-04-04T10:25:19.965Z</time></trkpt><trkpt lat="43.8675292" lon="11.252548"><ele>608.4</ele><time>2026-04-04T10:25:21.967Z</time></trkpt><trkpt lat="43.8674315" lon="11.2525977"><ele>611.2</ele><time>2026-04-04T10:25:24.038Z</time></trkpt><trkpt lat="43.8673262" lon="11.252663"><ele>614.0</ele><time>2026-04-04T10:25:26.032Z</time></trkpt><trkpt lat="43.8672325" lon="11.2527115"><ele>614.0</ele><time>2026-04-04T10:25:27.955Z</time></trkpt><trkpt lat="43.8671518" lon="11.252762"><ele>614.0</ele><time>2026-04-04T10:25:29.957Z</time></trkpt><trkpt lat="43.8670629" lon="11.2527984"><ele>614.0</ele><time>2026-04-04T10:25:31.958Z</time></trkpt><trkpt lat="43.8669654" lon="11.2528055"><ele>614.0</ele><time>2026-04-04T10:25:34.029Z</time></trkpt><trkpt lat="43.8668661" lon="11.2528165"><ele>614.0</ele><time>2026-04-04T10:25:35.965Z</time></trkpt><trkpt lat="43.8667862" lon="11.2528104"><ele>614.0</ele><time>2026-04-04T10:25:37.953Z</time></trkpt><trkpt lat="43.8667185" lon="11.2527725"><ele>614.0</ele><time>2026-04-04T10:25:39.952Z</time></trkpt><trkpt lat="43.8667068" lon="11.2526797"><ele>614.0</ele><time>2026-04-04T10:25:44.038Z</time></trkpt><trkpt lat="43.8667698" lon="11.2525754"><ele>614.0</ele><time>2026-04-04T10:25:45.963Z</time></trkpt><trkpt lat="43.8668379" lon="11.2524607"><ele>614.0</ele><time>2026-04-04T10:25:47.955Z</time></trkpt><trkpt lat="43.8669043" lon="11.252352"><ele>614.0</ele><time>2026-04-04T10:25:49.961Z</time></trkpt><trkpt lat="43.8669357" lon="11.2522572"><ele>616.4</ele><time>2026-04-04T10:25:51.965Z</time></trkpt><trkpt lat="43.8669629" lon="11.252121"><ele>618.8</ele><time>2026-04-04T10:25:53.953Z</time></trkpt><trkpt lat="43.8669798" lon="11.2520244"><ele>621.2</ele><time>2026-04-04T10:25:55.966Z</time></trkpt><trkpt lat="43.8669873" lon="11.2519101"><ele>623.6</ele><time>2026-04-04T10:25:57.961Z</time></trkpt><trkpt lat="43.8669618" lon="11.2517686"><ele>626.0</ele><time>2026-04-04T10:25:59.964Z</time></trkpt><trkpt lat="43.8669243" lon="11.2516263"><ele>626.0</ele><time>2026-04-04T10:26:01.966Z</time></trkpt><trkpt lat="43.8668813" lon="11.2514701"><ele>626.0</ele><time>2026-04-04T10:26:04.037Z</time></trkpt><trkpt lat="43.8668221" lon="11.2513182"><ele>626.0</ele><time>2026-04-04T10:26:05.971Z</time></trkpt><trkpt lat="43.8667869" lon="11.2512388"><ele>626.0</ele><time>2026-04-04T10:26:06.966Z</time></trkpt><trkpt lat="43.8667399" lon="11.2510891"><ele>626.0</ele><time>2026-04-04T10:26:08.976Z</time></trkpt><trkpt lat="43.8667176" lon="11.250923"><ele>626.3333333333333</ele><time>2026-04-04T10:26:10.968Z</time></trkpt><trkpt lat="43.8667216" lon="11.2508189"><ele>626.6666666666666</ele><time>2026-04-04T10:26:11.965Z</time></trkpt><trkpt lat="43.8667198" lon="11.2507299"><ele>627.0</ele><time>2026-04-04T10:26:12.963Z</time></trkpt><trkpt lat="43.8667285" lon="11.2505547"><ele>627.3333333333334</ele><time>2026-04-04T10:26:14.971Z</time></trkpt><trkpt lat="43.8667441" lon="11.2504649"><ele>627.6666666666667</ele><time>2026-04-04T10:26:15.964Z</time></trkpt><trkpt lat="43.8667684" lon="11.2503583"><ele>628.0</ele><time>2026-04-04T10:26:16.96Z</time></trkpt><trkpt lat="43.8667841" lon="11.2502452"><ele>631.9999999999999</ele><time>2026-04-04T10:26:17.972Z</time></trkpt><trkpt lat="43.8668028" lon="11.2501369"><ele>636.0</ele><time>2026-04-04T10:26:19.031Z</time></trkpt><trkpt lat="43.8668184" lon="11.2500271"><ele>640.0</ele><time>2026-04-04T10:26:20.029Z</time></trkpt><trkpt lat="43.8668344" lon="11.2499402"><ele>644.0</ele><time>2026-04-04T10:26:20.961Z</time></trkpt><trkpt lat="43.866842" lon="11.2498486"><ele>648.0</ele><time>2026-04-04T10:26:21.968Z</time></trkpt><trkpt lat="43.8668496" lon="11.2497537"><ele>651.9999999999999</ele><time>2026-04-04T10:26:22.97Z</time></trkpt><trkpt lat="43.8668502" lon="11.2496611"><ele>656.0</ele><time>2026-04-04T10:26:23.98Z</time></trkpt><trkpt lat="43.8668545" lon="11.2495621"><ele>657.2857142857142</ele><time>2026-04-04T10:26:25.031Z</time></trkpt><trkpt lat="43.8668509" lon="11.2494668"><ele>658.5714285714286</ele><time>2026-04-04T10:26:26.032Z</time></trkpt><trkpt lat="43.866849" lon="11.2493697"><ele>659.8571428571429</ele><time>2026-04-04T10:26:26.956Z</time></trkpt><trkpt lat="43.8668442" lon="11.2492759"><ele>661.1428571428571</ele><time>2026-04-04T10:26:28.029Z</time></trkpt><trkpt lat="43.8668403" lon="11.2491874"><ele>662.4285714285714</ele><time>2026-04-04T10:26:29.03Z</time></trkpt><trkpt lat="43.8668354" lon="11.2490996"><ele>663.7142857142857</ele><time>2026-04-04T10:26:30.029Z</time></trkpt><trkpt lat="43.8668345" lon="11.2490082"><ele>665.0</ele><time>2026-04-04T10:26:30.97Z</time></trkpt><trkpt lat="43.8668391" lon="11.2489182"><ele>666.0</ele><time>2026-04-04T10:26:31.961Z</time></trkpt><trkpt lat="43.8668435" lon="11.2488243"><ele>667.0</ele><time>2026-04-04T10:26:33.028Z</time></trkpt><trkpt lat="43.8668427" lon="11.2487342"><ele>668.0</ele><time>2026-04-04T10:26:34.029Z</time></trkpt><trkpt lat="43.8668597" lon="11.2485787"><ele>669.0</ele><time>2026-04-04T10:26:36.045Z</time></trkpt><trkpt lat="43.866889" lon="11.2484421"><ele>670.0</ele><time>2026-04-04T10:26:37.97Z</time></trkpt><trkpt lat="43.8669285" lon="11.2482953"><ele>670.0</ele><time>2026-04-04T10:26:40.028Z</time></trkpt><trkpt lat="43.8669801" lon="11.2481381"><ele>670.0</ele><time>2026-04-04T10:26:41.965Z</time></trkpt><trkpt lat="43.8670047" lon="11.2480576"><ele>670.0</ele><time>2026-04-04T10:26:42.973Z</time></trkpt><trkpt lat="43.8670235" lon="11.2479721"><ele>670.0</ele><time>2026-04-04T10:26:44.036Z</time></trkpt><trkpt lat="43.867037" lon="11.2478805"><ele>670.0</ele><time>2026-04-04T10:26:45.028Z</time></trkpt><trkpt lat="43.8670437" lon="11.2477716"><ele>670.0</ele><time>2026-04-04T10:26:45.956Z</time></trkpt><trkpt lat="43.8670613" lon="11.247667"><ele>668.8</ele><time>2026-04-04T10:26:46.958Z</time></trkpt><trkpt lat="43.8670653" lon="11.2475692"><ele>667.6</ele><time>2026-04-04T10:26:47.957Z</time></trkpt><trkpt lat="43.8670743" lon="11.2474724"><ele>666.4000000000001</ele><time>2026-04-04T10:26:48.961Z</time></trkpt><trkpt lat="43.867095" lon="11.2473152"><ele>665.2</ele><time>2026-04-04T10:26:50.959Z</time></trkpt><trkpt lat="43.8671077" lon="11.2471513"><ele>664.0</ele><time>2026-04-04T10:26:52.957Z</time></trkpt><trkpt lat="43.8671106" lon="11.2469917"><ele>664.0</ele><time>2026-04-04T10:26:54.955Z</time></trkpt><trkpt lat="43.8671027" lon="11.2468327"><ele>664.0</ele><time>2026-04-04T10:26:56.945Z</time></trkpt><trkpt lat="43.8670818" lon="11.2466748"><ele>664.0</ele><time>2026-04-04T10:26:58.951Z</time></trkpt><trkpt lat="43.8670626" lon="11.2465249"><ele>664.0</ele><time>2026-04-04T10:27:01.028Z</time></trkpt><trkpt lat="43.8670553" lon="11.2464138"><ele>664.0</ele><time>2026-04-04T10:27:01.965Z</time></trkpt><trkpt lat="43.8670609" lon="11.246239"><ele>664.2857142857142</ele><time>2026-04-04T10:27:03.939Z</time></trkpt><trkpt lat="43.8670601" lon="11.2461463"><ele>664.5714285714287</ele><time>2026-04-04T10:27:04.962Z</time></trkpt><trkpt lat="43.8670543" lon="11.2460434"><ele>664.8571428571429</ele><time>2026-04-04T10:27:05.964Z</time></trkpt><trkpt lat="43.8670427" lon="11.2459389"><ele>665.1428571428571</ele><time>2026-04-04T10:27:06.963Z</time></trkpt><trkpt lat="43.8670307" lon="11.2458248"><ele>665.4285714285713</ele><time>2026-04-04T10:27:07.957Z</time></trkpt><trkpt lat="43.8670267" lon="11.2457225"><ele>665.7142857142858</ele><time>2026-04-04T10:27:09.009Z</time></trkpt><trkpt lat="43.8670231" lon="11.2456312"><ele>666.0</ele><time>2026-04-04T10:27:10.009Z</time></trkpt><trkpt lat="43.8670163" lon="11.2455407"><ele>666.25</ele><time>2026-04-04T10:27:11.034Z</time></trkpt><trkpt lat="43.8670056" lon="11.2453542"><ele>666.5</ele><time>2026-04-04T10:27:12.967Z</time></trkpt><trkpt lat="43.8669769" lon="11.2451891"><ele>666.75</ele><time>2026-04-04T10:27:14.959Z</time></trkpt><trkpt lat="43.8669536" lon="11.2450324"><ele>667.0</ele><time>2026-04-04T10:27:16.963Z</time></trkpt><trkpt lat="43.8669528" lon="11.2448699"><ele>666.3333333333334</ele><time>2026-04-04T10:27:19.028Z</time></trkpt><trkpt lat="43.8669654" lon="11.2447069"><ele>665.6666666666667</ele><time>2026-04-04T10:27:21.034Z</time></trkpt><trkpt lat="43.8669836" lon="11.2446168"><ele>665.0</ele><time>2026-04-04T10:27:21.958Z</time></trkpt><trkpt lat="43.8669984" lon="11.2445244"><ele>664.3333333333334</ele><time>2026-04-04T10:27:22.967Z</time></trkpt><trkpt lat="43.8670173" lon="11.2444263"><ele>663.6666666666666</ele><time>2026-04-04T10:27:23.962Z</time></trkpt><trkpt lat="43.8670363" lon="11.2443275"><ele>663.0</ele><time>2026-04-04T10:27:24.968Z</time></trkpt><trkpt lat="43.867067" lon="11.2441678"><ele>662.9999999999999</ele><time>2026-04-04T10:27:26.963Z</time></trkpt><trkpt lat="43.8670927" lon="11.2440755"><ele>663.0</ele><time>2026-04-04T10:27:27.957Z</time></trkpt><trkpt lat="43.867133" lon="11.2439838"><ele>663.0</ele><time>2026-04-04T10:27:28.965Z</time></trkpt><trkpt lat="43.867174" lon="11.2438857"><ele>663.0</ele><time>2026-04-04T10:27:29.954Z</time></trkpt><trkpt lat="43.8672177" lon="11.2437926"><ele>663.0</ele><time>2026-04-04T10:27:30.963Z</time></trkpt><trkpt lat="43.8672559" lon="11.2437196"><ele>662.9999999999999</ele><time>2026-04-04T10:27:31.959Z</time></trkpt><trkpt lat="43.8672922" lon="11.2436473"><ele>663.0</ele><time>2026-04-04T10:27:32.961Z</time></trkpt><trkpt lat="43.8673576" lon="11.24352"><ele>661.8</ele><time>2026-04-04T10:27:34.965Z</time></trkpt><trkpt lat="43.8673855" lon="11.2434269"><ele>660.5999999999999</ele><time>2026-04-04T10:27:35.965Z</time></trkpt><trkpt lat="43.867436" lon="11.2432902"><ele>659.4000000000001</ele><time>2026-04-04T10:27:37.959Z</time></trkpt><trkpt lat="43.8674652" lon="11.2432093"><ele>658.2</ele><time>2026-04-04T10:27:39.026Z</time></trkpt><trkpt lat="43.867529" lon="11.2430691"><ele>657.0</ele><time>2026-04-04T10:27:41.028Z</time></trkpt><trkpt lat="43.8676145" lon="11.24296"><ele>657.0</ele><time>2026-04-04T10:27:42.963Z</time></trkpt><trkpt lat="43.8676874" lon="11.2428559"><ele>657.0</ele><time>2026-04-04T10:27:44.971Z</time></trkpt><trkpt lat="43.8677631" lon="11.2426953"><ele>657.0</ele><time>2026-04-04T10:27:46.958Z</time></trkpt><trkpt lat="43.8677934" lon="11.2425502"><ele>657.0</ele><time>2026-04-04T10:27:48.975Z</time></trkpt><trkpt lat="43.8678079" lon="11.2424124"><ele>657.0</ele><time>2026-04-04T10:27:50.963Z</time></trkpt><trkpt lat="43.8677643" lon="11.2423068"><ele>657.0</ele><time>2026-04-04T10:27:52.959Z</time></trkpt><trkpt lat="43.8676904" lon="11.2421876"><ele>657.0</ele><time>2026-04-04T10:27:54.961Z</time></trkpt><trkpt lat="43.8676291" lon="11.2420785"><ele>657.0</ele><time>2026-04-04T10:27:56.957Z</time></trkpt><trkpt lat="43.8675474" lon="11.2420043"><ele>657.0</ele><time>2026-04-04T10:27:59.034Z</time></trkpt><trkpt lat="43.867454" lon="11.2418887"><ele>654.6</ele><time>2026-04-04T10:28:00.973Z</time></trkpt><trkpt lat="43.8673671" lon="11.2417748"><ele>652.2</ele><time>2026-04-04T10:28:02.962Z</time></trkpt><trkpt lat="43.8672964" lon="11.2416658"><ele>649.8</ele><time>2026-04-04T10:28:04.978Z</time></trkpt><trkpt lat="43.867243" lon="11.2416024"><ele>647.4</ele><time>2026-04-04T10:28:06.969Z</time></trkpt><trkpt lat="43.8671922" lon="11.2414879"><ele>645.0</ele><time>2026-04-04T10:28:10.035Z</time></trkpt><trkpt lat="43.8671601" lon="11.2413766"><ele>649.1666666666666</ele><time>2026-04-04T10:28:12.958Z</time></trkpt><trkpt lat="43.8671324" lon="11.2412665"><ele>653.3333333333334</ele><time>2026-04-04T10:28:15.952Z</time></trkpt><trkpt lat="43.8670762" lon="11.2412069"><ele>657.5</ele><time>2026-04-04T10:28:18.951Z</time></trkpt><trkpt lat="43.8669974" lon="11.2411718"><ele>661.6666666666667</ele><time>2026-04-04T10:28:22.943Z</time></trkpt><trkpt lat="43.8669158" lon="11.2411317"><ele>665.8333333333334</ele><time>2026-04-04T10:28:25.958Z</time></trkpt><trkpt lat="43.8668535" lon="11.241092"><ele>670.0</ele><time>2026-04-04T10:28:28.01Z</time></trkpt><trkpt lat="43.8667774" lon="11.2410634"><ele>670.0</ele><time>2026-04-04T10:28:29.961Z</time></trkpt><trkpt lat="43.8666957" lon="11.2410249"><ele>670.0</ele><time>2026-04-04T10:28:32.962Z</time></trkpt><trkpt lat="43.8666106" lon="11.2410156"><ele>670.0</ele><time>2026-04-04T10:28:35.977Z</time></trkpt><trkpt lat="43.8665426" lon="11.2410109"><ele>670.0</ele><time>2026-04-04T10:28:37.957Z</time></trkpt><trkpt lat="43.8664732" lon="11.2409884"><ele>670.0</ele><time>2026-04-04T10:28:39.959Z</time></trkpt><trkpt lat="43.8664058" lon="11.240958"><ele>670.0</ele><time>2026-04-04T10:28:41.971Z</time></trkpt><trkpt lat="43.8663586" lon="11.2408903"><ele>670.0</ele><time>2026-04-04T10:28:44.971Z</time></trkpt><trkpt lat="43.8663507" lon="11.240791"><ele>670.0</ele><time>2026-04-04T10:28:47.964Z</time></trkpt><trkpt lat="43.8663603" lon="11.2407029"><ele>670.0</ele><time>2026-04-04T10:28:49.957Z</time></trkpt><trkpt lat="43.8663724" lon="11.2406009"><ele>670.0</ele><time>2026-04-04T10:28:51.973Z</time></trkpt><trkpt lat="43.8663812" lon="11.2405144"><ele>670.0</ele><time>2026-04-04T10:28:53.975Z</time></trkpt><trkpt lat="43.8663837" lon="11.2404152"><ele>670.0</ele><time>2026-04-04T10:28:55.953Z</time></trkpt><trkpt lat="43.8663408" lon="11.2402827"><ele>670.4</ele><time>2026-04-04T10:28:58.957Z</time></trkpt><trkpt lat="43.8662515" lon="11.240286"><ele>670.8</ele><time>2026-04-04T10:29:00.961Z</time></trkpt><trkpt lat="43.8661869" lon="11.2403165"><ele>671.2</ele><time>2026-04-04T10:29:02.962Z</time></trkpt><trkpt lat="43.866091" lon="11.2403635"><ele>671.6</ele><time>2026-04-04T10:29:04.963Z</time></trkpt><trkpt lat="43.8659941" lon="11.2403932"><ele>672.0</ele><time>2026-04-04T10:29:06.956Z</time></trkpt><trkpt lat="43.8659008" lon="11.2404197"><ele>672.0</ele><time>2026-04-04T10:29:08.972Z</time></trkpt><trkpt lat="43.8658287" lon="11.240433"><ele>672.0</ele><time>2026-04-04T10:29:10.955Z</time></trkpt><trkpt lat="43.8657646" lon="11.2404285"><ele>672.0</ele><time>2026-04-04T10:29:12.956Z</time></trkpt><trkpt lat="43.8656926" lon="11.2404045"><ele>672.0</ele><time>2026-04-04T10:29:14.968Z</time></trkpt><trkpt lat="43.8656149" lon="11.2403634"><ele>672.0</ele><time>2026-04-04T10:29:16.962Z</time></trkpt><trkpt lat="43.8654896" lon="11.2403287"><ele>672.0</ele><time>2026-04-04T10:29:18.955Z</time></trkpt><trkpt lat="43.8654107" lon="11.2403069"><ele>672.0</ele><time>2026-04-04T10:29:19.967Z</time></trkpt><trkpt lat="43.8653408" lon="11.2402904"><ele>672.0</ele><time>2026-04-04T10:29:20.964Z</time></trkpt><trkpt lat="43.8652678" lon="11.2402763"><ele>672.0</ele><time>2026-04-04T10:29:21.958Z</time></trkpt><trkpt lat="43.8652017" lon="11.2402666"><ele>672.0</ele><time>2026-04-04T10:29:22.964Z</time></trkpt><trkpt lat="43.8651353" lon="11.24026"><ele>672.0</ele><time>2026-04-04T10:29:23.96Z</time></trkpt><trkpt lat="43.8650632" lon="11.2402563"><ele>672.0</ele><time>2026-04-04T10:29:24.961Z</time></trkpt><trkpt lat="43.8649865" lon="11.2402588"><ele>672.0</ele><time>2026-04-04T10:29:25.968Z</time></trkpt><trkpt lat="43.8649122" lon="11.2402627"><ele>670.2857142857143</ele><time>2026-04-04T10:29:26.961Z</time></trkpt><trkpt lat="43.8648492" lon="11.2402616"><ele>668.5714285714286</ele><time>2026-04-04T10:29:27.966Z</time></trkpt><trkpt lat="43.8647857" lon="11.2402632"><ele>666.8571428571429</ele><time>2026-04-04T10:29:28.96Z</time></trkpt><trkpt lat="43.8647198" lon="11.2402719"><ele>665.1428571428571</ele><time>2026-04-04T10:29:29.972Z</time></trkpt><trkpt lat="43.8646542" lon="11.2402752"><ele>663.4285714285714</ele><time>2026-04-04T10:29:30.967Z</time></trkpt><trkpt lat="43.8645845" lon="11.2402878"><ele>661.7142857142858</ele><time>2026-04-04T10:29:31.958Z</time></trkpt><trkpt lat="43.8645113" lon="11.2402813"><ele>660.0</ele><time>2026-04-04T10:29:32.967Z</time></trkpt><trkpt lat="43.8644391" lon="11.2402719"><ele>660.0000000000001</ele><time>2026-04-04T10:29:33.965Z</time></trkpt><trkpt lat="43.864371" lon="11.2402643"><ele>660.0</ele><time>2026-04-04T10:29:34.962Z</time></trkpt><trkpt lat="43.8643045" lon="11.2402547"><ele>660.0</ele><time>2026-04-04T10:29:35.958Z</time></trkpt><trkpt lat="43.8642375" lon="11.2402464"><ele>660.0</ele><time>2026-04-04T10:29:36.959Z</time></trkpt><trkpt lat="43.8641701" lon="11.2402343"><ele>660.0</ele><time>2026-04-04T10:29:37.959Z</time></trkpt><trkpt lat="43.864094" lon="11.2402146"><ele>660.0000000000001</ele><time>2026-04-04T10:29:38.957Z</time></trkpt><trkpt lat="43.8640205" lon="11.2401971"><ele>660.0</ele><time>2026-04-04T10:29:39.969Z</time></trkpt><trkpt lat="43.8639528" lon="11.2401916"><ele>659.6666666666666</ele><time>2026-04-04T10:29:40.964Z</time></trkpt><trkpt lat="43.8638812" lon="11.240185"><ele>659.3333333333334</ele><time>2026-04-04T10:29:41.967Z</time></trkpt><trkpt lat="43.8638104" lon="11.240169"><ele>659.0</ele><time>2026-04-04T10:29:42.963Z</time></trkpt><trkpt lat="43.863733" lon="11.2401628"><ele>658.6666666666667</ele><time>2026-04-04T10:29:43.965Z</time></trkpt><trkpt lat="43.8636576" lon="11.2401658"><ele>658.3333333333334</ele><time>2026-04-04T10:29:44.97Z</time></trkpt><trkpt lat="43.86358" lon="11.2401692"><ele>658.0</ele><time>2026-04-04T10:29:45.963Z</time></trkpt><trkpt lat="43.8634975" lon="11.2401778"><ele>658.0</ele><time>2026-04-04T10:29:46.956Z</time></trkpt><trkpt lat="43.8634185" lon="11.240172"><ele>658.0</ele><time>2026-04-04T10:29:47.968Z</time></trkpt><trkpt lat="43.8633487" lon="11.240158"><ele>658.0</ele><time>2026-04-04T10:29:48.965Z</time></trkpt><trkpt lat="43.8632773" lon="11.2401489"><ele>658.0</ele><time>2026-04-04T10:29:49.956Z</time></trkpt><trkpt lat="43.8631473" lon="11.2401404"><ele>658.0</ele><time>2026-04-04T10:29:51.96Z</time></trkpt><trkpt lat="43.8630745" lon="11.2401343"><ele>658.0</ele><time>2026-04-04T10:29:52.957Z</time></trkpt><trkpt lat="43.8629559" lon="11.2401134"><ele>658.0</ele><time>2026-04-04T10:29:54.973Z</time></trkpt><trkpt lat="43.8628438" lon="11.2400753"><ele>658.0</ele><time>2026-04-04T10:29:56.967Z</time></trkpt><trkpt lat="43.8627833" lon="11.2400363"><ele>658.0</ele><time>2026-04-04T10:29:57.974Z</time></trkpt><trkpt lat="43.8627205" lon="11.2400047"><ele>658.0</ele><time>2026-04-04T10:29:58.966Z</time></trkpt><trkpt lat="43.8626565" lon="11.2399621"><ele>658.0</ele><time>2026-04-04T10:29:59.964Z</time></trkpt><trkpt lat="43.8625945" lon="11.2399405"><ele>658.0</ele><time>2026-04-04T10:30:00.962Z</time></trkpt><trkpt lat="43.8625224" lon="11.2399161"><ele>658.8</ele><time>2026-04-04T10:30:01.96Z</time></trkpt><trkpt lat="43.862439" lon="11.239916"><ele>659.5999999999999</ele><time>2026-04-04T10:30:02.957Z</time></trkpt><trkpt lat="43.8623531" lon="11.2399066"><ele>660.4000000000001</ele><time>2026-04-04T10:30:03.967Z</time></trkpt><trkpt lat="43.8622574" lon="11.2398688"><ele>661.2</ele><time>2026-04-04T10:30:04.965Z</time></trkpt><trkpt lat="43.8621684" lon="11.2398441"><ele>662.0</ele><time>2026-04-04T10:30:05.972Z</time></trkpt><trkpt lat="43.8620779" lon="11.2398266"><ele>662.0</ele><time>2026-04-04T10:30:06.944Z</time></trkpt><trkpt lat="43.8619858" lon="11.2398248"><ele>662.0</ele><time>2026-04-04T10:30:07.953Z</time></trkpt><trkpt lat="43.861891" lon="11.2398168"><ele>662.0</ele><time>2026-04-04T10:30:08.955Z</time></trkpt><trkpt lat="43.8618003" lon="11.2397903"><ele>662.0</ele><time>2026-04-04T10:30:09.947Z</time></trkpt><trkpt lat="43.8617193" lon="11.2397459"><ele>662.0</ele><time>2026-04-04T10:30:10.942Z</time></trkpt><trkpt lat="43.8616415" lon="11.2396918"><ele>659.3333333333333</ele><time>2026-04-04T10:30:11.945Z</time></trkpt><trkpt lat="43.8615645" lon="11.2396384"><ele>656.6666666666666</ele><time>2026-04-04T10:30:12.948Z</time></trkpt><trkpt lat="43.8614882" lon="11.2395977"><ele>654.0</ele><time>2026-04-04T10:30:13.974Z</time></trkpt><trkpt lat="43.8614108" lon="11.2395523"><ele>651.3333333333334</ele><time>2026-04-04T10:30:14.963Z</time></trkpt><trkpt lat="43.8613454" lon="11.2395164"><ele>648.6666666666667</ele><time>2026-04-04T10:30:15.954Z</time></trkpt><trkpt lat="43.8612739" lon="11.239504"><ele>646.0</ele><time>2026-04-04T10:30:16.974Z</time></trkpt><trkpt lat="43.861195" lon="11.2395144"><ele>646.0</ele><time>2026-04-04T10:30:17.963Z</time></trkpt><trkpt lat="43.8611144" lon="11.2395192"><ele>646.0</ele><time>2026-04-04T10:30:18.97Z</time></trkpt><trkpt lat="43.8610434" lon="11.2395312"><ele>646.0</ele><time>2026-04-04T10:30:19.96Z</time></trkpt><trkpt lat="43.8609648" lon="11.2395401"><ele>646.0</ele><time>2026-04-04T10:30:20.947Z</time></trkpt><trkpt lat="43.8608842" lon="11.2395415"><ele>646.0</ele><time>2026-04-04T10:30:21.97Z</time></trkpt><trkpt lat="43.8608001" lon="11.2395461"><ele>646.0</ele><time>2026-04-04T10:30:22.969Z</time></trkpt><trkpt lat="43.8607153" lon="11.239554"><ele>646.0</ele><time>2026-04-04T10:30:23.962Z</time></trkpt><trkpt lat="43.8606342" lon="11.2395519"><ele>646.0</ele><time>2026-04-04T10:30:24.961Z</time></trkpt><trkpt lat="43.8605444" lon="11.2395645"><ele>646.0</ele><time>2026-04-04T10:30:25.962Z</time></trkpt><trkpt lat="43.8604519" lon="11.2395808"><ele>646.0</ele><time>2026-04-04T10:30:26.966Z</time></trkpt><trkpt lat="43.8603508" lon="11.2396077"><ele>646.0</ele><time>2026-04-04T10:30:27.955Z</time></trkpt><trkpt lat="43.8602503" lon="11.2396122"><ele>646.0</ele><time>2026-04-04T10:30:28.969Z</time></trkpt><trkpt lat="43.8601528" lon="11.2396147"><ele>646.0</ele><time>2026-04-04T10:30:29.958Z</time></trkpt><trkpt lat="43.860063" lon="11.2396146"><ele>646.0</ele><time>2026-04-04T10:30:30.961Z</time></trkpt><trkpt lat="43.8599692" lon="11.2396179"><ele>646.0</ele><time>2026-04-04T10:30:31.958Z</time></trkpt><trkpt lat="43.8598767" lon="11.2396224"><ele>646.0</ele><time>2026-04-04T10:30:32.975Z</time></trkpt><trkpt lat="43.8597836" lon="11.23963"><ele>646.1666666666667</ele><time>2026-04-04T10:30:33.977Z</time></trkpt><trkpt lat="43.8596938" lon="11.2396336"><ele>646.3333333333334</ele><time>2026-04-04T10:30:34.962Z</time></trkpt><trkpt lat="43.8596054" lon="11.2396352"><ele>646.5</ele><time>2026-04-04T10:30:35.96Z</time></trkpt><trkpt lat="43.8595154" lon="11.2396419"><ele>646.6666666666666</ele><time>2026-04-04T10:30:36.962Z</time></trkpt><trkpt lat="43.859425" lon="11.2396521"><ele>646.8333333333333</ele><time>2026-04-04T10:30:37.953Z</time></trkpt><trkpt lat="43.8593417" lon="11.2396679"><ele>647.0</ele><time>2026-04-04T10:30:38.945Z</time></trkpt><trkpt lat="43.8592554" lon="11.2396921"><ele>648.6666666666666</ele><time>2026-04-04T10:30:39.958Z</time></trkpt><trkpt lat="43.8591753" lon="11.2397145"><ele>650.3333333333333</ele><time>2026-04-04T10:30:40.961Z</time></trkpt><trkpt lat="43.8590962" lon="11.2397306"><ele>652.0</ele><time>2026-04-04T10:30:41.96Z</time></trkpt><trkpt lat="43.8590236" lon="11.2397431"><ele>653.6666666666666</ele><time>2026-04-04T10:30:42.964Z</time></trkpt><trkpt lat="43.8589477" lon="11.2397536"><ele>655.3333333333334</ele><time>2026-04-04T10:30:43.954Z</time></trkpt><trkpt lat="43.8588728" lon="11.2397644"><ele>657.0</ele><time>2026-04-04T10:30:44.965Z</time></trkpt><trkpt lat="43.8587945" lon="11.239786"><ele>655.6666666666666</ele><time>2026-04-04T10:30:45.968Z</time></trkpt><trkpt lat="43.8587185" lon="11.239803"><ele>654.3333333333334</ele><time>2026-04-04T10:30:46.964Z</time></trkpt><trkpt lat="43.858644" lon="11.2398206"><ele>653.0</ele><time>2026-04-04T10:30:47.967Z</time></trkpt><trkpt lat="43.858573" lon="11.2398395"><ele>651.6666666666667</ele><time>2026-04-04T10:30:48.965Z</time></trkpt><trkpt lat="43.8585046" lon="11.2398623"><ele>650.3333333333334</ele><time>2026-04-04T10:30:49.97Z</time></trkpt><trkpt lat="43.8584342" lon="11.2399068"><ele>649.0</ele><time>2026-04-04T10:30:50.968Z</time></trkpt><trkpt lat="43.8583627" lon="11.2399546"><ele>649.0</ele><time>2026-04-04T10:30:51.974Z</time></trkpt><trkpt lat="43.8582952" lon="11.2399991"><ele>649.0</ele><time>2026-04-04T10:30:52.973Z</time></trkpt><trkpt lat="43.8582234" lon="11.2400507"><ele>649.0</ele><time>2026-04-04T10:30:53.975Z</time></trkpt><trkpt lat="43.8581551" lon="11.2401117"><ele>649.0</ele><time>2026-04-04T10:30:54.967Z</time></trkpt><trkpt lat="43.8581042" lon="11.2401845"><ele>649.0</ele><time>2026-04-04T10:30:55.967Z</time></trkpt><trkpt lat="43.8580579" lon="11.2402682"><ele>649.0</ele><time>2026-04-04T10:30:56.968Z</time></trkpt><trkpt lat="43.8580112" lon="11.240345"><ele>649.0</ele><time>2026-04-04T10:30:57.971Z</time></trkpt><trkpt lat="43.8579675" lon="11.2404199"><ele>649.0</ele><time>2026-04-04T10:30:58.966Z</time></trkpt><trkpt lat="43.8579171" lon="11.2404911"><ele>649.0</ele><time>2026-04-04T10:30:59.946Z</time></trkpt><trkpt lat="43.8578685" lon="11.2405614"><ele>649.0</ele><time>2026-04-04T10:31:00.964Z</time></trkpt><trkpt lat="43.8578193" lon="11.2406178"><ele>649.0</ele><time>2026-04-04T10:31:01.958Z</time></trkpt><trkpt lat="43.857767" lon="11.2406665"><ele>649.0</ele><time>2026-04-04T10:31:02.97Z</time></trkpt><trkpt lat="43.857651" lon="11.2407227"><ele>648.0</ele><time>2026-04-04T10:31:04.966Z</time></trkpt><trkpt lat="43.857589" lon="11.2407384"><ele>647.0</ele><time>2026-04-04T10:31:05.967Z</time></trkpt><trkpt lat="43.8574704" lon="11.2407132"><ele>646.0</ele><time>2026-04-04T10:31:07.967Z</time></trkpt><trkpt lat="43.8574023" lon="11.2406764"><ele>645.0</ele><time>2026-04-04T10:31:08.964Z</time></trkpt><trkpt lat="43.8573325" lon="11.2406416"><ele>644.0</ele><time>2026-04-04T10:31:09.967Z</time></trkpt><trkpt lat="43.8572674" lon="11.2406056"><ele>643.0</ele><time>2026-04-04T10:31:10.977Z</time></trkpt><trkpt lat="43.8572003" lon="11.2405704"><ele>643.8571428571428</ele><time>2026-04-04T10:31:11.97Z</time></trkpt><trkpt lat="43.8571375" lon="11.2405292"><ele>644.7142857142858</ele><time>2026-04-04T10:31:12.977Z</time></trkpt><trkpt lat="43.8570755" lon="11.2404834"><ele>645.5714285714286</ele><time>2026-04-04T10:31:13.968Z</time></trkpt><trkpt lat="43.8570131" lon="11.2404303"><ele>646.4285714285713</ele><time>2026-04-04T10:31:14.968Z</time></trkpt><trkpt lat="43.8569538" lon="11.2403769"><ele>647.2857142857142</ele><time>2026-04-04T10:31:15.961Z</time></trkpt><trkpt lat="43.8568891" lon="11.2403208"><ele>648.1428571428571</ele><time>2026-04-04T10:31:16.965Z</time></trkpt><trkpt lat="43.8568231" lon="11.24027"><ele>649.0</ele><time>2026-04-04T10:31:17.972Z</time></trkpt><trkpt lat="43.8567561" lon="11.2402218"><ele>649.0</ele><time>2026-04-04T10:31:18.962Z</time></trkpt><trkpt lat="43.8566829" lon="11.2401824"><ele>649.0</ele><time>2026-04-04T10:31:19.966Z</time></trkpt><trkpt lat="43.8566079" lon="11.2401568"><ele>649.0</ele><time>2026-04-04T10:31:20.967Z</time></trkpt><trkpt lat="43.856536" lon="11.240126"><ele>649.0</ele><time>2026-04-04T10:31:21.968Z</time></trkpt><trkpt lat="43.8564608" lon="11.2400967"><ele>649.0</ele><time>2026-04-04T10:31:22.97Z</time></trkpt><trkpt lat="43.8563821" lon="11.2400772"><ele>649.0</ele><time>2026-04-04T10:31:23.973Z</time></trkpt><trkpt lat="43.8563078" lon="11.2400596"><ele>649.0</ele><time>2026-04-04T10:31:24.968Z</time></trkpt><trkpt lat="43.8562359" lon="11.2400369"><ele>649.0</ele><time>2026-04-04T10:31:25.97Z</time></trkpt><trkpt lat="43.8561697" lon="11.24001"><ele>649.0</ele><time>2026-04-04T10:31:26.96Z</time></trkpt><trkpt lat="43.8561004" lon="11.239979"><ele>649.0</ele><time>2026-04-04T10:31:27.95Z</time></trkpt><trkpt lat="43.856034" lon="11.2399415"><ele>649.0</ele><time>2026-04-04T10:31:28.966Z</time></trkpt><trkpt lat="43.8559353" lon="11.2398407"><ele>649.0</ele><time>2026-04-04T10:31:30.966Z</time></trkpt><trkpt lat="43.8558841" lon="11.2397806"><ele>647.8571428571428</ele><time>2026-04-04T10:31:31.967Z</time></trkpt><trkpt lat="43.8558374" lon="11.2397193"><ele>646.7142857142857</ele><time>2026-04-04T10:31:32.973Z</time></trkpt><trkpt lat="43.8557839" lon="11.2396515"><ele>645.5714285714286</ele><time>2026-04-04T10:31:33.969Z</time></trkpt><trkpt lat="43.8557274" lon="11.2395768"><ele>644.4285714285713</ele><time>2026-04-04T10:31:34.966Z</time></trkpt><trkpt lat="43.8556759" lon="11.2395074"><ele>643.2857142857142</ele><time>2026-04-04T10:31:35.953Z</time></trkpt><trkpt lat="43.8556142" lon="11.2394471"><ele>642.1428571428571</ele><time>2026-04-04T10:31:36.977Z</time></trkpt><trkpt lat="43.8555512" lon="11.2393809"><ele>641.0</ele><time>2026-04-04T10:31:37.965Z</time></trkpt><trkpt lat="43.8554905" lon="11.2393174"><ele>641.0</ele><time>2026-04-04T10:31:38.967Z</time></trkpt><trkpt lat="43.8554317" lon="11.2392535"><ele>641.0</ele><time>2026-04-04T10:31:39.946Z</time></trkpt><trkpt lat="43.8553747" lon="11.2391968"><ele>641.0</ele><time>2026-04-04T10:31:40.97Z</time></trkpt><trkpt lat="43.8553217" lon="11.239141"><ele>641.0</ele><time>2026-04-04T10:31:41.963Z</time></trkpt><trkpt lat="43.8552704" lon="11.2390876"><ele>641.0</ele><time>2026-04-04T10:31:42.954Z</time></trkpt><trkpt lat="43.8552118" lon="11.2390451"><ele>641.0</ele><time>2026-04-04T10:31:43.957Z</time></trkpt><trkpt lat="43.8551555" lon="11.2390048"><ele>641.0</ele><time>2026-04-04T10:31:44.957Z</time></trkpt><trkpt lat="43.8550951" lon="11.2389626"><ele>637.8333333333333</ele><time>2026-04-04T10:31:45.965Z</time></trkpt><trkpt lat="43.855035" lon="11.238923"><ele>634.6666666666666</ele><time>2026-04-04T10:31:46.946Z</time></trkpt><trkpt lat="43.8549728" lon="11.2388782"><ele>631.5</ele><time>2026-04-04T10:31:47.965Z</time></trkpt><trkpt lat="43.8549125" lon="11.2388476"><ele>628.3333333333334</ele><time>2026-04-04T10:31:48.974Z</time></trkpt><trkpt lat="43.8548454" lon="11.2388249"><ele>625.1666666666667</ele><time>2026-04-04T10:31:49.962Z</time></trkpt><trkpt lat="43.8547325" lon="11.2387447"><ele>622.0</ele><time>2026-04-04T10:31:51.963Z</time></trkpt><trkpt lat="43.8546743" lon="11.2387022"><ele>622.0</ele><time>2026-04-04T10:31:52.968Z</time></trkpt><trkpt lat="43.8546137" lon="11.2386656"><ele>622.0</ele><time>2026-04-04T10:31:53.962Z</time></trkpt><trkpt lat="43.8545119" lon="11.2385772"><ele>622.0</ele><time>2026-04-04T10:31:55.965Z</time></trkpt><trkpt lat="43.854413" lon="11.2384943"><ele>622.0</ele><time>2026-04-04T10:31:57.962Z</time></trkpt><trkpt lat="43.8543096" lon="11.2384122"><ele>622.0</ele><time>2026-04-04T10:31:59.953Z</time></trkpt><trkpt lat="43.8542509" lon="11.2383715"><ele>622.7142857142857</ele><time>2026-04-04T10:32:00.961Z</time></trkpt><trkpt lat="43.8541899" lon="11.2383316"><ele>623.4285714285714</ele><time>2026-04-04T10:32:01.968Z</time></trkpt><trkpt lat="43.8541268" lon="11.2382942"><ele>624.1428571428571</ele><time>2026-04-04T10:32:02.965Z</time></trkpt><trkpt lat="43.8540688" lon="11.2382554"><ele>624.8571428571429</ele><time>2026-04-04T10:32:03.942Z</time></trkpt><trkpt lat="43.8540101" lon="11.238215"><ele>625.5714285714286</ele><time>2026-04-04T10:32:04.968Z</time></trkpt><trkpt lat="43.8539488" lon="11.2381737"><ele>626.2857142857143</ele><time>2026-04-04T10:32:05.968Z</time></trkpt><trkpt lat="43.8538846" lon="11.2381346"><ele>627.0</ele><time>2026-04-04T10:32:06.965Z</time></trkpt><trkpt lat="43.8538221" lon="11.2380991"><ele>623.6666666666666</ele><time>2026-04-04T10:32:07.969Z</time></trkpt><trkpt lat="43.8537605" lon="11.2380738"><ele>620.3333333333334</ele><time>2026-04-04T10:32:08.947Z</time></trkpt><trkpt lat="43.8536976" lon="11.2380442"><ele>617.0</ele><time>2026-04-04T10:32:09.969Z</time></trkpt><trkpt lat="43.8535862" lon="11.237986"><ele>613.6666666666667</ele><time>2026-04-04T10:32:11.961Z</time></trkpt><trkpt lat="43.8534614" lon="11.2379967"><ele>610.3333333333334</ele><time>2026-04-04T10:32:13.964Z</time></trkpt><trkpt lat="43.8533889" lon="11.238013"><ele>607.0</ele><time>2026-04-04T10:32:14.959Z</time></trkpt><trkpt lat="43.8532659" lon="11.2380519"><ele>607.0</ele><time>2026-04-04T10:32:16.965Z</time></trkpt><trkpt lat="43.8532062" lon="11.2380806"><ele>607.0</ele><time>2026-04-04T10:32:17.967Z</time></trkpt><trkpt lat="43.8531013" lon="11.2381413"><ele>607.0</ele><time>2026-04-04T10:32:19.963Z</time></trkpt><trkpt lat="43.8529979" lon="11.2382233"><ele>607.0</ele><time>2026-04-04T10:32:21.968Z</time></trkpt><trkpt lat="43.8529024" lon="11.2383223"><ele>607.0</ele><time>2026-04-04T10:32:23.961Z</time></trkpt><trkpt lat="43.8528067" lon="11.2384026"><ele>607.8000000000001</ele><time>2026-04-04T10:32:25.959Z</time></trkpt><trkpt lat="43.8527463" lon="11.2384345"><ele>608.6</ele><time>2026-04-04T10:32:26.977Z</time></trkpt><trkpt lat="43.85264" lon="11.2384966"><ele>609.4000000000001</ele><time>2026-04-04T10:32:28.945Z</time></trkpt><trkpt lat="43.8525291" lon="11.238527"><ele>610.2</ele><time>2026-04-04T10:32:30.949Z</time></trkpt><trkpt lat="43.8524341" lon="11.2385506"><ele>611.0</ele><time>2026-04-04T10:32:32.94Z</time></trkpt><trkpt lat="43.8523002" lon="11.2386097"><ele>611.0</ele><time>2026-04-04T10:32:34.946Z</time></trkpt><trkpt lat="43.8522241" lon="11.2386372"><ele>611.0</ele><time>2026-04-04T10:32:35.952Z</time></trkpt><trkpt lat="43.8521534" lon="11.2386603"><ele>611.0</ele><time>2026-04-04T10:32:36.941Z</time></trkpt><trkpt lat="43.8520746" lon="11.2386711"><ele>611.0</ele><time>2026-04-04T10:32:37.94Z</time></trkpt><trkpt lat="43.8519181" lon="11.2386786"><ele>611.0</ele><time>2026-04-04T10:32:39.938Z</time></trkpt><trkpt lat="43.8518038" lon="11.2386497"><ele>607.4</ele><time>2026-04-04T10:32:41.938Z</time></trkpt><trkpt lat="43.8516273" lon="11.2386401"><ele>603.8</ele><time>2026-04-04T10:32:44.946Z</time></trkpt><trkpt lat="43.8515545" lon="11.2386305"><ele>600.1999999999999</ele><time>2026-04-04T10:32:45.952Z</time></trkpt><trkpt lat="43.8514915" lon="11.2386113"><ele>596.6</ele><time>2026-04-04T10:32:46.939Z</time></trkpt><trkpt lat="43.8514238" lon="11.2385968"><ele>593.0</ele><time>2026-04-04T10:32:47.943Z</time></trkpt><trkpt lat="43.8513571" lon="11.2385738"><ele>593.0</ele><time>2026-04-04T10:32:48.952Z</time></trkpt><trkpt lat="43.8512926" lon="11.2385465"><ele>593.0</ele><time>2026-04-04T10:32:49.938Z</time></trkpt><trkpt lat="43.8511799" lon="11.2384831"><ele>593.0</ele><time>2026-04-04T10:32:51.937Z</time></trkpt><trkpt lat="43.8510884" lon="11.2384103"><ele>593.0</ele><time>2026-04-04T10:32:53.945Z</time></trkpt><trkpt lat="43.8510234" lon="11.2382792"><ele>593.0</ele><time>2026-04-04T10:32:55.939Z</time></trkpt><trkpt lat="43.8509786" lon="11.2381705"><ele>592.1999999999999</ele><time>2026-04-04T10:32:56.943Z</time></trkpt><trkpt lat="43.8509076" lon="11.2380548"><ele>591.4</ele><time>2026-04-04T10:32:57.942Z</time></trkpt><trkpt lat="43.8508203" lon="11.2379448"><ele>590.5999999999999</ele><time>2026-04-04T10:32:58.949Z</time></trkpt><trkpt lat="43.8507352" lon="11.2378545"><ele>589.8</ele><time>2026-04-04T10:32:59.957Z</time></trkpt><trkpt lat="43.8506375" lon="11.2377845"><ele>589.0</ele><time>2026-04-04T10:33:00.947Z</time></trkpt><trkpt lat="43.8505335" lon="11.2377094"><ele>589.0</ele><time>2026-04-04T10:33:01.963Z</time></trkpt><trkpt lat="43.8504313" lon="11.2376268"><ele>589.0</ele><time>2026-04-04T10:33:02.97Z</time></trkpt><trkpt lat="43.8503273" lon="11.2375346"><ele>589.0</ele><time>2026-04-04T10:33:03.96Z</time></trkpt><trkpt lat="43.8502206" lon="11.2374376"><ele>589.0</ele><time>2026-04-04T10:33:04.952Z</time></trkpt><trkpt lat="43.8501172" lon="11.2373118"><ele>590.0</ele><time>2026-04-04T10:33:06.024Z</time></trkpt><trkpt lat="43.8500157" lon="11.237193"><ele>591.0</ele><time>2026-04-04T10:33:06.965Z</time></trkpt><trkpt lat="43.8499316" lon="11.2370546"><ele>592.0</ele><time>2026-04-04T10:33:07.97Z</time></trkpt><trkpt lat="43.8498545" lon="11.2369055"><ele>593.0</ele><time>2026-04-04T10:33:08.951Z</time></trkpt><trkpt lat="43.8497862" lon="11.2367391"><ele>593.0</ele><time>2026-04-04T10:33:09.944Z</time></trkpt><trkpt lat="43.8497078" lon="11.2365669"><ele>593.0</ele><time>2026-04-04T10:33:10.969Z</time></trkpt><trkpt lat="43.8496294" lon="11.2363835"><ele>593.0</ele><time>2026-04-04T10:33:11.957Z</time></trkpt><trkpt lat="43.8495523" lon="11.2361886"><ele>595.3333333333333</ele><time>2026-04-04T10:33:12.969Z</time></trkpt><trkpt lat="43.8494737" lon="11.2359899"><ele>597.6666666666666</ele><time>2026-04-04T10:33:13.938Z</time></trkpt><trkpt lat="43.8493985" lon="11.2357819"><ele>600.0</ele><time>2026-04-04T10:33:14.958Z</time></trkpt><trkpt lat="43.8493175" lon="11.2355742"><ele>596.6666666666666</ele><time>2026-04-04T10:33:16.022Z</time></trkpt><trkpt lat="43.849231" lon="11.2353626"><ele>593.3333333333333</ele><time>2026-04-04T10:33:16.961Z</time></trkpt><trkpt lat="43.8491465" lon="11.2351588"><ele>590.0</ele><time>2026-04-04T10:33:17.952Z</time></trkpt><trkpt lat="43.8490605" lon="11.2349549"><ele>592.6666666666666</ele><time>2026-04-04T10:33:19.023Z</time></trkpt><trkpt lat="43.8489733" lon="11.2347474"><ele>595.3333333333334</ele><time>2026-04-04T10:33:20.015Z</time></trkpt><trkpt lat="43.8488891" lon="11.2345383"><ele>598.0</ele><time>2026-04-04T10:33:20.96Z</time></trkpt><trkpt lat="43.8487966" lon="11.2343296"><ele>598.0</ele><time>2026-04-04T10:33:21.964Z</time></trkpt><trkpt lat="43.848699" lon="11.2341129"><ele>598.0</ele><time>2026-04-04T10:33:22.965Z</time></trkpt><trkpt lat="43.848603" lon="11.233895"><ele>598.0</ele><time>2026-04-04T10:33:23.962Z</time></trkpt><trkpt lat="43.8485092" lon="11.2336841"><ele>596.0</ele><time>2026-04-04T10:33:24.948Z</time></trkpt><trkpt lat="43.8484138" lon="11.2334797"><ele>594.0</ele><time>2026-04-04T10:33:25.992Z</time></trkpt><trkpt lat="43.8483189" lon="11.2332717"><ele>592.0</ele><time>2026-04-04T10:33:26.965Z</time></trkpt><trkpt lat="43.8482307" lon="11.2330672"><ele>592.0</ele><time>2026-04-04T10:33:27.963Z</time></trkpt><trkpt lat="43.8481502" lon="11.2328774"><ele>592.0</ele><time>2026-04-04T10:33:29.021Z</time></trkpt><trkpt lat="43.8480682" lon="11.232706"><ele>592.0</ele><time>2026-04-04T10:33:29.949Z</time></trkpt><trkpt lat="43.8479979" lon="11.232534"><ele>592.0</ele><time>2026-04-04T10:33:30.959Z</time></trkpt><trkpt lat="43.847933" lon="11.2323708"><ele>592.0</ele><time>2026-04-04T10:33:31.963Z</time></trkpt><trkpt lat="43.8478798" lon="11.2322042"><ele>592.0</ele><time>2026-04-04T10:33:32.976Z</time></trkpt><trkpt lat="43.8478572" lon="11.2320207"><ele>592.0</ele><time>2026-04-04T10:33:33.97Z</time></trkpt><trkpt lat="43.8478679" lon="11.231838"><ele>591.25</ele><time>2026-04-04T10:33:35.011Z</time></trkpt><trkpt lat="43.847915" lon="11.2316659"><ele>590.5</ele><time>2026-04-04T10:33:36.017Z</time></trkpt><trkpt lat="43.8479913" lon="11.2315186"><ele>589.75</ele><time>2026-04-04T10:33:36.967Z</time></trkpt><trkpt lat="43.8481086" lon="11.231387"><ele>589.0</ele><time>2026-04-04T10:33:37.947Z</time></trkpt><trkpt lat="43.8482368" lon="11.2312667"><ele>584.0</ele><time>2026-04-04T10:33:38.974Z</time></trkpt><trkpt lat="43.8483539" lon="11.2311517"><ele>579.0</ele><time>2026-04-04T10:33:39.962Z</time></trkpt><trkpt lat="43.848485" lon="11.2310808"><ele>574.0</ele><time>2026-04-04T10:33:40.972Z</time></trkpt><trkpt lat="43.8486542" lon="11.2310688"><ele>573.6666666666667</ele><time>2026-04-04T10:33:41.956Z</time></trkpt><trkpt lat="43.8488254" lon="11.231078"><ele>573.3333333333334</ele><time>2026-04-04T10:33:42.959Z</time></trkpt><trkpt lat="43.8489725" lon="11.2310997"><ele>573.0</ele><time>2026-04-04T10:33:43.964Z</time></trkpt><trkpt lat="43.8491192" lon="11.2311582"><ele>573.0</ele><time>2026-04-04T10:33:44.962Z</time></trkpt><trkpt lat="43.8492637" lon="11.2312583"><ele>573.0</ele><time>2026-04-04T10:33:45.951Z</time></trkpt><trkpt lat="43.8493987" lon="11.2314105"><ele>573.0</ele><time>2026-04-04T10:33:46.96Z</time></trkpt><trkpt lat="43.8495114" lon="11.2316003"><ele>572.0</ele><time>2026-04-04T10:33:47.955Z</time></trkpt><trkpt lat="43.84961" lon="11.2318174"><ele>571.0</ele><time>2026-04-04T10:33:48.961Z</time></trkpt><trkpt lat="43.8497224" lon="11.2320244"><ele>570.0</ele><time>2026-04-04T10:33:49.945Z</time></trkpt><trkpt lat="43.8498365" lon="11.232233"><ele>573.0</ele><time>2026-04-04T10:33:50.949Z</time></trkpt><trkpt lat="43.8499551" lon="11.2324529"><ele>576.0</ele><time>2026-04-04T10:33:51.963Z</time></trkpt><trkpt lat="43.8500653" lon="11.2326702"><ele>579.0</ele><time>2026-04-04T10:33:52.97Z</time></trkpt><trkpt lat="43.8501721" lon="11.2328908"><ele>571.6666666666666</ele><time>2026-04-04T10:33:53.959Z</time></trkpt><trkpt lat="43.8502786" lon="11.2331211"><ele>564.3333333333333</ele><time>2026-04-04T10:33:54.948Z</time></trkpt><trkpt lat="43.8503772" lon="11.2333464"><ele>557.0</ele><time>2026-04-04T10:33:55.952Z</time></trkpt><trkpt lat="43.8504597" lon="11.2335871"><ele>557.0</ele><time>2026-04-04T10:33:56.944Z</time></trkpt><trkpt lat="43.8505336" lon="11.2338399"><ele>557.0</ele><time>2026-04-04T10:33:57.943Z</time></trkpt><trkpt lat="43.8506035" lon="11.2340961"><ele>557.0</ele><time>2026-04-04T10:33:58.96Z</time></trkpt><trkpt lat="43.8506576" lon="11.2343595"><ele>560.6666666666666</ele><time>2026-04-04T10:33:59.961Z</time></trkpt><trkpt lat="43.8507141" lon="11.2346235"><ele>564.3333333333334</ele><time>2026-04-04T10:34:00.962Z</time></trkpt><trkpt lat="43.8507674" lon="11.2348952"><ele>568.0</ele><time>2026-04-04T10:34:01.96Z</time></trkpt><trkpt lat="43.8508145" lon="11.2351615"><ele>570.3333333333334</ele><time>2026-04-04T10:34:02.954Z</time></trkpt><trkpt lat="43.8508656" lon="11.2354091"><ele>572.6666666666666</ele><time>2026-04-04T10:34:03.961Z</time></trkpt><trkpt lat="43.8509104" lon="11.2356369"><ele>575.0</ele><time>2026-04-04T10:34:04.958Z</time></trkpt><trkpt lat="43.8509579" lon="11.2358533"><ele>570.6666666666666</ele><time>2026-04-04T10:34:05.957Z</time></trkpt><trkpt lat="43.8510038" lon="11.236071"><ele>566.3333333333334</ele><time>2026-04-04T10:34:06.959Z</time></trkpt><trkpt lat="43.851048" lon="11.2362802"><ele>562.0</ele><time>2026-04-04T10:34:07.964Z</time></trkpt><trkpt lat="43.8510884" lon="11.2364792"><ele>562.0</ele><time>2026-04-04T10:34:08.96Z</time></trkpt><trkpt lat="43.8511411" lon="11.2366682"><ele>562.0</ele><time>2026-04-04T10:34:09.961Z</time></trkpt><trkpt lat="43.8512095" lon="11.2368315"><ele>562.0</ele><time>2026-04-04T10:34:11.034Z</time></trkpt><trkpt lat="43.8512927" lon="11.2369614"><ele>562.0</ele><time>2026-04-04T10:34:11.951Z</time></trkpt><trkpt lat="43.8513845" lon="11.2370542"><ele>562.0</ele><time>2026-04-04T10:34:12.967Z</time></trkpt><trkpt lat="43.8514796" lon="11.237123"><ele>562.0</ele><time>2026-04-04T10:34:13.967Z</time></trkpt><trkpt lat="43.8515938" lon="11.2371151"><ele>562.0</ele><time>2026-04-04T10:34:15.034Z</time></trkpt><trkpt lat="43.8517168" lon="11.237045"><ele>562.0</ele><time>2026-04-04T10:34:16.03Z</time></trkpt><trkpt lat="43.8518283" lon="11.2369485"><ele>565.0</ele><time>2026-04-04T10:34:16.972Z</time></trkpt><trkpt lat="43.8519476" lon="11.2368354"><ele>568.0</ele><time>2026-04-04T10:34:17.966Z</time></trkpt><trkpt lat="43.8520777" lon="11.2367189"><ele>571.0</ele><time>2026-04-04T10:34:18.988Z</time></trkpt><trkpt lat="43.8522103" lon="11.2366028"><ele>571.0</ele><time>2026-04-04T10:34:19.963Z</time></trkpt><trkpt lat="43.8523488" lon="11.2364869"><ele>571.0</ele><time>2026-04-04T10:34:20.958Z</time></trkpt><trkpt lat="43.8524851" lon="11.2363693"><ele>571.0</ele><time>2026-04-04T10:34:21.964Z</time></trkpt><trkpt lat="43.8526356" lon="11.2362712"><ele>562.6666666666667</ele><time>2026-04-04T10:34:23.031Z</time></trkpt><trkpt lat="43.8527937" lon="11.2361874"><ele>554.3333333333334</ele><time>2026-04-04T10:34:24.032Z</time></trkpt><trkpt lat="43.852959" lon="11.2361195"><ele>546.0</ele><time>2026-04-04T10:34:25.028Z</time></trkpt><trkpt lat="43.8531275" lon="11.2360614"><ele>546.0</ele><time>2026-04-04T10:34:26.026Z</time></trkpt><trkpt lat="43.8532986" lon="11.2359972"><ele>546.0</ele><time>2026-04-04T10:34:26.963Z</time></trkpt><trkpt lat="43.8534708" lon="11.2359441"><ele>546.0</ele><time>2026-04-04T10:34:27.968Z</time></trkpt><trkpt lat="43.8536361" lon="11.2358896"><ele>547.6666666666666</ele><time>2026-04-04T10:34:28.957Z</time></trkpt><trkpt lat="43.8537998" lon="11.23585"><ele>549.3333333333333</ele><time>2026-04-04T10:34:29.968Z</time></trkpt><trkpt lat="43.8539534" lon="11.2358122"><ele>551.0</ele><time>2026-04-04T10:34:30.969Z</time></trkpt><trkpt lat="43.8541" lon="11.2357844"><ele>551.0</ele><time>2026-04-04T10:34:31.953Z</time></trkpt><trkpt lat="43.8542429" lon="11.2357881"><ele>551.0</ele><time>2026-04-04T10:34:32.956Z</time></trkpt><trkpt lat="43.8543942" lon="11.2358265"><ele>551.0</ele><time>2026-04-04T10:34:33.96Z</time></trkpt><trkpt lat="43.8545253" lon="11.2358786"><ele>551.0</ele><time>2026-04-04T10:34:34.976Z</time></trkpt><trkpt lat="43.8546467" lon="11.2359301"><ele>548.6666666666666</ele><time>2026-04-04T10:34:35.966Z</time></trkpt><trkpt lat="43.8547643" lon="11.2359572"><ele>546.3333333333334</ele><time>2026-04-04T10:34:36.964Z</time></trkpt><trkpt lat="43.8548966" lon="11.235938"><ele>544.0</ele><time>2026-04-04T10:34:38.085Z</time></trkpt><trkpt lat="43.8551676" lon="11.2358831"><ele>544.0</ele><time>2026-04-04T10:34:39.974Z</time></trkpt><trkpt lat="43.8553168" lon="11.2358585"><ele>544.0</ele><time>2026-04-04T10:34:40.969Z</time></trkpt><trkpt lat="43.8554675" lon="11.2358352"><ele>544.0</ele><time>2026-04-04T10:34:41.968Z</time></trkpt><trkpt lat="43.8556217" lon="11.2358052"><ele>544.0</ele><time>2026-04-04T10:34:42.972Z</time></trkpt><trkpt lat="43.8557778" lon="11.2357729"><ele>544.0</ele><time>2026-04-04T10:34:43.997Z</time></trkpt><trkpt lat="43.8559212" lon="11.2357268"><ele>544.0</ele><time>2026-04-04T10:34:44.966Z</time></trkpt><trkpt lat="43.8560729" lon="11.2356611"><ele>538.6666666666667</ele><time>2026-04-04T10:34:45.99Z</time></trkpt><trkpt lat="43.8562288" lon="11.2355912"><ele>533.3333333333334</ele><time>2026-04-04T10:34:46.97Z</time></trkpt><trkpt lat="43.8563856" lon="11.2355161"><ele>528.0</ele><time>2026-04-04T10:34:48.061Z</time></trkpt><trkpt lat="43.8565447" lon="11.2354421"><ele>528.0</ele><time>2026-04-04T10:34:49.037Z</time></trkpt><trkpt lat="43.8566969" lon="11.2353644"><ele>528.0</ele><time>2026-04-04T10:34:50.024Z</time></trkpt><trkpt lat="43.8568517" lon="11.2352842"><ele>528.0</ele><time>2026-04-04T10:34:50.969Z</time></trkpt><trkpt lat="43.8570102" lon="11.2352049"><ele>533.0</ele><time>2026-04-04T10:34:51.97Z</time></trkpt><trkpt lat="43.8571725" lon="11.235126"><ele>538.0</ele><time>2026-04-04T10:34:52.975Z</time></trkpt><trkpt lat="43.8573328" lon="11.2350365"><ele>543.0</ele><time>2026-04-04T10:34:53.959Z</time></trkpt><trkpt lat="43.8574865" lon="11.2349407"><ele>542.6666666666666</ele><time>2026-04-04T10:34:55.027Z</time></trkpt><trkpt lat="43.8576409" lon="11.2348296"><ele>542.3333333333333</ele><time>2026-04-04T10:34:56.028Z</time></trkpt><trkpt lat="43.8577914" lon="11.2347086"><ele>542.0</ele><time>2026-04-04T10:34:56.967Z</time></trkpt><trkpt lat="43.8579338" lon="11.2345685"><ele>542.0</ele><time>2026-04-04T10:34:57.974Z</time></trkpt><trkpt lat="43.8580713" lon="11.234425"><ele>542.0</ele><time>2026-04-04T10:34:59.028Z</time></trkpt><trkpt lat="43.8582138" lon="11.2342872"><ele>542.0</ele><time>2026-04-04T10:34:59.977Z</time></trkpt><trkpt lat="43.8583543" lon="11.2341484"><ele>544.0</ele><time>2026-04-04T10:35:00.955Z</time></trkpt><trkpt lat="43.858492" lon="11.2340043"><ele>546.0</ele><time>2026-04-04T10:35:01.96Z</time></trkpt><trkpt lat="43.8586288" lon="11.2338645"><ele>548.0</ele><time>2026-04-04T10:35:02.947Z</time></trkpt><trkpt lat="43.8587624" lon="11.2337341"><ele>541.3333333333333</ele><time>2026-04-04T10:35:03.954Z</time></trkpt><trkpt lat="43.8588958" lon="11.2336249"><ele>534.6666666666666</ele><time>2026-04-04T10:35:04.969Z</time></trkpt><trkpt lat="43.8590336" lon="11.2335444"><ele>528.0</ele><time>2026-04-04T10:35:06.03Z</time></trkpt><trkpt lat="43.8591939" lon="11.2335301"><ele>526.0</ele><time>2026-04-04T10:35:06.968Z</time></trkpt><trkpt lat="43.8593778" lon="11.2335393"><ele>524.0</ele><time>2026-04-04T10:35:07.97Z</time></trkpt><trkpt lat="43.8595665" lon="11.2335662"><ele>522.0</ele><time>2026-04-04T10:35:08.973Z</time></trkpt><trkpt lat="43.8597607" lon="11.2336016"><ele>522.0</ele><time>2026-04-04T10:35:10.027Z</time></trkpt><trkpt lat="43.8599547" lon="11.2336319"><ele>522.0</ele><time>2026-04-04T10:35:11.026Z</time></trkpt><trkpt lat="43.8601441" lon="11.2336719"><ele>522.0</ele><time>2026-04-04T10:35:11.95Z</time></trkpt><trkpt lat="43.8603188" lon="11.233712"><ele>519.0</ele><time>2026-04-04T10:35:12.946Z</time></trkpt><trkpt lat="43.8604978" lon="11.2337573"><ele>516.0</ele><time>2026-04-04T10:35:13.947Z</time></trkpt><trkpt lat="43.8606699" lon="11.2338255"><ele>513.0</ele><time>2026-04-04T10:35:14.956Z</time></trkpt><trkpt lat="43.8608305" lon="11.2339562"><ele>512.6666666666666</ele><time>2026-04-04T10:35:15.951Z</time></trkpt><trkpt lat="43.860992" lon="11.2341382"><ele>512.3333333333333</ele><time>2026-04-04T10:35:16.949Z</time></trkpt><trkpt lat="43.8611264" lon="11.2343353"><ele>512.0</ele><time>2026-04-04T10:35:17.951Z</time></trkpt><trkpt lat="43.8612423" lon="11.2345045"><ele>512.0</ele><time>2026-04-04T10:35:18.966Z</time></trkpt><trkpt lat="43.8613629" lon="11.2346607"><ele>512.0</ele><time>2026-04-04T10:35:19.958Z</time></trkpt><trkpt lat="43.8615011" lon="11.2348019"><ele>512.0</ele><time>2026-04-04T10:35:20.952Z</time></trkpt><trkpt lat="43.8616577" lon="11.2349068"><ele>514.0</ele><time>2026-04-04T10:35:21.943Z</time></trkpt><trkpt lat="43.8618302" lon="11.2349752"><ele>516.0</ele><time>2026-04-04T10:35:22.954Z</time></trkpt><trkpt lat="43.8620245" lon="11.2349945"><ele>518.0</ele><time>2026-04-04T10:35:23.957Z</time></trkpt><trkpt lat="43.8622134" lon="11.2349624"><ele>518.0</ele><time>2026-04-04T10:35:24.954Z</time></trkpt><trkpt lat="43.8624056" lon="11.2349045"><ele>518.0</ele><time>2026-04-04T10:35:25.977Z</time></trkpt><trkpt lat="43.8626045" lon="11.2347982"><ele>518.0</ele><time>2026-04-04T10:35:26.953Z</time></trkpt><trkpt lat="43.8627976" lon="11.2346835"><ele>510.66666666666663</ele><time>2026-04-04T10:35:27.936Z</time></trkpt><trkpt lat="43.862989" lon="11.2345706"><ele>503.33333333333337</ele><time>2026-04-04T10:35:28.957Z</time></trkpt><trkpt lat="43.8631688" lon="11.2344364"><ele>496.0</ele><time>2026-04-04T10:35:29.949Z</time></trkpt><trkpt lat="43.8633463" lon="11.2343016"><ele>498.0</ele><time>2026-04-04T10:35:30.936Z</time></trkpt><trkpt lat="43.8635175" lon="11.234152"><ele>500.0</ele><time>2026-04-04T10:35:31.951Z</time></trkpt><trkpt lat="43.8636718" lon="11.2340146"><ele>502.0</ele><time>2026-04-04T10:35:32.953Z</time></trkpt><trkpt lat="43.8638317" lon="11.2338778"><ele>496.0</ele><time>2026-04-04T10:35:33.944Z</time></trkpt><trkpt lat="43.8639899" lon="11.233753"><ele>490.0</ele><time>2026-04-04T10:35:34.948Z</time></trkpt><trkpt lat="43.8641621" lon="11.2336396"><ele>484.0</ele><time>2026-04-04T10:35:35.955Z</time></trkpt><trkpt lat="43.864346" lon="11.2335559"><ele>484.0</ele><time>2026-04-04T10:35:36.951Z</time></trkpt><trkpt lat="43.8645499" lon="11.2335034"><ele>484.0</ele><time>2026-04-04T10:35:37.955Z</time></trkpt><trkpt lat="43.8647576" lon="11.2334638"><ele>484.0</ele><time>2026-04-04T10:35:38.962Z</time></trkpt><trkpt lat="43.8649638" lon="11.2334342"><ele>484.0</ele><time>2026-04-04T10:35:39.94Z</time></trkpt><trkpt lat="43.8651653" lon="11.2334071"><ele>484.0</ele><time>2026-04-04T10:35:40.955Z</time></trkpt><trkpt lat="43.8653586" lon="11.2333835"><ele>484.0</ele><time>2026-04-04T10:35:41.955Z</time></trkpt><trkpt lat="43.8655431" lon="11.2333542"><ele>484.0</ele><time>2026-04-04T10:35:42.949Z</time></trkpt><trkpt lat="43.8657014" lon="11.233318"><ele>484.0</ele><time>2026-04-04T10:35:43.952Z</time></trkpt><trkpt lat="43.8658281" lon="11.2332901"><ele>484.0</ele><time>2026-04-04T10:35:44.951Z</time></trkpt><trkpt lat="43.8659503" lon="11.2332614"><ele>484.0</ele><time>2026-04-04T10:35:45.964Z</time></trkpt><trkpt lat="43.8660544" lon="11.2332124"><ele>486.33333333333337</ele><time>2026-04-04T10:35:46.958Z</time></trkpt><trkpt lat="43.8661395" lon="11.2331436"><ele>488.6666666666667</ele><time>2026-04-04T10:35:47.951Z</time></trkpt><trkpt lat="43.866211" lon="11.2330715"><ele>491.0</ele><time>2026-04-04T10:35:48.956Z</time></trkpt><trkpt lat="43.8662715" lon="11.2329901"><ele>493.33333333333337</ele><time>2026-04-04T10:35:49.954Z</time></trkpt><trkpt lat="43.8663124" lon="11.2329127"><ele>495.6666666666667</ele><time>2026-04-04T10:35:50.95Z</time></trkpt><trkpt lat="43.8663485" lon="11.2328266"><ele>498.0</ele><time>2026-04-04T10:35:51.951Z</time></trkpt><trkpt lat="43.8663723" lon="11.2327247"><ele>498.0</ele><time>2026-04-04T10:35:52.954Z</time></trkpt><trkpt lat="43.8663982" lon="11.2326188"><ele>498.0</ele><time>2026-04-04T10:35:53.951Z</time></trkpt><trkpt lat="43.8664133" lon="11.2325128"><ele>498.0</ele><time>2026-04-04T10:35:54.947Z</time></trkpt><trkpt lat="43.8664198" lon="11.2323927"><ele>498.0</ele><time>2026-04-04T10:35:55.949Z</time></trkpt><trkpt lat="43.8664095" lon="11.2322679"><ele>498.0</ele><time>2026-04-04T10:35:56.957Z</time></trkpt><trkpt lat="43.8663812" lon="11.2321321"><ele>498.0</ele><time>2026-04-04T10:35:57.953Z</time></trkpt><trkpt lat="43.8663554" lon="11.2319952"><ele>497.79999999999995</ele><time>2026-04-04T10:35:58.942Z</time></trkpt><trkpt lat="43.8663266" lon="11.2318605"><ele>497.59999999999997</ele><time>2026-04-04T10:35:59.949Z</time></trkpt><trkpt lat="43.8663017" lon="11.231731"><ele>497.40000000000003</ele><time>2026-04-04T10:36:00.951Z</time></trkpt><trkpt lat="43.8662773" lon="11.2315983"><ele>497.20000000000005</ele><time>2026-04-04T10:36:01.947Z</time></trkpt><trkpt lat="43.866254" lon="11.2314628"><ele>497.0</ele><time>2026-04-04T10:36:02.934Z</time></trkpt><trkpt lat="43.8662328" lon="11.2313255"><ele>497.0</ele><time>2026-04-04T10:36:03.949Z</time></trkpt><trkpt lat="43.8662293" lon="11.2311838"><ele>497.00000000000006</ele><time>2026-04-04T10:36:04.943Z</time></trkpt><trkpt lat="43.8662332" lon="11.2310466"><ele>497.00000000000006</ele><time>2026-04-04T10:36:05.953Z</time></trkpt><trkpt lat="43.8662418" lon="11.2308929"><ele>497.0</ele><time>2026-04-04T10:36:06.954Z</time></trkpt><trkpt lat="43.8662481" lon="11.230737"><ele>497.0</ele><time>2026-04-04T10:36:07.93Z</time></trkpt><trkpt lat="43.8662487" lon="11.2305816"><ele>496.25</ele><time>2026-04-04T10:36:08.943Z</time></trkpt><trkpt lat="43.8662366" lon="11.2304164"><ele>495.5</ele><time>2026-04-04T10:36:09.943Z</time></trkpt><trkpt lat="43.8662131" lon="11.2302427"><ele>494.75</ele><time>2026-04-04T10:36:10.949Z</time></trkpt><trkpt lat="43.8661818" lon="11.2300652"><ele>494.0</ele><time>2026-04-04T10:36:11.948Z</time></trkpt><trkpt lat="43.8661491" lon="11.2298872"><ele>496.5</ele><time>2026-04-04T10:36:12.95Z</time></trkpt><trkpt lat="43.8661176" lon="11.2297005"><ele>499.0</ele><time>2026-04-04T10:36:13.952Z</time></trkpt><trkpt lat="43.8660767" lon="11.229497"><ele>501.5</ele><time>2026-04-04T10:36:14.951Z</time></trkpt><trkpt lat="43.8660383" lon="11.2292937"><ele>504.0</ele><time>2026-04-04T10:36:15.932Z</time></trkpt><trkpt lat="43.8660057" lon="11.2290972"><ele>507.75</ele><time>2026-04-04T10:36:16.951Z</time></trkpt><trkpt lat="43.8659712" lon="11.228905"><ele>511.5</ele><time>2026-04-04T10:36:17.957Z</time></trkpt><trkpt lat="43.8659417" lon="11.228728"><ele>515.25</ele><time>2026-04-04T10:36:18.944Z</time></trkpt><trkpt lat="43.8659161" lon="11.2285728"><ele>519.0</ele><time>2026-04-04T10:36:19.941Z</time></trkpt><trkpt lat="43.8658992" lon="11.2284562"><ele>509.1666666666667</ele><time>2026-04-04T10:36:20.953Z</time></trkpt><trkpt lat="43.8658772" lon="11.2283631"><ele>499.33333333333337</ele><time>2026-04-04T10:36:21.954Z</time></trkpt><trkpt lat="43.8658588" lon="11.2282756"><ele>489.5</ele><time>2026-04-04T10:36:22.955Z</time></trkpt><trkpt lat="43.8658372" lon="11.2281841"><ele>479.6666666666667</ele><time>2026-04-04T10:36:24.957Z</time></trkpt><trkpt lat="43.8657962" lon="11.2280735"><ele>469.83333333333337</ele><time>2026-04-04T10:36:37.944Z</time></trkpt><trkpt lat="43.8657481" lon="11.2279874"><ele>460.0</ele><time>2026-04-04T10:36:38.961Z</time></trkpt><trkpt lat="43.8657044" lon="11.227874"><ele>460.0</ele><time>2026-04-04T10:36:39.942Z</time></trkpt><trkpt lat="43.8656616" lon="11.2277404"><ele>460.0</ele><time>2026-04-04T10:36:40.955Z</time></trkpt><trkpt lat="43.8656114" lon="11.2275735"><ele>460.0</ele><time>2026-04-04T10:36:41.95Z</time></trkpt><trkpt lat="43.8655549" lon="11.2273996"><ele>460.0</ele><time>2026-04-04T10:36:42.951Z</time></trkpt><trkpt lat="43.8655002" lon="11.2272234"><ele>463.0</ele><time>2026-04-04T10:36:43.949Z</time></trkpt><trkpt lat="43.8654581" lon="11.2270393"><ele>466.0</ele><time>2026-04-04T10:36:44.954Z</time></trkpt><trkpt lat="43.8654082" lon="11.2268453"><ele>469.0</ele><time>2026-04-04T10:36:45.95Z</time></trkpt><trkpt lat="43.8653553" lon="11.2266595"><ele>472.0</ele><time>2026-04-04T10:36:46.952Z</time></trkpt><trkpt lat="43.8653119" lon="11.2264805"><ele>472.25</ele><time>2026-04-04T10:36:47.95Z</time></trkpt><trkpt lat="43.8652669" lon="11.2263016"><ele>472.5</ele><time>2026-04-04T10:36:48.955Z</time></trkpt><trkpt lat="43.8652131" lon="11.2261172"><ele>472.75</ele><time>2026-04-04T10:36:49.943Z</time></trkpt><trkpt lat="43.8651436" lon="11.2259341"><ele>473.0</ele><time>2026-04-04T10:36:50.957Z</time></trkpt><trkpt lat="43.865045" lon="11.2257672"><ele>461.0</ele><time>2026-04-04T10:36:51.954Z</time></trkpt><trkpt lat="43.8649364" lon="11.2255984"><ele>449.0</ele><time>2026-04-04T10:36:52.962Z</time></trkpt><trkpt lat="43.8648117" lon="11.2254437"><ele>437.0</ele><time>2026-04-04T10:36:53.954Z</time></trkpt><trkpt lat="43.8646756" lon="11.2252957"><ele>437.0</ele><time>2026-04-04T10:36:54.946Z</time></trkpt><trkpt lat="43.8645154" lon="11.2251834"><ele>437.0</ele><time>2026-04-04T10:36:55.944Z</time></trkpt><trkpt lat="43.8643512" lon="11.2251"><ele>437.0</ele><time>2026-04-04T10:36:56.939Z</time></trkpt><trkpt lat="43.86418" lon="11.2250265"><ele>431.3333333333333</ele><time>2026-04-04T10:36:57.935Z</time></trkpt><trkpt lat="43.8640219" lon="11.2249649"><ele>425.66666666666663</ele><time>2026-04-04T10:36:58.948Z</time></trkpt><trkpt lat="43.8638653" lon="11.2249004"><ele>420.0</ele><time>2026-04-04T10:36:59.93Z</time></trkpt><trkpt lat="43.8637272" lon="11.2248155"><ele>417.75</ele><time>2026-04-04T10:37:00.946Z</time></trkpt><trkpt lat="43.8636135" lon="11.2247043"><ele>415.5</ele><time>2026-04-04T10:37:01.95Z</time></trkpt><trkpt lat="43.8634964" lon="11.2246048"><ele>413.25</ele><time>2026-04-04T10:37:02.939Z</time></trkpt><trkpt lat="43.8633748" lon="11.2244841"><ele>411.0</ele><time>2026-04-04T10:37:03.947Z</time></trkpt><trkpt lat="43.863261" lon="11.2243561"><ele>410.5</ele><time>2026-04-04T10:37:04.949Z</time></trkpt><trkpt lat="43.8631608" lon="11.2242242"><ele>410.0</ele><time>2026-04-04T10:37:05.951Z</time></trkpt><trkpt lat="43.8630678" lon="11.2240709"><ele>409.5</ele><time>2026-04-04T10:37:06.951Z</time></trkpt><trkpt lat="43.8629972" lon="11.2239082"><ele>409.0</ele><time>2026-04-04T10:37:07.953Z</time></trkpt><trkpt lat="43.8629513" lon="11.2237413"><ele>404.6666666666667</ele><time>2026-04-04T10:37:08.95Z</time></trkpt><trkpt lat="43.8629058" lon="11.2235419"><ele>400.33333333333337</ele><time>2026-04-04T10:37:10.024Z</time></trkpt><trkpt lat="43.8628777" lon="11.2233343"><ele>396.0</ele><time>2026-04-04T10:37:10.953Z</time></trkpt><trkpt lat="43.8628618" lon="11.2231187"><ele>392.0</ele><time>2026-04-04T10:37:11.954Z</time></trkpt><trkpt lat="43.862838" lon="11.2229175"><ele>388.0</ele><time>2026-04-04T10:37:12.946Z</time></trkpt><trkpt lat="43.8628076" lon="11.2227222"><ele>384.0</ele><time>2026-04-04T10:37:14.009Z</time></trkpt><trkpt lat="43.8627658" lon="11.2225304"><ele>380.0</ele><time>2026-04-04T10:37:14.951Z</time></trkpt><trkpt lat="43.8626964" lon="11.2223349"><ele>376.33333333333337</ele><time>2026-04-04T10:37:15.959Z</time></trkpt><trkpt lat="43.8626106" lon="11.2221516"><ele>372.6666666666667</ele><time>2026-04-04T10:37:16.958Z</time></trkpt><trkpt lat="43.8625334" lon="11.221963"><ele>369.0</ele><time>2026-04-04T10:37:17.973Z</time></trkpt><trkpt lat="43.862462" lon="11.2217581"><ele>369.0</ele><time>2026-04-04T10:37:18.95Z</time></trkpt><trkpt lat="43.8624073" lon="11.2215325"><ele>369.0</ele><time>2026-04-04T10:37:20.006Z</time></trkpt><trkpt lat="43.8623655" lon="11.2213034"><ele>369.0</ele><time>2026-04-04T10:37:21.033Z</time></trkpt><trkpt lat="43.8623123" lon="11.2210694"><ele>364.6666666666667</ele><time>2026-04-04T10:37:21.96Z</time></trkpt><trkpt lat="43.8622367" lon="11.2208505"><ele>360.33333333333337</ele><time>2026-04-04T10:37:23.029Z</time></trkpt><trkpt lat="43.862142" lon="11.220641"><ele>356.0</ele><time>2026-04-04T10:37:23.982Z</time></trkpt><trkpt lat="43.8620398" lon="11.2204459"><ele>352.33333333333337</ele><time>2026-04-04T10:37:25.028Z</time></trkpt><trkpt lat="43.8619318" lon="11.2202572"><ele>348.6666666666667</ele><time>2026-04-04T10:37:26.037Z</time></trkpt><trkpt lat="43.8618194" lon="11.2200645"><ele>345.0</ele><time>2026-04-04T10:37:26.957Z</time></trkpt><trkpt lat="43.8617086" lon="11.2198678"><ele>342.3333333333333</ele><time>2026-04-04T10:37:27.947Z</time></trkpt><trkpt lat="43.8616012" lon="11.219676"><ele>339.66666666666663</ele><time>2026-04-04T10:37:28.979Z</time></trkpt><trkpt lat="43.8615063" lon="11.2194855"><ele>337.0</ele><time>2026-04-04T10:37:30.002Z</time></trkpt><trkpt lat="43.8614242" lon="11.2193064"><ele>337.0</ele><time>2026-04-04T10:37:31.017Z</time></trkpt><trkpt lat="43.8613694" lon="11.2191232"><ele>337.0</ele><time>2026-04-04T10:37:31.949Z</time></trkpt><trkpt lat="43.8613416" lon="11.2189339"><ele>337.0</ele><time>2026-04-04T10:37:32.957Z</time></trkpt><trkpt lat="43.861322" lon="11.2187425"><ele>337.0</ele><time>2026-04-04T10:37:33.934Z</time></trkpt><trkpt lat="43.8613027" lon="11.2185622"><ele>335.8</ele><time>2026-04-04T10:37:34.973Z</time></trkpt><trkpt lat="43.8612864" lon="11.2183955"><ele>334.6</ele><time>2026-04-04T10:37:35.97Z</time></trkpt><trkpt lat="43.8612674" lon="11.2182463"><ele>333.40000000000003</ele><time>2026-04-04T10:37:36.956Z</time></trkpt><trkpt lat="43.8612502" lon="11.218097"><ele>332.20000000000005</ele><time>2026-04-04T10:37:38.014Z</time></trkpt><trkpt lat="43.8612327" lon="11.2179547"><ele>331.0</ele><time>2026-04-04T10:37:39.007Z</time></trkpt><trkpt lat="43.8612202" lon="11.2178179"><ele>330.3333333333333</ele><time>2026-04-04T10:37:39.958Z</time></trkpt><trkpt lat="43.8612028" lon="11.2176958"><ele>329.66666666666663</ele><time>2026-04-04T10:37:41.005Z</time></trkpt><trkpt lat="43.8611848" lon="11.2175883"><ele>329.0</ele><time>2026-04-04T10:37:41.941Z</time></trkpt><trkpt lat="43.8611665" lon="11.2174299"><ele>328.3333333333333</ele><time>2026-04-04T10:37:44.022Z</time></trkpt><trkpt lat="43.861248" lon="11.217364"><ele>327.6666666666667</ele><time>2026-04-04T10:37:46.965Z</time></trkpt><trkpt lat="43.8612988" lon="11.2173003"><ele>327.0</ele><time>2026-04-04T10:37:48.949Z</time></trkpt><trkpt lat="43.8612983" lon="11.2171885"><ele>325.5</ele><time>2026-04-04T10:37:50.951Z</time></trkpt><trkpt lat="43.8612915" lon="11.2170393"><ele>324.0</ele><time>2026-04-04T10:37:52.938Z</time></trkpt><trkpt lat="43.861261" lon="11.2168639"><ele>322.5</ele><time>2026-04-04T10:37:54.936Z</time></trkpt><trkpt lat="43.8612319" lon="11.216649"><ele>321.0</ele><time>2026-04-04T10:37:56.94Z</time></trkpt><trkpt lat="43.8612143" lon="11.2165581"><ele>319.40000000000003</ele><time>2026-04-04T10:37:57.949Z</time></trkpt><trkpt lat="43.8611646" lon="11.2164382"><ele>317.8</ele><time>2026-04-04T10:37:59.939Z</time></trkpt><trkpt lat="43.8610696" lon="11.2163829"><ele>316.20000000000005</ele><time>2026-04-04T10:38:01.951Z</time></trkpt><trkpt lat="43.8610178" lon="11.2162514"><ele>314.6</ele><time>2026-04-04T10:38:03.934Z</time></trkpt><trkpt lat="43.8609949" lon="11.2161499"><ele>313.0</ele><time>2026-04-04T10:38:04.932Z</time></trkpt><trkpt lat="43.8609727" lon="11.216044"><ele>313.0</ele><time>2026-04-04T10:38:05.955Z</time></trkpt><trkpt lat="43.8609499" lon="11.2159406"><ele>313.0</ele><time>2026-04-04T10:38:06.962Z</time></trkpt><trkpt lat="43.8609279" lon="11.2158349"><ele>313.0</ele><time>2026-04-04T10:38:07.958Z</time></trkpt><trkpt lat="43.8609092" lon="11.2157366"><ele>313.0</ele><time>2026-04-04T10:38:09.014Z</time></trkpt><trkpt lat="43.8608911" lon="11.2156362"><ele>313.0</ele><time>2026-04-04T10:38:10.007Z</time></trkpt><trkpt lat="43.8608366" lon="11.2154982"><ele>313.0</ele><time>2026-04-04T10:38:11.959Z</time></trkpt><trkpt lat="43.8607922" lon="11.2153586"><ele>315.8</ele><time>2026-04-04T10:38:13.934Z</time></trkpt><trkpt lat="43.8607519" lon="11.2152106"><ele>318.6</ele><time>2026-04-04T10:38:15.951Z</time></trkpt><trkpt lat="43.8607417" lon="11.2150325"><ele>321.40000000000003</ele><time>2026-04-04T10:38:17.935Z</time></trkpt><trkpt lat="43.8607277" lon="11.2149319"><ele>324.20000000000005</ele><time>2026-04-04T10:38:18.959Z</time></trkpt><trkpt lat="43.8607148" lon="11.2148303"><ele>327.0</ele><time>2026-04-04T10:38:19.952Z</time></trkpt><trkpt lat="43.8606927" lon="11.2147253"><ele>327.0</ele><time>2026-04-04T10:38:20.951Z</time></trkpt><trkpt lat="43.8606663" lon="11.2146156"><ele>327.0</ele><time>2026-04-04T10:38:21.952Z</time></trkpt><trkpt lat="43.8606422" lon="11.2145005"><ele>327.0</ele><time>2026-04-04T10:38:22.942Z</time></trkpt><trkpt lat="43.8606214" lon="11.2143923"><ele>327.0</ele><time>2026-04-04T10:38:23.947Z</time></trkpt><trkpt lat="43.8605982" lon="11.2142951"><ele>327.0</ele><time>2026-04-04T10:38:24.954Z</time></trkpt><trkpt lat="43.860557" lon="11.2142124"><ele>327.0</ele><time>2026-04-04T10:38:25.943Z</time></trkpt><trkpt lat="43.860513" lon="11.214131"><ele>327.0</ele><time>2026-04-04T10:38:26.948Z</time></trkpt><trkpt lat="43.8604336" lon="11.214"><ele>327.0</ele><time>2026-04-04T10:38:28.936Z</time></trkpt><trkpt lat="43.8603849" lon="11.2139339"><ele>327.0</ele><time>2026-04-04T10:38:29.969Z</time></trkpt><trkpt lat="43.8602724" lon="11.2138135"><ele>327.0</ele><time>2026-04-04T10:38:31.931Z</time></trkpt><trkpt lat="43.8602075" lon="11.2137722"><ele>327.0</ele><time>2026-04-04T10:38:32.934Z</time></trkpt><trkpt lat="43.8601417" lon="11.2137361"><ele>328.3333333333333</ele><time>2026-04-04T10:38:33.935Z</time></trkpt><trkpt lat="43.8600742" lon="11.2136956"><ele>329.6666666666667</ele><time>2026-04-04T10:38:34.934Z</time></trkpt><trkpt lat="43.8599997" lon="11.2136619"><ele>331.0</ele><time>2026-04-04T10:38:35.931Z</time></trkpt><trkpt lat="43.8599356" lon="11.213634"><ele>332.33333333333337</ele><time>2026-04-04T10:38:36.943Z</time></trkpt><trkpt lat="43.8598781" lon="11.2135919"><ele>333.6666666666667</ele><time>2026-04-04T10:38:37.958Z</time></trkpt><trkpt lat="43.8597963" lon="11.2134713"><ele>335.0</ele><time>2026-04-04T10:38:39.963Z</time></trkpt><trkpt lat="43.8597212" lon="11.2133608"><ele>335.0</ele><time>2026-04-04T10:38:41.966Z</time></trkpt><trkpt lat="43.8596511" lon="11.2132675"><ele>335.0</ele><time>2026-04-04T10:38:43.949Z</time></trkpt><trkpt lat="43.8595616" lon="11.2131724"><ele>335.0</ele><time>2026-04-04T10:38:45.948Z</time></trkpt><trkpt lat="43.8594853" lon="11.2130605"><ele>335.0</ele><time>2026-04-04T10:38:47.935Z</time></trkpt><trkpt lat="43.8594157" lon="11.21295"><ele>335.0</ele><time>2026-04-04T10:38:49.937Z</time></trkpt><trkpt lat="43.8593431" lon="11.2128657"><ele>334.1428571428571</ele><time>2026-04-04T10:38:51.955Z</time></trkpt><trkpt lat="43.8592759" lon="11.2128006"><ele>333.2857142857143</ele><time>2026-04-04T10:38:53.948Z</time></trkpt><trkpt lat="43.8592506" lon="11.212715"><ele>332.42857142857144</ele><time>2026-04-04T10:38:55.96Z</time></trkpt><trkpt lat="43.8592354" lon="11.2126119"><ele>331.57142857142856</ele><time>2026-04-04T10:38:57.955Z</time></trkpt><trkpt lat="43.8591909" lon="11.2125344"><ele>330.7142857142857</ele><time>2026-04-04T10:38:59.966Z</time></trkpt><trkpt lat="43.8591229" lon="11.2124938"><ele>329.85714285714283</ele><time>2026-04-04T10:39:01.955Z</time></trkpt><trkpt lat="43.8590694" lon="11.2124351"><ele>329.0</ele><time>2026-04-04T10:39:03.964Z</time></trkpt><trkpt lat="43.859043" lon="11.2123426"><ele>327.79999999999995</ele><time>2026-04-04T10:39:05.954Z</time></trkpt><trkpt lat="43.8590103" lon="11.2121858"><ele>326.59999999999997</ele><time>2026-04-04T10:39:07.951Z</time></trkpt><trkpt lat="43.8589971" lon="11.2120861"><ele>325.4</ele><time>2026-04-04T10:39:08.975Z</time></trkpt><trkpt lat="43.8589828" lon="11.2119944"><ele>324.2</ele><time>2026-04-04T10:39:09.956Z</time></trkpt><trkpt lat="43.8589421" lon="11.2118454"><ele>323.0</ele><time>2026-04-04T10:39:11.959Z</time></trkpt><trkpt lat="43.8589139" lon="11.2117081"><ele>323.0</ele><time>2026-04-04T10:39:13.958Z</time></trkpt><trkpt lat="43.8589087" lon="11.21156"><ele>323.0</ele><time>2026-04-04T10:39:15.958Z</time></trkpt><trkpt lat="43.8589311" lon="11.2114115"><ele>323.0</ele><time>2026-04-04T10:39:17.956Z</time></trkpt><trkpt lat="43.8589657" lon="11.2113229"><ele>323.0</ele><time>2026-04-04T10:39:19.963Z</time></trkpt><trkpt lat="43.8589854" lon="11.2112246"><ele>323.0</ele><time>2026-04-04T10:39:22.96Z</time></trkpt><trkpt lat="43.8590057" lon="11.2111309"><ele>323.0</ele><time>2026-04-04T10:39:24.957Z</time></trkpt><trkpt lat="43.8590228" lon="11.2110361"><ele>323.0</ele><time>2026-04-04T10:39:26.964Z</time></trkpt><trkpt lat="43.859007" lon="11.2109402"><ele>323.0</ele><time>2026-04-04T10:39:29.964Z</time></trkpt><trkpt lat="43.8589932" lon="11.2108408"><ele>323.0</ele><time>2026-04-04T10:39:32.957Z</time></trkpt><trkpt lat="43.8589696" lon="11.2107196"><ele>323.0</ele><time>2026-04-04T10:39:35.961Z</time></trkpt><trkpt lat="43.8589343" lon="11.2106398"><ele>323.0</ele><time>2026-04-04T10:39:37.94Z</time></trkpt><trkpt lat="43.8588934" lon="11.2105249"><ele>323.0</ele><time>2026-04-04T10:39:40.947Z</time></trkpt><trkpt lat="43.8588903" lon="11.2104146"><ele>323.0</ele><time>2026-04-04T10:39:42.959Z</time></trkpt><trkpt lat="43.8588824" lon="11.2102619"><ele>323.0</ele><time>2026-04-04T10:39:45.017Z</time></trkpt><trkpt lat="43.8588779" lon="11.2101552"><ele>323.0</ele><time>2026-04-04T10:39:46.956Z</time></trkpt><trkpt lat="43.8588687" lon="11.2100581"><ele>323.0</ele><time>2026-04-04T10:39:48.977Z</time></trkpt><trkpt lat="43.8588561" lon="11.2099633"><ele>323.0</ele><time>2026-04-04T10:39:51.931Z</time></trkpt><trkpt lat="43.858876" lon="11.2098492"><ele>323.0</ele><time>2026-04-04T10:39:55.938Z</time></trkpt><trkpt lat="43.8589017" lon="11.2097536"><ele>323.5</ele><time>2026-04-04T10:39:57.957Z</time></trkpt><trkpt lat="43.8589421" lon="11.20965"><ele>324.0</ele><time>2026-04-04T10:39:59.945Z</time></trkpt><trkpt lat="43.858976" lon="11.209564"><ele>324.5</ele><time>2026-04-04T10:40:01.943Z</time></trkpt><trkpt lat="43.8589981" lon="11.2094547"><ele>325.0</ele><time>2026-04-04T10:40:04.954Z</time></trkpt><trkpt lat="43.8590234" lon="11.2093587"><ele>325.5</ele><time>2026-04-04T10:40:06.954Z</time></trkpt><trkpt lat="43.859049" lon="11.2092619"><ele>326.0</ele><time>2026-04-04T10:40:09.012Z</time></trkpt><trkpt lat="43.8590647" lon="11.2091669"><ele>326.0</ele><time>2026-04-04T10:40:10.961Z</time></trkpt><trkpt lat="43.8590762" lon="11.2090516"><ele>326.0</ele><time>2026-04-04T10:40:12.952Z</time></trkpt><trkpt lat="43.8590772" lon="11.2089574"><ele>326.0</ele><time>2026-04-04T10:40:14.963Z</time></trkpt><trkpt lat="43.8590634" lon="11.2088567"><ele>326.0</ele><time>2026-04-04T10:40:17.95Z</time></trkpt><trkpt lat="43.8590514" lon="11.2087644"><ele>326.0</ele><time>2026-04-04T10:40:20.954Z</time></trkpt><trkpt lat="43.8590292" lon="11.2086742"><ele>326.0</ele><time>2026-04-04T10:40:23.951Z</time></trkpt><trkpt lat="43.8590194" lon="11.2085629"><ele>326.0</ele><time>2026-04-04T10:40:27.955Z</time></trkpt><trkpt lat="43.8590011" lon="11.208461"><ele>325.5</ele><time>2026-04-04T10:40:30.958Z</time></trkpt><trkpt lat="43.8589644" lon="11.2083594"><ele>325.0</ele><time>2026-04-04T10:40:33.952Z</time></trkpt><trkpt lat="43.8589377" lon="11.2082703"><ele>324.5</ele><time>2026-04-04T10:40:35.953Z</time></trkpt><trkpt lat="43.8589116" lon="11.2081777"><ele>324.0</ele><time>2026-04-04T10:40:37.957Z</time></trkpt><trkpt lat="43.8588939" lon="11.2080663"><ele>323.5</ele><time>2026-04-04T10:40:39.976Z</time></trkpt><trkpt lat="43.858866" lon="11.2079669"><ele>323.0</ele><time>2026-04-04T10:40:41.972Z</time></trkpt><trkpt lat="43.8588426" lon="11.2078669"><ele>321.33333333333337</ele><time>2026-04-04T10:40:43.982Z</time></trkpt><trkpt lat="43.8588123" lon="11.2077752"><ele>319.6666666666667</ele><time>2026-04-04T10:40:45.969Z</time></trkpt><trkpt lat="43.8587805" lon="11.2076845"><ele>318.0</ele><time>2026-04-04T10:40:48.061Z</time></trkpt><trkpt lat="43.8587618" lon="11.2075896"><ele>316.3333333333333</ele><time>2026-04-04T10:40:50.027Z</time></trkpt><trkpt lat="43.8587492" lon="11.2075001"><ele>314.66666666666663</ele><time>2026-04-04T10:40:51.959Z</time></trkpt><trkpt lat="43.8587347" lon="11.2073784"><ele>313.0</ele><time>2026-04-04T10:40:54.95Z</time></trkpt><trkpt lat="43.8587436" lon="11.2072583"><ele>312.0</ele><time>2026-04-04T10:40:57.957Z</time></trkpt><trkpt lat="43.8587366" lon="11.2071448"><ele>311.0</ele><time>2026-04-04T10:41:00.96Z</time></trkpt><trkpt lat="43.8587123" lon="11.2070183"><ele>310.0</ele><time>2026-04-04T10:41:03.967Z</time></trkpt><trkpt lat="43.8586998" lon="11.2069209"><ele>309.0</ele><time>2026-04-04T10:41:05.955Z</time></trkpt><trkpt lat="43.8586706" lon="11.2068297"><ele>308.0</ele><time>2026-04-04T10:41:07.959Z</time></trkpt><trkpt lat="43.8586422" lon="11.2067355"><ele>307.0</ele><time>2026-04-04T10:41:10.029Z</time></trkpt><trkpt lat="43.8586173" lon="11.2066485"><ele>306.99999999999994</ele><time>2026-04-04T10:41:11.962Z</time></trkpt><trkpt lat="43.8585952" lon="11.2065662"><ele>307.0</ele><time>2026-04-04T10:41:13.956Z</time></trkpt><trkpt lat="43.8585614" lon="11.2064653"><ele>307.0</ele><time>2026-04-04T10:41:16.945Z</time></trkpt><trkpt lat="43.8585358" lon="11.2063735"><ele>307.0</ele><time>2026-04-04T10:41:18.95Z</time></trkpt><trkpt lat="43.8585062" lon="11.2062705"><ele>307.0</ele><time>2026-04-04T10:41:20.936Z</time></trkpt><trkpt lat="43.858458" lon="11.2061914"><ele>306.99999999999994</ele><time>2026-04-04T10:41:22.945Z</time></trkpt><trkpt lat="43.8584043" lon="11.2061155"><ele>307.0</ele><time>2026-04-04T10:41:24.953Z</time></trkpt><trkpt lat="43.8583544" lon="11.2060414"><ele>307.3333333333333</ele><time>2026-04-04T10:41:26.963Z</time></trkpt><trkpt lat="43.8583034" lon="11.2059649"><ele>307.66666666666663</ele><time>2026-04-04T10:41:28.971Z</time></trkpt><trkpt lat="43.8582402" lon="11.2058972"><ele>308.0</ele><time>2026-04-04T10:41:31.962Z</time></trkpt><trkpt lat="43.8581773" lon="11.2058353"><ele>308.3333333333333</ele><time>2026-04-04T10:41:34.966Z</time></trkpt><trkpt lat="43.8581174" lon="11.2057654"><ele>308.6666666666667</ele><time>2026-04-04T10:41:39.962Z</time></trkpt><trkpt lat="43.8580467" lon="11.2056539"><ele>309.0</ele><time>2026-04-04T10:41:45.965Z</time></trkpt><trkpt lat="43.8579877" lon="11.2055722"><ele>309.00000000000006</ele><time>2026-04-04T10:41:49.943Z</time></trkpt><trkpt lat="43.8579408" lon="11.2055044"><ele>309.0</ele><time>2026-04-04T10:41:51.965Z</time></trkpt><trkpt lat="43.8578949" lon="11.2054382"><ele>309.0</ele><time>2026-04-04T10:41:54.034Z</time></trkpt><trkpt lat="43.8578444" lon="11.2053467"><ele>309.0</ele><time>2026-04-04T10:41:56.971Z</time></trkpt><trkpt lat="43.8577915" lon="11.2052682"><ele>309.0</ele><time>2026-04-04T10:41:58.96Z</time></trkpt><trkpt lat="43.8577343" lon="11.2051898"><ele>309.00000000000006</ele><time>2026-04-04T10:42:00.953Z</time></trkpt><trkpt lat="43.8576886" lon="11.205109"><ele>309.0</ele><time>2026-04-04T10:42:01.942Z</time></trkpt><trkpt lat="43.8576237" lon="11.2049866"><ele>309.8</ele><time>2026-04-04T10:42:03.959Z</time></trkpt><trkpt lat="43.8575347" lon="11.2048551"><ele>310.59999999999997</ele><time>2026-04-04T10:42:05.964Z</time></trkpt><trkpt lat="43.8574736" lon="11.2047242"><ele>311.4</ele><time>2026-04-04T10:42:07.965Z</time></trkpt><trkpt lat="43.8574182" lon="11.2046385"><ele>312.2</ele><time>2026-04-04T10:42:09.94Z</time></trkpt><trkpt lat="43.8573844" lon="11.2045642"><ele>313.0</ele><time>2026-04-04T10:42:11.961Z</time></trkpt><trkpt lat="43.8573823" lon="11.2044336"><ele>310.8333333333333</ele><time>2026-04-04T10:42:14.956Z</time></trkpt><trkpt lat="43.8574067" lon="11.2043304"><ele>308.66666666666663</ele><time>2026-04-04T10:42:16.972Z</time></trkpt><trkpt lat="43.857446" lon="11.2041963"><ele>306.5</ele><time>2026-04-04T10:42:19.011Z</time></trkpt><trkpt lat="43.8574846" lon="11.2040599"><ele>304.3333333333333</ele><time>2026-04-04T10:42:20.954Z</time></trkpt><trkpt lat="43.8575009" lon="11.2039606"><ele>302.1666666666667</ele><time>2026-04-04T10:42:22.957Z</time></trkpt><trkpt lat="43.8574916" lon="11.2038477"><ele>300.0</ele><time>2026-04-04T10:42:25.96Z</time></trkpt><trkpt lat="43.8574816" lon="11.2037601"><ele>299.0</ele><time>2026-04-04T10:42:27.963Z</time></trkpt><trkpt lat="43.8574722" lon="11.2036643"><ele>298.0</ele><time>2026-04-04T10:42:29.956Z</time></trkpt><trkpt lat="43.8574499" lon="11.2035672"><ele>297.0</ele><time>2026-04-04T10:42:31.965Z</time></trkpt><trkpt lat="43.8574183" lon="11.2034861"><ele>296.0</ele><time>2026-04-04T10:42:33.961Z</time></trkpt><trkpt lat="43.8573713" lon="11.2033763"><ele>295.0</ele><time>2026-04-04T10:42:36.968Z</time></trkpt><trkpt lat="43.8573271" lon="11.2032695"><ele>294.0</ele><time>2026-04-04T10:42:39.955Z</time></trkpt><trkpt lat="43.8572933" lon="11.2031774"><ele>294.3333333333333</ele><time>2026-04-04T10:42:42.963Z</time></trkpt><trkpt lat="43.8572614" lon="11.203064"><ele>294.6666666666667</ele><time>2026-04-04T10:42:47.962Z</time></trkpt><trkpt lat="43.85725" lon="11.2029472"><ele>295.0</ele><time>2026-04-04T10:42:50.961Z</time></trkpt><trkpt lat="43.857233" lon="11.2028157"><ele>295.33333333333337</ele><time>2026-04-04T10:42:53.969Z</time></trkpt><trkpt lat="43.8572156" lon="11.2027306"><ele>295.6666666666667</ele><time>2026-04-04T10:42:55.961Z</time></trkpt><trkpt lat="43.8572065" lon="11.202611"><ele>296.0</ele><time>2026-04-04T10:42:58.975Z</time></trkpt><trkpt lat="43.8572013" lon="11.2024946"><ele>296.0</ele><time>2026-04-04T10:43:01.033Z</time></trkpt><trkpt lat="43.8571884" lon="11.2023684"><ele>296.0</ele><time>2026-04-04T10:43:02.958Z</time></trkpt><trkpt lat="43.8571884" lon="11.2022496"><ele>296.0</ele><time>2026-04-04T10:43:04.955Z</time></trkpt><trkpt lat="43.8571898" lon="11.2021253"><ele>296.0</ele><time>2026-04-04T10:43:06.958Z</time></trkpt><trkpt lat="43.8571742" lon="11.2020369"><ele>296.0</ele><time>2026-04-04T10:43:08.969Z</time></trkpt><trkpt lat="43.8571582" lon="11.2019052"><ele>296.0</ele><time>2026-04-04T10:43:11.96Z</time></trkpt><trkpt lat="43.8571618" lon="11.2017868"><ele>296.40000000000003</ele><time>2026-04-04T10:43:13.962Z</time></trkpt><trkpt lat="43.8571638" lon="11.2016518"><ele>296.8</ele><time>2026-04-04T10:43:15.959Z</time></trkpt><trkpt lat="43.857145" lon="11.2015138"><ele>297.20000000000005</ele><time>2026-04-04T10:43:17.966Z</time></trkpt><trkpt lat="43.8570802" lon="11.2013847"><ele>297.6</ele><time>2026-04-04T10:43:19.958Z</time></trkpt><trkpt lat="43.8570349" lon="11.2012914"><ele>298.0</ele><time>2026-04-04T10:43:21.03Z</time></trkpt><trkpt lat="43.8569715" lon="11.201147"><ele>298.16666666666663</ele><time>2026-04-04T10:43:22.976Z</time></trkpt><trkpt lat="43.8569205" lon="11.2010129"><ele>298.3333333333333</ele><time>2026-04-04T10:43:24.969Z</time></trkpt><trkpt lat="43.8568798" lon="11.2009142"><ele>298.5</ele><time>2026-04-04T10:43:25.976Z</time></trkpt><trkpt lat="43.8568432" lon="11.2008337"><ele>298.6666666666667</ele><time>2026-04-04T10:43:26.976Z</time></trkpt><trkpt lat="43.8568133" lon="11.200749"><ele>298.83333333333337</ele><time>2026-04-04T10:43:28.031Z</time></trkpt><trkpt lat="43.8567797" lon="11.2006559"><ele>299.0</ele><time>2026-04-04T10:43:28.971Z</time></trkpt><trkpt lat="43.8567513" lon="11.2005741"><ele>303.4</ele><time>2026-04-04T10:43:29.995Z</time></trkpt><trkpt lat="43.8567056" lon="11.2004285"><ele>307.79999999999995</ele><time>2026-04-04T10:43:31.979Z</time></trkpt><trkpt lat="43.8566923" lon="11.2003107"><ele>312.20000000000005</ele><time>2026-04-04T10:43:33.966Z</time></trkpt><trkpt lat="43.8566952" lon="11.2001875"><ele>316.6</ele><time>2026-04-04T10:43:35.962Z</time></trkpt><trkpt lat="43.8567031" lon="11.200071"><ele>321.0</ele><time>2026-04-04T10:43:37.966Z</time></trkpt><trkpt lat="43.8567219" lon="11.1999683"><ele>320.0</ele><time>2026-04-04T10:43:39.954Z</time></trkpt><trkpt lat="43.8567417" lon="11.1998245"><ele>319.0</ele><time>2026-04-04T10:43:41.973Z</time></trkpt><trkpt lat="43.8567419" lon="11.1996708"><ele>318.0</ele><time>2026-04-04T10:43:44.03Z</time></trkpt><trkpt lat="43.8567492" lon="11.1995234"><ele>317.0</ele><time>2026-04-04T10:43:46.032Z</time></trkpt><trkpt lat="43.8567478" lon="11.1993858"><ele>316.0</ele><time>2026-04-04T10:43:47.961Z</time></trkpt><trkpt lat="43.8567486" lon="11.1992541"><ele>316.0</ele><time>2026-04-04T10:43:49.964Z</time></trkpt><trkpt lat="43.8567545" lon="11.1991354"><ele>316.0</ele><time>2026-04-04T10:43:51.976Z</time></trkpt><trkpt lat="43.8567732" lon="11.1990296"><ele>316.0</ele><time>2026-04-04T10:43:53.974Z</time></trkpt><trkpt lat="43.8567821" lon="11.1989031"><ele>316.0</ele><time>2026-04-04T10:43:55.96Z</time></trkpt><trkpt lat="43.8567861" lon="11.1987764"><ele>316.0</ele><time>2026-04-04T10:43:57.981Z</time></trkpt><trkpt lat="43.856781" lon="11.1986075"><ele>315.16666666666663</ele><time>2026-04-04T10:43:59.97Z</time></trkpt><trkpt lat="43.8567863" lon="11.1985161"><ele>314.3333333333333</ele><time>2026-04-04T10:44:00.974Z</time></trkpt><trkpt lat="43.856777" lon="11.1984276"><ele>313.5</ele><time>2026-04-04T10:44:02.004Z</time></trkpt><trkpt lat="43.8567748" lon="11.1983402"><ele>312.6666666666667</ele><time>2026-04-04T10:44:02.97Z</time></trkpt><trkpt lat="43.8567778" lon="11.1982317"><ele>311.83333333333337</ele><time>2026-04-04T10:44:04.023Z</time></trkpt><trkpt lat="43.8567782" lon="11.1981421"><ele>311.0</ele><time>2026-04-04T10:44:05.032Z</time></trkpt><trkpt lat="43.8567863" lon="11.1979769"><ele>310.6</ele><time>2026-04-04T10:44:06.984Z</time></trkpt><trkpt lat="43.8567989" lon="11.1978212"><ele>310.20000000000005</ele><time>2026-04-04T10:44:08.991Z</time></trkpt><trkpt lat="43.8568123" lon="11.1977336"><ele>309.79999999999995</ele><time>2026-04-04T10:44:09.985Z</time></trkpt><trkpt lat="43.8568067" lon="11.1975694"><ele>309.4</ele><time>2026-04-04T10:44:11.98Z</time></trkpt><trkpt lat="43.8567789" lon="11.1974053"><ele>309.0</ele><time>2026-04-04T10:44:13.974Z</time></trkpt><trkpt lat="43.8567504" lon="11.1973165"><ele>308.6666666666667</ele><time>2026-04-04T10:44:14.972Z</time></trkpt><trkpt lat="43.8567143" lon="11.197227"><ele>308.3333333333333</ele><time>2026-04-04T10:44:15.976Z</time></trkpt><trkpt lat="43.8566749" lon="11.1971395"><ele>308.0</ele><time>2026-04-04T10:44:16.97Z</time></trkpt><trkpt lat="43.8566366" lon="11.1970462"><ele>307.66666666666663</ele><time>2026-04-04T10:44:18.044Z</time></trkpt><trkpt lat="43.8565981" lon="11.1969628"><ele>307.3333333333333</ele><time>2026-04-04T10:44:19.013Z</time></trkpt><trkpt lat="43.8565528" lon="11.1968788"><ele>307.0</ele><time>2026-04-04T10:44:20.034Z</time></trkpt><trkpt lat="43.8564996" lon="11.1967858"><ele>307.0</ele><time>2026-04-04T10:44:20.962Z</time></trkpt><trkpt lat="43.8564463" lon="11.1966913"><ele>307.0</ele><time>2026-04-04T10:44:21.962Z</time></trkpt><trkpt lat="43.8563927" lon="11.1966175"><ele>307.0</ele><time>2026-04-04T10:44:22.961Z</time></trkpt><trkpt lat="43.8563364" lon="11.1965445"><ele>307.0</ele><time>2026-04-04T10:44:23.941Z</time></trkpt><trkpt lat="43.8562784" lon="11.1964749"><ele>307.0</ele><time>2026-04-04T10:44:24.965Z</time></trkpt><trkpt lat="43.8562227" lon="11.196413"><ele>307.0</ele><time>2026-04-04T10:44:26.03Z</time></trkpt><trkpt lat="43.856161" lon="11.1963578"><ele>306.3333333333333</ele><time>2026-04-04T10:44:26.977Z</time></trkpt><trkpt lat="43.8560966" lon="11.1963179"><ele>305.66666666666663</ele><time>2026-04-04T10:44:27.97Z</time></trkpt><trkpt lat="43.8560246" lon="11.1962916"><ele>305.0</ele><time>2026-04-04T10:44:28.98Z</time></trkpt><trkpt lat="43.8559573" lon="11.1962828"><ele>304.3333333333333</ele><time>2026-04-04T10:44:29.965Z</time></trkpt><trkpt lat="43.855881" lon="11.1962921"><ele>303.6666666666667</ele><time>2026-04-04T10:44:30.963Z</time></trkpt><trkpt lat="43.8558152" lon="11.1962793"><ele>303.0</ele><time>2026-04-04T10:44:31.969Z</time></trkpt><trkpt lat="43.8556967" lon="11.1962975"><ele>303.0</ele><time>2026-04-04T10:44:33.964Z</time></trkpt><trkpt lat="43.8555817" lon="11.1962852"><ele>303.0</ele><time>2026-04-04T10:44:35.97Z</time></trkpt><trkpt lat="43.8554958" lon="11.1962308"><ele>303.0</ele><time>2026-04-04T10:44:36.964Z</time></trkpt><trkpt lat="43.8554068" lon="11.1961764"><ele>303.0</ele><time>2026-04-04T10:44:37.964Z</time></trkpt><trkpt lat="43.8553029" lon="11.1961083"><ele>303.0</ele><time>2026-04-04T10:44:38.96Z</time></trkpt><trkpt lat="43.8552005" lon="11.196038"><ele>302.0</ele><time>2026-04-04T10:44:39.962Z</time></trkpt><trkpt lat="43.8551081" lon="11.1959672"><ele>301.0</ele><time>2026-04-04T10:44:40.967Z</time></trkpt><trkpt lat="43.8550197" lon="11.1958923"><ele>300.0</ele><time>2026-04-04T10:44:41.952Z</time></trkpt><trkpt lat="43.8549386" lon="11.1958135"><ele>299.0</ele><time>2026-04-04T10:44:42.969Z</time></trkpt><trkpt lat="43.8548527" lon="11.1957239"><ele>298.0</ele><time>2026-04-04T10:44:43.966Z</time></trkpt><trkpt lat="43.8547568" lon="11.1956427"><ele>295.25</ele><time>2026-04-04T10:44:44.96Z</time></trkpt><trkpt lat="43.8546552" lon="11.1955694"><ele>292.5</ele><time>2026-04-04T10:44:45.964Z</time></trkpt><trkpt lat="43.8545429" lon="11.1955251"><ele>289.75</ele><time>2026-04-04T10:44:46.951Z</time></trkpt><trkpt lat="43.8544328" lon="11.1954764"><ele>287.0</ele><time>2026-04-04T10:44:47.963Z</time></trkpt><trkpt lat="43.8543279" lon="11.1954356"><ele>285.25</ele><time>2026-04-04T10:44:48.966Z</time></trkpt><trkpt lat="43.8542128" lon="11.1953904"><ele>283.5</ele><time>2026-04-04T10:44:49.96Z</time></trkpt><trkpt lat="43.8540956" lon="11.1953277"><ele>281.75</ele><time>2026-04-04T10:44:50.968Z</time></trkpt><trkpt lat="43.8539827" lon="11.1952423"><ele>280.0</ele><time>2026-04-04T10:44:51.964Z</time></trkpt><trkpt lat="43.8538778" lon="11.1951726"><ele>280.0</ele><time>2026-04-04T10:44:52.974Z</time></trkpt><trkpt lat="43.8537849" lon="11.1951128"><ele>280.0</ele><time>2026-04-04T10:44:53.972Z</time></trkpt><trkpt lat="43.8536975" lon="11.1950674"><ele>280.0</ele><time>2026-04-04T10:44:54.958Z</time></trkpt><trkpt lat="43.8536053" lon="11.1950383"><ele>280.0</ele><time>2026-04-04T10:44:55.946Z</time></trkpt><trkpt lat="43.8534971" lon="11.1950087"><ele>280.0</ele><time>2026-04-04T10:44:56.957Z</time></trkpt><trkpt lat="43.853396" lon="11.1949913"><ele>278.16666666666663</ele><time>2026-04-04T10:44:57.965Z</time></trkpt><trkpt lat="43.8532872" lon="11.1949803"><ele>276.3333333333333</ele><time>2026-04-04T10:44:58.963Z</time></trkpt><trkpt lat="43.8531959" lon="11.1949767"><ele>274.5</ele><time>2026-04-04T10:44:59.967Z</time></trkpt><trkpt lat="43.8531045" lon="11.194979"><ele>272.6666666666667</ele><time>2026-04-04T10:45:00.97Z</time></trkpt><trkpt lat="43.8530367" lon="11.1949364"><ele>270.83333333333337</ele><time>2026-04-04T10:45:01.961Z</time></trkpt><trkpt lat="43.8529769" lon="11.1948832"><ele>269.0</ele><time>2026-04-04T10:45:02.967Z</time></trkpt><trkpt lat="43.8529202" lon="11.1948269"><ele>268.1666666666667</ele><time>2026-04-04T10:45:03.972Z</time></trkpt><trkpt lat="43.852847" lon="11.1947657"><ele>267.33333333333337</ele><time>2026-04-04T10:45:04.957Z</time></trkpt><trkpt lat="43.8527617" lon="11.1947364"><ele>266.5</ele><time>2026-04-04T10:45:05.977Z</time></trkpt><trkpt lat="43.8526842" lon="11.1946893"><ele>265.6666666666667</ele><time>2026-04-04T10:45:06.974Z</time></trkpt><trkpt lat="43.8526213" lon="11.1946079"><ele>264.8333333333333</ele><time>2026-04-04T10:45:07.965Z</time></trkpt><trkpt lat="43.8525704" lon="11.1945307"><ele>264.0</ele><time>2026-04-04T10:45:08.968Z</time></trkpt><trkpt lat="43.8524865" lon="11.1944956"><ele>259.25</ele><time>2026-04-04T10:45:09.956Z</time></trkpt><trkpt lat="43.8523894" lon="11.1944849"><ele>254.5</ele><time>2026-04-04T10:45:10.969Z</time></trkpt><trkpt lat="43.8522792" lon="11.194473"><ele>249.75</ele><time>2026-04-04T10:45:11.946Z</time></trkpt><trkpt lat="43.8521562" lon="11.1944374"><ele>245.0</ele><time>2026-04-04T10:45:12.961Z</time></trkpt><trkpt lat="43.8520311" lon="11.1943765"><ele>245.0</ele><time>2026-04-04T10:45:13.968Z</time></trkpt><trkpt lat="43.8519178" lon="11.1942955"><ele>245.0</ele><time>2026-04-04T10:45:14.964Z</time></trkpt><trkpt lat="43.8518013" lon="11.1942262"><ele>245.0</ele><time>2026-04-04T10:45:15.963Z</time></trkpt><trkpt lat="43.8516967" lon="11.1941669"><ele>245.0</ele><time>2026-04-04T10:45:16.954Z</time></trkpt><trkpt lat="43.8515962" lon="11.1941059"><ele>243.66666666666669</ele><time>2026-04-04T10:45:17.96Z</time></trkpt><trkpt lat="43.8515015" lon="11.1940497"><ele>242.33333333333334</ele><time>2026-04-04T10:45:18.961Z</time></trkpt><trkpt lat="43.8514074" lon="11.1940166"><ele>241.0</ele><time>2026-04-04T10:45:19.962Z</time></trkpt><trkpt lat="43.8513224" lon="11.193983"><ele>239.66666666666669</ele><time>2026-04-04T10:45:20.969Z</time></trkpt><trkpt lat="43.8512579" lon="11.1939423"><ele>238.33333333333334</ele><time>2026-04-04T10:45:21.959Z</time></trkpt><trkpt lat="43.8512095" lon="11.1938737"><ele>237.0</ele><time>2026-04-04T10:45:22.953Z</time></trkpt><trkpt lat="43.8511596" lon="11.1937946"><ele>235.6</ele><time>2026-04-04T10:45:23.967Z</time></trkpt><trkpt lat="43.8510992" lon="11.1936897"><ele>234.2</ele><time>2026-04-04T10:45:24.963Z</time></trkpt><trkpt lat="43.8510369" lon="11.1935768"><ele>232.8</ele><time>2026-04-04T10:45:25.97Z</time></trkpt><trkpt lat="43.8509779" lon="11.1934726"><ele>231.4</ele><time>2026-04-04T10:45:26.969Z</time></trkpt><trkpt lat="43.8509095" lon="11.1933762"><ele>230.0</ele><time>2026-04-04T10:45:27.966Z</time></trkpt><trkpt lat="43.8508609" lon="11.1932687"><ele>228.8</ele><time>2026-04-04T10:45:28.977Z</time></trkpt><trkpt lat="43.8508075" lon="11.1931587"><ele>227.6</ele><time>2026-04-04T10:45:29.943Z</time></trkpt><trkpt lat="43.8507474" lon="11.1930545"><ele>226.39999999999998</ele><time>2026-04-04T10:45:30.968Z</time></trkpt><trkpt lat="43.850683" lon="11.1929531"><ele>225.2</ele><time>2026-04-04T10:45:31.968Z</time></trkpt><trkpt lat="43.850612" lon="11.1928472"><ele>224.0</ele><time>2026-04-04T10:45:32.963Z</time></trkpt><trkpt lat="43.8505487" lon="11.1927405"><ele>224.0</ele><time>2026-04-04T10:45:33.966Z</time></trkpt><trkpt lat="43.8504871" lon="11.1926374"><ele>223.99999999999997</ele><time>2026-04-04T10:45:34.974Z</time></trkpt><trkpt lat="43.8504279" lon="11.19253"><ele>223.99999999999997</ele><time>2026-04-04T10:45:35.967Z</time></trkpt><trkpt lat="43.8503748" lon="11.1924035"><ele>224.0</ele><time>2026-04-04T10:45:36.963Z</time></trkpt><trkpt lat="43.8503215" lon="11.1922631"><ele>224.0</ele><time>2026-04-04T10:45:37.967Z</time></trkpt><trkpt lat="43.8502759" lon="11.1921229"><ele>223.0</ele><time>2026-04-04T10:45:38.969Z</time></trkpt><trkpt lat="43.8502272" lon="11.1920042"><ele>221.99999999999997</ele><time>2026-04-04T10:45:39.966Z</time></trkpt><trkpt lat="43.8501559" lon="11.1919136"><ele>220.99999999999997</ele><time>2026-04-04T10:45:40.971Z</time></trkpt><trkpt lat="43.8500696" lon="11.1918638"><ele>220.0</ele><time>2026-04-04T10:45:41.965Z</time></trkpt><trkpt lat="43.8499788" lon="11.1918273"><ele>219.0</ele><time>2026-04-04T10:45:42.962Z</time></trkpt><trkpt lat="43.849885" lon="11.1917873"><ele>219.0</ele><time>2026-04-04T10:45:43.968Z</time></trkpt><trkpt lat="43.8497781" lon="11.1917494"><ele>218.99999999999997</ele><time>2026-04-04T10:45:44.965Z</time></trkpt><trkpt lat="43.849674" lon="11.191711"><ele>218.99999999999997</ele><time>2026-04-04T10:45:45.961Z</time></trkpt><trkpt lat="43.8495733" lon="11.1916493"><ele>219.0</ele><time>2026-04-04T10:45:46.955Z</time></trkpt><trkpt lat="43.8494673" lon="11.1915866"><ele>219.0</ele><time>2026-04-04T10:45:47.951Z</time></trkpt><trkpt lat="43.8493574" lon="11.191522"><ele>214.25</ele><time>2026-04-04T10:45:48.964Z</time></trkpt><trkpt lat="43.8492412" lon="11.1914492"><ele>209.5</ele><time>2026-04-04T10:45:49.958Z</time></trkpt><trkpt lat="43.8491316" lon="11.191376"><ele>204.75</ele><time>2026-04-04T10:45:50.964Z</time></trkpt><trkpt lat="43.8490183" lon="11.1913103"><ele>200.0</ele><time>2026-04-04T10:45:51.963Z</time></trkpt><trkpt lat="43.8489026" lon="11.1912424"><ele>200.0</ele><time>2026-04-04T10:45:52.968Z</time></trkpt><trkpt lat="43.8487934" lon="11.1911815"><ele>200.0</ele><time>2026-04-04T10:45:53.97Z</time></trkpt><trkpt lat="43.848691" lon="11.191135"><ele>200.0</ele><time>2026-04-04T10:45:54.961Z</time></trkpt><trkpt lat="43.8485972" lon="11.1910938"><ele>200.0</ele><time>2026-04-04T10:45:55.971Z</time></trkpt><trkpt lat="43.8485177" lon="11.1910616"><ele>200.0</ele><time>2026-04-04T10:45:56.96Z</time></trkpt><trkpt lat="43.8484084" lon="11.1910257"><ele>198.4</ele><time>2026-04-04T10:45:58.964Z</time></trkpt><trkpt lat="43.8483773" lon="11.1908989"><ele>196.8</ele><time>2026-04-04T10:46:01.973Z</time></trkpt><trkpt lat="43.8484045" lon="11.1907437"><ele>195.2</ele><time>2026-04-04T10:46:03.973Z</time></trkpt><trkpt lat="43.848423" lon="11.1906525"><ele>193.6</ele><time>2026-04-04T10:46:04.963Z</time></trkpt><trkpt lat="43.8484406" lon="11.1904719"><ele>192.0</ele><time>2026-04-04T10:46:06.966Z</time></trkpt><trkpt lat="43.848463" lon="11.1903733"><ele>192.0</ele><time>2026-04-04T10:46:07.962Z</time></trkpt><trkpt lat="43.8484821" lon="11.1902677"><ele>192.0</ele><time>2026-04-04T10:46:08.965Z</time></trkpt><trkpt lat="43.8485017" lon="11.1901711"><ele>192.0</ele><time>2026-04-04T10:46:09.964Z</time></trkpt><trkpt lat="43.8485333" lon="11.1900713"><ele>192.0</ele><time>2026-04-04T10:46:10.964Z</time></trkpt><trkpt lat="43.8485684" lon="11.1899659"><ele>192.0</ele><time>2026-04-04T10:46:11.96Z</time></trkpt><trkpt lat="43.8486105" lon="11.1898634"><ele>192.0</ele><time>2026-04-04T10:46:12.972Z</time></trkpt><trkpt lat="43.8486555" lon="11.1897573"><ele>188.39999999999998</ele><time>2026-04-04T10:46:13.973Z</time></trkpt><trkpt lat="43.8487144" lon="11.189642"><ele>184.79999999999998</ele><time>2026-04-04T10:46:14.965Z</time></trkpt><trkpt lat="43.8487827" lon="11.1895213"><ele>181.2</ele><time>2026-04-04T10:46:15.965Z</time></trkpt><trkpt lat="43.848856" lon="11.1894034"><ele>177.6</ele><time>2026-04-04T10:46:16.969Z</time></trkpt><trkpt lat="43.8489278" lon="11.189283"><ele>174.0</ele><time>2026-04-04T10:46:17.967Z</time></trkpt><trkpt lat="43.8490087" lon="11.1891631"><ele>174.0</ele><time>2026-04-04T10:46:18.96Z</time></trkpt><trkpt lat="43.8490782" lon="11.1890394"><ele>174.0</ele><time>2026-04-04T10:46:19.959Z</time></trkpt><trkpt lat="43.8491543" lon="11.1889177"><ele>174.0</ele><time>2026-04-04T10:46:20.969Z</time></trkpt><trkpt lat="43.8492243" lon="11.1887987"><ele>174.0</ele><time>2026-04-04T10:46:21.962Z</time></trkpt><trkpt lat="43.8493004" lon="11.1886818"><ele>171.79999999999998</ele><time>2026-04-04T10:46:22.966Z</time></trkpt><trkpt lat="43.8493854" lon="11.1885767"><ele>169.6</ele><time>2026-04-04T10:46:23.961Z</time></trkpt><trkpt lat="43.8494765" lon="11.1884902"><ele>167.4</ele><time>2026-04-04T10:46:24.965Z</time></trkpt><trkpt lat="43.8495674" lon="11.1884128"><ele>165.2</ele><time>2026-04-04T10:46:25.963Z</time></trkpt><trkpt lat="43.8496502" lon="11.1883366"><ele>163.0</ele><time>2026-04-04T10:46:26.962Z</time></trkpt><trkpt lat="43.8497262" lon="11.1882783"><ele>163.0</ele><time>2026-04-04T10:46:27.998Z</time></trkpt><trkpt lat="43.8498014" lon="11.1882172"><ele>163.0</ele><time>2026-04-04T10:46:29.964Z</time></trkpt><trkpt lat="43.8497876" lon="11.1881163"><ele>163.0</ele><time>2026-04-04T10:46:31.969Z</time></trkpt><trkpt lat="43.8497508" lon="11.1880436"><ele>163.0</ele><time>2026-04-04T10:46:32.971Z</time></trkpt><trkpt lat="43.8496371" lon="11.1879211"><ele>163.0</ele><time>2026-04-04T10:46:34.967Z</time></trkpt><trkpt lat="43.8495455" lon="11.1878256"><ele>159.0</ele><time>2026-04-04T10:46:35.961Z</time></trkpt><trkpt lat="43.8494418" lon="11.1877418"><ele>155.0</ele><time>2026-04-04T10:46:36.969Z</time></trkpt><trkpt lat="43.8493496" lon="11.1876707"><ele>151.0</ele><time>2026-04-04T10:46:37.966Z</time></trkpt><trkpt lat="43.8492758" lon="11.1876255"><ele>147.0</ele><time>2026-04-04T10:46:38.958Z</time></trkpt><trkpt lat="43.8492154" lon="11.1875898"><ele>143.0</ele><time>2026-04-04T10:46:39.941Z</time></trkpt><trkpt lat="43.8491437" lon="11.1875814"><ele>139.0</ele><time>2026-04-04T10:46:40.963Z</time></trkpt><trkpt lat="43.8490783" lon="11.1875834"><ele>139.0</ele><time>2026-04-04T10:46:41.97Z</time></trkpt><trkpt lat="43.8490149" lon="11.1875797"><ele>139.0</ele><time>2026-04-04T10:46:42.941Z</time></trkpt><trkpt lat="43.8489301" lon="11.1875019"><ele>139.0</ele><time>2026-04-04T10:46:44.953Z</time></trkpt><trkpt lat="43.8489643" lon="11.1873542"><ele>139.0</ele><time>2026-04-04T10:46:46.937Z</time></trkpt><trkpt lat="43.8490056" lon="11.1872471"><ele>139.0</ele><time>2026-04-04T10:46:47.952Z</time></trkpt><trkpt lat="43.8490574" lon="11.1871391"><ele>134.5</ele><time>2026-04-04T10:46:48.942Z</time></trkpt><trkpt lat="43.8491125" lon="11.1870393"><ele>130.0</ele><time>2026-04-04T10:46:49.963Z</time></trkpt><trkpt lat="43.8492007" lon="11.1869356"><ele>125.5</ele><time>2026-04-04T10:46:50.954Z</time></trkpt><trkpt lat="43.8493065" lon="11.186844"><ele>121.0</ele><time>2026-04-04T10:46:51.963Z</time></trkpt><trkpt lat="43.8494122" lon="11.1867593"><ele>121.0</ele><time>2026-04-04T10:46:52.974Z</time></trkpt><trkpt lat="43.8495295" lon="11.1866793"><ele>121.0</ele><time>2026-04-04T10:46:53.951Z</time></trkpt><trkpt lat="43.849656" lon="11.1865996"><ele>121.0</ele><time>2026-04-04T10:46:54.957Z</time></trkpt><trkpt lat="43.8497834" lon="11.1865337"><ele>121.0</ele><time>2026-04-04T10:46:55.966Z</time></trkpt><trkpt lat="43.8498989" lon="11.1864807"><ele>116.75</ele><time>2026-04-04T10:46:56.968Z</time></trkpt><trkpt lat="43.8499929" lon="11.1864544"><ele>112.5</ele><time>2026-04-04T10:46:57.947Z</time></trkpt><trkpt lat="43.8500977" lon="11.1864908"><ele>108.25</ele><time>2026-04-04T10:46:58.941Z</time></trkpt><trkpt lat="43.85022" lon="11.186577"><ele>104.0</ele><time>2026-04-04T10:46:59.957Z</time></trkpt><trkpt lat="43.8503336" lon="11.1866921"><ele>104.0</ele><time>2026-04-04T10:47:00.967Z</time></trkpt><trkpt lat="43.8504481" lon="11.1867973"><ele>104.0</ele><time>2026-04-04T10:47:01.952Z</time></trkpt><trkpt lat="43.8505649" lon="11.1869112"><ele>104.0</ele><time>2026-04-04T10:47:02.963Z</time></trkpt><trkpt lat="43.8506957" lon="11.1870378"><ele>104.0</ele><time>2026-04-04T10:47:03.965Z</time></trkpt><trkpt lat="43.8508343" lon="11.1871662"><ele>102.33333333333333</ele><time>2026-04-04T10:47:04.962Z</time></trkpt><trkpt lat="43.8509701" lon="11.1872906"><ele>100.66666666666666</ele><time>2026-04-04T10:47:05.938Z</time></trkpt><trkpt lat="43.8510984" lon="11.1874119"><ele>99.0</ele><time>2026-04-04T10:47:06.969Z</time></trkpt><trkpt lat="43.8512277" lon="11.1875382"><ele>99.0</ele><time>2026-04-04T10:47:07.946Z</time></trkpt><trkpt lat="43.8513507" lon="11.1876639"><ele>99.0</ele><time>2026-04-04T10:47:08.945Z</time></trkpt><trkpt lat="43.8514512" lon="11.1877868"><ele>99.0</ele><time>2026-04-04T10:47:09.961Z</time></trkpt><trkpt lat="43.8515491" lon="11.187867"><ele>99.0</ele><time>2026-04-04T10:47:10.942Z</time></trkpt><trkpt lat="43.8516235" lon="11.1879059"><ele>99.0</ele><time>2026-04-04T10:47:11.944Z</time></trkpt><trkpt lat="43.8517445" lon="11.1878581"><ele>99.0</ele><time>2026-04-04T10:47:13.939Z</time></trkpt><trkpt lat="43.8517542" lon="11.1877141"><ele>99.0</ele><time>2026-04-04T10:47:15.959Z</time></trkpt><trkpt lat="43.8516846" lon="11.1876155"><ele>99.0</ele><time>2026-04-04T10:47:16.955Z</time></trkpt><trkpt lat="43.8516231" lon="11.1875082"><ele>99.0</ele><time>2026-04-04T10:47:17.953Z</time></trkpt><trkpt lat="43.8515563" lon="11.1873919"><ele>97.5</ele><time>2026-04-04T10:47:18.96Z</time></trkpt><trkpt lat="43.8514884" lon="11.1872603"><ele>96.0</ele><time>2026-04-04T10:47:19.951Z</time></trkpt><trkpt lat="43.8514149" lon="11.1871247"><ele>94.5</ele><time>2026-04-04T10:47:20.952Z</time></trkpt><trkpt lat="43.8513416" lon="11.1869756"><ele>93.0</ele><time>2026-04-04T10:47:21.952Z</time></trkpt><trkpt lat="43.8512678" lon="11.1868176"><ele>93.0</ele><time>2026-04-04T10:47:22.941Z</time></trkpt><trkpt lat="43.8511927" lon="11.1866507"><ele>93.0</ele><time>2026-04-04T10:47:23.959Z</time></trkpt><trkpt lat="43.8511113" lon="11.1864768"><ele>93.0</ele><time>2026-04-04T10:47:24.949Z</time></trkpt><trkpt lat="43.8510285" lon="11.1863058"><ele>93.0</ele><time>2026-04-04T10:47:25.953Z</time></trkpt><trkpt lat="43.8509541" lon="11.1861396"><ele>91.75</ele><time>2026-04-04T10:47:26.955Z</time></trkpt><trkpt lat="43.8508848" lon="11.1859841"><ele>90.5</ele><time>2026-04-04T10:47:27.953Z</time></trkpt><trkpt lat="43.8508176" lon="11.1858398"><ele>89.25</ele><time>2026-04-04T10:47:28.953Z</time></trkpt><trkpt lat="43.8507488" lon="11.1856928"><ele>88.0</ele><time>2026-04-04T10:47:29.959Z</time></trkpt><trkpt lat="43.8506813" lon="11.185552"><ele>85.25</ele><time>2026-04-04T10:47:30.952Z</time></trkpt><trkpt lat="43.8506105" lon="11.1854251"><ele>82.5</ele><time>2026-04-04T10:47:31.954Z</time></trkpt><trkpt lat="43.8505368" lon="11.1852992"><ele>79.75</ele><time>2026-04-04T10:47:32.953Z</time></trkpt><trkpt lat="43.8504574" lon="11.1851867"><ele>77.0</ele><time>2026-04-04T10:47:33.959Z</time></trkpt><trkpt lat="43.8503776" lon="11.1850733"><ele>77.0</ele><time>2026-04-04T10:47:34.967Z</time></trkpt><trkpt lat="43.8503001" lon="11.1849742"><ele>77.0</ele><time>2026-04-04T10:47:35.954Z</time></trkpt><trkpt lat="43.8502218" lon="11.1848709"><ele>77.0</ele><time>2026-04-04T10:47:36.953Z</time></trkpt><trkpt lat="43.8501444" lon="11.1847699"><ele>77.0</ele><time>2026-04-04T10:47:37.942Z</time></trkpt><trkpt lat="43.8500671" lon="11.184673"><ele>77.0</ele><time>2026-04-04T10:47:38.946Z</time></trkpt><trkpt lat="43.8499191" lon="11.184491"><ele>76.0</ele><time>2026-04-04T10:47:40.944Z</time></trkpt><trkpt lat="43.849847" lon="11.184405"><ele>75.0</ele><time>2026-04-04T10:47:41.944Z</time></trkpt><trkpt lat="43.8497766" lon="11.1843169"><ele>74.0</ele><time>2026-04-04T10:47:42.953Z</time></trkpt><trkpt lat="43.8497066" lon="11.1842288"><ele>73.0</ele><time>2026-04-04T10:47:43.95Z</time></trkpt><trkpt lat="43.8496342" lon="11.1841346"><ele>72.0</ele><time>2026-04-04T10:47:44.959Z</time></trkpt><trkpt lat="43.8495668" lon="11.1840409"><ele>71.16666666666667</ele><time>2026-04-04T10:47:45.966Z</time></trkpt><trkpt lat="43.8494989" lon="11.1839431"><ele>70.33333333333333</ele><time>2026-04-04T10:47:46.963Z</time></trkpt><trkpt lat="43.8494281" lon="11.1838516"><ele>69.5</ele><time>2026-04-04T10:47:47.993Z</time></trkpt><trkpt lat="43.8493609" lon="11.1837665"><ele>68.66666666666666</ele><time>2026-04-04T10:47:48.964Z</time></trkpt><trkpt lat="43.8492995" lon="11.1836881"><ele>67.83333333333333</ele><time>2026-04-04T10:47:49.958Z</time></trkpt><trkpt lat="43.8492518" lon="11.1836215"><ele>67.0</ele><time>2026-04-04T10:47:50.965Z</time></trkpt><trkpt lat="43.849205" lon="11.1835525"><ele>66.33333333333333</ele><time>2026-04-04T10:47:51.958Z</time></trkpt><trkpt lat="43.849155" lon="11.1834829"><ele>65.66666666666666</ele><time>2026-04-04T10:47:52.946Z</time></trkpt><trkpt lat="43.8490816" lon="11.1833697"><ele>65.0</ele><time>2026-04-04T10:47:54.989Z</time></trkpt><trkpt lat="43.8490718" lon="11.1832632"><ele>64.33333333333333</ele><time>2026-04-04T10:47:56.944Z</time></trkpt><trkpt lat="43.8491506" lon="11.1831618"><ele>63.666666666666664</ele><time>2026-04-04T10:47:58.969Z</time></trkpt><trkpt lat="43.8492174" lon="11.1831102"><ele>63.0</ele><time>2026-04-04T10:47:59.955Z</time></trkpt><trkpt lat="43.8492877" lon="11.1830444"><ele>63.2</ele><time>2026-04-04T10:48:00.967Z</time></trkpt><trkpt lat="43.8493681" lon="11.1829853"><ele>63.4</ele><time>2026-04-04T10:48:01.946Z</time></trkpt><trkpt lat="43.849451" lon="11.1829149"><ele>63.60000000000001</ele><time>2026-04-04T10:48:02.962Z</time></trkpt><trkpt lat="43.8495361" lon="11.1828439"><ele>63.800000000000004</ele><time>2026-04-04T10:48:03.958Z</time></trkpt><trkpt lat="43.8496131" lon="11.1827644"><ele>64.0</ele><time>2026-04-04T10:48:04.96Z</time></trkpt><trkpt lat="43.84967" lon="11.1826942"><ele>63.99999999999999</ele><time>2026-04-04T10:48:05.964Z</time></trkpt><trkpt lat="43.8497278" lon="11.1826391"><ele>64.0</ele><time>2026-04-04T10:48:06.967Z</time></trkpt><trkpt lat="43.8497793" lon="11.1825833"><ele>64.0</ele><time>2026-04-04T10:48:07.969Z</time></trkpt><trkpt lat="43.8498368" lon="11.1824817"><ele>64.0</ele><time>2026-04-04T10:48:09.96Z</time></trkpt><trkpt lat="43.8497865" lon="11.1823295"><ele>63.99999999999999</ele><time>2026-04-04T10:48:11.966Z</time></trkpt><trkpt lat="43.8497494" lon="11.1822513"><ele>64.0</ele><time>2026-04-04T10:48:12.958Z</time></trkpt><trkpt lat="43.8497053" lon="11.1821765"><ele>63.6</ele><time>2026-04-04T10:48:13.96Z</time></trkpt><trkpt lat="43.8496475" lon="11.1820986"><ele>63.2</ele><time>2026-04-04T10:48:14.968Z</time></trkpt><trkpt lat="43.849573" lon="11.182018"><ele>62.800000000000004</ele><time>2026-04-04T10:48:15.961Z</time></trkpt><trkpt lat="43.8494879" lon="11.1819316"><ele>62.400000000000006</ele><time>2026-04-04T10:48:16.967Z</time></trkpt><trkpt lat="43.8493998" lon="11.1818664"><ele>62.0</ele><time>2026-04-04T10:48:17.96Z</time></trkpt><trkpt lat="43.8493185" lon="11.1818026"><ele>61.2</ele><time>2026-04-04T10:48:18.969Z</time></trkpt><trkpt lat="43.8492473" lon="11.1817457"><ele>60.400000000000006</ele><time>2026-04-04T10:48:19.961Z</time></trkpt><trkpt lat="43.8491918" lon="11.1816915"><ele>59.599999999999994</ele><time>2026-04-04T10:48:20.964Z</time></trkpt><trkpt lat="43.8491155" lon="11.181622"><ele>58.8</ele><time>2026-04-04T10:48:22.964Z</time></trkpt><trkpt lat="43.8490541" lon="11.1815353"><ele>58.0</ele><time>2026-04-04T10:48:24.967Z</time></trkpt><trkpt lat="43.8491269" lon="11.1813979"><ele>57.8</ele><time>2026-04-04T10:48:26.958Z</time></trkpt><trkpt lat="43.8491826" lon="11.1813286"><ele>57.599999999999994</ele><time>2026-04-04T10:48:27.975Z</time></trkpt><trkpt lat="43.8492439" lon="11.1812433"><ele>57.400000000000006</ele><time>2026-04-04T10:48:28.965Z</time></trkpt><trkpt lat="43.8493052" lon="11.1811473"><ele>57.2</ele><time>2026-04-04T10:48:29.968Z</time></trkpt><trkpt lat="43.8493641" lon="11.1810253"><ele>57.0</ele><time>2026-04-04T10:48:30.972Z</time></trkpt><trkpt lat="43.8494288" lon="11.1808962"><ele>57.25</ele><time>2026-04-04T10:48:31.964Z</time></trkpt><trkpt lat="43.8494937" lon="11.1807708"><ele>57.5</ele><time>2026-04-04T10:48:32.962Z</time></trkpt><trkpt lat="43.8495591" lon="11.180642"><ele>57.75</ele><time>2026-04-04T10:48:33.968Z</time></trkpt><trkpt lat="43.849635" lon="11.1805113"><ele>58.0</ele><time>2026-04-04T10:48:34.967Z</time></trkpt><trkpt lat="43.849709" lon="11.1803833"><ele>58.0</ele><time>2026-04-04T10:48:35.967Z</time></trkpt><trkpt lat="43.8497877" lon="11.1802536"><ele>58.0</ele><time>2026-04-04T10:48:36.963Z</time></trkpt><trkpt lat="43.8498624" lon="11.18012"><ele>58.0</ele><time>2026-04-04T10:48:37.969Z</time></trkpt><trkpt lat="43.8499266" lon="11.1800007"><ele>58.0</ele><time>2026-04-04T10:48:38.974Z</time></trkpt><trkpt lat="43.8499835" lon="11.1798967"><ele>58.0</ele><time>2026-04-04T10:48:39.963Z</time></trkpt><trkpt lat="43.8500459" lon="11.179807"><ele>57.8</ele><time>2026-04-04T10:48:40.95Z</time></trkpt><trkpt lat="43.8501146" lon="11.1797334"><ele>57.599999999999994</ele><time>2026-04-04T10:48:41.966Z</time></trkpt><trkpt lat="43.8502064" lon="11.1797033"><ele>57.400000000000006</ele><time>2026-04-04T10:48:42.96Z</time></trkpt><trkpt lat="43.8503143" lon="11.179691"><ele>57.2</ele><time>2026-04-04T10:48:43.959Z</time></trkpt><trkpt lat="43.8504293" lon="11.1796637"><ele>57.0</ele><time>2026-04-04T10:48:44.975Z</time></trkpt><trkpt lat="43.8505454" lon="11.1796508"><ele>58.0</ele><time>2026-04-04T10:48:45.962Z</time></trkpt><trkpt lat="43.8506682" lon="11.1796363"><ele>59.0</ele><time>2026-04-04T10:48:46.97Z</time></trkpt><trkpt lat="43.8507968" lon="11.1796218"><ele>60.0</ele><time>2026-04-04T10:48:47.972Z</time></trkpt><trkpt lat="43.8509256" lon="11.1796026"><ele>61.0</ele><time>2026-04-04T10:48:48.967Z</time></trkpt><trkpt lat="43.851054" lon="11.1795868"><ele>62.0</ele><time>2026-04-04T10:48:49.967Z</time></trkpt><trkpt lat="43.8511827" lon="11.1795778"><ele>63.0</ele><time>2026-04-04T10:48:50.964Z</time></trkpt><trkpt lat="43.8513106" lon="11.1795665"><ele>64.0</ele><time>2026-04-04T10:48:51.963Z</time></trkpt><trkpt lat="43.8514404" lon="11.1795503"><ele>65.0</ele><time>2026-04-04T10:48:52.96Z</time></trkpt><trkpt lat="43.8515698" lon="11.1795389"><ele>65.0</ele><time>2026-04-04T10:48:53.967Z</time></trkpt><trkpt lat="43.8517013" lon="11.1795244"><ele>65.0</ele><time>2026-04-04T10:48:54.962Z</time></trkpt><trkpt lat="43.8518311" lon="11.1795115"><ele>65.0</ele><time>2026-04-04T10:48:55.98Z</time></trkpt><trkpt lat="43.8519632" lon="11.1794937"><ele>65.0</ele><time>2026-04-04T10:48:56.967Z</time></trkpt><trkpt lat="43.8521071" lon="11.1794726"><ele>65.5</ele><time>2026-04-04T10:48:57.968Z</time></trkpt><trkpt lat="43.8522551" lon="11.179464"><ele>66.0</ele><time>2026-04-04T10:48:58.964Z</time></trkpt><trkpt lat="43.8524044" lon="11.1794487"><ele>66.5</ele><time>2026-04-04T10:48:59.963Z</time></trkpt><trkpt lat="43.8525475" lon="11.1794322"><ele>67.0</ele><time>2026-04-04T10:49:00.965Z</time></trkpt><trkpt lat="43.8526944" lon="11.1794208"><ele>67.66666666666666</ele><time>2026-04-04T10:49:01.968Z</time></trkpt><trkpt lat="43.8528421" lon="11.1794071"><ele>68.33333333333333</ele><time>2026-04-04T10:49:02.964Z</time></trkpt><trkpt lat="43.8529967" lon="11.1793862"><ele>69.0</ele><time>2026-04-04T10:49:03.968Z</time></trkpt><trkpt lat="43.8531546" lon="11.1793698"><ele>69.0</ele><time>2026-04-04T10:49:04.96Z</time></trkpt><trkpt lat="43.853313" lon="11.1793525"><ele>69.0</ele><time>2026-04-04T10:49:05.967Z</time></trkpt><trkpt lat="43.8534627" lon="11.17934"><ele>69.0</ele><time>2026-04-04T10:49:06.968Z</time></trkpt><trkpt lat="43.8536014" lon="11.179323"><ele>69.0</ele><time>2026-04-04T10:49:07.965Z</time></trkpt><trkpt lat="43.8537275" lon="11.1793016"><ele>69.8</ele><time>2026-04-04T10:49:08.963Z</time></trkpt><trkpt lat="43.8538489" lon="11.1792894"><ele>70.60000000000001</ele><time>2026-04-04T10:49:09.966Z</time></trkpt><trkpt lat="43.8539528" lon="11.1792707"><ele>71.4</ele><time>2026-04-04T10:49:10.958Z</time></trkpt><trkpt lat="43.8540556" lon="11.1792563"><ele>72.2</ele><time>2026-04-04T10:49:11.958Z</time></trkpt><trkpt lat="43.8541538" lon="11.1792391"><ele>73.0</ele><time>2026-04-04T10:49:12.968Z</time></trkpt><trkpt lat="43.8542482" lon="11.1792214"><ele>73.0</ele><time>2026-04-04T10:49:13.969Z</time></trkpt><trkpt lat="43.854338" lon="11.1792124"><ele>73.0</ele><time>2026-04-04T10:49:14.96Z</time></trkpt><trkpt lat="43.854431" lon="11.1792009"><ele>73.0</ele><time>2026-04-04T10:49:15.968Z</time></trkpt><trkpt lat="43.8545158" lon="11.1791977"><ele>73.0</ele><time>2026-04-04T10:49:16.974Z</time></trkpt><trkpt lat="43.8546064" lon="11.1791898"><ele>73.0</ele><time>2026-04-04T10:49:17.974Z</time></trkpt><trkpt lat="43.8547073" lon="11.1791914"><ele>73.0</ele><time>2026-04-04T10:49:18.967Z</time></trkpt><trkpt lat="43.8548045" lon="11.1792087"><ele>73.0</ele><time>2026-04-04T10:49:19.957Z</time></trkpt><trkpt lat="43.8549128" lon="11.1792353"><ele>73.0</ele><time>2026-04-04T10:49:20.972Z</time></trkpt><trkpt lat="43.855037" lon="11.1792546"><ele>73.0</ele><time>2026-04-04T10:49:21.974Z</time></trkpt><trkpt lat="43.8551655" lon="11.1792468"><ele>73.25</ele><time>2026-04-04T10:49:22.975Z</time></trkpt><trkpt lat="43.8552989" lon="11.1792277"><ele>73.5</ele><time>2026-04-04T10:49:23.951Z</time></trkpt><trkpt lat="43.8554392" lon="11.1791983"><ele>73.75</ele><time>2026-04-04T10:49:24.966Z</time></trkpt><trkpt lat="43.8555793" lon="11.1791613"><ele>74.0</ele><time>2026-04-04T10:49:25.963Z</time></trkpt><trkpt lat="43.8557165" lon="11.1791061"><ele>74.0</ele><time>2026-04-04T10:49:26.966Z</time></trkpt><trkpt lat="43.8558498" lon="11.1790519"><ele>74.0</ele><time>2026-04-04T10:49:27.961Z</time></trkpt><trkpt lat="43.8559866" lon="11.1790086"><ele>74.0</ele><time>2026-04-04T10:49:28.966Z</time></trkpt><trkpt lat="43.8561308" lon="11.1789816"><ele>74.0</ele><time>2026-04-04T10:49:29.974Z</time></trkpt><trkpt lat="43.8562768" lon="11.1789386"><ele>74.0</ele><time>2026-04-04T10:49:30.983Z</time></trkpt><trkpt lat="43.8564114" lon="11.1788934"><ele>74.0</ele><time>2026-04-04T10:49:31.965Z</time></trkpt><trkpt lat="43.8565444" lon="11.1788423"><ele>74.0</ele><time>2026-04-04T10:49:32.972Z</time></trkpt><trkpt lat="43.8566702" lon="11.1787975"><ele>74.0</ele><time>2026-04-04T10:49:33.963Z</time></trkpt><trkpt lat="43.8567832" lon="11.1787675"><ele>74.4</ele><time>2026-04-04T10:49:34.966Z</time></trkpt><trkpt lat="43.8568847" lon="11.1787354"><ele>74.80000000000001</ele><time>2026-04-04T10:49:35.963Z</time></trkpt><trkpt lat="43.8569679" lon="11.1787169"><ele>75.19999999999999</ele><time>2026-04-04T10:49:36.969Z</time></trkpt><trkpt lat="43.8570531" lon="11.1787804"><ele>75.6</ele><time>2026-04-04T10:49:38.975Z</time></trkpt><trkpt lat="43.8570529" lon="11.1788992"><ele>76.0</ele><time>2026-04-04T10:49:40.973Z</time></trkpt><trkpt lat="43.8569712" lon="11.1789204"><ele>76.0</ele><time>2026-04-04T10:49:42.966Z</time></trkpt><trkpt lat="43.8568769" lon="11.1789084"><ele>76.0</ele><time>2026-04-04T10:49:44.967Z</time></trkpt><trkpt lat="43.8568211" lon="11.1789649"><ele>76.0</ele><time>2026-04-04T10:56:20.96Z</time></trkpt><trkpt lat="43.8567575" lon="11.1789557"><ele>76.0</ele><time>2026-04-04T10:59:13.957Z</time></trkpt><trkpt lat="43.8568254" lon="11.178993"><ele>76.0</ele><time>2026-04-04T11:01:28.955Z</time></trkpt><trkpt lat="43.8569062" lon="11.1789604"><ele>76.0</ele><time>2026-04-04T11:01:31.957Z</time></trkpt><trkpt lat="43.856974" lon="11.1789122"><ele>76.0</ele><time>2026-04-04T11:01:37.956Z</time></trkpt><trkpt lat="43.8570234" lon="11.1788155"><ele>76.0</ele><time>2026-04-04T11:01:40.955Z</time></trkpt><trkpt lat="43.857056" lon="11.1787174"><ele>76.0</ele><time>2026-04-04T11:01:43.964Z</time></trkpt><trkpt lat="43.8570385" lon="11.1786301"><ele>76.0</ele><time>2026-04-04T11:01:45.956Z</time></trkpt><trkpt lat="43.856946" lon="11.1785832"><ele>76.0</ele><time>2026-04-04T11:01:47.952Z</time></trkpt><trkpt lat="43.8568708" lon="11.1786126"><ele>76.0</ele><time>2026-04-04T11:01:48.958Z</time></trkpt><trkpt lat="43.8567978" lon="11.1786399"><ele>75.5</ele><time>2026-04-04T11:01:49.962Z</time></trkpt><trkpt lat="43.8566963" lon="11.1786723"><ele>75.0</ele><time>2026-04-04T11:01:50.961Z</time></trkpt><trkpt lat="43.8565899" lon="11.178709"><ele>74.5</ele><time>2026-04-04T11:01:51.956Z</time></trkpt><trkpt lat="43.8564793" lon="11.1787584"><ele>74.0</ele><time>2026-04-04T11:01:52.972Z</time></trkpt><trkpt lat="43.8563657" lon="11.1788101"><ele>74.0</ele><time>2026-04-04T11:01:53.96Z</time></trkpt><trkpt lat="43.8562506" lon="11.1788498"><ele>74.0</ele><time>2026-04-04T11:01:54.954Z</time></trkpt><trkpt lat="43.8561403" lon="11.1788938"><ele>74.0</ele><time>2026-04-04T11:01:55.955Z</time></trkpt><trkpt lat="43.856037" lon="11.1789327"><ele>74.0</ele><time>2026-04-04T11:01:56.954Z</time></trkpt><trkpt lat="43.8559382" lon="11.1789604"><ele>74.0</ele><time>2026-04-04T11:01:57.96Z</time></trkpt><trkpt lat="43.8558434" lon="11.1789823"><ele>74.0</ele><time>2026-04-04T11:01:58.952Z</time></trkpt><trkpt lat="43.8557549" lon="11.1789977"><ele>74.0</ele><time>2026-04-04T11:01:59.947Z</time></trkpt><trkpt lat="43.8555574" lon="11.1789797"><ele>74.0</ele><time>2026-04-04T11:02:01.931Z</time></trkpt><trkpt lat="43.8554413" lon="11.1789687"><ele>74.0</ele><time>2026-04-04T11:02:02.951Z</time></trkpt><trkpt lat="43.855318" lon="11.1789816"><ele>74.0</ele><time>2026-04-04T11:02:03.954Z</time></trkpt><trkpt lat="43.8551907" lon="11.1790052"><ele>74.0</ele><time>2026-04-04T11:02:04.941Z</time></trkpt><trkpt lat="43.855078" lon="11.1790224"><ele>74.0</ele><time>2026-04-04T11:02:05.951Z</time></trkpt><trkpt lat="43.8549873" lon="11.1790455"><ele>74.0</ele><time>2026-04-04T11:02:06.974Z</time></trkpt><trkpt lat="43.8549242" lon="11.1790699"><ele>74.0</ele><time>2026-04-04T11:02:07.971Z</time></trkpt><trkpt lat="43.8548587" lon="11.1792156"><ele>73.83333333333334</ele><time>2026-04-04T11:02:09.959Z</time></trkpt><trkpt lat="43.8548369" lon="11.179324"><ele>73.66666666666667</ele><time>2026-04-04T11:02:10.952Z</time></trkpt><trkpt lat="43.8548152" lon="11.1794261"><ele>73.5</ele><time>2026-04-04T11:02:11.961Z</time></trkpt><trkpt lat="43.8547595" lon="11.1794992"><ele>73.33333333333333</ele><time>2026-04-04T11:02:12.946Z</time></trkpt><trkpt lat="43.8546706" lon="11.1795468"><ele>73.16666666666666</ele><time>2026-04-04T11:02:13.95Z</time></trkpt><trkpt lat="43.854573" lon="11.1795666"><ele>73.0</ele><time>2026-04-04T11:02:14.934Z</time></trkpt><trkpt lat="43.854475" lon="11.1795994"><ele>73.0</ele><time>2026-04-04T11:02:15.938Z</time></trkpt><trkpt lat="43.8543735" lon="11.179651"><ele>73.0</ele><time>2026-04-04T11:02:16.945Z</time></trkpt><trkpt lat="43.8542756" lon="11.1797255"><ele>73.0</ele><time>2026-04-04T11:02:17.954Z</time></trkpt><trkpt lat="43.8541884" lon="11.1798306"><ele>73.0</ele><time>2026-04-04T11:02:18.954Z</time></trkpt><trkpt lat="43.8540965" lon="11.1799263"><ele>75.0</ele><time>2026-04-04T11:02:19.947Z</time></trkpt><trkpt lat="43.8540148" lon="11.1800213"><ele>77.0</ele><time>2026-04-04T11:02:20.954Z</time></trkpt><trkpt lat="43.8539418" lon="11.1801042"><ele>79.0</ele><time>2026-04-04T11:02:21.954Z</time></trkpt><trkpt lat="43.8538812" lon="11.1801653"><ele>81.0</ele><time>2026-04-04T11:02:22.964Z</time></trkpt><trkpt lat="43.853821" lon="11.1802413"><ele>83.0</ele><time>2026-04-04T11:02:23.952Z</time></trkpt><trkpt lat="43.8537693" lon="11.180351"><ele>83.0</ele><time>2026-04-04T11:02:24.941Z</time></trkpt><trkpt lat="43.8537133" lon="11.1804522"><ele>83.0</ele><time>2026-04-04T11:02:25.948Z</time></trkpt><trkpt lat="43.8536568" lon="11.1805442"><ele>83.0</ele><time>2026-04-04T11:02:26.95Z</time></trkpt><trkpt lat="43.8535968" lon="11.1806448"><ele>83.0</ele><time>2026-04-04T11:02:27.949Z</time></trkpt><trkpt lat="43.853538" lon="11.1807455"><ele>83.0</ele><time>2026-04-04T11:02:28.95Z</time></trkpt><trkpt lat="43.8534773" lon="11.1808529"><ele>83.80000000000001</ele><time>2026-04-04T11:02:29.95Z</time></trkpt><trkpt lat="43.8534201" lon="11.1809614"><ele>84.6</ele><time>2026-04-04T11:02:30.95Z</time></trkpt><trkpt lat="43.8533665" lon="11.1810703"><ele>85.4</ele><time>2026-04-04T11:02:31.959Z</time></trkpt><trkpt lat="43.8533183" lon="11.1811777"><ele>86.19999999999999</ele><time>2026-04-04T11:02:32.946Z</time></trkpt><trkpt lat="43.8532671" lon="11.1812788"><ele>87.0</ele><time>2026-04-04T11:02:33.941Z</time></trkpt><trkpt lat="43.8532141" lon="11.1813748"><ele>87.0</ele><time>2026-04-04T11:02:34.957Z</time></trkpt><trkpt lat="43.8531516" lon="11.1814717"><ele>87.0</ele><time>2026-04-04T11:02:35.96Z</time></trkpt><trkpt lat="43.8530859" lon="11.1815612"><ele>87.0</ele><time>2026-04-04T11:02:36.958Z</time></trkpt><trkpt lat="43.8530229" lon="11.1816524"><ele>87.0</ele><time>2026-04-04T11:02:37.958Z</time></trkpt><trkpt lat="43.852972" lon="11.1817488"><ele>87.0</ele><time>2026-04-04T11:02:38.956Z</time></trkpt><trkpt lat="43.8529366" lon="11.1818408"><ele>87.0</ele><time>2026-04-04T11:02:39.957Z</time></trkpt><trkpt lat="43.8528832" lon="11.1819729"><ele>86.8</ele><time>2026-04-04T11:02:41.953Z</time></trkpt><trkpt lat="43.8528121" lon="11.1820229"><ele>86.6</ele><time>2026-04-04T11:02:43.952Z</time></trkpt><trkpt lat="43.8527193" lon="11.1820877"><ele>86.39999999999999</ele><time>2026-04-04T11:02:45.956Z</time></trkpt><trkpt lat="43.8526132" lon="11.1821524"><ele>86.19999999999999</ele><time>2026-04-04T11:02:47.941Z</time></trkpt><trkpt lat="43.8525153" lon="11.1822268"><ele>86.0</ele><time>2026-04-04T11:02:49.935Z</time></trkpt><trkpt lat="43.8524448" lon="11.1822829"><ele>86.0</ele><time>2026-04-04T11:02:51.955Z</time></trkpt><trkpt lat="43.8523731" lon="11.1823342"><ele>86.0</ele><time>2026-04-04T11:02:53.948Z</time></trkpt><trkpt lat="43.852308" lon="11.1823937"><ele>86.0</ele><time>2026-04-04T11:02:55.933Z</time></trkpt><trkpt lat="43.8522477" lon="11.1824258"><ele>86.0</ele><time>2026-04-04T11:02:57.936Z</time></trkpt><trkpt lat="43.852155" lon="11.1823052"><ele>86.0</ele><time>2026-04-04T11:02:59.952Z</time></trkpt><trkpt lat="43.8520998" lon="11.1822237"><ele>86.0</ele><time>2026-04-04T11:03:00.954Z</time></trkpt><trkpt lat="43.8520489" lon="11.1821399"><ele>86.0</ele><time>2026-04-04T11:03:01.943Z</time></trkpt><trkpt lat="43.8519964" lon="11.1820483"><ele>86.0</ele><time>2026-04-04T11:03:02.959Z</time></trkpt><trkpt lat="43.8519394" lon="11.1819772"><ele>86.0</ele><time>2026-04-04T11:03:03.94Z</time></trkpt><trkpt lat="43.8518696" lon="11.1819535"><ele>86.0</ele><time>2026-04-04T11:03:04.954Z</time></trkpt><trkpt lat="43.851761" lon="11.1820648"><ele>86.0</ele><time>2026-04-04T11:03:06.952Z</time></trkpt><trkpt lat="43.8517272" lon="11.1821674"><ele>86.0</ele><time>2026-04-04T11:03:07.955Z</time></trkpt><trkpt lat="43.8517078" lon="11.1822859"><ele>85.19999999999999</ele><time>2026-04-04T11:03:08.951Z</time></trkpt><trkpt lat="43.8516836" lon="11.1823821"><ele>84.39999999999999</ele><time>2026-04-04T11:03:09.947Z</time></trkpt><trkpt lat="43.8516203" lon="11.1824949"><ele>83.6</ele><time>2026-04-04T11:03:11.941Z</time></trkpt><trkpt lat="43.8515245" lon="11.1824416"><ele>82.8</ele><time>2026-04-04T11:03:13.955Z</time></trkpt><trkpt lat="43.8514848" lon="11.1823198"><ele>82.0</ele><time>2026-04-04T11:03:15.936Z</time></trkpt><trkpt lat="43.8514792" lon="11.1821836"><ele>81.33333333333333</ele><time>2026-04-04T11:03:17.933Z</time></trkpt><trkpt lat="43.8515048" lon="11.1820275"><ele>80.66666666666666</ele><time>2026-04-04T11:03:19.953Z</time></trkpt><trkpt lat="43.8515227" lon="11.1819404"><ele>80.0</ele><time>2026-04-04T11:03:22.031Z</time></trkpt><trkpt lat="43.8515885" lon="11.1818837"><ele>79.33333333333333</ele><time>2026-04-04T11:04:22.964Z</time></trkpt><trkpt lat="43.8515819" lon="11.1817729"><ele>78.66666666666667</ele><time>2026-04-04T11:05:39.948Z</time></trkpt><trkpt lat="43.8515542" lon="11.1818548"><ele>78.0</ele><time>2026-04-04T11:08:31.946Z</time></trkpt><trkpt lat="43.8515506" lon="11.1819756"><ele>78.0</ele><time>2026-04-04T11:30:17.935Z</time></trkpt><trkpt lat="43.8515296" lon="11.1820788"><ele>78.0</ele><time>2026-04-04T11:30:19.93Z</time></trkpt></trkseg></trk></gpx>